<?xml version="1.0" encoding="UTF-8"?>
<gpx version="1.1" creator="https://www.youtrack.es" xsi:schemaLocation="http://www.topografix.com/GPX/1/1 http://www.topografix.com/GPX/1/1/gpx.xsd http://www.garmin.com/xmlschemas/GpxExtensions/v3 http://www.garmin.com/xmlschemas/GpxExtensionsv3.xsd http://www.garmin.com/xmlschemas/TrackPointExtension/v1 http://www.garmin.com/xmlschemas/TrackPointExtensionv1.xsd" xmlns:gpxtpx="http://www.garmin.com/xmlschemas/TrackPointExtension/v1" xmlns:gpxx="http://www.garmin.com/xmlschemas/GpxExtensions/v3" xmlns:xsi="http://www.w3.org/2001/XMLSchema-instance">
  <metadata>
    <link href="https://www.youtrack.es">
      <text>YouTrack.es</text>
    </link>
    <time>2026-05-10T19:02:47Z</time>
  </metadata>
  <trk>
    <src>https://www.youtrack.es</src>
    <link href="https://www.youtrack.es/ruta/17027-robledondo-cascada-del-hornillo-abantos-robledondo">
      <text>YouTrack.es</text>
    </link>
    <trkseg>
      <trkpt lat="40.57241439819336" lon="-4.203611850738525">
        <ele>1408.360107421875</ele>
        <time>2020-11-02T08:54:24Z</time>
      </trkpt>
      <trkpt lat="40.57244110107422" lon="-4.203609943389893">
        <ele>1408.360107421875</ele>
        <time>2020-11-02T08:54:25Z</time>
      </trkpt>
      <trkpt lat="40.572444915771484" lon="-4.203609466552734">
        <ele>1408.360107421875</ele>
        <time>2020-11-02T08:54:26Z</time>
      </trkpt>
      <trkpt lat="40.57245635986328" lon="-4.203606128692627">
        <ele>1408.360107421875</ele>
        <time>2020-11-02T08:54:27Z</time>
      </trkpt>
      <trkpt lat="40.57247543334961" lon="-4.203601837158203">
        <ele>1408.360107421875</ele>
        <time>2020-11-02T08:54:28Z</time>
      </trkpt>
      <trkpt lat="40.57249450683594" lon="-4.203595161437988">
        <ele>1408.360107421875</ele>
        <time>2020-11-02T08:54:29Z</time>
      </trkpt>
      <trkpt lat="40.57251739501953" lon="-4.203588485717773">
        <ele>1408.360107421875</ele>
        <time>2020-11-02T08:54:30Z</time>
      </trkpt>
      <trkpt lat="40.572540283203125" lon="-4.203580856323242">
        <ele>1407.1783447265625</ele>
        <time>2020-11-02T08:54:31Z</time>
      </trkpt>
      <trkpt lat="40.572593688964844" lon="-4.2035627365112305">
        <ele>1407.1783447265625</ele>
        <time>2020-11-02T08:54:33Z</time>
      </trkpt>
      <trkpt lat="40.57264709472656" lon="-4.203547477722168">
        <ele>1407.1783447265625</ele>
        <time>2020-11-02T08:54:35Z</time>
      </trkpt>
      <trkpt lat="40.57270050048828" lon="-4.2035322189331055">
        <ele>1407.1783447265625</ele>
        <time>2020-11-02T08:54:37Z</time>
      </trkpt>
      <trkpt lat="40.572757720947266" lon="-4.203515529632568">
        <ele>1405.9056396484375</ele>
        <time>2020-11-02T08:54:39Z</time>
      </trkpt>
      <trkpt lat="40.572811126708984" lon="-4.203499794006348">
        <ele>1405.9056396484375</ele>
        <time>2020-11-02T08:54:41Z</time>
      </trkpt>
      <trkpt lat="40.57286834716797" lon="-4.203487873077393">
        <ele>1405.9056396484375</ele>
        <time>2020-11-02T08:54:43Z</time>
      </trkpt>
      <trkpt lat="40.57292556762695" lon="-4.203479290008545">
        <ele>1404.6329345703125</ele>
        <time>2020-11-02T08:54:45Z</time>
      </trkpt>
      <trkpt lat="40.57297897338867" lon="-4.203476428985596">
        <ele>1404.6329345703125</ele>
        <time>2020-11-02T08:54:47Z</time>
      </trkpt>
      <trkpt lat="40.573036193847656" lon="-4.203481197357178">
        <ele>1404.6329345703125</ele>
        <time>2020-11-02T08:54:49Z</time>
      </trkpt>
      <trkpt lat="40.57308578491211" lon="-4.203488826751709">
        <ele>1405.99658203125</ele>
        <time>2020-11-02T08:54:51Z</time>
      </trkpt>
      <trkpt lat="40.573150634765625" lon="-4.2035017013549805">
        <ele>1405.99658203125</ele>
        <time>2020-11-02T08:54:54Z</time>
      </trkpt>
      <trkpt lat="40.573211669921875" lon="-4.203520774841309">
        <ele>1405.99658203125</ele>
        <time>2020-11-02T08:54:56Z</time>
      </trkpt>
      <trkpt lat="40.57326889038086" lon="-4.203540802001953">
        <ele>1405.99658203125</ele>
        <time>2020-11-02T08:54:58Z</time>
      </trkpt>
      <trkpt lat="40.573326110839844" lon="-4.203559875488281">
        <ele>1405.99658203125</ele>
        <time>2020-11-02T08:55:00Z</time>
      </trkpt>
      <trkpt lat="40.57338333129883" lon="-4.20357608795166">
        <ele>1405.99658203125</ele>
        <time>2020-11-02T08:55:02Z</time>
      </trkpt>
      <trkpt lat="40.57346725463867" lon="-4.203598499298096">
        <ele>1405.99658203125</ele>
        <time>2020-11-02T08:55:05Z</time>
      </trkpt>
      <trkpt lat="40.57352066040039" lon="-4.203617095947266">
        <ele>1404.8148193359375</ele>
        <time>2020-11-02T08:55:07Z</time>
      </trkpt>
      <trkpt lat="40.57357406616211" lon="-4.203636646270752">
        <ele>1404.8148193359375</ele>
        <time>2020-11-02T08:55:09Z</time>
      </trkpt>
      <trkpt lat="40.573631286621094" lon="-4.203656196594238">
        <ele>1403.5421142578125</ele>
        <time>2020-11-02T08:55:11Z</time>
      </trkpt>
      <trkpt lat="40.57368469238281" lon="-4.203672885894775">
        <ele>1403.5421142578125</ele>
        <time>2020-11-02T08:55:13Z</time>
      </trkpt>
      <trkpt lat="40.57373809814453" lon="-4.203691482543945">
        <ele>1403.5421142578125</ele>
        <time>2020-11-02T08:55:15Z</time>
      </trkpt>
      <trkpt lat="40.573795318603516" lon="-4.203713893890381">
        <ele>1402.2694091796875</ele>
        <time>2020-11-02T08:55:17Z</time>
      </trkpt>
      <trkpt lat="40.573848724365234" lon="-4.203738212585449">
        <ele>1402.2694091796875</ele>
        <time>2020-11-02T08:55:19Z</time>
      </trkpt>
      <trkpt lat="40.57390213012695" lon="-4.203766345977783">
        <ele>1402.2694091796875</ele>
        <time>2020-11-02T08:55:21Z</time>
      </trkpt>
      <trkpt lat="40.57395553588867" lon="-4.203795433044434">
        <ele>1400.9967041015625</ele>
        <time>2020-11-02T08:55:23Z</time>
      </trkpt>
      <trkpt lat="40.57400894165039" lon="-4.203823566436768">
        <ele>1400.9967041015625</ele>
        <time>2020-11-02T08:55:25Z</time>
      </trkpt>
      <trkpt lat="40.574058532714844" lon="-4.203855037689209">
        <ele>1400.9967041015625</ele>
        <time>2020-11-02T08:55:27Z</time>
      </trkpt>
      <trkpt lat="40.574134826660156" lon="-4.20390510559082">
        <ele>1399.633056640625</ele>
        <time>2020-11-02T08:55:30Z</time>
      </trkpt>
      <trkpt lat="40.574180603027344" lon="-4.203939914703369">
        <ele>1399.633056640625</ele>
        <time>2020-11-02T08:55:32Z</time>
      </trkpt>
      <trkpt lat="40.5742301940918" lon="-4.203979015350342">
        <ele>1398.3603515625</ele>
        <time>2020-11-02T08:55:34Z</time>
      </trkpt>
      <trkpt lat="40.574275970458984" lon="-4.204019546508789">
        <ele>1398.3603515625</ele>
        <time>2020-11-02T08:55:36Z</time>
      </trkpt>
      <trkpt lat="40.57432556152344" lon="-4.204061031341553">
        <ele>1398.3603515625</ele>
        <time>2020-11-02T08:55:38Z</time>
      </trkpt>
      <trkpt lat="40.57437515258789" lon="-4.2041015625">
        <ele>1397.1785888671875</ele>
        <time>2020-11-02T08:55:40Z</time>
      </trkpt>
      <trkpt lat="40.57442092895508" lon="-4.204145908355713">
        <ele>1397.1785888671875</ele>
        <time>2020-11-02T08:55:42Z</time>
      </trkpt>
      <trkpt lat="40.57447052001953" lon="-4.204189300537109">
        <ele>1397.1785888671875</ele>
        <time>2020-11-02T08:55:44Z</time>
      </trkpt>
      <trkpt lat="40.57451629638672" lon="-4.204230785369873">
        <ele>1397.1785888671875</ele>
        <time>2020-11-02T08:55:46Z</time>
      </trkpt>
      <trkpt lat="40.57456970214844" lon="-4.204267501831055">
        <ele>1395.81494140625</ele>
        <time>2020-11-02T08:55:48Z</time>
      </trkpt>
      <trkpt lat="40.57461929321289" lon="-4.204301357269287">
        <ele>1395.81494140625</ele>
        <time>2020-11-02T08:55:50Z</time>
      </trkpt>
      <trkpt lat="40.57467269897461" lon="-4.2043280601501465">
        <ele>1395.81494140625</ele>
        <time>2020-11-02T08:55:52Z</time>
      </trkpt>
      <trkpt lat="40.57472610473633" lon="-4.2043538093566895">
        <ele>1394.6331787109375</ele>
        <time>2020-11-02T08:55:54Z</time>
      </trkpt>
      <trkpt lat="40.57477569580078" lon="-4.204379081726074">
        <ele>1394.6331787109375</ele>
        <time>2020-11-02T08:55:56Z</time>
      </trkpt>
      <trkpt lat="40.5748291015625" lon="-4.204404354095459">
        <ele>1393.451416015625</ele>
        <time>2020-11-02T08:55:58Z</time>
      </trkpt>
      <trkpt lat="40.57488250732422" lon="-4.2044267654418945">
        <ele>1393.451416015625</ele>
        <time>2020-11-02T08:56:00Z</time>
      </trkpt>
      <trkpt lat="40.5749397277832" lon="-4.204443454742432">
        <ele>1393.451416015625</ele>
        <time>2020-11-02T08:56:02Z</time>
      </trkpt>
      <trkpt lat="40.57499313354492" lon="-4.204456329345703">
        <ele>1392.1787109375</ele>
        <time>2020-11-02T08:56:04Z</time>
      </trkpt>
      <trkpt lat="40.575050354003906" lon="-4.204472064971924">
        <ele>1392.1787109375</ele>
        <time>2020-11-02T08:56:06Z</time>
      </trkpt>
      <trkpt lat="40.575103759765625" lon="-4.204489231109619">
        <ele>1390.9969482421875</ele>
        <time>2020-11-02T08:56:08Z</time>
      </trkpt>
      <trkpt lat="40.57516098022461" lon="-4.204500675201416">
        <ele>1390.9969482421875</ele>
        <time>2020-11-02T08:56:10Z</time>
      </trkpt>
      <trkpt lat="40.575218200683594" lon="-4.204508304595947">
        <ele>1389.7242431640625</ele>
        <time>2020-11-02T08:56:12Z</time>
      </trkpt>
      <trkpt lat="40.57527160644531" lon="-4.204513072967529">
        <ele>1388.1065673828125</ele>
        <time>2020-11-02T08:56:14Z</time>
      </trkpt>
      <trkpt lat="40.57532501220703" lon="-4.204518795013428">
        <ele>1388.1065673828125</ele>
        <time>2020-11-02T08:56:16Z</time>
      </trkpt>
      <trkpt lat="40.57537841796875" lon="-4.204522609710693">
        <ele>1388.1065673828125</ele>
        <time>2020-11-02T08:56:18Z</time>
      </trkpt>
      <trkpt lat="40.57543182373047" lon="-4.204522609710693">
        <ele>1386.8338623046875</ele>
        <time>2020-11-02T08:56:20Z</time>
      </trkpt>
      <trkpt lat="40.5755500793457" lon="-4.204521656036377">
        <ele>1386.8338623046875</ele>
        <time>2020-11-02T08:56:23Z</time>
      </trkpt>
      <trkpt lat="40.57563018798828" lon="-4.204524517059326">
        <ele>1386.8338623046875</ele>
        <time>2020-11-02T08:56:27Z</time>
      </trkpt>
      <trkpt lat="40.57570266723633" lon="-4.204526901245117">
        <ele>1385.5611572265625</ele>
        <time>2020-11-02T08:56:30Z</time>
      </trkpt>
      <trkpt lat="40.57575607299805" lon="-4.204526901245117">
        <ele>1385.5611572265625</ele>
        <time>2020-11-02T08:56:32Z</time>
      </trkpt>
      <trkpt lat="40.575809478759766" lon="-4.204526901245117">
        <ele>1385.5611572265625</ele>
        <time>2020-11-02T08:56:34Z</time>
      </trkpt>
      <trkpt lat="40.57586669921875" lon="-4.204526424407959">
        <ele>1384.2884521484375</ele>
        <time>2020-11-02T08:56:36Z</time>
      </trkpt>
      <trkpt lat="40.575923919677734" lon="-4.204524517059326">
        <ele>1384.2884521484375</ele>
        <time>2020-11-02T08:56:38Z</time>
      </trkpt>
      <trkpt lat="40.57597732543945" lon="-4.204523086547852">
        <ele>1384.2884521484375</ele>
        <time>2020-11-02T08:56:40Z</time>
      </trkpt>
      <trkpt lat="40.57603073120117" lon="-4.20452356338501">
        <ele>1383.106689453125</ele>
        <time>2020-11-02T08:56:42Z</time>
      </trkpt>
      <trkpt lat="40.57608413696289" lon="-4.204525470733643">
        <ele>1383.106689453125</ele>
        <time>2020-11-02T08:56:44Z</time>
      </trkpt>
      <trkpt lat="40.576141357421875" lon="-4.204522132873535">
        <ele>1383.106689453125</ele>
        <time>2020-11-02T08:56:46Z</time>
      </trkpt>
      <trkpt lat="40.57619094848633" lon="-4.204517841339111">
        <ele>1381.9249267578125</ele>
        <time>2020-11-02T08:56:48Z</time>
      </trkpt>
      <trkpt lat="40.57624435424805" lon="-4.2045087814331055">
        <ele>1381.9249267578125</ele>
        <time>2020-11-02T08:56:50Z</time>
      </trkpt>
      <trkpt lat="40.576297760009766" lon="-4.204494953155518">
        <ele>1380.6522216796875</ele>
        <time>2020-11-02T08:56:52Z</time>
      </trkpt>
      <trkpt lat="40.576351165771484" lon="-4.204477787017822">
        <ele>1380.6522216796875</ele>
        <time>2020-11-02T08:56:54Z</time>
      </trkpt>
      <trkpt lat="40.5764045715332" lon="-4.204461097717285">
        <ele>1380.6522216796875</ele>
        <time>2020-11-02T08:56:56Z</time>
      </trkpt>
      <trkpt lat="40.57645797729492" lon="-4.2044453620910645">
        <ele>1380.6522216796875</ele>
        <time>2020-11-02T08:56:58Z</time>
      </trkpt>
      <trkpt lat="40.576515197753906" lon="-4.204431056976318">
        <ele>1380.6522216796875</ele>
        <time>2020-11-02T08:57:00Z</time>
      </trkpt>
      <trkpt lat="40.576568603515625" lon="-4.2044172286987305">
        <ele>1380.6522216796875</ele>
        <time>2020-11-02T08:57:02Z</time>
      </trkpt>
      <trkpt lat="40.57662582397461" lon="-4.204410076141357">
        <ele>1380.6522216796875</ele>
        <time>2020-11-02T08:57:04Z</time>
      </trkpt>
      <trkpt lat="40.57667922973633" lon="-4.204411506652832">
        <ele>1380.6522216796875</ele>
        <time>2020-11-02T08:57:06Z</time>
      </trkpt>
      <trkpt lat="40.57672882080078" lon="-4.204424858093262">
        <ele>1380.6522216796875</ele>
        <time>2020-11-02T08:57:08Z</time>
      </trkpt>
      <trkpt lat="40.576778411865234" lon="-4.20444917678833">
        <ele>1382.015869140625</ele>
        <time>2020-11-02T08:57:10Z</time>
      </trkpt>
      <trkpt lat="40.576839447021484" lon="-4.204512119293213">
        <ele>1382.015869140625</ele>
        <time>2020-11-02T08:57:13Z</time>
      </trkpt>
      <trkpt lat="40.576873779296875" lon="-4.204598903656006">
        <ele>1383.1976318359375</ele>
        <time>2020-11-02T08:57:16Z</time>
      </trkpt>
      <trkpt lat="40.576881408691406" lon="-4.2046613693237305">
        <ele>1383.1976318359375</ele>
        <time>2020-11-02T08:57:18Z</time>
      </trkpt>
      <trkpt lat="40.57688903808594" lon="-4.2047505378723145">
        <ele>1383.1976318359375</ele>
        <time>2020-11-02T08:57:21Z</time>
      </trkpt>
      <trkpt lat="40.57691955566406" lon="-4.204827785491943">
        <ele>1384.4703369140625</ele>
        <time>2020-11-02T08:57:24Z</time>
      </trkpt>
      <trkpt lat="40.57696533203125" lon="-4.204888343811035">
        <ele>1384.4703369140625</ele>
        <time>2020-11-02T08:57:27Z</time>
      </trkpt>
      <trkpt lat="40.577003479003906" lon="-4.204951763153076">
        <ele>1384.4703369140625</ele>
        <time>2020-11-02T08:57:30Z</time>
      </trkpt>
      <trkpt lat="40.577022552490234" lon="-4.205017566680908">
        <ele>1385.652099609375</ele>
        <time>2020-11-02T08:57:33Z</time>
      </trkpt>
      <trkpt lat="40.57703399658203" lon="-4.205089092254639">
        <ele>1385.652099609375</ele>
        <time>2020-11-02T08:57:36Z</time>
      </trkpt>
      <trkpt lat="40.57704544067383" lon="-4.205160617828369">
        <ele>1387.0157470703125</ele>
        <time>2020-11-02T08:57:39Z</time>
      </trkpt>
      <trkpt lat="40.57705307006836" lon="-4.205234527587891">
        <ele>1387.0157470703125</ele>
        <time>2020-11-02T08:57:42Z</time>
      </trkpt>
      <trkpt lat="40.577064514160156" lon="-4.2053093910217285">
        <ele>1388.2884521484375</ele>
        <time>2020-11-02T08:57:45Z</time>
      </trkpt>
      <trkpt lat="40.57706832885742" lon="-4.205386161804199">
        <ele>1389.47021484375</ele>
        <time>2020-11-02T08:57:48Z</time>
      </trkpt>
      <trkpt lat="40.577083587646484" lon="-4.205464839935303">
        <ele>1389.47021484375</ele>
        <time>2020-11-02T08:57:51Z</time>
      </trkpt>
      <trkpt lat="40.57710647583008" lon="-4.20554256439209">
        <ele>1390.6519775390625</ele>
        <time>2020-11-02T08:57:54Z</time>
      </trkpt>
      <trkpt lat="40.577125549316406" lon="-4.205611228942871">
        <ele>1390.6519775390625</ele>
        <time>2020-11-02T08:57:57Z</time>
      </trkpt>
      <trkpt lat="40.5771484375" lon="-4.205674171447754">
        <ele>1390.6519775390625</ele>
        <time>2020-11-02T08:58:00Z</time>
      </trkpt>
      <trkpt lat="40.57717514038086" lon="-4.205733299255371">
        <ele>1390.6519775390625</ele>
        <time>2020-11-02T08:58:03Z</time>
      </trkpt>
      <trkpt lat="40.57721710205078" lon="-4.205801486968994">
        <ele>1389.2578125</ele>
        <time>2020-11-02T08:58:07Z</time>
      </trkpt>
      <trkpt lat="40.577266693115234" lon="-4.205859184265137">
        <ele>1389.2578125</ele>
        <time>2020-11-02T08:58:11Z</time>
      </trkpt>
      <trkpt lat="40.57731246948242" lon="-4.20591402053833">
        <ele>1389.2578125</ele>
        <time>2020-11-02T08:58:15Z</time>
      </trkpt>
      <trkpt lat="40.57735824584961" lon="-4.205968856811523">
        <ele>1388.0760498046875</ele>
        <time>2020-11-02T08:58:19Z</time>
      </trkpt>
      <trkpt lat="40.57740020751953" lon="-4.206036567687988">
        <ele>1388.0760498046875</ele>
        <time>2020-11-02T08:58:23Z</time>
      </trkpt>
      <trkpt lat="40.57744598388672" lon="-4.206090450286865">
        <ele>1388.0760498046875</ele>
        <time>2020-11-02T08:58:26Z</time>
      </trkpt>
      <trkpt lat="40.57748794555664" lon="-4.206150531768799">
        <ele>1388.0760498046875</ele>
        <time>2020-11-02T08:58:29Z</time>
      </trkpt>
      <trkpt lat="40.577537536621094" lon="-4.206211090087891">
        <ele>1388.0760498046875</ele>
        <time>2020-11-02T08:58:32Z</time>
      </trkpt>
      <trkpt lat="40.57758712768555" lon="-4.206279754638672">
        <ele>1388.0760498046875</ele>
        <time>2020-11-02T08:58:35Z</time>
      </trkpt>
      <trkpt lat="40.57763671875" lon="-4.206358432769775">
        <ele>1388.0760498046875</ele>
        <time>2020-11-02T08:58:38Z</time>
      </trkpt>
      <trkpt lat="40.577667236328125" lon="-4.206414222717285">
        <ele>1389.2578125</ele>
        <time>2020-11-02T08:58:40Z</time>
      </trkpt>
      <trkpt lat="40.57769775390625" lon="-4.2064690589904785">
        <ele>1390.4395751953125</ele>
        <time>2020-11-02T08:58:42Z</time>
      </trkpt>
      <trkpt lat="40.5777473449707" lon="-4.206543445587158">
        <ele>1390.4395751953125</ele>
        <time>2020-11-02T08:58:45Z</time>
      </trkpt>
      <trkpt lat="40.57780456542969" lon="-4.2066168785095215">
        <ele>1391.621337890625</ele>
        <time>2020-11-02T08:58:47Z</time>
      </trkpt>
      <trkpt lat="40.577857971191406" lon="-4.206672668457031">
        <ele>1391.621337890625</ele>
        <time>2020-11-02T08:58:51Z</time>
      </trkpt>
      <trkpt lat="40.57791519165039" lon="-4.206714153289795">
        <ele>1392.8031005859375</ele>
        <time>2020-11-02T08:58:54Z</time>
      </trkpt>
      <trkpt lat="40.57797622680664" lon="-4.206739902496338">
        <ele>1392.8031005859375</ele>
        <time>2020-11-02T08:58:57Z</time>
      </trkpt>
      <trkpt lat="40.57803726196289" lon="-4.206755638122559">
        <ele>1392.8031005859375</ele>
        <time>2020-11-02T08:59:00Z</time>
      </trkpt>
      <trkpt lat="40.578086853027344" lon="-4.206769943237305">
        <ele>1392.8031005859375</ele>
        <time>2020-11-02T08:59:03Z</time>
      </trkpt>
      <trkpt lat="40.57814407348633" lon="-4.206797122955322">
        <ele>1393.98486328125</ele>
        <time>2020-11-02T08:59:07Z</time>
      </trkpt>
      <trkpt lat="40.578189849853516" lon="-4.20684814453125">
        <ele>1393.98486328125</ele>
        <time>2020-11-02T08:59:11Z</time>
      </trkpt>
      <trkpt lat="40.578243255615234" lon="-4.206935882568359">
        <ele>1393.98486328125</ele>
        <time>2020-11-02T08:59:16Z</time>
      </trkpt>
      <trkpt lat="40.578285217285156" lon="-4.20698881149292">
        <ele>1393.98486328125</ele>
        <time>2020-11-02T08:59:19Z</time>
      </trkpt>
      <trkpt lat="40.578330993652344" lon="-4.207043170928955">
        <ele>1393.98486328125</ele>
        <time>2020-11-02T08:59:22Z</time>
      </trkpt>
      <trkpt lat="40.57837677001953" lon="-4.207096576690674">
        <ele>1393.98486328125</ele>
        <time>2020-11-02T08:59:25Z</time>
      </trkpt>
      <trkpt lat="40.57843017578125" lon="-4.207153797149658">
        <ele>1393.98486328125</ele>
        <time>2020-11-02T08:59:28Z</time>
      </trkpt>
      <trkpt lat="40.57848358154297" lon="-4.207205772399902">
        <ele>1393.98486328125</ele>
        <time>2020-11-02T08:59:31Z</time>
      </trkpt>
      <trkpt lat="40.57853698730469" lon="-4.2072529792785645">
        <ele>1393.98486328125</ele>
        <time>2020-11-02T08:59:34Z</time>
      </trkpt>
      <trkpt lat="40.57858657836914" lon="-4.2072954177856445">
        <ele>1393.98486328125</ele>
        <time>2020-11-02T08:59:37Z</time>
      </trkpt>
      <trkpt lat="40.57865905761719" lon="-4.207339763641357">
        <ele>1393.98486328125</ele>
        <time>2020-11-02T08:59:41Z</time>
      </trkpt>
      <trkpt lat="40.57870864868164" lon="-4.2073798179626465">
        <ele>1392.8031005859375</ele>
        <time>2020-11-02T08:59:44Z</time>
      </trkpt>
      <trkpt lat="40.578765869140625" lon="-4.207430839538574">
        <ele>1391.5303955078125</ele>
        <time>2020-11-02T08:59:47Z</time>
      </trkpt>
      <trkpt lat="40.578834533691406" lon="-4.207480430603027">
        <ele>1391.5303955078125</ele>
        <time>2020-11-02T08:59:50Z</time>
      </trkpt>
      <trkpt lat="40.57887649536133" lon="-4.2075090408325195">
        <ele>1390.3486328125</ele>
        <time>2020-11-02T08:59:52Z</time>
      </trkpt>
      <trkpt lat="40.578941345214844" lon="-4.207546710968018">
        <ele>1390.3486328125</ele>
        <time>2020-11-02T08:59:55Z</time>
      </trkpt>
      <trkpt lat="40.579002380371094" lon="-4.207588195800781">
        <ele>1389.075927734375</ele>
        <time>2020-11-02T08:59:58Z</time>
      </trkpt>
      <trkpt lat="40.57904052734375" lon="-4.207620143890381">
        <ele>1387.80322265625</ele>
        <time>2020-11-02T09:00:00Z</time>
      </trkpt>
      <trkpt lat="40.5791015625" lon="-4.207672119140625">
        <ele>1385.8941650390625</ele>
        <time>2020-11-02T09:00:03Z</time>
      </trkpt>
      <trkpt lat="40.57915496826172" lon="-4.207726001739502">
        <ele>1384.6214599609375</ele>
        <time>2020-11-02T09:00:06Z</time>
      </trkpt>
      <trkpt lat="40.579193115234375" lon="-4.207768440246582">
        <ele>1384.6214599609375</ele>
        <time>2020-11-02T09:00:08Z</time>
      </trkpt>
      <trkpt lat="40.57924270629883" lon="-4.207844257354736">
        <ele>1383.439697265625</ele>
        <time>2020-11-02T09:00:11Z</time>
      </trkpt>
      <trkpt lat="40.57926940917969" lon="-4.207900047302246">
        <ele>1383.439697265625</ele>
        <time>2020-11-02T09:00:13Z</time>
      </trkpt>
      <trkpt lat="40.57931900024414" lon="-4.207981586456299">
        <ele>1380.2147216796875</ele>
        <time>2020-11-02T09:00:16Z</time>
      </trkpt>
      <trkpt lat="40.579349517822266" lon="-4.208035469055176">
        <ele>1381.85107421875</ele>
        <time>2020-11-02T09:00:18Z</time>
      </trkpt>
      <trkpt lat="40.57939147949219" lon="-4.208087921142578">
        <ele>1381.85107421875</ele>
        <time>2020-11-02T09:00:20Z</time>
      </trkpt>
      <trkpt lat="40.57943344116211" lon="-4.208134174346924">
        <ele>1383.2147216796875</ele>
        <time>2020-11-02T09:00:22Z</time>
      </trkpt>
      <trkpt lat="40.57947540283203" lon="-4.208176136016846">
        <ele>1383.2147216796875</ele>
        <time>2020-11-02T09:00:24Z</time>
      </trkpt>
      <trkpt lat="40.57952117919922" lon="-4.208218097686768">
        <ele>1383.2147216796875</ele>
        <time>2020-11-02T09:00:26Z</time>
      </trkpt>
      <trkpt lat="40.579566955566406" lon="-4.208255767822266">
        <ele>1384.396484375</ele>
        <time>2020-11-02T09:00:28Z</time>
      </trkpt>
      <trkpt lat="40.57963180541992" lon="-4.208299160003662">
        <ele>1384.396484375</ele>
        <time>2020-11-02T09:00:31Z</time>
      </trkpt>
      <trkpt lat="40.57969665527344" lon="-4.208344459533691">
        <ele>1385.5782470703125</ele>
        <time>2020-11-02T09:00:34Z</time>
      </trkpt>
      <trkpt lat="40.579750061035156" lon="-4.208393573760986">
        <ele>1385.5782470703125</ele>
        <time>2020-11-02T09:00:37Z</time>
      </trkpt>
      <trkpt lat="40.57979965209961" lon="-4.208444118499756">
        <ele>1385.5782470703125</ele>
        <time>2020-11-02T09:00:40Z</time>
      </trkpt>
      <trkpt lat="40.57984924316406" lon="-4.208501815795898">
        <ele>1386.760009765625</ele>
        <time>2020-11-02T09:00:43Z</time>
      </trkpt>
      <trkpt lat="40.579898834228516" lon="-4.208559513092041">
        <ele>1386.760009765625</ele>
        <time>2020-11-02T09:00:46Z</time>
      </trkpt>
      <trkpt lat="40.57994842529297" lon="-4.208621501922607">
        <ele>1388.03271484375</ele>
        <time>2020-11-02T09:00:49Z</time>
      </trkpt>
      <trkpt lat="40.57999801635742" lon="-4.208677768707275">
        <ele>1389.2144775390625</ele>
        <time>2020-11-02T09:00:52Z</time>
      </trkpt>
      <trkpt lat="40.58005142211914" lon="-4.208721160888672">
        <ele>1389.2144775390625</ele>
        <time>2020-11-02T09:00:55Z</time>
      </trkpt>
      <trkpt lat="40.580108642578125" lon="-4.208748817443848">
        <ele>1390.396240234375</ele>
        <time>2020-11-02T09:00:58Z</time>
      </trkpt>
      <trkpt lat="40.58017349243164" lon="-4.208763599395752">
        <ele>1390.396240234375</ele>
        <time>2020-11-02T09:01:01Z</time>
      </trkpt>
      <trkpt lat="40.580238342285156" lon="-4.208779811859131">
        <ele>1391.6689453125</ele>
        <time>2020-11-02T09:01:04Z</time>
      </trkpt>
      <trkpt lat="40.58030319213867" lon="-4.208810806274414">
        <ele>1391.6689453125</ele>
        <time>2020-11-02T09:01:07Z</time>
      </trkpt>
      <trkpt lat="40.58037185668945" lon="-4.208887100219727">
        <ele>1391.6689453125</ele>
        <time>2020-11-02T09:01:10Z</time>
      </trkpt>
      <trkpt lat="40.580406188964844" lon="-4.208967208862305">
        <ele>1392.8507080078125</ele>
        <time>2020-11-02T09:01:15Z</time>
      </trkpt>
      <trkpt lat="40.5804557800293" lon="-4.209009170532227">
        <ele>1392.8507080078125</ele>
        <time>2020-11-02T09:01:19Z</time>
      </trkpt>
      <trkpt lat="40.58051300048828" lon="-4.209046840667725">
        <ele>1392.8507080078125</ele>
        <time>2020-11-02T09:01:23Z</time>
      </trkpt>
      <trkpt lat="40.580570220947266" lon="-4.209096908569336">
        <ele>1391.487060546875</ele>
        <time>2020-11-02T09:01:27Z</time>
      </trkpt>
      <trkpt lat="40.580604553222656" lon="-4.209139347076416">
        <ele>1390.3052978515625</ele>
        <time>2020-11-02T09:01:30Z</time>
      </trkpt>
      <trkpt lat="40.58065414428711" lon="-4.209197521209717">
        <ele>1390.3052978515625</ele>
        <time>2020-11-02T09:01:34Z</time>
      </trkpt>
      <trkpt lat="40.580692291259766" lon="-4.20924711227417">
        <ele>1390.3052978515625</ele>
        <time>2020-11-02T09:01:37Z</time>
      </trkpt>
      <trkpt lat="40.58072280883789" lon="-4.2093119621276855">
        <ele>1390.3052978515625</ele>
        <time>2020-11-02T09:01:40Z</time>
      </trkpt>
      <trkpt lat="40.58073806762695" lon="-4.209383487701416">
        <ele>1389.12353515625</ele>
        <time>2020-11-02T09:01:43Z</time>
      </trkpt>
      <trkpt lat="40.580745697021484" lon="-4.209460735321045">
        <ele>1389.12353515625</ele>
        <time>2020-11-02T09:01:46Z</time>
      </trkpt>
      <trkpt lat="40.58086013793945" lon="-4.209790229797363">
        <ele>1387.578125</ele>
        <time>2020-11-02T09:02:46Z</time>
      </trkpt>
      <trkpt lat="40.58085632324219" lon="-4.209908485412598">
        <ele>1387.578125</ele>
        <time>2020-11-02T09:02:52Z</time>
      </trkpt>
      <trkpt lat="40.58085250854492" lon="-4.210015773773193">
        <ele>1386.12353515625</ele>
        <time>2020-11-02T09:02:55Z</time>
      </trkpt>
      <trkpt lat="40.580848693847656" lon="-4.21008825302124">
        <ele>1384.850830078125</ele>
        <time>2020-11-02T09:02:57Z</time>
      </trkpt>
      <trkpt lat="40.58084487915039" lon="-4.2101545333862305">
        <ele>1383.6690673828125</ele>
        <time>2020-11-02T09:02:59Z</time>
      </trkpt>
      <trkpt lat="40.580848693847656" lon="-4.210245132446289">
        <ele>1383.6690673828125</ele>
        <time>2020-11-02T09:03:02Z</time>
      </trkpt>
      <trkpt lat="40.58084487915039" lon="-4.210334777832031">
        <ele>1383.6690673828125</ele>
        <time>2020-11-02T09:03:05Z</time>
      </trkpt>
      <trkpt lat="40.58084487915039" lon="-4.210432529449463">
        <ele>1383.6690673828125</ele>
        <time>2020-11-02T09:03:08Z</time>
      </trkpt>
      <trkpt lat="40.580848693847656" lon="-4.2104997634887695">
        <ele>1383.6690673828125</ele>
        <time>2020-11-02T09:03:10Z</time>
      </trkpt>
      <trkpt lat="40.580867767333984" lon="-4.210595607757568">
        <ele>1381.760009765625</ele>
        <time>2020-11-02T09:03:13Z</time>
      </trkpt>
      <trkpt lat="40.58089065551758" lon="-4.210652828216553">
        <ele>1378.94189453125</ele>
        <time>2020-11-02T09:03:15Z</time>
      </trkpt>
      <trkpt lat="40.58092498779297" lon="-4.210771560668945">
        <ele>1377.396484375</ele>
        <time>2020-11-02T09:03:19Z</time>
      </trkpt>
      <trkpt lat="40.58095169067383" lon="-4.210851192474365">
        <ele>1377.396484375</ele>
        <time>2020-11-02T09:03:22Z</time>
      </trkpt>
      <trkpt lat="40.58098220825195" lon="-4.210921287536621">
        <ele>1376.123779296875</ele>
        <time>2020-11-02T09:03:25Z</time>
      </trkpt>
      <trkpt lat="40.581024169921875" lon="-4.210981845855713">
        <ele>1377.396484375</ele>
        <time>2020-11-02T09:03:28Z</time>
      </trkpt>
      <trkpt lat="40.581058502197266" lon="-4.211050987243652">
        <ele>1377.396484375</ele>
        <time>2020-11-02T09:03:31Z</time>
      </trkpt>
      <trkpt lat="40.58109664916992" lon="-4.211126804351807">
        <ele>1377.396484375</ele>
        <time>2020-11-02T09:03:34Z</time>
      </trkpt>
      <trkpt lat="40.58113479614258" lon="-4.21120023727417">
        <ele>1377.396484375</ele>
        <time>2020-11-02T09:03:37Z</time>
      </trkpt>
      <trkpt lat="40.58116912841797" lon="-4.211273193359375">
        <ele>1376.123779296875</ele>
        <time>2020-11-02T09:03:40Z</time>
      </trkpt>
      <trkpt lat="40.581207275390625" lon="-4.211345672607422">
        <ele>1376.123779296875</ele>
        <time>2020-11-02T09:03:43Z</time>
      </trkpt>
      <trkpt lat="40.58123779296875" lon="-4.211414337158203">
        <ele>1376.123779296875</ele>
        <time>2020-11-02T09:03:46Z</time>
      </trkpt>
      <trkpt lat="40.58126449584961" lon="-4.211488246917725">
        <ele>1374.85107421875</ele>
        <time>2020-11-02T09:03:49Z</time>
      </trkpt>
      <trkpt lat="40.58130645751953" lon="-4.2115654945373535">
        <ele>1374.85107421875</ele>
        <time>2020-11-02T09:03:52Z</time>
      </trkpt>
      <trkpt lat="40.58134460449219" lon="-4.211646556854248">
        <ele>1373.578369140625</ele>
        <time>2020-11-02T09:03:55Z</time>
      </trkpt>
      <trkpt lat="40.581382751464844" lon="-4.211727142333984">
        <ele>1373.578369140625</ele>
        <time>2020-11-02T09:03:58Z</time>
      </trkpt>
      <trkpt lat="40.58142852783203" lon="-4.21179723739624">
        <ele>1372.3056640625</ele>
        <time>2020-11-02T09:04:01Z</time>
      </trkpt>
      <trkpt lat="40.58147430419922" lon="-4.21187162399292">
        <ele>1372.3056640625</ele>
        <time>2020-11-02T09:04:04Z</time>
      </trkpt>
      <trkpt lat="40.58152389526367" lon="-4.211945056915283">
        <ele>1371.1239013671875</ele>
        <time>2020-11-02T09:04:07Z</time>
      </trkpt>
      <trkpt lat="40.581565856933594" lon="-4.2120184898376465">
        <ele>1371.1239013671875</ele>
        <time>2020-11-02T09:04:10Z</time>
      </trkpt>
      <trkpt lat="40.58160400390625" lon="-4.212093353271484">
        <ele>1371.1239013671875</ele>
        <time>2020-11-02T09:04:13Z</time>
      </trkpt>
      <trkpt lat="40.58163833618164" lon="-4.212170124053955">
        <ele>1371.1239013671875</ele>
        <time>2020-11-02T09:04:16Z</time>
      </trkpt>
      <trkpt lat="40.5816764831543" lon="-4.212246894836426">
        <ele>1369.942138671875</ele>
        <time>2020-11-02T09:04:19Z</time>
      </trkpt>
      <trkpt lat="40.58171463012695" lon="-4.21232271194458">
        <ele>1376.4686279296875</ele>
        <time>2020-11-02T09:04:22Z</time>
      </trkpt>
      <trkpt lat="40.581756591796875" lon="-4.2123942375183105">
        <ele>1376.4686279296875</ele>
        <time>2020-11-02T09:04:25Z</time>
      </trkpt>
      <trkpt lat="40.58181381225586" lon="-4.212449550628662">
        <ele>1375.286865234375</ele>
        <time>2020-11-02T09:04:28Z</time>
      </trkpt>
      <trkpt lat="40.58187484741211" lon="-4.212496280670166">
        <ele>1375.286865234375</ele>
        <time>2020-11-02T09:04:31Z</time>
      </trkpt>
      <trkpt lat="40.58193588256836" lon="-4.212539196014404">
        <ele>1374.01416015625</ele>
        <time>2020-11-02T09:04:34Z</time>
      </trkpt>
      <trkpt lat="40.58198165893555" lon="-4.212609767913818">
        <ele>1374.01416015625</ele>
        <time>2020-11-02T09:04:37Z</time>
      </trkpt>
      <trkpt lat="40.582008361816406" lon="-4.2126665115356445">
        <ele>1372.8323974609375</ele>
        <time>2020-11-02T09:04:39Z</time>
      </trkpt>
      <trkpt lat="40.58203887939453" lon="-4.212717056274414">
        <ele>1372.8323974609375</ele>
        <time>2020-11-02T09:04:41Z</time>
      </trkpt>
      <trkpt lat="40.582088470458984" lon="-4.212790489196777">
        <ele>1371.650634765625</ele>
        <time>2020-11-02T09:04:44Z</time>
      </trkpt>
      <trkpt lat="40.58212661743164" lon="-4.2128376960754395">
        <ele>1371.650634765625</ele>
        <time>2020-11-02T09:04:46Z</time>
      </trkpt>
      <trkpt lat="40.58218765258789" lon="-4.2129011154174805">
        <ele>1370.4688720703125</ele>
        <time>2020-11-02T09:04:49Z</time>
      </trkpt>
      <trkpt lat="40.58222198486328" lon="-4.2129435539245605">
        <ele>1370.4688720703125</ele>
        <time>2020-11-02T09:04:51Z</time>
      </trkpt>
      <trkpt lat="40.58226013183594" lon="-4.213016033172607">
        <ele>1369.287109375</ele>
        <time>2020-11-02T09:04:54Z</time>
      </trkpt>
      <trkpt lat="40.5822868347168" lon="-4.213089466094971">
        <ele>1367.83251953125</ele>
        <time>2020-11-02T09:04:57Z</time>
      </trkpt>
      <trkpt lat="40.582313537597656" lon="-4.2131571769714355">
        <ele>1366.6507568359375</ele>
        <time>2020-11-02T09:05:00Z</time>
      </trkpt>
      <trkpt lat="40.58235549926758" lon="-4.213226318359375">
        <ele>1366.6507568359375</ele>
        <time>2020-11-02T09:05:03Z</time>
      </trkpt>
      <trkpt lat="40.582393646240234" lon="-4.213298797607422">
        <ele>1365.287109375</ele>
        <time>2020-11-02T09:05:06Z</time>
      </trkpt>
      <trkpt lat="40.582420349121094" lon="-4.213352203369141">
        <ele>1365.287109375</ele>
        <time>2020-11-02T09:05:08Z</time>
      </trkpt>
      <trkpt lat="40.58245849609375" lon="-4.213418960571289">
        <ele>1363.9234619140625</ele>
        <time>2020-11-02T09:05:11Z</time>
      </trkpt>
      <trkpt lat="40.58249282836914" lon="-4.213489532470703">
        <ele>1363.9234619140625</ele>
        <time>2020-11-02T09:05:15Z</time>
      </trkpt>
      <trkpt lat="40.58252716064453" lon="-4.213559150695801">
        <ele>1363.9234619140625</ele>
        <time>2020-11-02T09:05:19Z</time>
      </trkpt>
      <trkpt lat="40.58256149291992" lon="-4.213632106781006">
        <ele>1362.6507568359375</ele>
        <time>2020-11-02T09:05:23Z</time>
      </trkpt>
      <trkpt lat="40.58258056640625" lon="-4.2136921882629395">
        <ele>1362.6507568359375</ele>
        <time>2020-11-02T09:05:26Z</time>
      </trkpt>
      <trkpt lat="40.58259963989258" lon="-4.2137675285339355">
        <ele>1362.6507568359375</ele>
        <time>2020-11-02T09:05:29Z</time>
      </trkpt>
      <trkpt lat="40.5826301574707" lon="-4.213840484619141">
        <ele>1362.6507568359375</ele>
        <time>2020-11-02T09:05:32Z</time>
      </trkpt>
      <trkpt lat="40.5826530456543" lon="-4.213916778564453">
        <ele>1361.3780517578125</ele>
        <time>2020-11-02T09:05:35Z</time>
      </trkpt>
      <trkpt lat="40.58266830444336" lon="-4.213987350463867">
        <ele>1361.3780517578125</ele>
        <time>2020-11-02T09:05:38Z</time>
      </trkpt>
      <trkpt lat="40.582698822021484" lon="-4.214065074920654">
        <ele>1361.3780517578125</ele>
        <time>2020-11-02T09:05:41Z</time>
      </trkpt>
      <trkpt lat="40.582725524902344" lon="-4.214113235473633">
        <ele>1361.3780517578125</ele>
        <time>2020-11-02T09:05:43Z</time>
      </trkpt>
      <trkpt lat="40.582763671875" lon="-4.214193820953369">
        <ele>1360.1962890625</ele>
        <time>2020-11-02T09:05:46Z</time>
      </trkpt>
      <trkpt lat="40.58279037475586" lon="-4.214249610900879">
        <ele>1360.1962890625</ele>
        <time>2020-11-02T09:05:48Z</time>
      </trkpt>
      <trkpt lat="40.58283233642578" lon="-4.214328765869141">
        <ele>1360.1962890625</ele>
        <time>2020-11-02T09:05:51Z</time>
      </trkpt>
      <trkpt lat="40.582862854003906" lon="-4.214382171630859">
        <ele>1360.1962890625</ele>
        <time>2020-11-02T09:05:53Z</time>
      </trkpt>
      <trkpt lat="40.582908630371094" lon="-4.214456558227539">
        <ele>1360.1962890625</ele>
        <time>2020-11-02T09:05:56Z</time>
      </trkpt>
      <trkpt lat="40.58294677734375" lon="-4.214505195617676">
        <ele>1359.0145263671875</ele>
        <time>2020-11-02T09:05:58Z</time>
      </trkpt>
      <trkpt lat="40.58300018310547" lon="-4.214582443237305">
        <ele>1359.0145263671875</ele>
        <time>2020-11-02T09:06:01Z</time>
      </trkpt>
      <trkpt lat="40.583030700683594" lon="-4.214639186859131">
        <ele>1359.0145263671875</ele>
        <time>2020-11-02T09:06:03Z</time>
      </trkpt>
      <trkpt lat="40.58305740356445" lon="-4.214699745178223">
        <ele>1357.7418212890625</ele>
        <time>2020-11-02T09:06:05Z</time>
      </trkpt>
      <trkpt lat="40.58308029174805" lon="-4.214765548706055">
        <ele>1357.7418212890625</ele>
        <time>2020-11-02T09:06:07Z</time>
      </trkpt>
      <trkpt lat="40.583106994628906" lon="-4.214829444885254">
        <ele>1357.7418212890625</ele>
        <time>2020-11-02T09:06:09Z</time>
      </trkpt>
      <trkpt lat="40.58313751220703" lon="-4.214890956878662">
        <ele>1357.7418212890625</ele>
        <time>2020-11-02T09:06:11Z</time>
      </trkpt>
      <trkpt lat="40.58317184448242" lon="-4.214951515197754">
        <ele>1356.56005859375</ele>
        <time>2020-11-02T09:06:13Z</time>
      </trkpt>
      <trkpt lat="40.58320236206055" lon="-4.2150092124938965">
        <ele>1356.56005859375</ele>
        <time>2020-11-02T09:06:15Z</time>
      </trkpt>
      <trkpt lat="40.58323287963867" lon="-4.21506404876709">
        <ele>1356.56005859375</ele>
        <time>2020-11-02T09:06:17Z</time>
      </trkpt>
      <trkpt lat="40.5832633972168" lon="-4.215117931365967">
        <ele>1356.56005859375</ele>
        <time>2020-11-02T09:06:19Z</time>
      </trkpt>
      <trkpt lat="40.58329772949219" lon="-4.215196132659912">
        <ele>1356.56005859375</ele>
        <time>2020-11-02T09:06:22Z</time>
      </trkpt>
      <trkpt lat="40.58332824707031" lon="-4.215278625488281">
        <ele>1353.0333251953125</ele>
        <time>2020-11-02T09:06:25Z</time>
      </trkpt>
      <trkpt lat="40.58335494995117" lon="-4.215335845947266">
        <ele>1353.0333251953125</ele>
        <time>2020-11-02T09:06:27Z</time>
      </trkpt>
      <trkpt lat="40.583377838134766" lon="-4.215387344360352">
        <ele>1353.0333251953125</ele>
        <time>2020-11-02T09:06:29Z</time>
      </trkpt>
      <trkpt lat="40.58341979980469" lon="-4.21546745300293">
        <ele>1353.0333251953125</ele>
        <time>2020-11-02T09:06:32Z</time>
      </trkpt>
      <trkpt lat="40.58345413208008" lon="-4.215518474578857">
        <ele>1353.0333251953125</ele>
        <time>2020-11-02T09:06:34Z</time>
      </trkpt>
      <trkpt lat="40.58348846435547" lon="-4.21557092666626">
        <ele>1353.0333251953125</ele>
        <time>2020-11-02T09:06:36Z</time>
      </trkpt>
      <trkpt lat="40.58352279663086" lon="-4.215620994567871">
        <ele>1353.0333251953125</ele>
        <time>2020-11-02T09:06:38Z</time>
      </trkpt>
      <trkpt lat="40.583560943603516" lon="-4.21566915512085">
        <ele>1353.0333251953125</ele>
        <time>2020-11-02T09:06:40Z</time>
      </trkpt>
      <trkpt lat="40.5836181640625" lon="-4.21574068069458">
        <ele>1351.8515625</ele>
        <time>2020-11-02T09:06:43Z</time>
      </trkpt>
      <trkpt lat="40.58366012573242" lon="-4.215780735015869">
        <ele>1351.8515625</ele>
        <time>2020-11-02T09:06:45Z</time>
      </trkpt>
      <trkpt lat="40.583709716796875" lon="-4.21580696105957">
        <ele>1350.6697998046875</ele>
        <time>2020-11-02T09:06:47Z</time>
      </trkpt>
      <trkpt lat="40.583763122558594" lon="-4.215829372406006">
        <ele>1350.6697998046875</ele>
        <time>2020-11-02T09:06:49Z</time>
      </trkpt>
      <trkpt lat="40.58381271362305" lon="-4.215856552124023">
        <ele>1350.6697998046875</ele>
        <time>2020-11-02T09:06:51Z</time>
      </trkpt>
      <trkpt lat="40.5838508605957" lon="-4.215895175933838">
        <ele>1349.488037109375</ele>
        <time>2020-11-02T09:06:53Z</time>
      </trkpt>
      <trkpt lat="40.58388900756836" lon="-4.215971946716309">
        <ele>1349.488037109375</ele>
        <time>2020-11-02T09:06:56Z</time>
      </trkpt>
      <trkpt lat="40.58393478393555" lon="-4.216073989868164">
        <ele>1349.488037109375</ele>
        <time>2020-11-02T09:07:00Z</time>
      </trkpt>
      <trkpt lat="40.58395767211914" lon="-4.216152191162109">
        <ele>1348.21533203125</ele>
        <time>2020-11-02T09:07:03Z</time>
      </trkpt>
      <trkpt lat="40.58396911621094" lon="-4.216239929199219">
        <ele>1346.7607421875</ele>
        <time>2020-11-02T09:07:06Z</time>
      </trkpt>
      <trkpt lat="40.58397674560547" lon="-4.216301441192627">
        <ele>1346.7607421875</ele>
        <time>2020-11-02T09:07:08Z</time>
      </trkpt>
      <trkpt lat="40.5839958190918" lon="-4.216399192810059">
        <ele>1345.3970947265625</ele>
        <time>2020-11-02T09:07:11Z</time>
      </trkpt>
      <trkpt lat="40.584014892578125" lon="-4.216464042663574">
        <ele>1345.3970947265625</ele>
        <time>2020-11-02T09:07:13Z</time>
      </trkpt>
      <trkpt lat="40.58404541015625" lon="-4.216526031494141">
        <ele>1345.3970947265625</ele>
        <time>2020-11-02T09:07:15Z</time>
      </trkpt>
      <trkpt lat="40.58407974243164" lon="-4.216581344604492">
        <ele>1344.21533203125</ele>
        <time>2020-11-02T09:07:17Z</time>
      </trkpt>
      <trkpt lat="40.5841178894043" lon="-4.21662712097168">
        <ele>1344.21533203125</ele>
        <time>2020-11-02T09:07:19Z</time>
      </trkpt>
      <trkpt lat="40.58415603637695" lon="-4.216670036315918">
        <ele>1344.21533203125</ele>
        <time>2020-11-02T09:07:21Z</time>
      </trkpt>
      <trkpt lat="40.58420181274414" lon="-4.21674108505249">
        <ele>1344.21533203125</ele>
        <time>2020-11-02T09:07:24Z</time>
      </trkpt>
      <trkpt lat="40.58424758911133" lon="-4.216814994812012">
        <ele>1344.21533203125</ele>
        <time>2020-11-02T09:07:27Z</time>
      </trkpt>
      <trkpt lat="40.584266662597656" lon="-4.216899871826172">
        <ele>1344.21533203125</ele>
        <time>2020-11-02T09:07:30Z</time>
      </trkpt>
      <trkpt lat="40.58428955078125" lon="-4.2169904708862305">
        <ele>1344.21533203125</ele>
        <time>2020-11-02T09:07:33Z</time>
      </trkpt>
      <trkpt lat="40.58430862426758" lon="-4.217047691345215">
        <ele>1345.488037109375</ele>
        <time>2020-11-02T09:07:35Z</time>
      </trkpt>
      <trkpt lat="40.584346771240234" lon="-4.217136383056641">
        <ele>1345.488037109375</ele>
        <time>2020-11-02T09:07:38Z</time>
      </trkpt>
      <trkpt lat="40.584381103515625" lon="-4.217192649841309">
        <ele>1346.7607421875</ele>
        <time>2020-11-02T09:07:40Z</time>
      </trkpt>
      <trkpt lat="40.58442306518555" lon="-4.217240333557129">
        <ele>1346.7607421875</ele>
        <time>2020-11-02T09:07:42Z</time>
      </trkpt>
      <trkpt lat="40.5844612121582" lon="-4.217286109924316">
        <ele>1346.7607421875</ele>
        <time>2020-11-02T09:07:44Z</time>
      </trkpt>
      <trkpt lat="40.584495544433594" lon="-4.217336654663086">
        <ele>1346.7607421875</ele>
        <time>2020-11-02T09:07:46Z</time>
      </trkpt>
      <trkpt lat="40.58454895019531" lon="-4.217402935028076">
        <ele>1346.7607421875</ele>
        <time>2020-11-02T09:07:49Z</time>
      </trkpt>
      <trkpt lat="40.584598541259766" lon="-4.217452049255371">
        <ele>1346.7607421875</ele>
        <time>2020-11-02T09:07:53Z</time>
      </trkpt>
      <trkpt lat="40.58464813232422" lon="-4.217490196228027">
        <ele>1345.488037109375</ele>
        <time>2020-11-02T09:07:55Z</time>
      </trkpt>
      <trkpt lat="40.584686279296875" lon="-4.217536926269531">
        <ele>1345.488037109375</ele>
        <time>2020-11-02T09:07:58Z</time>
      </trkpt>
      <trkpt lat="40.584720611572266" lon="-4.217590808868408">
        <ele>1345.488037109375</ele>
        <time>2020-11-02T09:08:01Z</time>
      </trkpt>
      <trkpt lat="40.58475112915039" lon="-4.217649936676025">
        <ele>1344.3062744140625</ele>
        <time>2020-11-02T09:08:04Z</time>
      </trkpt>
      <trkpt lat="40.58477020263672" lon="-4.217726230621338">
        <ele>1344.3062744140625</ele>
        <time>2020-11-02T09:08:07Z</time>
      </trkpt>
      <trkpt lat="40.58479309082031" lon="-4.21781587600708">
        <ele>1343.12451171875</ele>
        <time>2020-11-02T09:08:10Z</time>
      </trkpt>
      <trkpt lat="40.58480453491211" lon="-4.217881679534912">
        <ele>1343.12451171875</ele>
        <time>2020-11-02T09:08:12Z</time>
      </trkpt>
      <trkpt lat="40.58481979370117" lon="-4.217980861663818">
        <ele>1341.7608642578125</ele>
        <time>2020-11-02T09:08:15Z</time>
      </trkpt>
      <trkpt lat="40.584835052490234" lon="-4.218043804168701">
        <ele>1341.7608642578125</ele>
        <time>2020-11-02T09:08:17Z</time>
      </trkpt>
      <trkpt lat="40.58485412597656" lon="-4.218104362487793">
        <ele>1340.4881591796875</ele>
        <time>2020-11-02T09:08:19Z</time>
      </trkpt>
      <trkpt lat="40.58488845825195" lon="-4.218195915222168">
        <ele>1337.7142333984375</ele>
        <time>2020-11-02T09:08:22Z</time>
      </trkpt>
      <trkpt lat="40.58492660522461" lon="-4.218283176422119">
        <ele>1336.3505859375</ele>
        <time>2020-11-02T09:08:25Z</time>
      </trkpt>
      <trkpt lat="40.584957122802734" lon="-4.218374729156494">
        <ele>1336.3505859375</ele>
        <time>2020-11-02T09:08:28Z</time>
      </trkpt>
      <trkpt lat="40.584983825683594" lon="-4.218435764312744">
        <ele>1335.077880859375</ele>
        <time>2020-11-02T09:08:30Z</time>
      </trkpt>
      <trkpt lat="40.58500289916992" lon="-4.218496799468994">
        <ele>1333.8961181640625</ele>
        <time>2020-11-02T09:08:32Z</time>
      </trkpt>
      <trkpt lat="40.585025787353516" lon="-4.218585968017578">
        <ele>1332.532470703125</ele>
        <time>2020-11-02T09:08:35Z</time>
      </trkpt>
      <trkpt lat="40.58504867553711" lon="-4.2186737060546875">
        <ele>1332.532470703125</ele>
        <time>2020-11-02T09:08:38Z</time>
      </trkpt>
      <trkpt lat="40.5850715637207" lon="-4.218759536743164">
        <ele>1331.3507080078125</ele>
        <time>2020-11-02T09:08:41Z</time>
      </trkpt>
      <trkpt lat="40.5850944519043" lon="-4.218811511993408">
        <ele>1331.3507080078125</ele>
        <time>2020-11-02T09:08:43Z</time>
      </trkpt>
      <trkpt lat="40.58513259887695" lon="-4.218880653381348">
        <ele>1331.3507080078125</ele>
        <time>2020-11-02T09:08:46Z</time>
      </trkpt>
      <trkpt lat="40.58515930175781" lon="-4.2189621925354">
        <ele>1331.3507080078125</ele>
        <time>2020-11-02T09:08:49Z</time>
      </trkpt>
      <trkpt lat="40.585174560546875" lon="-4.21902322769165">
        <ele>1330.0780029296875</ele>
        <time>2020-11-02T09:08:51Z</time>
      </trkpt>
      <trkpt lat="40.585208892822266" lon="-4.219109535217285">
        <ele>1330.0780029296875</ele>
        <time>2020-11-02T09:08:54Z</time>
      </trkpt>
      <trkpt lat="40.58523941040039" lon="-4.219192028045654">
        <ele>1330.0780029296875</ele>
        <time>2020-11-02T09:08:57Z</time>
      </trkpt>
      <trkpt lat="40.58527374267578" lon="-4.219274997711182">
        <ele>1330.0780029296875</ele>
        <time>2020-11-02T09:09:00Z</time>
      </trkpt>
      <trkpt lat="40.58531951904297" lon="-4.219362735748291">
        <ele>1330.0780029296875</ele>
        <time>2020-11-02T09:09:03Z</time>
      </trkpt>
      <trkpt lat="40.585357666015625" lon="-4.219418525695801">
        <ele>1330.0780029296875</ele>
        <time>2020-11-02T09:09:05Z</time>
      </trkpt>
      <trkpt lat="40.58538818359375" lon="-4.219470500946045">
        <ele>1330.0780029296875</ele>
        <time>2020-11-02T09:09:07Z</time>
      </trkpt>
      <trkpt lat="40.58543014526367" lon="-4.219552993774414">
        <ele>1330.0780029296875</ele>
        <time>2020-11-02T09:09:10Z</time>
      </trkpt>
      <trkpt lat="40.5854606628418" lon="-4.219614505767822">
        <ele>1330.0780029296875</ele>
        <time>2020-11-02T09:09:12Z</time>
      </trkpt>
      <trkpt lat="40.58549118041992" lon="-4.2196736335754395">
        <ele>1328.896240234375</ele>
        <time>2020-11-02T09:09:14Z</time>
      </trkpt>
      <trkpt lat="40.58552169799805" lon="-4.219728946685791">
        <ele>1328.896240234375</ele>
        <time>2020-11-02T09:09:16Z</time>
      </trkpt>
      <trkpt lat="40.5855598449707" lon="-4.219778060913086">
        <ele>1328.896240234375</ele>
        <time>2020-11-02T09:09:18Z</time>
      </trkpt>
      <trkpt lat="40.58561325073242" lon="-4.219844818115234">
        <ele>1328.896240234375</ele>
        <time>2020-11-02T09:09:21Z</time>
      </trkpt>
      <trkpt lat="40.58565139770508" lon="-4.219891548156738">
        <ele>1328.896240234375</ele>
        <time>2020-11-02T09:09:23Z</time>
      </trkpt>
      <trkpt lat="40.585689544677734" lon="-4.219940185546875">
        <ele>1328.896240234375</ele>
        <time>2020-11-02T09:09:25Z</time>
      </trkpt>
      <trkpt lat="40.58573913574219" lon="-4.220022201538086">
        <ele>1328.896240234375</ele>
        <time>2020-11-02T09:09:28Z</time>
      </trkpt>
      <trkpt lat="40.58577346801758" lon="-4.220081806182861">
        <ele>1328.896240234375</ele>
        <time>2020-11-02T09:09:30Z</time>
      </trkpt>
      <trkpt lat="40.5858039855957" lon="-4.220144271850586">
        <ele>1328.896240234375</ele>
        <time>2020-11-02T09:09:32Z</time>
      </trkpt>
      <trkpt lat="40.585853576660156" lon="-4.220236778259277">
        <ele>1328.896240234375</ele>
        <time>2020-11-02T09:09:35Z</time>
      </trkpt>
      <trkpt lat="40.58588790893555" lon="-4.220300674438477">
        <ele>1328.896240234375</ele>
        <time>2020-11-02T09:09:37Z</time>
      </trkpt>
      <trkpt lat="40.58592224121094" lon="-4.220363140106201">
        <ele>1328.896240234375</ele>
        <time>2020-11-02T09:09:39Z</time>
      </trkpt>
      <trkpt lat="40.585960388183594" lon="-4.220424175262451">
        <ele>1328.896240234375</ele>
        <time>2020-11-02T09:09:41Z</time>
      </trkpt>
      <trkpt lat="40.585994720458984" lon="-4.220483779907227">
        <ele>1328.896240234375</ele>
        <time>2020-11-02T09:09:43Z</time>
      </trkpt>
      <trkpt lat="40.58603286743164" lon="-4.220540523529053">
        <ele>1328.896240234375</ele>
        <time>2020-11-02T09:09:45Z</time>
      </trkpt>
      <trkpt lat="40.58606719970703" lon="-4.220592975616455">
        <ele>1328.896240234375</ele>
        <time>2020-11-02T09:09:47Z</time>
      </trkpt>
      <trkpt lat="40.58610153198242" lon="-4.220645427703857">
        <ele>1328.896240234375</ele>
        <time>2020-11-02T09:09:49Z</time>
      </trkpt>
      <trkpt lat="40.586151123046875" lon="-4.2207207679748535">
        <ele>1328.896240234375</ele>
        <time>2020-11-02T09:09:52Z</time>
      </trkpt>
      <trkpt lat="40.58619689941406" lon="-4.220790863037109">
        <ele>1327.7144775390625</ele>
        <time>2020-11-02T09:09:55Z</time>
      </trkpt>
      <trkpt lat="40.58624267578125" lon="-4.220856189727783">
        <ele>1327.7144775390625</ele>
        <time>2020-11-02T09:09:58Z</time>
      </trkpt>
      <trkpt lat="40.58628463745117" lon="-4.2209272384643555">
        <ele>1327.7144775390625</ele>
        <time>2020-11-02T09:10:01Z</time>
      </trkpt>
      <trkpt lat="40.58633041381836" lon="-4.220996856689453">
        <ele>1327.7144775390625</ele>
        <time>2020-11-02T09:10:04Z</time>
      </trkpt>
      <trkpt lat="40.58638381958008" lon="-4.221072196960449">
        <ele>1327.7144775390625</ele>
        <time>2020-11-02T09:10:07Z</time>
      </trkpt>
      <trkpt lat="40.58642578125" lon="-4.2211198806762695">
        <ele>1327.7144775390625</ele>
        <time>2020-11-02T09:10:09Z</time>
      </trkpt>
      <trkpt lat="40.58646774291992" lon="-4.221166133880615">
        <ele>1327.7144775390625</ele>
        <time>2020-11-02T09:10:11Z</time>
      </trkpt>
      <trkpt lat="40.58651351928711" lon="-4.22121524810791">
        <ele>1327.7144775390625</ele>
        <time>2020-11-02T09:10:13Z</time>
      </trkpt>
      <trkpt lat="40.586551666259766" lon="-4.221261978149414">
        <ele>1327.7144775390625</ele>
        <time>2020-11-02T09:10:15Z</time>
      </trkpt>
      <trkpt lat="40.58659362792969" lon="-4.221310615539551">
        <ele>1327.7144775390625</ele>
        <time>2020-11-02T09:10:17Z</time>
      </trkpt>
      <trkpt lat="40.58663558959961" lon="-4.221360206604004">
        <ele>1327.7144775390625</ele>
        <time>2020-11-02T09:10:19Z</time>
      </trkpt>
      <trkpt lat="40.586673736572266" lon="-4.221409797668457">
        <ele>1326.53271484375</ele>
        <time>2020-11-02T09:10:21Z</time>
      </trkpt>
      <trkpt lat="40.58670425415039" lon="-4.221461772918701">
        <ele>1323.998291015625</ele>
        <time>2020-11-02T09:10:23Z</time>
      </trkpt>
      <trkpt lat="40.58673095703125" lon="-4.22152042388916">
        <ele>1323.998291015625</ele>
        <time>2020-11-02T09:10:25Z</time>
      </trkpt>
      <trkpt lat="40.586753845214844" lon="-4.221579551696777">
        <ele>1323.998291015625</ele>
        <time>2020-11-02T09:10:27Z</time>
      </trkpt>
      <trkpt lat="40.586788177490234" lon="-4.221662998199463">
        <ele>1322.8165283203125</ele>
        <time>2020-11-02T09:10:30Z</time>
      </trkpt>
      <trkpt lat="40.58682632446289" lon="-4.221746921539307">
        <ele>1322.8165283203125</ele>
        <time>2020-11-02T09:10:33Z</time>
      </trkpt>
      <trkpt lat="40.586849212646484" lon="-4.221805095672607">
        <ele>1322.8165283203125</ele>
        <time>2020-11-02T09:10:35Z</time>
      </trkpt>
      <trkpt lat="40.586891174316406" lon="-4.221892833709717">
        <ele>1322.8165283203125</ele>
        <time>2020-11-02T09:10:38Z</time>
      </trkpt>
      <trkpt lat="40.586917877197266" lon="-4.2219462394714355">
        <ele>1322.8165283203125</ele>
        <time>2020-11-02T09:10:40Z</time>
      </trkpt>
      <trkpt lat="40.58695602416992" lon="-4.222033500671387">
        <ele>1322.8165283203125</ele>
        <time>2020-11-02T09:10:43Z</time>
      </trkpt>
      <trkpt lat="40.58698272705078" lon="-4.2220916748046875">
        <ele>1322.8165283203125</ele>
        <time>2020-11-02T09:10:45Z</time>
      </trkpt>
      <trkpt lat="40.58701705932617" lon="-4.222146511077881">
        <ele>1322.8165283203125</ele>
        <time>2020-11-02T09:10:47Z</time>
      </trkpt>
      <trkpt lat="40.58705520629883" lon="-4.222198486328125">
        <ele>1321.634765625</ele>
        <time>2020-11-02T09:10:49Z</time>
      </trkpt>
      <trkpt lat="40.58708953857422" lon="-4.222246170043945">
        <ele>1321.634765625</ele>
        <time>2020-11-02T09:10:51Z</time>
      </trkpt>
      <trkpt lat="40.58714294433594" lon="-4.222309112548828">
        <ele>1320.362060546875</ele>
        <time>2020-11-02T09:10:54Z</time>
      </trkpt>
      <trkpt lat="40.58719253540039" lon="-4.222374439239502">
        <ele>1320.362060546875</ele>
        <time>2020-11-02T09:10:57Z</time>
      </trkpt>
      <trkpt lat="40.587242126464844" lon="-4.222442150115967">
        <ele>1320.362060546875</ele>
        <time>2020-11-02T09:11:00Z</time>
      </trkpt>
      <trkpt lat="40.58728790283203" lon="-4.2225117683410645">
        <ele>1320.362060546875</ele>
        <time>2020-11-02T09:11:03Z</time>
      </trkpt>
      <trkpt lat="40.587318420410156" lon="-4.222560882568359">
        <ele>1319.1802978515625</ele>
        <time>2020-11-02T09:11:05Z</time>
      </trkpt>
      <trkpt lat="40.58735656738281" lon="-4.22264289855957">
        <ele>1319.1802978515625</ele>
        <time>2020-11-02T09:11:08Z</time>
      </trkpt>
      <trkpt lat="40.58740234375" lon="-4.222720146179199">
        <ele>1319.1802978515625</ele>
        <time>2020-11-02T09:11:11Z</time>
      </trkpt>
      <trkpt lat="40.587432861328125" lon="-4.222773551940918">
        <ele>1319.1802978515625</ele>
        <time>2020-11-02T09:11:13Z</time>
      </trkpt>
      <trkpt lat="40.58747100830078" lon="-4.22286319732666">
        <ele>1319.1802978515625</ele>
        <time>2020-11-02T09:11:16Z</time>
      </trkpt>
      <trkpt lat="40.58749771118164" lon="-4.222927570343018">
        <ele>1319.1802978515625</ele>
        <time>2020-11-02T09:11:18Z</time>
      </trkpt>
      <trkpt lat="40.587528228759766" lon="-4.222990036010742">
        <ele>1317.9075927734375</ele>
        <time>2020-11-02T09:11:20Z</time>
      </trkpt>
      <trkpt lat="40.587562561035156" lon="-4.2230448722839355">
        <ele>1317.9075927734375</ele>
        <time>2020-11-02T09:11:22Z</time>
      </trkpt>
      <trkpt lat="40.58760070800781" lon="-4.223095893859863">
        <ele>1317.9075927734375</ele>
        <time>2020-11-02T09:11:24Z</time>
      </trkpt>
      <trkpt lat="40.587642669677734" lon="-4.223145961761475">
        <ele>1317.9075927734375</ele>
        <time>2020-11-02T09:11:26Z</time>
      </trkpt>
      <trkpt lat="40.58768081665039" lon="-4.223196983337402">
        <ele>1316.725830078125</ele>
        <time>2020-11-02T09:11:28Z</time>
      </trkpt>
      <trkpt lat="40.58771896362305" lon="-4.2232513427734375">
        <ele>1315.5440673828125</ele>
        <time>2020-11-02T09:11:30Z</time>
      </trkpt>
      <trkpt lat="40.58775329589844" lon="-4.2233052253723145">
        <ele>1315.5440673828125</ele>
        <time>2020-11-02T09:11:32Z</time>
      </trkpt>
      <trkpt lat="40.5877799987793" lon="-4.223390102386475">
        <ele>1314.3623046875</ele>
        <time>2020-11-02T09:11:35Z</time>
      </trkpt>
      <trkpt lat="40.58778762817383" lon="-4.223453044891357">
        <ele>1314.3623046875</ele>
        <time>2020-11-02T09:11:37Z</time>
      </trkpt>
      <trkpt lat="40.587799072265625" lon="-4.223552227020264">
        <ele>1314.3623046875</ele>
        <time>2020-11-02T09:11:40Z</time>
      </trkpt>
      <trkpt lat="40.587806701660156" lon="-4.223620891571045">
        <ele>1314.3623046875</ele>
        <time>2020-11-02T09:11:42Z</time>
      </trkpt>
      <trkpt lat="40.58781814575195" lon="-4.223684787750244">
        <ele>1314.3623046875</ele>
        <time>2020-11-02T09:11:44Z</time>
      </trkpt>
      <trkpt lat="40.58783721923828" lon="-4.22377347946167">
        <ele>1315.5440673828125</ele>
        <time>2020-11-02T09:11:47Z</time>
      </trkpt>
      <trkpt lat="40.58784866333008" lon="-4.223849296569824">
        <ele>1316.8167724609375</ele>
        <time>2020-11-02T09:11:50Z</time>
      </trkpt>
      <trkpt lat="40.587867736816406" lon="-4.223933219909668">
        <ele>1318.90771484375</ele>
        <time>2020-11-02T09:11:53Z</time>
      </trkpt>
      <trkpt lat="40.58789825439453" lon="-4.224023818969727">
        <ele>1322.089599609375</ele>
        <time>2020-11-02T09:11:56Z</time>
      </trkpt>
      <trkpt lat="40.58791732788086" lon="-4.224087238311768">
        <ele>1322.089599609375</ele>
        <time>2020-11-02T09:11:58Z</time>
      </trkpt>
      <trkpt lat="40.587955474853516" lon="-4.224168300628662">
        <ele>1320.81689453125</ele>
        <time>2020-11-02T09:12:01Z</time>
      </trkpt>
      <trkpt lat="40.58820724487305" lon="-4.224391460418701">
        <ele>1319.6351318359375</ele>
        <time>2020-11-02T09:13:00Z</time>
      </trkpt>
      <trkpt lat="40.58827590942383" lon="-4.224437236785889">
        <ele>1319.6351318359375</ele>
        <time>2020-11-02T09:13:05Z</time>
      </trkpt>
      <trkpt lat="40.58832550048828" lon="-4.2244744300842285">
        <ele>1318.1805419921875</ele>
        <time>2020-11-02T09:13:08Z</time>
      </trkpt>
      <trkpt lat="40.5883674621582" lon="-4.224502086639404">
        <ele>1318.1805419921875</ele>
        <time>2020-11-02T09:13:11Z</time>
      </trkpt>
      <trkpt lat="40.58842849731445" lon="-4.224528789520264">
        <ele>1316.998779296875</ele>
        <time>2020-11-02T09:13:15Z</time>
      </trkpt>
      <trkpt lat="40.588470458984375" lon="-4.224557876586914">
        <ele>1315.72607421875</ele>
        <time>2020-11-02T09:13:19Z</time>
      </trkpt>
      <trkpt lat="40.588417053222656" lon="-4.224513053894043">
        <ele>1314.3624267578125</ele>
        <time>2020-11-02T09:13:26Z</time>
      </trkpt>
      <trkpt lat="40.5883674621582" lon="-4.224483489990234">
        <ele>1313.1806640625</ele>
        <time>2020-11-02T09:13:29Z</time>
      </trkpt>
      <trkpt lat="40.588314056396484" lon="-4.22445011138916">
        <ele>1313.1806640625</ele>
        <time>2020-11-02T09:13:32Z</time>
      </trkpt>
      <trkpt lat="40.588260650634766" lon="-4.224410533905029">
        <ele>1311.9989013671875</ele>
        <time>2020-11-02T09:13:35Z</time>
      </trkpt>
      <trkpt lat="40.58820724487305" lon="-4.224370002746582">
        <ele>1311.9989013671875</ele>
        <time>2020-11-02T09:13:38Z</time>
      </trkpt>
      <trkpt lat="40.58815383911133" lon="-4.22432279586792">
        <ele>1310.7261962890625</ele>
        <time>2020-11-02T09:13:41Z</time>
      </trkpt>
      <trkpt lat="40.588104248046875" lon="-4.224287509918213">
        <ele>1310.7261962890625</ele>
        <time>2020-11-02T09:13:44Z</time>
      </trkpt>
      <trkpt lat="40.58805465698242" lon="-4.224271297454834">
        <ele>1309.4534912109375</ele>
        <time>2020-11-02T09:13:47Z</time>
      </trkpt>
      <trkpt lat="40.5880126953125" lon="-4.224280834197998">
        <ele>1309.4534912109375</ele>
        <time>2020-11-02T09:13:51Z</time>
      </trkpt>
      <trkpt lat="40.58803939819336" lon="-4.224369525909424">
        <ele>1309.4534912109375</ele>
        <time>2020-11-02T09:13:57Z</time>
      </trkpt>
      <trkpt lat="40.58804702758789" lon="-4.224430561065674">
        <ele>1308.271728515625</ele>
        <time>2020-11-02T09:14:01Z</time>
      </trkpt>
      <trkpt lat="40.58804702758789" lon="-4.224518775939941">
        <ele>1308.271728515625</ele>
        <time>2020-11-02T09:14:05Z</time>
      </trkpt>
      <trkpt lat="40.588043212890625" lon="-4.224597454071045">
        <ele>1308.271728515625</ele>
        <time>2020-11-02T09:14:08Z</time>
      </trkpt>
      <trkpt lat="40.58803939819336" lon="-4.224664688110352">
        <ele>1308.271728515625</ele>
        <time>2020-11-02T09:14:12Z</time>
      </trkpt>
      <trkpt lat="40.588043212890625" lon="-4.22475528717041">
        <ele>1308.271728515625</ele>
        <time>2020-11-02T09:14:18Z</time>
      </trkpt>
      <trkpt lat="40.58805847167969" lon="-4.224828243255615">
        <ele>1308.271728515625</ele>
        <time>2020-11-02T09:14:21Z</time>
      </trkpt>
      <trkpt lat="40.58808517456055" lon="-4.224913120269775">
        <ele>1308.271728515625</ele>
        <time>2020-11-02T09:14:24Z</time>
      </trkpt>
      <trkpt lat="40.58811950683594" lon="-4.225000858306885">
        <ele>1309.54443359375</ele>
        <time>2020-11-02T09:14:27Z</time>
      </trkpt>
      <trkpt lat="40.5881462097168" lon="-4.225060939788818">
        <ele>1309.54443359375</ele>
        <time>2020-11-02T09:14:29Z</time>
      </trkpt>
      <trkpt lat="40.58817672729492" lon="-4.225120544433594">
        <ele>1310.9080810546875</ele>
        <time>2020-11-02T09:14:31Z</time>
      </trkpt>
      <trkpt lat="40.58820724487305" lon="-4.225179195404053">
        <ele>1312.08984375</ele>
        <time>2020-11-02T09:14:33Z</time>
      </trkpt>
      <trkpt lat="40.58823013305664" lon="-4.225234508514404">
        <ele>1312.08984375</ele>
        <time>2020-11-02T09:14:35Z</time>
      </trkpt>
      <trkpt lat="40.58826446533203" lon="-4.2253217697143555">
        <ele>1312.08984375</ele>
        <time>2020-11-02T09:14:38Z</time>
      </trkpt>
      <trkpt lat="40.58829879760742" lon="-4.225405216217041">
        <ele>1312.08984375</ele>
        <time>2020-11-02T09:14:41Z</time>
      </trkpt>
      <trkpt lat="40.58831787109375" lon="-4.225465297698975">
        <ele>1312.08984375</ele>
        <time>2020-11-02T09:14:43Z</time>
      </trkpt>
      <trkpt lat="40.588348388671875" lon="-4.225553035736084">
        <ele>1312.08984375</ele>
        <time>2020-11-02T09:14:46Z</time>
      </trkpt>
      <trkpt lat="40.588375091552734" lon="-4.225627899169922">
        <ele>1312.08984375</ele>
        <time>2020-11-02T09:14:49Z</time>
      </trkpt>
      <trkpt lat="40.58840560913086" lon="-4.225695610046387">
        <ele>1312.08984375</ele>
        <time>2020-11-02T09:14:52Z</time>
      </trkpt>
      <trkpt lat="40.588436126708984" lon="-4.22576379776001">
        <ele>1312.08984375</ele>
        <time>2020-11-02T09:14:55Z</time>
      </trkpt>
      <trkpt lat="40.58845901489258" lon="-4.22583532333374">
        <ele>1312.08984375</ele>
        <time>2020-11-02T09:14:58Z</time>
      </trkpt>
      <trkpt lat="40.5884895324707" lon="-4.2259039878845215">
        <ele>1312.08984375</ele>
        <time>2020-11-02T09:15:01Z</time>
      </trkpt>
      <trkpt lat="40.58851623535156" lon="-4.225983142852783">
        <ele>1312.08984375</ele>
        <time>2020-11-02T09:15:04Z</time>
      </trkpt>
      <trkpt lat="40.588539123535156" lon="-4.226075172424316">
        <ele>1312.08984375</ele>
        <time>2020-11-02T09:15:07Z</time>
      </trkpt>
      <trkpt lat="40.588584899902344" lon="-4.226193904876709">
        <ele>1312.08984375</ele>
        <time>2020-11-02T09:15:11Z</time>
      </trkpt>
      <trkpt lat="40.5886116027832" lon="-4.22625207901001">
        <ele>1312.08984375</ele>
        <time>2020-11-02T09:15:13Z</time>
      </trkpt>
      <trkpt lat="40.58863830566406" lon="-4.2263102531433105">
        <ele>1312.08984375</ele>
        <time>2020-11-02T09:15:15Z</time>
      </trkpt>
      <trkpt lat="40.588680267333984" lon="-4.226393699645996">
        <ele>1312.08984375</ele>
        <time>2020-11-02T09:15:18Z</time>
      </trkpt>
      <trkpt lat="40.58871078491211" lon="-4.226447105407715">
        <ele>1312.08984375</ele>
        <time>2020-11-02T09:15:20Z</time>
      </trkpt>
      <trkpt lat="40.588748931884766" lon="-4.22649621963501">
        <ele>1312.08984375</ele>
        <time>2020-11-02T09:15:22Z</time>
      </trkpt>
      <trkpt lat="40.588905334472656" lon="-4.226805210113525">
        <ele>1313.2716064453125</ele>
        <time>2020-11-02T09:16:04Z</time>
      </trkpt>
      <trkpt lat="40.58892822265625" lon="-4.226924896240234">
        <ele>1313.2716064453125</ele>
        <time>2020-11-02T09:16:09Z</time>
      </trkpt>
      <trkpt lat="40.58894348144531" lon="-4.2269978523254395">
        <ele>1313.2716064453125</ele>
        <time>2020-11-02T09:16:11Z</time>
      </trkpt>
      <trkpt lat="40.588966369628906" lon="-4.227068901062012">
        <ele>1313.2716064453125</ele>
        <time>2020-11-02T09:16:13Z</time>
      </trkpt>
      <trkpt lat="40.5889892578125" lon="-4.227133750915527">
        <ele>1313.2716064453125</ele>
        <time>2020-11-02T09:16:15Z</time>
      </trkpt>
      <trkpt lat="40.58901596069336" lon="-4.227194309234619">
        <ele>1313.2716064453125</ele>
        <time>2020-11-02T09:16:17Z</time>
      </trkpt>
      <trkpt lat="40.589046478271484" lon="-4.227259159088135">
        <ele>1313.2716064453125</ele>
        <time>2020-11-02T09:16:19Z</time>
      </trkpt>
      <trkpt lat="40.589073181152344" lon="-4.227320671081543">
        <ele>1313.2716064453125</ele>
        <time>2020-11-02T09:16:21Z</time>
      </trkpt>
      <trkpt lat="40.589107513427734" lon="-4.227386474609375">
        <ele>1313.2716064453125</ele>
        <time>2020-11-02T09:16:23Z</time>
      </trkpt>
      <trkpt lat="40.589149475097656" lon="-4.227442741394043">
        <ele>1313.2716064453125</ele>
        <time>2020-11-02T09:16:25Z</time>
      </trkpt>
      <trkpt lat="40.58919143676758" lon="-4.227489948272705">
        <ele>1313.2716064453125</ele>
        <time>2020-11-02T09:16:27Z</time>
      </trkpt>
      <trkpt lat="40.589237213134766" lon="-4.2275309562683105">
        <ele>1313.2716064453125</ele>
        <time>2020-11-02T09:16:29Z</time>
      </trkpt>
      <trkpt lat="40.58927917480469" lon="-4.227575778961182">
        <ele>1313.2716064453125</ele>
        <time>2020-11-02T09:16:31Z</time>
      </trkpt>
      <trkpt lat="40.58932113647461" lon="-4.227618217468262">
        <ele>1311.9989013671875</ele>
        <time>2020-11-02T09:16:33Z</time>
      </trkpt>
      <trkpt lat="40.58937072753906" lon="-4.227652072906494">
        <ele>1311.9989013671875</ele>
        <time>2020-11-02T09:16:35Z</time>
      </trkpt>
      <trkpt lat="40.58944320678711" lon="-4.227687835693359">
        <ele>1311.9989013671875</ele>
        <time>2020-11-02T09:16:38Z</time>
      </trkpt>
      <trkpt lat="40.5894889831543" lon="-4.227717399597168">
        <ele>1311.9989013671875</ele>
        <time>2020-11-02T09:16:40Z</time>
      </trkpt>
      <trkpt lat="40.589534759521484" lon="-4.227747440338135">
        <ele>1311.9989013671875</ele>
        <time>2020-11-02T09:16:42Z</time>
      </trkpt>
      <trkpt lat="40.589603424072266" lon="-4.227807521820068">
        <ele>1311.9989013671875</ele>
        <time>2020-11-02T09:16:45Z</time>
      </trkpt>
      <trkpt lat="40.58964538574219" lon="-4.227848529815674">
        <ele>1311.9989013671875</ele>
        <time>2020-11-02T09:16:47Z</time>
      </trkpt>
      <trkpt lat="40.589691162109375" lon="-4.227890491485596">
        <ele>1311.9989013671875</ele>
        <time>2020-11-02T09:16:49Z</time>
      </trkpt>
      <trkpt lat="40.5897331237793" lon="-4.227932453155518">
        <ele>1310.63525390625</ele>
        <time>2020-11-02T09:16:51Z</time>
      </trkpt>
      <trkpt lat="40.58977508544922" lon="-4.227978229522705">
        <ele>1310.63525390625</ele>
        <time>2020-11-02T09:16:53Z</time>
      </trkpt>
      <trkpt lat="40.589820861816406" lon="-4.228026390075684">
        <ele>1309.4534912109375</ele>
        <time>2020-11-02T09:16:55Z</time>
      </trkpt>
      <trkpt lat="40.58988952636719" lon="-4.228092670440674">
        <ele>1308.271728515625</ele>
        <time>2020-11-02T09:16:58Z</time>
      </trkpt>
      <trkpt lat="40.58993911743164" lon="-4.22813081741333">
        <ele>1308.271728515625</ele>
        <time>2020-11-02T09:17:00Z</time>
      </trkpt>
      <trkpt lat="40.589988708496094" lon="-4.228156566619873">
        <ele>1306.817138671875</ele>
        <time>2020-11-02T09:17:02Z</time>
      </trkpt>
      <trkpt lat="40.59003829956055" lon="-4.228176116943359">
        <ele>1305.4534912109375</ele>
        <time>2020-11-02T09:17:04Z</time>
      </trkpt>
      <trkpt lat="40.590091705322266" lon="-4.2282328605651855">
        <ele>1303.9989013671875</ele>
        <time>2020-11-02T09:17:07Z</time>
      </trkpt>
      <trkpt lat="40.590126037597656" lon="-4.2283124923706055">
        <ele>1302.63525390625</ele>
        <time>2020-11-02T09:17:10Z</time>
      </trkpt>
      <trkpt lat="40.590152740478516" lon="-4.228370666503906">
        <ele>1300.9989013671875</ele>
        <time>2020-11-02T09:17:12Z</time>
      </trkpt>
      <trkpt lat="40.59017562866211" lon="-4.228425979614258">
        <ele>1299.4534912109375</ele>
        <time>2020-11-02T09:17:14Z</time>
      </trkpt>
      <trkpt lat="40.5902214050293" lon="-4.22851037979126">
        <ele>1298.271728515625</ele>
        <time>2020-11-02T09:17:17Z</time>
      </trkpt>
      <trkpt lat="40.59025192260742" lon="-4.228565216064453">
        <ele>1297.0899658203125</ele>
        <time>2020-11-02T09:17:19Z</time>
      </trkpt>
      <trkpt lat="40.59028625488281" lon="-4.228611469268799">
        <ele>1295.8172607421875</ele>
        <time>2020-11-02T09:17:21Z</time>
      </trkpt>
      <trkpt lat="40.59033966064453" lon="-4.228677749633789">
        <ele>1294.45361328125</ele>
        <time>2020-11-02T09:17:24Z</time>
      </trkpt>
      <trkpt lat="40.59039306640625" lon="-4.228734493255615">
        <ele>1293.0899658203125</ele>
        <time>2020-11-02T09:17:27Z</time>
      </trkpt>
      <trkpt lat="40.59042739868164" lon="-4.228776454925537">
        <ele>1291.908203125</ele>
        <time>2020-11-02T09:17:29Z</time>
      </trkpt>
      <trkpt lat="40.59046936035156" lon="-4.228843688964844">
        <ele>1290.36279296875</ele>
        <time>2020-11-02T09:17:32Z</time>
      </trkpt>
      <trkpt lat="40.59050750732422" lon="-4.228914737701416">
        <ele>1288.908203125</ele>
        <time>2020-11-02T09:17:35Z</time>
      </trkpt>
      <trkpt lat="40.590545654296875" lon="-4.228972911834717">
        <ele>1279.5570068359375</ele>
        <time>2020-11-02T09:17:38Z</time>
      </trkpt>
      <trkpt lat="40.59059143066406" lon="-4.229017734527588">
        <ele>1277.920654296875</ele>
        <time>2020-11-02T09:17:41Z</time>
      </trkpt>
      <trkpt lat="40.59064483642578" lon="-4.2290544509887695">
        <ele>1275.375244140625</ele>
        <time>2020-11-02T09:17:44Z</time>
      </trkpt>
      <trkpt lat="40.590694427490234" lon="-4.229083061218262">
        <ele>1274.0115966796875</ele>
        <time>2020-11-02T09:17:47Z</time>
      </trkpt>
      <trkpt lat="40.59074783325195" lon="-4.22911262512207">
        <ele>1272.64794921875</ele>
        <time>2020-11-02T09:17:50Z</time>
      </trkpt>
      <trkpt lat="40.590797424316406" lon="-4.229142665863037">
        <ele>1271.4661865234375</ele>
        <time>2020-11-02T09:17:53Z</time>
      </trkpt>
      <trkpt lat="40.590850830078125" lon="-4.229159355163574">
        <ele>1268.829833984375</ele>
        <time>2020-11-02T09:17:56Z</time>
      </trkpt>
      <trkpt lat="40.59090042114258" lon="-4.229180335998535">
        <ele>1267.375244140625</ele>
        <time>2020-11-02T09:17:59Z</time>
      </trkpt>
      <trkpt lat="40.590946197509766" lon="-4.229206085205078">
        <ele>1266.0115966796875</ele>
        <time>2020-11-02T09:18:02Z</time>
      </trkpt>
      <trkpt lat="40.59100341796875" lon="-4.229221820831299">
        <ele>1264.64794921875</ele>
        <time>2020-11-02T09:18:05Z</time>
      </trkpt>
      <trkpt lat="40.5910530090332" lon="-4.229233264923096">
        <ele>1262.284423828125</ele>
        <time>2020-11-02T09:18:08Z</time>
      </trkpt>
      <trkpt lat="40.59111404418945" lon="-4.229238510131836">
        <ele>1260.829833984375</ele>
        <time>2020-11-02T09:18:12Z</time>
      </trkpt>
      <trkpt lat="40.5911750793457" lon="-4.229236125946045">
        <ele>1257.829833984375</ele>
        <time>2020-11-02T09:18:16Z</time>
      </trkpt>
      <trkpt lat="40.591243743896484" lon="-4.229236125946045">
        <ele>1255.1934814453125</ele>
        <time>2020-11-02T09:18:20Z</time>
      </trkpt>
      <trkpt lat="40.59128952026367" lon="-4.22924280166626">
        <ele>1254.01171875</ele>
        <time>2020-11-02T09:18:23Z</time>
      </trkpt>
      <trkpt lat="40.59135437011719" lon="-4.229248523712158">
        <ele>1252.739013671875</ele>
        <time>2020-11-02T09:18:27Z</time>
      </trkpt>
      <trkpt lat="40.59142303466797" lon="-4.229250431060791">
        <ele>1251.46630859375</ele>
        <time>2020-11-02T09:18:31Z</time>
      </trkpt>
      <trkpt lat="40.591468811035156" lon="-4.229262828826904">
        <ele>1250.1026611328125</ele>
        <time>2020-11-02T09:18:34Z</time>
      </trkpt>
      <trkpt lat="40.59153366088867" lon="-4.229279041290283">
        <ele>1250.1026611328125</ele>
        <time>2020-11-02T09:18:38Z</time>
      </trkpt>
      <trkpt lat="40.59158706665039" lon="-4.229283332824707">
        <ele>1248.6480712890625</ele>
        <time>2020-11-02T09:18:43Z</time>
      </trkpt>
      <trkpt lat="40.59162902832031" lon="-4.229307174682617">
        <ele>1247.284423828125</ele>
        <time>2020-11-02T09:18:47Z</time>
      </trkpt>
      <trkpt lat="40.59169387817383" lon="-4.22933292388916">
        <ele>1245.9207763671875</ele>
        <time>2020-11-02T09:18:52Z</time>
      </trkpt>
      <trkpt lat="40.59175109863281" lon="-4.229333400726318">
        <ele>1245.9207763671875</ele>
        <time>2020-11-02T09:18:56Z</time>
      </trkpt>
      <trkpt lat="40.591800689697266" lon="-4.22933292388916">
        <ele>1242.9207763671875</ele>
        <time>2020-11-02T09:18:59Z</time>
      </trkpt>
      <trkpt lat="40.59185028076172" lon="-4.229335784912109">
        <ele>1241.739013671875</ele>
        <time>2020-11-02T09:19:03Z</time>
      </trkpt>
      <trkpt lat="40.5919075012207" lon="-4.229333877563477">
        <ele>1240.3753662109375</ele>
        <time>2020-11-02T09:19:08Z</time>
      </trkpt>
      <trkpt lat="40.59196472167969" lon="-4.229318141937256">
        <ele>1238.9207763671875</ele>
        <time>2020-11-02T09:19:12Z</time>
      </trkpt>
      <trkpt lat="40.59201431274414" lon="-4.229297161102295">
        <ele>1237.3753662109375</ele>
        <time>2020-11-02T09:19:15Z</time>
      </trkpt>
      <trkpt lat="40.59207534790039" lon="-4.229283809661865">
        <ele>1234.46630859375</ele>
        <time>2020-11-02T09:19:18Z</time>
      </trkpt>
      <trkpt lat="40.59213638305664" lon="-4.229252815246582">
        <ele>1233.1026611328125</ele>
        <time>2020-11-02T09:19:21Z</time>
      </trkpt>
      <trkpt lat="40.592201232910156" lon="-4.229222774505615">
        <ele>1231.6480712890625</ele>
        <time>2020-11-02T09:19:24Z</time>
      </trkpt>
      <trkpt lat="40.592254638671875" lon="-4.229209899902344">
        <ele>1230.284423828125</ele>
        <time>2020-11-02T09:19:27Z</time>
      </trkpt>
      <trkpt lat="40.59230422973633" lon="-4.229247570037842">
        <ele>1237.4637451171875</ele>
        <time>2020-11-02T09:19:31Z</time>
      </trkpt>
      <trkpt lat="40.59232711791992" lon="-4.2293171882629395">
        <ele>1235.9183349609375</ele>
        <time>2020-11-02T09:19:35Z</time>
      </trkpt>
      <trkpt lat="40.59236145019531" lon="-4.229377269744873">
        <ele>1233.1002197265625</ele>
        <time>2020-11-02T09:19:39Z</time>
      </trkpt>
      <trkpt lat="40.5924186706543" lon="-4.229430198669434">
        <ele>1231.91845703125</ele>
        <time>2020-11-02T09:19:43Z</time>
      </trkpt>
      <trkpt lat="40.59245681762695" lon="-4.2294697761535645">
        <ele>1229.2821044921875</ele>
        <time>2020-11-02T09:19:46Z</time>
      </trkpt>
      <trkpt lat="40.5925178527832" lon="-4.229503154754639">
        <ele>1228.0093994140625</ele>
        <time>2020-11-02T09:19:50Z</time>
      </trkpt>
      <trkpt lat="40.59256362915039" lon="-4.229542255401611">
        <ele>1226.7366943359375</ele>
        <time>2020-11-02T09:19:53Z</time>
      </trkpt>
      <trkpt lat="40.59260559082031" lon="-4.229590892791748">
        <ele>1225.554931640625</ele>
        <time>2020-11-02T09:19:57Z</time>
      </trkpt>
      <trkpt lat="40.5926399230957" lon="-4.229650974273682">
        <ele>1224.2822265625</ele>
        <time>2020-11-02T09:20:01Z</time>
      </trkpt>
      <trkpt lat="40.59267807006836" lon="-4.229709148406982">
        <ele>1222.73681640625</ele>
        <time>2020-11-02T09:20:04Z</time>
      </trkpt>
      <trkpt lat="40.59271240234375" lon="-4.229767799377441">
        <ele>1221.3731689453125</ele>
        <time>2020-11-02T09:20:07Z</time>
      </trkpt>
      <trkpt lat="40.59274673461914" lon="-4.229814529418945">
        <ele>1220.1004638671875</ele>
        <time>2020-11-02T09:20:10Z</time>
      </trkpt>
      <trkpt lat="40.5927848815918" lon="-4.229858875274658">
        <ele>1218.918701171875</ele>
        <time>2020-11-02T09:20:13Z</time>
      </trkpt>
      <trkpt lat="40.592830657958984" lon="-4.2299065589904785">
        <ele>1217.373291015625</ele>
        <time>2020-11-02T09:20:17Z</time>
      </trkpt>
      <trkpt lat="40.592872619628906" lon="-4.22996187210083">
        <ele>1215.918701171875</ele>
        <time>2020-11-02T09:20:21Z</time>
      </trkpt>
      <trkpt lat="40.59291458129883" lon="-4.230008125305176">
        <ele>1214.19140625</ele>
        <time>2020-11-02T09:20:24Z</time>
      </trkpt>
      <trkpt lat="40.59294891357422" lon="-4.2300567626953125">
        <ele>1213.0096435546875</ele>
        <time>2020-11-02T09:20:27Z</time>
      </trkpt>
      <trkpt lat="40.592994689941406" lon="-4.2301154136657715">
        <ele>1213.0096435546875</ele>
        <time>2020-11-02T09:20:31Z</time>
      </trkpt>
      <trkpt lat="40.593055725097656" lon="-4.230155944824219">
        <ele>1211.827880859375</ele>
        <time>2020-11-02T09:20:35Z</time>
      </trkpt>
      <trkpt lat="40.59310531616211" lon="-4.2301812171936035">
        <ele>1210.373291015625</ele>
        <time>2020-11-02T09:20:38Z</time>
      </trkpt>
      <trkpt lat="40.59315490722656" lon="-4.230204105377197">
        <ele>1209.0096435546875</ele>
        <time>2020-11-02T09:20:41Z</time>
      </trkpt>
      <trkpt lat="40.59320068359375" lon="-4.230247974395752">
        <ele>1209.0096435546875</ele>
        <time>2020-11-02T09:20:44Z</time>
      </trkpt>
      <trkpt lat="40.593238830566406" lon="-4.230308532714844">
        <ele>1207.7369384765625</ele>
        <time>2020-11-02T09:20:47Z</time>
      </trkpt>
      <trkpt lat="40.593257904052734" lon="-4.230381488800049">
        <ele>1206.373291015625</ele>
        <time>2020-11-02T09:20:50Z</time>
      </trkpt>
      <trkpt lat="40.59328079223633" lon="-4.230461597442627">
        <ele>1206.373291015625</ele>
        <time>2020-11-02T09:20:53Z</time>
      </trkpt>
      <trkpt lat="40.59331130981445" lon="-4.230539798736572">
        <ele>1204.918701171875</ele>
        <time>2020-11-02T09:20:56Z</time>
      </trkpt>
      <trkpt lat="40.593345642089844" lon="-4.230615139007568">
        <ele>1203.7369384765625</ele>
        <time>2020-11-02T09:20:59Z</time>
      </trkpt>
      <trkpt lat="40.5933723449707" lon="-4.2306952476501465">
        <ele>1202.55517578125</ele>
        <time>2020-11-02T09:21:02Z</time>
      </trkpt>
      <trkpt lat="40.59340286254883" lon="-4.230780124664307">
        <ele>1201.3734130859375</ele>
        <time>2020-11-02T09:21:05Z</time>
      </trkpt>
      <trkpt lat="40.59345245361328" lon="-4.230846881866455">
        <ele>1200.009765625</ele>
        <time>2020-11-02T09:21:08Z</time>
      </trkpt>
      <trkpt lat="40.5935173034668" lon="-4.230886459350586">
        <ele>1198.1915283203125</ele>
        <time>2020-11-02T09:21:11Z</time>
      </trkpt>
      <trkpt lat="40.593563079833984" lon="-4.2309041023254395">
        <ele>1195.1005859375</ele>
        <time>2020-11-02T09:21:13Z</time>
      </trkpt>
      <trkpt lat="40.593631744384766" lon="-4.230925559997559">
        <ele>1193.9188232421875</ele>
        <time>2020-11-02T09:21:16Z</time>
      </trkpt>
      <trkpt lat="40.59370803833008" lon="-4.230929374694824">
        <ele>1192.55517578125</ele>
        <time>2020-11-02T09:21:19Z</time>
      </trkpt>
      <trkpt lat="40.593772888183594" lon="-4.230903148651123">
        <ele>1191.3734130859375</ele>
        <time>2020-11-02T09:21:22Z</time>
      </trkpt>
      <trkpt lat="40.59382629394531" lon="-4.230855941772461">
        <ele>1190.1007080078125</ele>
        <time>2020-11-02T09:21:25Z</time>
      </trkpt>
      <trkpt lat="40.59388732910156" lon="-4.2308149337768555">
        <ele>1190.1007080078125</ele>
        <time>2020-11-02T09:21:28Z</time>
      </trkpt>
      <trkpt lat="40.59394073486328" lon="-4.230766296386719">
        <ele>1188.5552978515625</ele>
        <time>2020-11-02T09:21:31Z</time>
      </trkpt>
      <trkpt lat="40.593997955322266" lon="-4.230716228485107">
        <ele>1187.2825927734375</ele>
        <time>2020-11-02T09:21:34Z</time>
      </trkpt>
      <trkpt lat="40.59403610229492" lon="-4.230687141418457">
        <ele>1185.9189453125</ele>
        <time>2020-11-02T09:21:36Z</time>
      </trkpt>
      <trkpt lat="40.5941047668457" lon="-4.230655193328857">
        <ele>1180.0263671875</ele>
        <time>2020-11-02T09:21:39Z</time>
      </trkpt>
      <trkpt lat="40.59415054321289" lon="-4.230635166168213">
        <ele>1180.0263671875</ele>
        <time>2020-11-02T09:21:41Z</time>
      </trkpt>
      <trkpt lat="40.59421157836914" lon="-4.230616569519043">
        <ele>1180.0263671875</ele>
        <time>2020-11-02T09:21:44Z</time>
      </trkpt>
      <trkpt lat="40.594276428222656" lon="-4.230616092681885">
        <ele>1178.8446044921875</ele>
        <time>2020-11-02T09:21:47Z</time>
      </trkpt>
      <trkpt lat="40.594337463378906" lon="-4.2306227684021">
        <ele>1177.5718994140625</ele>
        <time>2020-11-02T09:21:50Z</time>
      </trkpt>
      <trkpt lat="40.59440231323242" lon="-4.230641841888428">
        <ele>1177.5718994140625</ele>
        <time>2020-11-02T09:21:53Z</time>
      </trkpt>
      <trkpt lat="40.59445571899414" lon="-4.230672359466553">
        <ele>1176.2991943359375</ele>
        <time>2020-11-02T09:21:56Z</time>
      </trkpt>
      <trkpt lat="40.594505310058594" lon="-4.230705738067627">
        <ele>1175.117431640625</ele>
        <time>2020-11-02T09:21:59Z</time>
      </trkpt>
      <trkpt lat="40.59455871582031" lon="-4.230733394622803">
        <ele>1175.117431640625</ele>
        <time>2020-11-02T09:22:02Z</time>
      </trkpt>
      <trkpt lat="40.59461975097656" lon="-4.230743408203125">
        <ele>1175.117431640625</ele>
        <time>2020-11-02T09:22:05Z</time>
      </trkpt>
      <trkpt lat="40.59467697143555" lon="-4.230759143829346">
        <ele>1173.8447265625</ele>
        <time>2020-11-02T09:22:08Z</time>
      </trkpt>
      <trkpt lat="40.59465408325195" lon="-4.230800628662109">
        <ele>1173.8447265625</ele>
        <time>2020-11-02T09:22:13Z</time>
      </trkpt>
      <trkpt lat="40.59459686279297" lon="-4.230819225311279">
        <ele>1173.8447265625</ele>
        <time>2020-11-02T09:22:16Z</time>
      </trkpt>
      <trkpt lat="40.59454345703125" lon="-4.230854034423828">
        <ele>1173.8447265625</ele>
        <time>2020-11-02T09:22:19Z</time>
      </trkpt>
      <trkpt lat="40.59449005126953" lon="-4.230896472930908">
        <ele>1173.8447265625</ele>
        <time>2020-11-02T09:22:22Z</time>
      </trkpt>
      <trkpt lat="40.59443283081055" lon="-4.230952262878418">
        <ele>1172.6629638671875</ele>
        <time>2020-11-02T09:22:25Z</time>
      </trkpt>
      <trkpt lat="40.594425201416016" lon="-4.231020450592041">
        <ele>1172.6629638671875</ele>
        <time>2020-11-02T09:22:28Z</time>
      </trkpt>
      <trkpt lat="40.594451904296875" lon="-4.231082916259766">
        <ele>1172.6629638671875</ele>
        <time>2020-11-02T09:22:31Z</time>
      </trkpt>
      <trkpt lat="40.594505310058594" lon="-4.231076240539551">
        <ele>1172.6629638671875</ele>
        <time>2020-11-02T09:22:34Z</time>
      </trkpt>
      <trkpt lat="40.594566345214844" lon="-4.231036186218262">
        <ele>1172.6629638671875</ele>
        <time>2020-11-02T09:22:37Z</time>
      </trkpt>
      <trkpt lat="40.59461212158203" lon="-4.2310028076171875">
        <ele>1172.6629638671875</ele>
        <time>2020-11-02T09:22:39Z</time>
      </trkpt>
      <trkpt lat="40.59465789794922" lon="-4.230969429016113">
        <ele>1172.6629638671875</ele>
        <time>2020-11-02T09:22:41Z</time>
      </trkpt>
      <trkpt lat="40.59470748901367" lon="-4.230935096740723">
        <ele>1171.3902587890625</ele>
        <time>2020-11-02T09:22:43Z</time>
      </trkpt>
      <trkpt lat="40.59476089477539" lon="-4.230897903442383">
        <ele>1171.3902587890625</ele>
        <time>2020-11-02T09:22:45Z</time>
      </trkpt>
      <trkpt lat="40.59480667114258" lon="-4.230863094329834">
        <ele>1171.3902587890625</ele>
        <time>2020-11-02T09:22:47Z</time>
      </trkpt>
      <trkpt lat="40.59485626220703" lon="-4.230827331542969">
        <ele>1171.3902587890625</ele>
        <time>2020-11-02T09:22:49Z</time>
      </trkpt>
      <trkpt lat="40.594905853271484" lon="-4.230788707733154">
        <ele>1171.3902587890625</ele>
        <time>2020-11-02T09:22:51Z</time>
      </trkpt>
      <trkpt lat="40.59495544433594" lon="-4.230751037597656">
        <ele>1171.3902587890625</ele>
        <time>2020-11-02T09:22:53Z</time>
      </trkpt>
      <trkpt lat="40.595001220703125" lon="-4.230713844299316">
        <ele>1170.20849609375</ele>
        <time>2020-11-02T09:22:55Z</time>
      </trkpt>
      <trkpt lat="40.59505081176758" lon="-4.230678081512451">
        <ele>1170.20849609375</ele>
        <time>2020-11-02T09:22:57Z</time>
      </trkpt>
      <trkpt lat="40.59510040283203" lon="-4.230643272399902">
        <ele>1170.20849609375</ele>
        <time>2020-11-02T09:22:59Z</time>
      </trkpt>
      <trkpt lat="40.59514617919922" lon="-4.2306084632873535">
        <ele>1170.20849609375</ele>
        <time>2020-11-02T09:23:01Z</time>
      </trkpt>
      <trkpt lat="40.595191955566406" lon="-4.230576038360596">
        <ele>1170.20849609375</ele>
        <time>2020-11-02T09:23:03Z</time>
      </trkpt>
      <trkpt lat="40.59526443481445" lon="-4.230524063110352">
        <ele>1170.20849609375</ele>
        <time>2020-11-02T09:23:06Z</time>
      </trkpt>
      <trkpt lat="40.595314025878906" lon="-4.230490684509277">
        <ele>1171.481201171875</ele>
        <time>2020-11-02T09:23:08Z</time>
      </trkpt>
      <trkpt lat="40.59536361694336" lon="-4.23046350479126">
        <ele>1171.481201171875</ele>
        <time>2020-11-02T09:23:10Z</time>
      </trkpt>
      <trkpt lat="40.59544372558594" lon="-4.230442523956299">
        <ele>1171.481201171875</ele>
        <time>2020-11-02T09:23:13Z</time>
      </trkpt>
      <trkpt lat="40.595497131347656" lon="-4.230422496795654">
        <ele>1171.481201171875</ele>
        <time>2020-11-02T09:23:15Z</time>
      </trkpt>
      <trkpt lat="40.59553527832031" lon="-4.230383396148682">
        <ele>1172.6629638671875</ele>
        <time>2020-11-02T09:23:17Z</time>
      </trkpt>
      <trkpt lat="40.5955696105957" lon="-4.230327606201172">
        <ele>1172.6629638671875</ele>
        <time>2020-11-02T09:23:19Z</time>
      </trkpt>
      <trkpt lat="40.59560012817383" lon="-4.230273246765137">
        <ele>1172.6629638671875</ele>
        <time>2020-11-02T09:23:21Z</time>
      </trkpt>
      <trkpt lat="40.595645904541016" lon="-4.230191707611084">
        <ele>1172.6629638671875</ele>
        <time>2020-11-02T09:23:24Z</time>
      </trkpt>
      <trkpt lat="40.59566879272461" lon="-4.230136871337891">
        <ele>1173.8447265625</ele>
        <time>2020-11-02T09:23:26Z</time>
      </trkpt>
      <trkpt lat="40.595703125" lon="-4.230056285858154">
        <ele>1173.8447265625</ele>
        <time>2020-11-02T09:23:29Z</time>
      </trkpt>
      <trkpt lat="40.59571075439453" lon="-4.229987621307373">
        <ele>1173.8447265625</ele>
        <time>2020-11-02T09:23:32Z</time>
      </trkpt>
      <trkpt lat="40.595733642578125" lon="-4.229913711547852">
        <ele>1173.8447265625</ele>
        <time>2020-11-02T09:23:35Z</time>
      </trkpt>
      <trkpt lat="40.595767974853516" lon="-4.2298359870910645">
        <ele>1173.04296875</ele>
        <time>2020-11-02T09:23:38Z</time>
      </trkpt>
      <trkpt lat="40.59580612182617" lon="-4.229757308959961">
        <ele>1174.2247314453125</ele>
        <time>2020-11-02T09:23:41Z</time>
      </trkpt>
      <trkpt lat="40.59584045410156" lon="-4.229677677154541">
        <ele>1174.2247314453125</ele>
        <time>2020-11-02T09:23:44Z</time>
      </trkpt>
      <trkpt lat="40.59586715698242" lon="-4.229625225067139">
        <ele>1175.4974365234375</ele>
        <time>2020-11-02T09:23:46Z</time>
      </trkpt>
      <trkpt lat="40.59590530395508" lon="-4.229548454284668">
        <ele>1176.7701416015625</ele>
        <time>2020-11-02T09:23:49Z</time>
      </trkpt>
      <trkpt lat="40.595951080322266" lon="-4.229477405548096">
        <ele>1176.7701416015625</ele>
        <time>2020-11-02T09:23:52Z</time>
      </trkpt>
      <trkpt lat="40.59599304199219" lon="-4.2294182777404785">
        <ele>1178.0428466796875</ele>
        <time>2020-11-02T09:23:55Z</time>
      </trkpt>
      <trkpt lat="40.59603500366211" lon="-4.2293548583984375">
        <ele>1178.0428466796875</ele>
        <time>2020-11-02T09:23:58Z</time>
      </trkpt>
      <trkpt lat="40.5960693359375" lon="-4.229287624359131">
        <ele>1178.0428466796875</ele>
        <time>2020-11-02T09:24:01Z</time>
      </trkpt>
      <trkpt lat="40.59609603881836" lon="-4.229225158691406">
        <ele>1179.3155517578125</ele>
        <time>2020-11-02T09:24:04Z</time>
      </trkpt>
      <trkpt lat="40.59612274169922" lon="-4.229162216186523">
        <ele>1179.3155517578125</ele>
        <time>2020-11-02T09:24:07Z</time>
      </trkpt>
      <trkpt lat="40.59613800048828" lon="-4.229100227355957">
        <ele>1180.497314453125</ele>
        <time>2020-11-02T09:24:10Z</time>
      </trkpt>
      <trkpt lat="40.59616470336914" lon="-4.229026794433594">
        <ele>1180.497314453125</ele>
        <time>2020-11-02T09:24:14Z</time>
      </trkpt>
      <trkpt lat="40.5961799621582" lon="-4.228950023651123">
        <ele>1180.497314453125</ele>
        <time>2020-11-02T09:24:18Z</time>
      </trkpt>
      <trkpt lat="40.596187591552734" lon="-4.228874206542969">
        <ele>1181.6790771484375</ele>
        <time>2020-11-02T09:24:21Z</time>
      </trkpt>
      <trkpt lat="40.596187591552734" lon="-4.228793621063232">
        <ele>1181.6790771484375</ele>
        <time>2020-11-02T09:24:24Z</time>
      </trkpt>
      <trkpt lat="40.59619903564453" lon="-4.228710174560547">
        <ele>1181.6790771484375</ele>
        <time>2020-11-02T09:24:27Z</time>
      </trkpt>
      <trkpt lat="40.59620666503906" lon="-4.228641510009766">
        <ele>1182.86083984375</ele>
        <time>2020-11-02T09:24:30Z</time>
      </trkpt>
      <trkpt lat="40.596214294433594" lon="-4.228571891784668">
        <ele>1182.86083984375</ele>
        <time>2020-11-02T09:24:33Z</time>
      </trkpt>
      <trkpt lat="40.59621047973633" lon="-4.228496551513672">
        <ele>1182.86083984375</ele>
        <time>2020-11-02T09:24:36Z</time>
      </trkpt>
      <trkpt lat="40.59619903564453" lon="-4.228421688079834">
        <ele>1181.588134765625</ele>
        <time>2020-11-02T09:24:39Z</time>
      </trkpt>
      <trkpt lat="40.5961799621582" lon="-4.228349208831787">
        <ele>1184.6790771484375</ele>
        <time>2020-11-02T09:24:42Z</time>
      </trkpt>
      <trkpt lat="40.59614944458008" lon="-4.228285789489746">
        <ele>1186.042724609375</ele>
        <time>2020-11-02T09:24:45Z</time>
      </trkpt>
      <trkpt lat="40.59612274169922" lon="-4.228219509124756">
        <ele>1187.3154296875</ele>
        <time>2020-11-02T09:24:48Z</time>
      </trkpt>
      <trkpt lat="40.596092224121094" lon="-4.228153705596924">
        <ele>1188.6790771484375</ele>
        <time>2020-11-02T09:24:51Z</time>
      </trkpt>
      <trkpt lat="40.596065521240234" lon="-4.228088855743408">
        <ele>1188.6790771484375</ele>
        <time>2020-11-02T09:24:54Z</time>
      </trkpt>
      <trkpt lat="40.596038818359375" lon="-4.22802209854126">
        <ele>1189.86083984375</ele>
        <time>2020-11-02T09:24:57Z</time>
      </trkpt>
      <trkpt lat="40.59600067138672" lon="-4.227961540222168">
        <ele>1189.86083984375</ele>
        <time>2020-11-02T09:25:00Z</time>
      </trkpt>
      <trkpt lat="40.59596252441406" lon="-4.2279205322265625">
        <ele>1191.133544921875</ele>
        <time>2020-11-02T09:25:03Z</time>
      </trkpt>
      <trkpt lat="40.59593963623047" lon="-4.227847576141357">
        <ele>1191.133544921875</ele>
        <time>2020-11-02T09:25:07Z</time>
      </trkpt>
      <trkpt lat="40.595909118652344" lon="-4.22776985168457">
        <ele>1191.133544921875</ele>
        <time>2020-11-02T09:25:11Z</time>
      </trkpt>
      <trkpt lat="40.59587478637695" lon="-4.227707862854004">
        <ele>1192.3153076171875</ele>
        <time>2020-11-02T09:25:15Z</time>
      </trkpt>
      <trkpt lat="40.5958366394043" lon="-4.227650165557861">
        <ele>1192.3153076171875</ele>
        <time>2020-11-02T09:25:19Z</time>
      </trkpt>
      <trkpt lat="40.595787048339844" lon="-4.227595806121826">
        <ele>1192.3153076171875</ele>
        <time>2020-11-02T09:25:23Z</time>
      </trkpt>
      <trkpt lat="40.59574508666992" lon="-4.227558135986328">
        <ele>1193.678955078125</ele>
        <time>2020-11-02T09:25:26Z</time>
      </trkpt>
      <trkpt lat="40.59569549560547" lon="-4.227513313293457">
        <ele>1193.678955078125</ele>
        <time>2020-11-02T09:25:29Z</time>
      </trkpt>
      <trkpt lat="40.59565353393555" lon="-4.227461338043213">
        <ele>1194.8607177734375</ele>
        <time>2020-11-02T09:25:32Z</time>
      </trkpt>
      <trkpt lat="40.595611572265625" lon="-4.227403163909912">
        <ele>1189.9483642578125</ele>
        <time>2020-11-02T09:25:35Z</time>
      </trkpt>
      <trkpt lat="40.595558166503906" lon="-4.22734260559082">
        <ele>1191.130126953125</ele>
        <time>2020-11-02T09:25:38Z</time>
      </trkpt>
      <trkpt lat="40.59551239013672" lon="-4.227283477783203">
        <ele>1191.130126953125</ele>
        <time>2020-11-02T09:25:41Z</time>
      </trkpt>
      <trkpt lat="40.59546661376953" lon="-4.227229118347168">
        <ele>1191.130126953125</ele>
        <time>2020-11-02T09:25:44Z</time>
      </trkpt>
      <trkpt lat="40.595420837402344" lon="-4.227190017700195">
        <ele>1192.3118896484375</ele>
        <time>2020-11-02T09:25:47Z</time>
      </trkpt>
      <trkpt lat="40.59537887573242" lon="-4.2271623611450195">
        <ele>1192.3118896484375</ele>
        <time>2020-11-02T09:25:50Z</time>
      </trkpt>
      <trkpt lat="40.59532165527344" lon="-4.227128505706787">
        <ele>1193.675537109375</ele>
        <time>2020-11-02T09:25:54Z</time>
      </trkpt>
      <trkpt lat="40.595272064208984" lon="-4.227103233337402">
        <ele>1193.675537109375</ele>
        <time>2020-11-02T09:25:57Z</time>
      </trkpt>
      <trkpt lat="40.59523010253906" lon="-4.227071762084961">
        <ele>1194.8572998046875</ele>
        <time>2020-11-02T09:26:00Z</time>
      </trkpt>
      <trkpt lat="40.595191955566406" lon="-4.227006912231445">
        <ele>1196.1300048828125</ele>
        <time>2020-11-02T09:26:04Z</time>
      </trkpt>
      <trkpt lat="40.595149993896484" lon="-4.226927757263184">
        <ele>1196.1300048828125</ele>
        <time>2020-11-02T09:26:08Z</time>
      </trkpt>
      <trkpt lat="40.59511947631836" lon="-4.226856231689453">
        <ele>1197.311767578125</ele>
        <time>2020-11-02T09:26:11Z</time>
      </trkpt>
      <trkpt lat="40.59508514404297" lon="-4.226791858673096">
        <ele>1198.58447265625</ele>
        <time>2020-11-02T09:26:14Z</time>
      </trkpt>
      <trkpt lat="40.59506607055664" lon="-4.226715564727783">
        <ele>1199.7662353515625</ele>
        <time>2020-11-02T09:26:17Z</time>
      </trkpt>
      <trkpt lat="40.595054626464844" lon="-4.226646900177002">
        <ele>1199.7662353515625</ele>
        <time>2020-11-02T09:26:20Z</time>
      </trkpt>
      <trkpt lat="40.59504318237305" lon="-4.226581573486328">
        <ele>1200.947998046875</ele>
        <time>2020-11-02T09:26:23Z</time>
      </trkpt>
      <trkpt lat="40.59503173828125" lon="-4.226498603820801">
        <ele>1200.947998046875</ele>
        <time>2020-11-02T09:26:27Z</time>
      </trkpt>
      <trkpt lat="40.59502410888672" lon="-4.226414680480957">
        <ele>1202.1297607421875</ele>
        <time>2020-11-02T09:26:31Z</time>
      </trkpt>
      <trkpt lat="40.595027923583984" lon="-4.226341724395752">
        <ele>1202.1297607421875</ele>
        <time>2020-11-02T09:26:35Z</time>
      </trkpt>
      <trkpt lat="40.59503173828125" lon="-4.2262701988220215">
        <ele>1202.1297607421875</ele>
        <time>2020-11-02T09:26:39Z</time>
      </trkpt>
      <trkpt lat="40.59502410888672" lon="-4.226196765899658">
        <ele>1202.1297607421875</ele>
        <time>2020-11-02T09:26:43Z</time>
      </trkpt>
      <trkpt lat="40.59499740600586" lon="-4.226134777069092">
        <ele>1203.4024658203125</ele>
        <time>2020-11-02T09:26:47Z</time>
      </trkpt>
      <trkpt lat="40.594966888427734" lon="-4.226080894470215">
        <ele>1203.4024658203125</ele>
        <time>2020-11-02T09:26:51Z</time>
      </trkpt>
      <trkpt lat="40.594932556152344" lon="-4.226016044616699">
        <ele>1204.584228515625</ele>
        <time>2020-11-02T09:26:55Z</time>
      </trkpt>
      <trkpt lat="40.594905853271484" lon="-4.225953102111816">
        <ele>1204.584228515625</ele>
        <time>2020-11-02T09:26:58Z</time>
      </trkpt>
      <trkpt lat="40.594871520996094" lon="-4.225890636444092">
        <ele>1205.7659912109375</ele>
        <time>2020-11-02T09:27:01Z</time>
      </trkpt>
      <trkpt lat="40.5948486328125" lon="-4.225827693939209">
        <ele>1205.7659912109375</ele>
        <time>2020-11-02T09:27:04Z</time>
      </trkpt>
      <trkpt lat="40.59484100341797" lon="-4.225761890411377">
        <ele>1207.0386962890625</ele>
        <time>2020-11-02T09:27:07Z</time>
      </trkpt>
      <trkpt lat="40.59483337402344" lon="-4.225690841674805">
        <ele>1207.0386962890625</ele>
        <time>2020-11-02T09:27:10Z</time>
      </trkpt>
      <trkpt lat="40.59481430053711" lon="-4.2256245613098145">
        <ele>1208.3114013671875</ele>
        <time>2020-11-02T09:27:13Z</time>
      </trkpt>
      <trkpt lat="40.59477996826172" lon="-4.225569248199463">
        <ele>1209.4931640625</ele>
        <time>2020-11-02T09:27:16Z</time>
      </trkpt>
      <trkpt lat="40.59474182128906" lon="-4.225518703460693">
        <ele>1209.4931640625</ele>
        <time>2020-11-02T09:27:19Z</time>
      </trkpt>
      <trkpt lat="40.594703674316406" lon="-4.2254719734191895">
        <ele>1209.4931640625</ele>
        <time>2020-11-02T09:27:22Z</time>
      </trkpt>
      <trkpt lat="40.59467697143555" lon="-4.225405693054199">
        <ele>1210.765869140625</ele>
        <time>2020-11-02T09:27:26Z</time>
      </trkpt>
      <trkpt lat="40.59467697143555" lon="-4.225331783294678">
        <ele>1214.36181640625</ele>
        <time>2020-11-02T09:27:30Z</time>
      </trkpt>
      <trkpt lat="40.594661712646484" lon="-4.225253105163574">
        <ele>1214.36181640625</ele>
        <time>2020-11-02T09:27:34Z</time>
      </trkpt>
      <trkpt lat="40.59465026855469" lon="-4.225185871124268">
        <ele>1215.634521484375</ele>
        <time>2020-11-02T09:27:37Z</time>
      </trkpt>
      <trkpt lat="40.59463119506836" lon="-4.225122928619385">
        <ele>1215.634521484375</ele>
        <time>2020-11-02T09:27:40Z</time>
      </trkpt>
      <trkpt lat="40.59461975097656" lon="-4.225048542022705">
        <ele>1216.9981689453125</ele>
        <time>2020-11-02T09:27:44Z</time>
      </trkpt>
      <trkpt lat="40.59464645385742" lon="-4.224958896636963">
        <ele>1216.9981689453125</ele>
        <time>2020-11-02T09:27:48Z</time>
      </trkpt>
      <trkpt lat="40.59468460083008" lon="-4.224900245666504">
        <ele>1218.179931640625</ele>
        <time>2020-11-02T09:27:51Z</time>
      </trkpt>
      <trkpt lat="40.5947265625" lon="-4.224842548370361">
        <ele>1218.179931640625</ele>
        <time>2020-11-02T09:27:55Z</time>
      </trkpt>
      <trkpt lat="40.59477233886719" lon="-4.224775791168213">
        <ele>1219.3616943359375</ele>
        <time>2020-11-02T09:27:59Z</time>
      </trkpt>
      <trkpt lat="40.5948371887207" lon="-4.224730491638184">
        <ele>1220.54345703125</ele>
        <time>2020-11-02T09:28:04Z</time>
      </trkpt>
      <trkpt lat="40.594879150390625" lon="-4.22469425201416">
        <ele>1220.54345703125</ele>
        <time>2020-11-02T09:28:07Z</time>
      </trkpt>
      <trkpt lat="40.59492874145508" lon="-4.224656105041504">
        <ele>1220.54345703125</ele>
        <time>2020-11-02T09:28:10Z</time>
      </trkpt>
      <trkpt lat="40.594970703125" lon="-4.224624156951904">
        <ele>1221.7252197265625</ele>
        <time>2020-11-02T09:28:13Z</time>
      </trkpt>
      <trkpt lat="40.59502410888672" lon="-4.224589824676514">
        <ele>1221.7252197265625</ele>
        <time>2020-11-02T09:28:16Z</time>
      </trkpt>
      <trkpt lat="40.595069885253906" lon="-4.224543571472168">
        <ele>1222.9979248046875</ele>
        <time>2020-11-02T09:28:19Z</time>
      </trkpt>
      <trkpt lat="40.5951042175293" lon="-4.224480628967285">
        <ele>1222.9979248046875</ele>
        <time>2020-11-02T09:28:22Z</time>
      </trkpt>
      <trkpt lat="40.59512710571289" lon="-4.224420070648193">
        <ele>1224.1796875</ele>
        <time>2020-11-02T09:28:25Z</time>
      </trkpt>
      <trkpt lat="40.59516906738281" lon="-4.224340438842773">
        <ele>1225.63427734375</ele>
        <time>2020-11-02T09:28:29Z</time>
      </trkpt>
      <trkpt lat="40.59519958496094" lon="-4.224277496337891">
        <ele>1228.0887451171875</ele>
        <time>2020-11-02T09:28:32Z</time>
      </trkpt>
      <trkpt lat="40.59523391723633" lon="-4.224221229553223">
        <ele>1229.2705078125</ele>
        <time>2020-11-02T09:28:35Z</time>
      </trkpt>
      <trkpt lat="40.595279693603516" lon="-4.224174499511719">
        <ele>1230.4522705078125</ele>
        <time>2020-11-02T09:28:38Z</time>
      </trkpt>
      <trkpt lat="40.59531784057617" lon="-4.224122047424316">
        <ele>1231.7249755859375</ele>
        <time>2020-11-02T09:28:41Z</time>
      </trkpt>
      <trkpt lat="40.59532928466797" lon="-4.224051475524902">
        <ele>1232.90673828125</ele>
        <time>2020-11-02T09:28:44Z</time>
      </trkpt>
      <trkpt lat="40.59531784057617" lon="-4.223971366882324">
        <ele>1234.179443359375</ele>
        <time>2020-11-02T09:28:47Z</time>
      </trkpt>
      <trkpt lat="40.5953254699707" lon="-4.223903179168701">
        <ele>1235.3612060546875</ele>
        <time>2020-11-02T09:28:50Z</time>
      </trkpt>
      <trkpt lat="40.59536361694336" lon="-4.2238311767578125">
        <ele>1237.815673828125</ele>
        <time>2020-11-02T09:28:54Z</time>
      </trkpt>
      <trkpt lat="40.595401763916016" lon="-4.223788261413574">
        <ele>1237.815673828125</ele>
        <time>2020-11-02T09:28:57Z</time>
      </trkpt>
      <trkpt lat="40.5954475402832" lon="-4.223745346069336">
        <ele>1238.9974365234375</ele>
        <time>2020-11-02T09:29:01Z</time>
      </trkpt>
      <trkpt lat="40.59547805786133" lon="-4.2236762046813965">
        <ele>1240.17919921875</ele>
        <time>2020-11-02T09:29:06Z</time>
      </trkpt>
      <trkpt lat="40.595497131347656" lon="-4.223618507385254">
        <ele>1240.17919921875</ele>
        <time>2020-11-02T09:29:10Z</time>
      </trkpt>
      <trkpt lat="40.59550094604492" lon="-4.223538875579834">
        <ele>1241.451904296875</ele>
        <time>2020-11-02T09:29:14Z</time>
      </trkpt>
      <trkpt lat="40.59551239013672" lon="-4.223477840423584">
        <ele>1242.6336669921875</ele>
        <time>2020-11-02T09:29:17Z</time>
      </trkpt>
      <trkpt lat="40.59552001953125" lon="-4.223404407501221">
        <ele>1243.8154296875</ele>
        <time>2020-11-02T09:29:21Z</time>
      </trkpt>
      <trkpt lat="40.59552001953125" lon="-4.223344802856445">
        <ele>1244.9971923828125</ele>
        <time>2020-11-02T09:29:25Z</time>
      </trkpt>
      <trkpt lat="40.595550537109375" lon="-4.223277568817139">
        <ele>1246.178955078125</ele>
        <time>2020-11-02T09:29:31Z</time>
      </trkpt>
      <trkpt lat="40.59557342529297" lon="-4.223208904266357">
        <ele>1247.5426025390625</ele>
        <time>2020-11-02T09:29:35Z</time>
      </trkpt>
      <trkpt lat="40.59558868408203" lon="-4.223144054412842">
        <ele>1247.5426025390625</ele>
        <time>2020-11-02T09:29:38Z</time>
      </trkpt>
      <trkpt lat="40.59560775756836" lon="-4.223069190979004">
        <ele>1248.8153076171875</ele>
        <time>2020-11-02T09:29:42Z</time>
      </trkpt>
      <trkpt lat="40.595611572265625" lon="-4.223005771636963">
        <ele>1248.8153076171875</ele>
        <time>2020-11-02T09:29:46Z</time>
      </trkpt>
      <trkpt lat="40.59562683105469" lon="-4.2229323387146">
        <ele>1249.9970703125</ele>
        <time>2020-11-02T09:29:51Z</time>
      </trkpt>
      <trkpt lat="40.59563446044922" lon="-4.222857475280762">
        <ele>1249.9970703125</ele>
        <time>2020-11-02T09:29:55Z</time>
      </trkpt>
      <trkpt lat="40.595638275146484" lon="-4.222789287567139">
        <ele>1249.9970703125</ele>
        <time>2020-11-02T09:30:00Z</time>
      </trkpt>
      <trkpt lat="40.595645904541016" lon="-4.222724437713623">
        <ele>1249.9970703125</ele>
        <time>2020-11-02T09:30:05Z</time>
      </trkpt>
      <trkpt lat="40.595672607421875" lon="-4.222644805908203">
        <ele>1248.8153076171875</ele>
        <time>2020-11-02T09:30:11Z</time>
      </trkpt>
      <trkpt lat="40.5956916809082" lon="-4.222578525543213">
        <ele>1248.8153076171875</ele>
        <time>2020-11-02T09:30:15Z</time>
      </trkpt>
      <trkpt lat="40.59569549560547" lon="-4.2225022315979">
        <ele>1248.8153076171875</ele>
        <time>2020-11-02T09:30:19Z</time>
      </trkpt>
      <trkpt lat="40.595706939697266" lon="-4.222435474395752">
        <ele>1248.8153076171875</ele>
        <time>2020-11-02T09:30:22Z</time>
      </trkpt>
      <trkpt lat="40.59572982788086" lon="-4.222348690032959">
        <ele>1249.9970703125</ele>
        <time>2020-11-02T09:30:26Z</time>
      </trkpt>
      <trkpt lat="40.59574508666992" lon="-4.222270965576172">
        <ele>1251.3607177734375</ele>
        <time>2020-11-02T09:30:29Z</time>
      </trkpt>
      <trkpt lat="40.595767974853516" lon="-4.222198486328125">
        <ele>1251.3607177734375</ele>
        <time>2020-11-02T09:30:32Z</time>
      </trkpt>
      <trkpt lat="40.595787048339844" lon="-4.222132205963135">
        <ele>1252.54248046875</ele>
        <time>2020-11-02T09:30:35Z</time>
      </trkpt>
      <trkpt lat="40.595802307128906" lon="-4.222071647644043">
        <ele>1255.4515380859375</ele>
        <time>2020-11-02T09:30:38Z</time>
      </trkpt>
      <trkpt lat="40.59584426879883" lon="-4.222009181976318">
        <ele>1256.63330078125</ele>
        <time>2020-11-02T09:30:42Z</time>
      </trkpt>
      <trkpt lat="40.59586715698242" lon="-4.221950531005859">
        <ele>1259.7242431640625</ele>
        <time>2020-11-02T09:30:45Z</time>
      </trkpt>
      <trkpt lat="40.59589385986328" lon="-4.2218918800354">
        <ele>1261.087890625</ele>
        <time>2020-11-02T09:30:48Z</time>
      </trkpt>
      <trkpt lat="40.595924377441406" lon="-4.221825122833252">
        <ele>1261.087890625</ele>
        <time>2020-11-02T09:30:52Z</time>
      </trkpt>
      <trkpt lat="40.5959587097168" lon="-4.221757888793945">
        <ele>1261.087890625</ele>
        <time>2020-11-02T09:30:58Z</time>
      </trkpt>
      <trkpt lat="40.596004486083984" lon="-4.221684455871582">
        <ele>1262.2696533203125</ele>
        <time>2020-11-02T09:31:02Z</time>
      </trkpt>
      <trkpt lat="40.59604263305664" lon="-4.221644878387451">
        <ele>1262.2696533203125</ele>
        <time>2020-11-02T09:31:05Z</time>
      </trkpt>
      <trkpt lat="40.596092224121094" lon="-4.221607685089111">
        <ele>1263.451416015625</ele>
        <time>2020-11-02T09:31:09Z</time>
      </trkpt>
      <trkpt lat="40.59613037109375" lon="-4.2215681076049805">
        <ele>1264.72412109375</ele>
        <time>2020-11-02T09:31:12Z</time>
      </trkpt>
      <trkpt lat="40.59617614746094" lon="-4.221521854400635">
        <ele>1264.72412109375</ele>
        <time>2020-11-02T09:31:16Z</time>
      </trkpt>
      <trkpt lat="40.59622573852539" lon="-4.221480846405029">
        <ele>1264.72412109375</ele>
        <time>2020-11-02T09:31:20Z</time>
      </trkpt>
      <trkpt lat="40.59628677368164" lon="-4.221440315246582">
        <ele>1265.996826171875</ele>
        <time>2020-11-02T09:31:24Z</time>
      </trkpt>
      <trkpt lat="40.596336364746094" lon="-4.221421718597412">
        <ele>1268.72412109375</ele>
        <time>2020-11-02T09:31:27Z</time>
      </trkpt>
      <trkpt lat="40.59638977050781" lon="-4.221423149108887">
        <ele>1269.996826171875</ele>
        <time>2020-11-02T09:31:30Z</time>
      </trkpt>
      <trkpt lat="40.5964469909668" lon="-4.221409797668457">
        <ele>1269.996826171875</ele>
        <time>2020-11-02T09:31:33Z</time>
      </trkpt>
      <trkpt lat="40.59649658203125" lon="-4.221383094787598">
        <time>2020-11-02T09:31:36Z</time>
      </trkpt>
      <trkpt lat="40.5965461730957" lon="-4.221358776092529">
        <time>2020-11-02T09:31:40Z</time>
      </trkpt>
      <trkpt lat="40.59714889526367" lon="-4.221159934997559">
        <time>2020-11-02T09:37:00Z</time>
      </trkpt>
      <trkpt lat="40.597190856933594" lon="-4.2210869789123535">
        <time>2020-11-02T09:37:05Z</time>
      </trkpt>
      <trkpt lat="40.59720993041992" lon="-4.221019268035889">
        <time>2020-11-02T09:37:08Z</time>
      </trkpt>
      <trkpt lat="40.597206115722656" lon="-4.220962047576904">
        <time>2020-11-02T09:37:13Z</time>
      </trkpt>
      <trkpt lat="40.59722900390625" lon="-4.220847129821777">
        <time>2020-11-02T09:37:21Z</time>
      </trkpt>
      <trkpt lat="40.597225189208984" lon="-4.220757007598877">
        <time>2020-11-02T09:37:25Z</time>
      </trkpt>
      <trkpt lat="40.59722137451172" lon="-4.220692157745361">
        <time>2020-11-02T09:37:29Z</time>
      </trkpt>
      <trkpt lat="40.59713363647461" lon="-4.22052001953125">
        <ele>1286.5400390625</ele>
        <time>2020-11-02T09:40:17Z</time>
      </trkpt>
      <trkpt lat="40.597129821777344" lon="-4.220498561859131">
        <ele>1286.5400390625</ele>
        <time>2020-11-02T09:40:18Z</time>
      </trkpt>
      <trkpt lat="40.59712600708008" lon="-4.220493793487549">
        <ele>1287.7218017578125</ele>
        <time>2020-11-02T09:40:19Z</time>
      </trkpt>
      <trkpt lat="40.59712219238281" lon="-4.220485687255859">
        <ele>1290.9036865234375</ele>
        <time>2020-11-02T09:40:20Z</time>
      </trkpt>
      <trkpt lat="40.59711837768555" lon="-4.220475196838379">
        <ele>1292.1763916015625</ele>
        <time>2020-11-02T09:40:21Z</time>
      </trkpt>
      <trkpt lat="40.59711456298828" lon="-4.22046422958374">
        <ele>1293.5400390625</ele>
        <time>2020-11-02T09:40:22Z</time>
      </trkpt>
      <trkpt lat="40.597110748291016" lon="-4.2204508781433105">
        <ele>1293.5400390625</ele>
        <time>2020-11-02T09:40:23Z</time>
      </trkpt>
      <trkpt lat="40.59710693359375" lon="-4.22043514251709">
        <ele>1293.5400390625</ele>
        <time>2020-11-02T09:40:24Z</time>
      </trkpt>
      <trkpt lat="40.597103118896484" lon="-4.220418453216553">
        <ele>1294.7218017578125</ele>
        <time>2020-11-02T09:40:25Z</time>
      </trkpt>
      <trkpt lat="40.59709548950195" lon="-4.220401287078857">
        <ele>1294.7218017578125</ele>
        <time>2020-11-02T09:40:26Z</time>
      </trkpt>
      <trkpt lat="40.59709167480469" lon="-4.220385551452637">
        <ele>1294.7218017578125</ele>
        <time>2020-11-02T09:40:27Z</time>
      </trkpt>
      <trkpt lat="40.597076416015625" lon="-4.220330715179443">
        <ele>1294.7218017578125</ele>
        <time>2020-11-02T09:40:31Z</time>
      </trkpt>
      <trkpt lat="40.59708023071289" lon="-4.220256328582764">
        <ele>1294.7218017578125</ele>
        <time>2020-11-02T09:40:36Z</time>
      </trkpt>
      <trkpt lat="40.59706497192383" lon="-4.220192909240723">
        <ele>1294.7218017578125</ele>
        <time>2020-11-02T09:40:42Z</time>
      </trkpt>
      <trkpt lat="40.597049713134766" lon="-4.220119953155518">
        <ele>1294.7218017578125</ele>
        <time>2020-11-02T09:40:49Z</time>
      </trkpt>
      <trkpt lat="40.597042083740234" lon="-4.220043182373047">
        <ele>1295.903564453125</ele>
        <time>2020-11-02T09:40:53Z</time>
      </trkpt>
      <trkpt lat="40.59703826904297" lon="-4.219969272613525">
        <ele>1295.903564453125</ele>
        <time>2020-11-02T09:40:56Z</time>
      </trkpt>
      <trkpt lat="40.59703826904297" lon="-4.219903469085693">
        <ele>1295.903564453125</ele>
        <time>2020-11-02T09:40:59Z</time>
      </trkpt>
      <trkpt lat="40.5970344543457" lon="-4.219841957092285">
        <ele>1297.0853271484375</ele>
        <time>2020-11-02T09:41:04Z</time>
      </trkpt>
      <trkpt lat="40.597068786621094" lon="-4.219764232635498">
        <ele>1297.0853271484375</ele>
        <time>2020-11-02T09:41:10Z</time>
      </trkpt>
      <trkpt lat="40.597076416015625" lon="-4.219695091247559">
        <ele>1298.3580322265625</ele>
        <time>2020-11-02T09:41:13Z</time>
      </trkpt>
      <trkpt lat="40.597084045410156" lon="-4.219618320465088">
        <ele>1299.539794921875</ele>
        <time>2020-11-02T09:41:16Z</time>
      </trkpt>
      <trkpt lat="40.59708023071289" lon="-4.219533443450928">
        <ele>1301.9942626953125</ele>
        <time>2020-11-02T09:41:19Z</time>
      </trkpt>
      <trkpt lat="40.59706497192383" lon="-4.219435214996338">
        <ele>1303.176025390625</ele>
        <time>2020-11-02T09:41:23Z</time>
      </trkpt>
      <trkpt lat="40.5970573425293" lon="-4.2193498611450195">
        <ele>1304.3577880859375</ele>
        <time>2020-11-02T09:41:26Z</time>
      </trkpt>
      <trkpt lat="40.59702682495117" lon="-4.219271659851074">
        <ele>1304.3577880859375</ele>
        <time>2020-11-02T09:41:29Z</time>
      </trkpt>
      <trkpt lat="40.597007751464844" lon="-4.2191948890686035">
        <ele>1305.53955078125</ele>
        <time>2020-11-02T09:41:32Z</time>
      </trkpt>
      <trkpt lat="40.59701919555664" lon="-4.219086170196533">
        <ele>1306.812255859375</ele>
        <time>2020-11-02T09:41:36Z</time>
      </trkpt>
      <trkpt lat="40.59702682495117" lon="-4.219007968902588">
        <ele>1307.1861572265625</ele>
        <time>2020-11-02T09:41:39Z</time>
      </trkpt>
      <trkpt lat="40.5970344543457" lon="-4.218944549560547">
        <ele>1307.1861572265625</ele>
        <time>2020-11-02T09:41:42Z</time>
      </trkpt>
      <trkpt lat="40.59701919555664" lon="-4.218884468078613">
        <ele>1307.1861572265625</ele>
        <time>2020-11-02T09:41:47Z</time>
      </trkpt>
      <trkpt lat="40.597007751464844" lon="-4.218812942504883">
        <ele>1307.1861572265625</ele>
        <time>2020-11-02T09:41:56Z</time>
      </trkpt>
      <trkpt lat="40.59700012207031" lon="-4.218748569488525">
        <ele>1307.1861572265625</ele>
        <time>2020-11-02T09:42:03Z</time>
      </trkpt>
      <trkpt lat="40.59700393676758" lon="-4.2186784744262695">
        <ele>1307.1861572265625</ele>
        <time>2020-11-02T09:42:10Z</time>
      </trkpt>
      <trkpt lat="40.5970344543457" lon="-4.2186126708984375">
        <ele>1305.9134521484375</ele>
        <time>2020-11-02T09:42:15Z</time>
      </trkpt>
      <trkpt lat="40.5970458984375" lon="-4.218550205230713">
        <ele>1305.9134521484375</ele>
        <time>2020-11-02T09:42:18Z</time>
      </trkpt>
      <trkpt lat="40.59705352783203" lon="-4.218481063842773">
        <ele>1305.9134521484375</ele>
        <time>2020-11-02T09:42:22Z</time>
      </trkpt>
      <trkpt lat="40.597042083740234" lon="-4.218408584594727">
        <ele>1307.09521484375</ele>
        <time>2020-11-02T09:42:26Z</time>
      </trkpt>
      <trkpt lat="40.597015380859375" lon="-4.218335151672363">
        <ele>1307.09521484375</ele>
        <time>2020-11-02T09:42:30Z</time>
      </trkpt>
      <trkpt lat="40.59701156616211" lon="-4.218253135681152">
        <ele>1308.640625</ele>
        <time>2020-11-02T09:42:34Z</time>
      </trkpt>
      <trkpt lat="40.597023010253906" lon="-4.218164443969727">
        <ele>1310.18603515625</ele>
        <time>2020-11-02T09:42:38Z</time>
      </trkpt>
      <trkpt lat="40.59701156616211" lon="-4.218098163604736">
        <ele>1311.5496826171875</ele>
        <time>2020-11-02T09:42:41Z</time>
      </trkpt>
      <trkpt lat="40.597007751464844" lon="-4.218019485473633">
        <ele>1312.913330078125</ele>
        <time>2020-11-02T09:42:45Z</time>
      </trkpt>
      <trkpt lat="40.59701156616211" lon="-4.217947483062744">
        <ele>1312.913330078125</ele>
        <time>2020-11-02T09:42:48Z</time>
      </trkpt>
      <trkpt lat="40.597015380859375" lon="-4.217503547668457">
        <ele>1314.2769775390625</ele>
        <time>2020-11-02T09:44:22Z</time>
      </trkpt>
      <trkpt lat="40.59703063964844" lon="-4.217405796051025">
        <ele>1315.5496826171875</ele>
        <time>2020-11-02T09:44:29Z</time>
      </trkpt>
      <trkpt lat="40.59705352783203" lon="-4.217329025268555">
        <ele>1317.0950927734375</ele>
        <time>2020-11-02T09:44:32Z</time>
      </trkpt>
      <trkpt lat="40.59708023071289" lon="-4.217250347137451">
        <ele>1318.3677978515625</ele>
        <time>2020-11-02T09:44:35Z</time>
      </trkpt>
      <trkpt lat="40.59711456298828" lon="-4.217164516448975">
        <ele>1318.3677978515625</ele>
        <time>2020-11-02T09:44:38Z</time>
      </trkpt>
      <trkpt lat="40.597137451171875" lon="-4.217080116271973">
        <ele>1318.3677978515625</ele>
        <time>2020-11-02T09:44:41Z</time>
      </trkpt>
      <trkpt lat="40.5971565246582" lon="-4.2170023918151855">
        <ele>1318.3677978515625</ele>
        <time>2020-11-02T09:44:44Z</time>
      </trkpt>
      <trkpt lat="40.5971565246582" lon="-4.216925621032715">
        <ele>1318.3677978515625</ele>
        <time>2020-11-02T09:44:47Z</time>
      </trkpt>
      <trkpt lat="40.59712600708008" lon="-4.216855525970459">
        <ele>1318.3677978515625</ele>
        <time>2020-11-02T09:44:50Z</time>
      </trkpt>
      <trkpt lat="40.59708786010742" lon="-4.216804027557373">
        <ele>1318.3677978515625</ele>
        <time>2020-11-02T09:44:53Z</time>
      </trkpt>
      <trkpt lat="40.5970344543457" lon="-4.21675443649292">
        <ele>1318.3677978515625</ele>
        <time>2020-11-02T09:44:57Z</time>
      </trkpt>
      <trkpt lat="40.596981048583984" lon="-4.216721534729004">
        <ele>1318.3677978515625</ele>
        <time>2020-11-02T09:45:01Z</time>
      </trkpt>
      <trkpt lat="40.5969352722168" lon="-4.216688632965088">
        <ele>1318.3677978515625</ele>
        <time>2020-11-02T09:45:05Z</time>
      </trkpt>
      <trkpt lat="40.59688949584961" lon="-4.216628551483154">
        <ele>1318.3677978515625</ele>
        <time>2020-11-02T09:45:10Z</time>
      </trkpt>
      <trkpt lat="40.596866607666016" lon="-4.216556072235107">
        <ele>1318.3677978515625</ele>
        <time>2020-11-02T09:45:14Z</time>
      </trkpt>
      <trkpt lat="40.59684753417969" lon="-4.216490745544434">
        <ele>1319.6405029296875</ele>
        <time>2020-11-02T09:45:17Z</time>
      </trkpt>
      <trkpt lat="40.59684753417969" lon="-4.216415882110596">
        <ele>1319.6405029296875</ele>
        <time>2020-11-02T09:45:20Z</time>
      </trkpt>
      <trkpt lat="40.59685134887695" lon="-4.2163238525390625">
        <ele>1321.549560546875</ele>
        <time>2020-11-02T09:45:23Z</time>
      </trkpt>
      <trkpt lat="40.59684753417969" lon="-4.216245174407959">
        <ele>1324.36767578125</ele>
        <time>2020-11-02T09:45:26Z</time>
      </trkpt>
      <trkpt lat="40.59685134887695" lon="-4.216151714324951">
        <ele>1325.5494384765625</ele>
        <time>2020-11-02T09:45:30Z</time>
      </trkpt>
      <trkpt lat="40.59687423706055" lon="-4.216068744659424">
        <ele>1325.5494384765625</ele>
        <time>2020-11-02T09:45:38Z</time>
      </trkpt>
      <trkpt lat="40.59690856933594" lon="-4.216006278991699">
        <ele>1325.5494384765625</ele>
        <time>2020-11-02T09:45:41Z</time>
      </trkpt>
      <trkpt lat="40.59693908691406" lon="-4.215933799743652">
        <ele>1325.5494384765625</ele>
        <time>2020-11-02T09:45:44Z</time>
      </trkpt>
      <trkpt lat="40.59696960449219" lon="-4.21586275100708">
        <ele>1325.5494384765625</ele>
        <time>2020-11-02T09:45:47Z</time>
      </trkpt>
      <trkpt lat="40.59699249267578" lon="-4.215786457061768">
        <ele>1325.5494384765625</ele>
        <time>2020-11-02T09:45:50Z</time>
      </trkpt>
      <trkpt lat="40.59700012207031" lon="-4.215712547302246">
        <ele>1325.5494384765625</ele>
        <time>2020-11-02T09:45:53Z</time>
      </trkpt>
      <trkpt lat="40.59698486328125" lon="-4.215641975402832">
        <ele>1326.8221435546875</ele>
        <time>2020-11-02T09:45:56Z</time>
      </trkpt>
      <trkpt lat="40.596961975097656" lon="-4.215569496154785">
        <ele>1328.185791015625</ele>
        <time>2020-11-02T09:45:59Z</time>
      </trkpt>
      <trkpt lat="40.59695053100586" lon="-4.215506553649902">
        <ele>1329.640380859375</ele>
        <time>2020-11-02T09:46:02Z</time>
      </trkpt>
      <trkpt lat="40.5969352722168" lon="-4.21550178527832">
        <ele>1331.0040283203125</ele>
        <time>2020-11-02T09:46:10Z</time>
      </trkpt>
      <trkpt lat="40.596954345703125" lon="-4.215559959411621">
        <ele>1334.549560546875</ele>
        <time>2020-11-02T09:46:16Z</time>
      </trkpt>
      <trkpt lat="40.59699630737305" lon="-4.215527057647705">
        <ele>1335.822265625</ele>
        <time>2020-11-02T09:46:28Z</time>
      </trkpt>
      <trkpt lat="40.597049713134766" lon="-4.215474605560303">
        <ele>1338.2767333984375</ele>
        <time>2020-11-02T09:46:35Z</time>
      </trkpt>
      <trkpt lat="40.597103118896484" lon="-4.215416431427002">
        <ele>1339.640380859375</ele>
        <time>2020-11-02T09:46:39Z</time>
      </trkpt>
      <trkpt lat="40.597137451171875" lon="-4.21534538269043">
        <ele>1340.9130859375</ele>
        <time>2020-11-02T09:46:42Z</time>
      </trkpt>
      <trkpt lat="40.597251892089844" lon="-4.215368270874023">
        <ele>1342.185791015625</ele>
        <time>2020-11-02T09:47:05Z</time>
      </trkpt>
      <trkpt lat="40.59731674194336" lon="-4.215343952178955">
        <ele>1343.5494384765625</ele>
        <time>2020-11-02T09:47:14Z</time>
      </trkpt>
      <trkpt lat="40.59737014770508" lon="-4.215333461761475">
        <ele>1344.8221435546875</ele>
        <time>2020-11-02T09:47:18Z</time>
      </trkpt>
      <trkpt lat="40.59741973876953" lon="-4.21531867980957">
        <ele>1345.4586181640625</ele>
        <time>2020-11-02T09:47:22Z</time>
      </trkpt>
      <trkpt lat="40.59746551513672" lon="-4.215272426605225">
        <ele>1349.4586181640625</ele>
        <time>2020-11-02T09:47:27Z</time>
      </trkpt>
      <trkpt lat="40.59749984741211" lon="-4.215227127075195">
        <ele>1350.822265625</ele>
        <time>2020-11-02T09:47:31Z</time>
      </trkpt>
      <trkpt lat="40.597530364990234" lon="-4.2151713371276855">
        <ele>1353.2767333984375</ele>
        <time>2020-11-02T09:47:35Z</time>
      </trkpt>
      <trkpt lat="40.597572326660156" lon="-4.2151103019714355">
        <ele>1355.8221435546875</ele>
        <time>2020-11-02T09:47:39Z</time>
      </trkpt>
      <trkpt lat="40.597599029541016" lon="-4.215054512023926">
        <ele>1357.0948486328125</ele>
        <time>2020-11-02T09:47:44Z</time>
      </trkpt>
      <trkpt lat="40.59764099121094" lon="-4.215027332305908">
        <ele>1358.45849609375</ele>
        <time>2020-11-02T09:47:52Z</time>
      </trkpt>
      <trkpt lat="40.59769058227539" lon="-4.215031147003174">
        <ele>1359.6402587890625</ele>
        <time>2020-11-02T09:48:00Z</time>
      </trkpt>
      <trkpt lat="40.59774398803711" lon="-4.215054988861084">
        <ele>1359.6402587890625</ele>
        <time>2020-11-02T09:48:08Z</time>
      </trkpt>
      <trkpt lat="40.5977668762207" lon="-4.2151055335998535">
        <ele>1364.276611328125</ele>
        <time>2020-11-02T09:48:17Z</time>
      </trkpt>
      <trkpt lat="40.597816467285156" lon="-4.215121746063232">
        <ele>1368.0947265625</ele>
        <time>2020-11-02T09:48:26Z</time>
      </trkpt>
      <trkpt lat="40.597843170166016" lon="-4.215166091918945">
        <ele>1369.367431640625</ele>
        <time>2020-11-02T09:48:37Z</time>
      </trkpt>
      <trkpt lat="40.597869873046875" lon="-4.215232849121094">
        <ele>1372.0037841796875</ele>
        <time>2020-11-02T09:48:46Z</time>
      </trkpt>
      <trkpt lat="40.597904205322266" lon="-4.2152791023254395">
        <ele>1374.3673095703125</ele>
        <time>2020-11-02T09:48:54Z</time>
      </trkpt>
      <trkpt lat="40.597923278808594" lon="-4.215343952178955">
        <ele>1375.6400146484375</ele>
        <time>2020-11-02T09:49:03Z</time>
      </trkpt>
      <trkpt lat="40.597965240478516" lon="-4.215360164642334">
        <ele>1376.9127197265625</ele>
        <time>2020-11-02T09:49:12Z</time>
      </trkpt>
      <trkpt lat="40.59801483154297" lon="-4.215306758880615">
        <ele>1378.1854248046875</ele>
        <time>2020-11-02T09:49:20Z</time>
      </trkpt>
      <trkpt lat="40.59804916381836" lon="-4.2153191566467285">
        <ele>1378.1854248046875</ele>
        <time>2020-11-02T09:49:30Z</time>
      </trkpt>
      <trkpt lat="40.598106384277344" lon="-4.215320587158203">
        <ele>1380.9127197265625</ele>
        <time>2020-11-02T09:49:48Z</time>
      </trkpt>
      <trkpt lat="40.598148345947266" lon="-4.215324401855469">
        <ele>1383.3671875</ele>
        <time>2020-11-02T09:49:58Z</time>
      </trkpt>
      <trkpt lat="40.59813690185547" lon="-4.215397834777832">
        <ele>1385.730712890625</ele>
        <time>2020-11-02T09:50:08Z</time>
      </trkpt>
      <trkpt lat="40.59813690185547" lon="-4.215466022491455">
        <ele>1386.9124755859375</ele>
        <time>2020-11-02T09:50:18Z</time>
      </trkpt>
      <trkpt lat="40.598182678222656" lon="-4.215481281280518">
        <ele>1388.09423828125</ele>
        <time>2020-11-02T09:50:28Z</time>
      </trkpt>
      <trkpt lat="40.59817886352539" lon="-4.215551853179932">
        <ele>1388.09423828125</ele>
        <time>2020-11-02T09:50:39Z</time>
      </trkpt>
      <trkpt lat="40.59823226928711" lon="-4.215535640716553">
        <ele>1390.6396484375</ele>
        <time>2020-11-02T09:50:47Z</time>
      </trkpt>
      <trkpt lat="40.59827423095703" lon="-4.215507507324219">
        <ele>1387.282958984375</ele>
        <time>2020-11-02T09:50:54Z</time>
      </trkpt>
      <trkpt lat="40.598331451416016" lon="-4.2154927253723145">
        <ele>1388.4647216796875</ele>
        <time>2020-11-02T09:51:03Z</time>
      </trkpt>
      <trkpt lat="40.598384857177734" lon="-4.215482234954834">
        <ele>1389.7374267578125</ele>
        <time>2020-11-02T09:51:10Z</time>
      </trkpt>
      <trkpt lat="40.59842300415039" lon="-4.215498447418213">
        <ele>1390.919189453125</ele>
        <time>2020-11-02T09:51:18Z</time>
      </trkpt>
      <trkpt lat="40.59839630126953" lon="-4.215563774108887">
        <ele>1390.919189453125</ele>
        <time>2020-11-02T09:51:30Z</time>
      </trkpt>
      <trkpt lat="40.59839630126953" lon="-4.215607166290283">
        <ele>1390.919189453125</ele>
        <time>2020-11-02T09:51:40Z</time>
      </trkpt>
      <trkpt lat="40.598453521728516" lon="-4.215615272521973">
        <ele>1390.919189453125</ele>
        <time>2020-11-02T09:51:48Z</time>
      </trkpt>
      <trkpt lat="40.598506927490234" lon="-4.2156267166137695">
        <ele>1390.919189453125</ele>
        <time>2020-11-02T09:51:54Z</time>
      </trkpt>
      <trkpt lat="40.598514556884766" lon="-4.215675354003906">
        <ele>1390.919189453125</ele>
        <time>2020-11-02T09:52:02Z</time>
      </trkpt>
      <trkpt lat="40.59850311279297" lon="-4.2157368659973145">
        <ele>1389.646484375</ele>
        <time>2020-11-02T09:52:08Z</time>
      </trkpt>
      <trkpt lat="40.59853744506836" lon="-4.215798854827881">
        <ele>1389.646484375</ele>
        <time>2020-11-02T09:52:17Z</time>
      </trkpt>
      <trkpt lat="40.59857177734375" lon="-4.215834617614746">
        <ele>1389.646484375</ele>
        <time>2020-11-02T09:52:24Z</time>
      </trkpt>
      <trkpt lat="40.59861755371094" lon="-4.215875625610352">
        <ele>1389.646484375</ele>
        <time>2020-11-02T09:52:32Z</time>
      </trkpt>
      <trkpt lat="40.59864807128906" lon="-4.215948104858398">
        <ele>1389.646484375</ele>
        <time>2020-11-02T09:52:38Z</time>
      </trkpt>
      <trkpt lat="40.59868621826172" lon="-4.216048240661621">
        <ele>1389.646484375</ele>
        <time>2020-11-02T09:52:43Z</time>
      </trkpt>
      <trkpt lat="40.59870147705078" lon="-4.216137409210205">
        <ele>1388.4647216796875</ele>
        <time>2020-11-02T09:52:46Z</time>
      </trkpt>
      <trkpt lat="40.59870910644531" lon="-4.2161993980407715">
        <ele>1388.4647216796875</ele>
        <time>2020-11-02T09:52:48Z</time>
      </trkpt>
      <trkpt lat="40.59872817993164" lon="-4.216292381286621">
        <ele>1387.282958984375</ele>
        <time>2020-11-02T09:52:51Z</time>
      </trkpt>
      <trkpt lat="40.598751068115234" lon="-4.216386795043945">
        <ele>1387.282958984375</ele>
        <time>2020-11-02T09:52:54Z</time>
      </trkpt>
      <trkpt lat="40.59877395629883" lon="-4.216481685638428">
        <ele>1385.9193115234375</ele>
        <time>2020-11-02T09:52:57Z</time>
      </trkpt>
      <trkpt lat="40.598812103271484" lon="-4.216538429260254">
        <ele>1385.9193115234375</ele>
        <time>2020-11-02T09:53:00Z</time>
      </trkpt>
      <trkpt lat="40.598854064941406" lon="-4.216508388519287">
        <ele>1384.6466064453125</ele>
        <time>2020-11-02T09:53:03Z</time>
      </trkpt>
      <trkpt lat="40.5988883972168" lon="-4.216431140899658">
        <ele>1384.6466064453125</ele>
        <time>2020-11-02T09:53:06Z</time>
      </trkpt>
      <trkpt lat="40.598915100097656" lon="-4.216338157653809">
        <ele>1384.6466064453125</ele>
        <time>2020-11-02T09:53:09Z</time>
      </trkpt>
      <trkpt lat="40.59893035888672" lon="-4.216272830963135">
        <ele>1383.46484375</ele>
        <time>2020-11-02T09:53:11Z</time>
      </trkpt>
      <trkpt lat="40.598968505859375" lon="-4.216183185577393">
        <ele>1383.46484375</ele>
        <time>2020-11-02T09:53:14Z</time>
      </trkpt>
      <trkpt lat="40.59899139404297" lon="-4.216122150421143">
        <ele>1383.46484375</ele>
        <time>2020-11-02T09:53:16Z</time>
      </trkpt>
      <trkpt lat="40.59901809692383" lon="-4.216065883636475">
        <ele>1383.46484375</ele>
        <time>2020-11-02T09:53:18Z</time>
      </trkpt>
      <trkpt lat="40.59904098510742" lon="-4.2159743309021">
        <ele>1382.2830810546875</ele>
        <time>2020-11-02T09:53:21Z</time>
      </trkpt>
      <trkpt lat="40.59904861450195" lon="-4.215872764587402">
        <ele>1382.2830810546875</ele>
        <time>2020-11-02T09:53:24Z</time>
      </trkpt>
      <trkpt lat="40.59904098510742" lon="-4.215803623199463">
        <ele>1381.101318359375</ele>
        <time>2020-11-02T09:53:26Z</time>
      </trkpt>
      <trkpt lat="40.59902572631836" lon="-4.215737342834473">
        <ele>1381.101318359375</ele>
        <time>2020-11-02T09:53:28Z</time>
      </trkpt>
      <trkpt lat="40.599002838134766" lon="-4.215676784515381">
        <ele>1381.101318359375</ele>
        <time>2020-11-02T09:53:30Z</time>
      </trkpt>
      <trkpt lat="40.59895706176758" lon="-4.215612888336182">
        <ele>1381.101318359375</ele>
        <time>2020-11-02T09:53:33Z</time>
      </trkpt>
      <trkpt lat="40.598915100097656" lon="-4.215576171875">
        <ele>1381.101318359375</ele>
        <time>2020-11-02T09:53:37Z</time>
      </trkpt>
      <trkpt lat="40.598934173583984" lon="-4.215592384338379">
        <ele>1381.101318359375</ele>
        <time>2020-11-02T09:53:45Z</time>
      </trkpt>
      <trkpt lat="40.59897994995117" lon="-4.215612888336182">
        <ele>1381.101318359375</ele>
        <time>2020-11-02T09:53:49Z</time>
      </trkpt>
      <trkpt lat="40.59901809692383" lon="-4.215548038482666">
        <ele>1383.2713623046875</ele>
        <time>2020-11-02T09:53:53Z</time>
      </trkpt>
      <trkpt lat="40.59905242919922" lon="-4.2154693603515625">
        <ele>1381.90771484375</ele>
        <time>2020-11-02T09:53:56Z</time>
      </trkpt>
      <trkpt lat="40.59908676147461" lon="-4.2154130935668945">
        <ele>1381.90771484375</ele>
        <time>2020-11-02T09:53:58Z</time>
      </trkpt>
      <trkpt lat="40.59912109375" lon="-4.215354919433594">
        <ele>1381.90771484375</ele>
        <time>2020-11-02T09:54:00Z</time>
      </trkpt>
      <trkpt lat="40.59915542602539" lon="-4.215295791625977">
        <ele>1381.90771484375</ele>
        <time>2020-11-02T09:54:02Z</time>
      </trkpt>
      <trkpt lat="40.599185943603516" lon="-4.215236186981201">
        <ele>1381.90771484375</ele>
        <time>2020-11-02T09:54:04Z</time>
      </trkpt>
      <trkpt lat="40.59921646118164" lon="-4.215177059173584">
        <ele>1381.90771484375</ele>
        <time>2020-11-02T09:54:06Z</time>
      </trkpt>
      <trkpt lat="40.5992431640625" lon="-4.215116500854492">
        <ele>1381.90771484375</ele>
        <time>2020-11-02T09:54:08Z</time>
      </trkpt>
      <trkpt lat="40.599273681640625" lon="-4.215025424957275">
        <ele>1383.180419921875</ele>
        <time>2020-11-02T09:54:11Z</time>
      </trkpt>
      <trkpt lat="40.599300384521484" lon="-4.21497106552124">
        <ele>1383.180419921875</ele>
        <time>2020-11-02T09:54:13Z</time>
      </trkpt>
      <trkpt lat="40.59934616088867" lon="-4.214890480041504">
        <ele>1383.180419921875</ele>
        <time>2020-11-02T09:54:16Z</time>
      </trkpt>
      <trkpt lat="40.59938049316406" lon="-4.2148356437683105">
        <ele>1384.3621826171875</ele>
        <time>2020-11-02T09:54:18Z</time>
      </trkpt>
      <trkpt lat="40.59941101074219" lon="-4.214777946472168">
        <ele>1384.3621826171875</ele>
        <time>2020-11-02T09:54:20Z</time>
      </trkpt>
      <trkpt lat="40.59944152832031" lon="-4.214722156524658">
        <ele>1385.6348876953125</ele>
        <time>2020-11-02T09:54:22Z</time>
      </trkpt>
      <trkpt lat="40.5994758605957" lon="-4.2146687507629395">
        <ele>1386.99853515625</ele>
        <time>2020-11-02T09:54:24Z</time>
      </trkpt>
      <trkpt lat="40.599510192871094" lon="-4.2146172523498535">
        <ele>1388.3621826171875</ele>
        <time>2020-11-02T09:54:26Z</time>
      </trkpt>
      <trkpt lat="40.59956359863281" lon="-4.214547157287598">
        <ele>1388.3621826171875</ele>
        <time>2020-11-02T09:54:29Z</time>
      </trkpt>
      <trkpt lat="40.599613189697266" lon="-4.21449089050293">
        <ele>1389.725830078125</ele>
        <time>2020-11-02T09:54:32Z</time>
      </trkpt>
      <trkpt lat="40.599666595458984" lon="-4.214439868927002">
        <ele>1390.99853515625</ele>
        <time>2020-11-02T09:54:35Z</time>
      </trkpt>
      <trkpt lat="40.59971237182617" lon="-4.214378833770752">
        <ele>1390.99853515625</ele>
        <time>2020-11-02T09:54:38Z</time>
      </trkpt>
      <trkpt lat="40.59974670410156" lon="-4.214314937591553">
        <ele>1392.1802978515625</ele>
        <time>2020-11-02T09:54:41Z</time>
      </trkpt>
      <trkpt lat="40.599769592285156" lon="-4.214247703552246">
        <ele>1393.5439453125</ele>
        <time>2020-11-02T09:54:44Z</time>
      </trkpt>
      <trkpt lat="40.59979248046875" lon="-4.214186191558838">
        <ele>1393.5439453125</ele>
        <time>2020-11-02T09:54:47Z</time>
      </trkpt>
      <trkpt lat="40.59980392456055" lon="-4.214125156402588">
        <ele>1394.7257080078125</ele>
        <time>2020-11-02T09:54:51Z</time>
      </trkpt>
      <trkpt lat="40.599815368652344" lon="-4.21405553817749">
        <ele>1396.08935546875</ele>
        <time>2020-11-02T09:54:57Z</time>
      </trkpt>
      <trkpt lat="40.599815368652344" lon="-4.213978290557861">
        <ele>1397.2711181640625</ele>
        <time>2020-11-02T09:55:04Z</time>
      </trkpt>
      <trkpt lat="40.599830627441406" lon="-4.213919639587402">
        <ele>1397.2711181640625</ele>
        <time>2020-11-02T09:55:11Z</time>
      </trkpt>
      <trkpt lat="40.599853515625" lon="-4.213837146759033">
        <ele>1397.2711181640625</ele>
        <time>2020-11-02T09:55:17Z</time>
      </trkpt>
      <trkpt lat="40.5998649597168" lon="-4.213773727416992">
        <ele>1397.2711181640625</ele>
        <time>2020-11-02T09:55:20Z</time>
      </trkpt>
      <trkpt lat="40.599876403808594" lon="-4.213701248168945">
        <ele>1398.5438232421875</ele>
        <time>2020-11-02T09:55:23Z</time>
      </trkpt>
      <trkpt lat="40.599884033203125" lon="-4.213634490966797">
        <ele>1398.5438232421875</ele>
        <time>2020-11-02T09:55:26Z</time>
      </trkpt>
      <trkpt lat="40.599891662597656" lon="-4.2135515213012695">
        <ele>1400.998291015625</ele>
        <time>2020-11-02T09:55:30Z</time>
      </trkpt>
      <trkpt lat="40.59989547729492" lon="-4.2134690284729">
        <ele>1403.9073486328125</ele>
        <time>2020-11-02T09:55:34Z</time>
      </trkpt>
      <trkpt lat="40.599891662597656" lon="-4.213388919830322">
        <ele>1406.2708740234375</ele>
        <time>2020-11-02T09:55:38Z</time>
      </trkpt>
      <trkpt lat="40.59988784790039" lon="-4.21332311630249">
        <ele>1407.45263671875</ele>
        <time>2020-11-02T09:55:43Z</time>
      </trkpt>
      <trkpt lat="40.59989547729492" lon="-4.213223457336426">
        <ele>1408.725341796875</ele>
        <time>2020-11-02T09:56:17Z</time>
      </trkpt>
      <trkpt lat="40.599891662597656" lon="-4.213175296783447">
        <ele>1408.725341796875</ele>
        <time>2020-11-02T09:56:22Z</time>
      </trkpt>
      <trkpt lat="40.59988784790039" lon="-4.213096618652344">
        <ele>1409.998046875</ele>
        <time>2020-11-02T09:56:25Z</time>
      </trkpt>
      <trkpt lat="40.59988784790039" lon="-4.213013648986816">
        <ele>1411.270751953125</ele>
        <time>2020-11-02T09:56:28Z</time>
      </trkpt>
      <trkpt lat="40.599891662597656" lon="-4.212944507598877">
        <ele>1411.270751953125</ele>
        <time>2020-11-02T09:56:31Z</time>
      </trkpt>
      <trkpt lat="40.59988784790039" lon="-4.2128825187683105">
        <ele>1412.6343994140625</ele>
        <time>2020-11-02T09:56:34Z</time>
      </trkpt>
      <trkpt lat="40.599884033203125" lon="-4.212806224822998">
        <ele>1413.9071044921875</ele>
        <time>2020-11-02T09:56:38Z</time>
      </trkpt>
      <trkpt lat="40.59988784790039" lon="-4.2127366065979">
        <ele>1415.0888671875</ele>
        <time>2020-11-02T09:56:42Z</time>
      </trkpt>
      <trkpt lat="40.599884033203125" lon="-4.2126688957214355">
        <ele>1416.2706298828125</ele>
        <time>2020-11-02T09:56:46Z</time>
      </trkpt>
      <trkpt lat="40.599876403808594" lon="-4.2126030921936035">
        <ele>1417.452392578125</ele>
        <time>2020-11-02T09:56:50Z</time>
      </trkpt>
      <trkpt lat="40.59988784790039" lon="-4.212521553039551">
        <ele>1417.452392578125</ele>
        <time>2020-11-02T09:56:55Z</time>
      </trkpt>
      <trkpt lat="40.59989929199219" lon="-4.212459087371826">
        <ele>1418.8160400390625</ele>
        <time>2020-11-02T09:57:00Z</time>
      </trkpt>
      <trkpt lat="40.59990310668945" lon="-4.212385654449463">
        <ele>1420.0887451171875</ele>
        <time>2020-11-02T09:57:06Z</time>
      </trkpt>
      <trkpt lat="40.59990692138672" lon="-4.212298393249512">
        <ele>1421.3614501953125</ele>
        <time>2020-11-02T09:57:11Z</time>
      </trkpt>
      <trkpt lat="40.599918365478516" lon="-4.2122297286987305">
        <ele>1421.3614501953125</ele>
        <time>2020-11-02T09:57:15Z</time>
      </trkpt>
      <trkpt lat="40.59992218017578" lon="-4.212157726287842">
        <ele>1422.8160400390625</ele>
        <time>2020-11-02T09:57:21Z</time>
      </trkpt>
      <trkpt lat="40.599937438964844" lon="-4.212100982666016">
        <ele>1422.8160400390625</ele>
        <time>2020-11-02T09:57:27Z</time>
      </trkpt>
      <trkpt lat="40.599945068359375" lon="-4.212031364440918">
        <ele>1422.8160400390625</ele>
        <time>2020-11-02T09:57:34Z</time>
      </trkpt>
      <trkpt lat="40.59996032714844" lon="-4.211956024169922">
        <ele>1416.446533203125</ele>
        <time>2020-11-02T09:57:56Z</time>
      </trkpt>
      <trkpt lat="40.5999641418457" lon="-4.211877346038818">
        <ele>1417.71923828125</ele>
        <time>2020-11-02T09:58:00Z</time>
      </trkpt>
      <trkpt lat="40.5999755859375" lon="-4.211805820465088">
        <ele>1420.5374755859375</ele>
        <time>2020-11-02T09:58:03Z</time>
      </trkpt>
      <trkpt lat="40.59999084472656" lon="-4.211728096008301">
        <ele>1423.2646484375</ele>
        <time>2020-11-02T09:58:07Z</time>
      </trkpt>
      <trkpt lat="40.60000991821289" lon="-4.211665630340576">
        <ele>1424.537353515625</ele>
        <time>2020-11-02T09:58:11Z</time>
      </trkpt>
      <trkpt lat="40.60005569458008" lon="-4.211623191833496">
        <ele>1425.7191162109375</ele>
        <time>2020-11-02T09:58:15Z</time>
      </trkpt>
      <trkpt lat="40.6000862121582" lon="-4.211565017700195">
        <ele>1426.90087890625</ele>
        <time>2020-11-02T09:58:19Z</time>
      </trkpt>
      <trkpt lat="40.600101470947266" lon="-4.211495399475098">
        <ele>1428.2645263671875</ele>
        <time>2020-11-02T09:58:23Z</time>
      </trkpt>
      <trkpt lat="40.60010528564453" lon="-4.211421489715576">
        <ele>1428.2645263671875</ele>
        <time>2020-11-02T09:58:27Z</time>
      </trkpt>
      <trkpt lat="40.600093841552734" lon="-4.211350917816162">
        <ele>1429.7191162109375</ele>
        <time>2020-11-02T09:58:31Z</time>
      </trkpt>
      <trkpt lat="40.6000862121582" lon="-4.211278915405273">
        <ele>1430.9918212890625</ele>
        <time>2020-11-02T09:58:36Z</time>
      </trkpt>
      <trkpt lat="40.60008239746094" lon="-4.211216926574707">
        <ele>1432.2645263671875</ele>
        <time>2020-11-02T09:58:43Z</time>
      </trkpt>
      <trkpt lat="40.60007095336914" lon="-4.211148262023926">
        <ele>1432.2645263671875</ele>
        <time>2020-11-02T09:58:50Z</time>
      </trkpt>
      <trkpt lat="40.600067138671875" lon="-4.2110748291015625">
        <ele>1433.5372314453125</ele>
        <time>2020-11-02T09:58:58Z</time>
      </trkpt>
      <trkpt lat="40.60008239746094" lon="-4.21100378036499">
        <ele>1433.5372314453125</ele>
        <time>2020-11-02T09:59:05Z</time>
      </trkpt>
      <trkpt lat="40.6001091003418" lon="-4.210938453674316">
        <ele>1433.5372314453125</ele>
        <time>2020-11-02T09:59:10Z</time>
      </trkpt>
      <trkpt lat="40.60011291503906" lon="-4.210860252380371">
        <ele>1433.5372314453125</ele>
        <time>2020-11-02T09:59:15Z</time>
      </trkpt>
      <trkpt lat="40.600120544433594" lon="-4.21079158782959">
        <ele>1433.5372314453125</ele>
        <time>2020-11-02T09:59:19Z</time>
      </trkpt>
      <trkpt lat="40.60012435913086" lon="-4.210708141326904">
        <ele>1434.718994140625</ele>
        <time>2020-11-02T09:59:24Z</time>
      </trkpt>
      <trkpt lat="40.600135803222656" lon="-4.210636615753174">
        <ele>1434.718994140625</ele>
        <time>2020-11-02T09:59:28Z</time>
      </trkpt>
      <trkpt lat="40.60014343261719" lon="-4.210573196411133">
        <ele>1438.4461669921875</ele>
        <time>2020-11-02T09:59:32Z</time>
      </trkpt>
      <trkpt lat="40.60015869140625" lon="-4.210508823394775">
        <ele>1439.9915771484375</ele>
        <time>2020-11-02T09:59:39Z</time>
      </trkpt>
      <trkpt lat="40.6002082824707" lon="-4.21047830581665">
        <ele>1441.17333984375</ele>
        <time>2020-11-02T09:59:46Z</time>
      </trkpt>
      <trkpt lat="40.60024642944336" lon="-4.210421562194824">
        <ele>1441.17333984375</ele>
        <time>2020-11-02T09:59:53Z</time>
      </trkpt>
      <trkpt lat="40.60032653808594" lon="-4.210356712341309">
        <ele>1442.3551025390625</ele>
        <time>2020-11-02T10:01:40Z</time>
      </trkpt>
      <trkpt lat="40.600318908691406" lon="-4.210330486297607">
        <ele>1442.3551025390625</ele>
        <time>2020-11-02T10:01:42Z</time>
      </trkpt>
      <trkpt lat="40.60029602050781" lon="-4.210227012634277">
        <ele>1442.3551025390625</ele>
        <time>2020-11-02T10:01:47Z</time>
      </trkpt>
      <trkpt lat="40.60028839111328" lon="-4.210149765014648">
        <ele>1442.3551025390625</ele>
        <time>2020-11-02T10:01:50Z</time>
      </trkpt>
      <trkpt lat="40.60029602050781" lon="-4.210080146789551">
        <ele>1443.536865234375</ele>
        <time>2020-11-02T10:01:53Z</time>
      </trkpt>
      <trkpt lat="40.600303649902344" lon="-4.209990501403809">
        <ele>1444.9005126953125</ele>
        <time>2020-11-02T10:01:57Z</time>
      </trkpt>
      <trkpt lat="40.600318908691406" lon="-4.209924221038818">
        <ele>1446.082275390625</ele>
        <time>2020-11-02T10:02:00Z</time>
      </trkpt>
      <trkpt lat="40.600341796875" lon="-4.2098565101623535">
        <ele>1446.082275390625</ele>
        <time>2020-11-02T10:02:03Z</time>
      </trkpt>
      <trkpt lat="40.600372314453125" lon="-4.209769248962402">
        <ele>1447.2640380859375</ele>
        <time>2020-11-02T10:02:07Z</time>
      </trkpt>
      <trkpt lat="40.60039138793945" lon="-4.209715843200684">
        <ele>1447.2640380859375</ele>
        <time>2020-11-02T10:02:10Z</time>
      </trkpt>
      <trkpt lat="40.60042953491211" lon="-4.209647178649902">
        <ele>1448.5367431640625</ele>
        <time>2020-11-02T10:02:14Z</time>
      </trkpt>
      <trkpt lat="40.600467681884766" lon="-4.209591865539551">
        <ele>1448.5367431640625</ele>
        <time>2020-11-02T10:02:18Z</time>
      </trkpt>
      <trkpt lat="40.600502014160156" lon="-4.2095465660095215">
        <ele>1449.8094482421875</ele>
        <time>2020-11-02T10:02:22Z</time>
      </trkpt>
      <trkpt lat="40.60053253173828" lon="-4.209495544433594">
        <ele>1449.8094482421875</ele>
        <time>2020-11-02T10:02:27Z</time>
      </trkpt>
      <trkpt lat="40.6005744934082" lon="-4.209439277648926">
        <ele>1449.8094482421875</ele>
        <time>2020-11-02T10:02:33Z</time>
      </trkpt>
      <trkpt lat="40.6005973815918" lon="-4.209387302398682">
        <ele>1451.2640380859375</ele>
        <time>2020-11-02T10:02:37Z</time>
      </trkpt>
      <trkpt lat="40.600608825683594" lon="-4.2093048095703125">
        <ele>1452.627685546875</ele>
        <time>2020-11-02T10:02:42Z</time>
      </trkpt>
      <trkpt lat="40.60061264038086" lon="-4.209234237670898">
        <ele>1452.627685546875</ele>
        <time>2020-11-02T10:02:45Z</time>
      </trkpt>
      <trkpt lat="40.600616455078125" lon="-4.209147930145264">
        <ele>1453.900390625</ele>
        <time>2020-11-02T10:02:49Z</time>
      </trkpt>
      <trkpt lat="40.60061264038086" lon="-4.209066867828369">
        <ele>1453.900390625</ele>
        <time>2020-11-02T10:02:53Z</time>
      </trkpt>
      <trkpt lat="40.600616455078125" lon="-4.2090020179748535">
        <ele>1455.173095703125</ele>
        <time>2020-11-02T10:02:56Z</time>
      </trkpt>
      <trkpt lat="40.60062789916992" lon="-4.208913803100586">
        <ele>1455.173095703125</ele>
        <time>2020-11-02T10:03:00Z</time>
      </trkpt>
      <trkpt lat="40.600650787353516" lon="-4.208855628967285">
        <ele>1460.0478515625</ele>
        <time>2020-11-02T10:03:03Z</time>
      </trkpt>
      <trkpt lat="40.60067367553711" lon="-4.208776473999023">
        <ele>1460.0478515625</ele>
        <time>2020-11-02T10:03:07Z</time>
      </trkpt>
      <trkpt lat="40.600704193115234" lon="-4.208702564239502">
        <ele>1461.2296142578125</ele>
        <time>2020-11-02T10:03:11Z</time>
      </trkpt>
      <trkpt lat="40.600730895996094" lon="-4.208645820617676">
        <ele>1461.2296142578125</ele>
        <time>2020-11-02T10:03:14Z</time>
      </trkpt>
      <trkpt lat="40.60075759887695" lon="-4.2085676193237305">
        <ele>1461.2296142578125</ele>
        <time>2020-11-02T10:03:18Z</time>
      </trkpt>
      <trkpt lat="40.60076904296875" lon="-4.208487510681152">
        <ele>1461.2296142578125</ele>
        <time>2020-11-02T10:03:22Z</time>
      </trkpt>
      <trkpt lat="40.60079574584961" lon="-4.20841121673584">
        <ele>1461.2296142578125</ele>
        <time>2020-11-02T10:03:26Z</time>
      </trkpt>
      <trkpt lat="40.60083770751953" lon="-4.208345413208008">
        <ele>1462.411376953125</ele>
        <time>2020-11-02T10:03:30Z</time>
      </trkpt>
      <trkpt lat="40.60086441040039" lon="-4.208289623260498">
        <ele>1463.5931396484375</ele>
        <time>2020-11-02T10:03:33Z</time>
      </trkpt>
      <trkpt lat="40.60089111328125" lon="-4.208209037780762">
        <ele>1463.5931396484375</ele>
        <time>2020-11-02T10:03:37Z</time>
      </trkpt>
      <trkpt lat="40.60091018676758" lon="-4.208137512207031">
        <ele>1464.77490234375</ele>
        <time>2020-11-02T10:03:41Z</time>
      </trkpt>
      <trkpt lat="40.60092544555664" lon="-4.208059787750244">
        <ele>1464.77490234375</ele>
        <time>2020-11-02T10:03:45Z</time>
      </trkpt>
      <trkpt lat="40.60094451904297" lon="-4.207984447479248">
        <ele>1464.77490234375</ele>
        <time>2020-11-02T10:03:49Z</time>
      </trkpt>
      <trkpt lat="40.60097122192383" lon="-4.207924842834473">
        <ele>1464.77490234375</ele>
        <time>2020-11-02T10:03:52Z</time>
      </trkpt>
      <trkpt lat="40.60100173950195" lon="-4.207863807678223">
        <ele>1465.9566650390625</ele>
        <time>2020-11-02T10:03:55Z</time>
      </trkpt>
      <trkpt lat="40.60103225708008" lon="-4.207816123962402">
        <ele>1465.9566650390625</ele>
        <time>2020-11-02T10:03:58Z</time>
      </trkpt>
      <trkpt lat="40.60105514526367" lon="-4.207753658294678">
        <ele>1465.9566650390625</ele>
        <time>2020-11-02T10:04:02Z</time>
      </trkpt>
      <trkpt lat="40.601078033447266" lon="-4.207691192626953">
        <ele>1465.9566650390625</ele>
        <time>2020-11-02T10:04:06Z</time>
      </trkpt>
      <trkpt lat="40.60109329223633" lon="-4.207624912261963">
        <ele>1465.9566650390625</ele>
        <time>2020-11-02T10:04:11Z</time>
      </trkpt>
      <trkpt lat="40.60111999511719" lon="-4.2075581550598145">
        <ele>1467.3203125</ele>
        <time>2020-11-02T10:04:17Z</time>
      </trkpt>
      <trkpt lat="40.60114288330078" lon="-4.207489490509033">
        <ele>1467.3203125</ele>
        <time>2020-11-02T10:04:22Z</time>
      </trkpt>
      <trkpt lat="40.60116195678711" lon="-4.2074198722839355">
        <ele>1467.3203125</ele>
        <time>2020-11-02T10:04:27Z</time>
      </trkpt>
      <trkpt lat="40.601192474365234" lon="-4.2073493003845215">
        <ele>1468.5020751953125</ele>
        <time>2020-11-02T10:04:31Z</time>
      </trkpt>
      <trkpt lat="40.60121154785156" lon="-4.207289695739746">
        <ele>1468.5020751953125</ele>
        <time>2020-11-02T10:04:34Z</time>
      </trkpt>
      <trkpt lat="40.60124588012695" lon="-4.207176685333252">
        <ele>1468.5020751953125</ele>
        <time>2020-11-02T10:04:39Z</time>
      </trkpt>
      <trkpt lat="40.60126876831055" lon="-4.207096099853516">
        <ele>1468.5020751953125</ele>
        <time>2020-11-02T10:04:42Z</time>
      </trkpt>
      <trkpt lat="40.60129165649414" lon="-4.207012176513672">
        <ele>1469.7747802734375</ele>
        <time>2020-11-02T10:04:45Z</time>
      </trkpt>
      <trkpt lat="40.60131072998047" lon="-4.206928253173828">
        <ele>1469.7747802734375</ele>
        <time>2020-11-02T10:04:48Z</time>
      </trkpt>
      <trkpt lat="40.60133361816406" lon="-4.206846714019775">
        <ele>1469.7747802734375</ele>
        <time>2020-11-02T10:04:51Z</time>
      </trkpt>
      <trkpt lat="40.601356506347656" lon="-4.206770896911621">
        <ele>1469.7747802734375</ele>
        <time>2020-11-02T10:04:54Z</time>
      </trkpt>
      <trkpt lat="40.601383209228516" lon="-4.206692695617676">
        <ele>1469.7747802734375</ele>
        <time>2020-11-02T10:04:57Z</time>
      </trkpt>
      <trkpt lat="40.60141372680664" lon="-4.206615447998047">
        <ele>1469.7747802734375</ele>
        <time>2020-11-02T10:05:00Z</time>
      </trkpt>
      <trkpt lat="40.60143280029297" lon="-4.2065348625183105">
        <ele>1469.7747802734375</ele>
        <time>2020-11-02T10:05:03Z</time>
      </trkpt>
      <trkpt lat="40.6014518737793" lon="-4.2064528465271">
        <ele>1469.7747802734375</ele>
        <time>2020-11-02T10:05:06Z</time>
      </trkpt>
      <trkpt lat="40.601470947265625" lon="-4.206371784210205">
        <ele>1469.7747802734375</ele>
        <time>2020-11-02T10:05:09Z</time>
      </trkpt>
      <trkpt lat="40.60149383544922" lon="-4.206292152404785">
        <ele>1472.8333740234375</ele>
        <time>2020-11-02T10:05:12Z</time>
      </trkpt>
      <trkpt lat="40.60151290893555" lon="-4.206213474273682">
        <ele>1472.8333740234375</ele>
        <time>2020-11-02T10:05:15Z</time>
      </trkpt>
      <trkpt lat="40.601531982421875" lon="-4.206132888793945">
        <ele>1474.01513671875</ele>
        <time>2020-11-02T10:05:18Z</time>
      </trkpt>
      <trkpt lat="40.6015510559082" lon="-4.206050872802734">
        <ele>1474.01513671875</ele>
        <time>2020-11-02T10:05:21Z</time>
      </trkpt>
      <trkpt lat="40.6015739440918" lon="-4.205972194671631">
        <ele>1475.1968994140625</ele>
        <time>2020-11-02T10:05:24Z</time>
      </trkpt>
      <trkpt lat="40.60159683227539" lon="-4.205892086029053">
        <ele>1475.1968994140625</ele>
        <time>2020-11-02T10:05:27Z</time>
      </trkpt>
      <trkpt lat="40.60163497924805" lon="-4.205821990966797">
        <ele>1476.378662109375</ele>
        <time>2020-11-02T10:05:30Z</time>
      </trkpt>
      <trkpt lat="40.60167694091797" lon="-4.205747127532959">
        <ele>1476.378662109375</ele>
        <time>2020-11-02T10:05:33Z</time>
      </trkpt>
      <trkpt lat="40.601722717285156" lon="-4.205679416656494">
        <ele>1477.5604248046875</ele>
        <time>2020-11-02T10:05:36Z</time>
      </trkpt>
      <trkpt lat="40.601768493652344" lon="-4.205618858337402">
        <ele>1477.5604248046875</ele>
        <time>2020-11-02T10:05:39Z</time>
      </trkpt>
      <trkpt lat="40.601806640625" lon="-4.2055487632751465">
        <ele>1477.5604248046875</ele>
        <time>2020-11-02T10:05:42Z</time>
      </trkpt>
      <trkpt lat="40.601829528808594" lon="-4.2054829597473145">
        <ele>1477.5604248046875</ele>
        <time>2020-11-02T10:05:45Z</time>
      </trkpt>
      <trkpt lat="40.60184860229492" lon="-4.205418109893799">
        <ele>1477.5604248046875</ele>
        <time>2020-11-02T10:05:48Z</time>
      </trkpt>
      <trkpt lat="40.60185241699219" lon="-4.205338001251221">
        <ele>1477.5604248046875</ele>
        <time>2020-11-02T10:05:52Z</time>
      </trkpt>
      <trkpt lat="40.60184097290039" lon="-4.205262184143066">
        <ele>1479.0150146484375</ele>
        <time>2020-11-02T10:05:56Z</time>
      </trkpt>
      <trkpt lat="40.601844787597656" lon="-4.205200672149658">
        <ele>1480.19677734375</ele>
        <time>2020-11-02T10:05:59Z</time>
      </trkpt>
      <trkpt lat="40.60187530517578" lon="-4.205115795135498">
        <ele>1480.19677734375</ele>
        <time>2020-11-02T10:06:03Z</time>
      </trkpt>
      <trkpt lat="40.60190200805664" lon="-4.20506477355957">
        <ele>1481.3785400390625</ele>
        <time>2020-11-02T10:06:06Z</time>
      </trkpt>
      <trkpt lat="40.60197067260742" lon="-4.205044269561768">
        <ele>1481.3785400390625</ele>
        <time>2020-11-02T10:06:10Z</time>
      </trkpt>
      <trkpt lat="40.60203552246094" lon="-4.20503044128418">
        <ele>1482.7421875</ele>
        <time>2020-11-02T10:06:13Z</time>
      </trkpt>
      <trkpt lat="40.60209655761719" lon="-4.204973220825195">
        <ele>1482.7421875</ele>
        <time>2020-11-02T10:06:17Z</time>
      </trkpt>
      <trkpt lat="40.60213088989258" lon="-4.20491886138916">
        <ele>1484.014892578125</ele>
        <time>2020-11-02T10:06:20Z</time>
      </trkpt>
      <trkpt lat="40.60215759277344" lon="-4.204863548278809">
        <ele>1484.014892578125</ele>
        <time>2020-11-02T10:06:23Z</time>
      </trkpt>
      <trkpt lat="40.6021842956543" lon="-4.204811096191406">
        <ele>1485.1966552734375</ele>
        <time>2020-11-02T10:06:26Z</time>
      </trkpt>
      <trkpt lat="40.60220718383789" lon="-4.204741477966309">
        <ele>1485.1966552734375</ele>
        <time>2020-11-02T10:06:30Z</time>
      </trkpt>
      <trkpt lat="40.60223388671875" lon="-4.204672336578369">
        <ele>1485.1966552734375</ele>
        <time>2020-11-02T10:06:34Z</time>
      </trkpt>
      <trkpt lat="40.60226058959961" lon="-4.204620361328125">
        <ele>1486.37841796875</ele>
        <time>2020-11-02T10:06:37Z</time>
      </trkpt>
      <trkpt lat="40.602298736572266" lon="-4.2045512199401855">
        <ele>1487.651123046875</ele>
        <time>2020-11-02T10:06:41Z</time>
      </trkpt>
      <trkpt lat="40.60232925415039" lon="-4.204479694366455">
        <ele>1487.651123046875</ele>
        <time>2020-11-02T10:06:45Z</time>
      </trkpt>
      <trkpt lat="40.60236740112305" lon="-4.204405784606934">
        <ele>1487.651123046875</ele>
        <time>2020-11-02T10:06:49Z</time>
      </trkpt>
      <trkpt lat="40.60240173339844" lon="-4.2043561935424805">
        <ele>1486.4693603515625</ele>
        <time>2020-11-02T10:06:52Z</time>
      </trkpt>
      <trkpt lat="40.60244369506836" lon="-4.2042975425720215">
        <ele>1486.4693603515625</ele>
        <time>2020-11-02T10:06:56Z</time>
      </trkpt>
      <trkpt lat="40.60248565673828" lon="-4.204236030578613">
        <ele>1486.4693603515625</ele>
        <time>2020-11-02T10:07:00Z</time>
      </trkpt>
      <trkpt lat="40.602508544921875" lon="-4.204167366027832">
        <ele>1485.28759765625</ele>
        <time>2020-11-02T10:07:04Z</time>
      </trkpt>
      <trkpt lat="40.602542877197266" lon="-4.204094886779785">
        <ele>1488.637451171875</ele>
        <time>2020-11-02T10:07:08Z</time>
      </trkpt>
      <trkpt lat="40.60258102416992" lon="-4.204022407531738">
        <ele>1488.637451171875</ele>
        <time>2020-11-02T10:07:12Z</time>
      </trkpt>
      <trkpt lat="40.60261535644531" lon="-4.203972816467285">
        <ele>1488.637451171875</ele>
        <time>2020-11-02T10:07:15Z</time>
      </trkpt>
      <trkpt lat="40.602664947509766" lon="-4.203911781311035">
        <ele>1488.637451171875</ele>
        <time>2020-11-02T10:07:19Z</time>
      </trkpt>
      <trkpt lat="40.60271072387695" lon="-4.203871726989746">
        <ele>1488.637451171875</ele>
        <time>2020-11-02T10:07:22Z</time>
      </trkpt>
      <trkpt lat="40.602760314941406" lon="-4.203837871551514">
        <ele>1488.637451171875</ele>
        <time>2020-11-02T10:07:25Z</time>
      </trkpt>
      <trkpt lat="40.602813720703125" lon="-4.203796863555908">
        <ele>1488.637451171875</ele>
        <time>2020-11-02T10:07:28Z</time>
      </trkpt>
      <trkpt lat="40.602867126464844" lon="-4.2037434577941895">
        <ele>1488.637451171875</ele>
        <time>2020-11-02T10:07:31Z</time>
      </trkpt>
      <trkpt lat="40.60292053222656" lon="-4.2036848068237305">
        <ele>1488.637451171875</ele>
        <time>2020-11-02T10:07:34Z</time>
      </trkpt>
      <trkpt lat="40.60296630859375" lon="-4.203621864318848">
        <ele>1489.8192138671875</ele>
        <time>2020-11-02T10:07:37Z</time>
      </trkpt>
      <trkpt lat="40.60301208496094" lon="-4.203553676605225">
        <ele>1489.8192138671875</ele>
        <time>2020-11-02T10:07:40Z</time>
      </trkpt>
      <trkpt lat="40.60306167602539" lon="-4.203481674194336">
        <ele>1489.8192138671875</ele>
        <time>2020-11-02T10:07:43Z</time>
      </trkpt>
      <trkpt lat="40.60309600830078" lon="-4.203436374664307">
        <ele>1489.8192138671875</ele>
        <time>2020-11-02T10:07:45Z</time>
      </trkpt>
      <trkpt lat="40.6031494140625" lon="-4.203362464904785">
        <ele>1489.8192138671875</ele>
        <time>2020-11-02T10:07:48Z</time>
      </trkpt>
      <trkpt lat="40.60318374633789" lon="-4.203314304351807">
        <ele>1489.8192138671875</ele>
        <time>2020-11-02T10:07:50Z</time>
      </trkpt>
      <trkpt lat="40.60322189331055" lon="-4.203264236450195">
        <ele>1489.8192138671875</ele>
        <time>2020-11-02T10:07:52Z</time>
      </trkpt>
      <trkpt lat="40.603275299072266" lon="-4.203192710876465">
        <ele>1491.0009765625</ele>
        <time>2020-11-02T10:07:55Z</time>
      </trkpt>
      <trkpt lat="40.60331344604492" lon="-4.203144550323486">
        <ele>1491.0009765625</ele>
        <time>2020-11-02T10:07:57Z</time>
      </trkpt>
      <trkpt lat="40.60334777832031" lon="-4.203094005584717">
        <ele>1491.0009765625</ele>
        <time>2020-11-02T10:07:59Z</time>
      </trkpt>
      <trkpt lat="40.60340118408203" lon="-4.2030205726623535">
        <ele>1491.0009765625</ele>
        <time>2020-11-02T10:08:02Z</time>
      </trkpt>
      <trkpt lat="40.60344314575195" lon="-4.202970504760742">
        <ele>1489.8192138671875</ele>
        <time>2020-11-02T10:08:04Z</time>
      </trkpt>
      <trkpt lat="40.60348129272461" lon="-4.202925205230713">
        <ele>1491.45556640625</ele>
        <time>2020-11-02T10:08:06Z</time>
      </trkpt>
      <trkpt lat="40.603519439697266" lon="-4.202877044677734">
        <ele>1492.8192138671875</ele>
        <time>2020-11-02T10:08:08Z</time>
      </trkpt>
      <trkpt lat="40.603553771972656" lon="-4.2028303146362305">
        <ele>1492.8192138671875</ele>
        <time>2020-11-02T10:08:10Z</time>
      </trkpt>
      <trkpt lat="40.60361099243164" lon="-4.202759742736816">
        <ele>1494.0919189453125</ele>
        <time>2020-11-02T10:08:13Z</time>
      </trkpt>
      <trkpt lat="40.60364532470703" lon="-4.2027153968811035">
        <ele>1495.273681640625</ele>
        <time>2020-11-02T10:08:15Z</time>
      </trkpt>
      <trkpt lat="40.603694915771484" lon="-4.202656269073486">
        <ele>1495.273681640625</ele>
        <time>2020-11-02T10:08:18Z</time>
      </trkpt>
      <trkpt lat="40.603736877441406" lon="-4.202602863311768">
        <ele>1495.273681640625</ele>
        <time>2020-11-02T10:08:21Z</time>
      </trkpt>
      <trkpt lat="40.60377502441406" lon="-4.202549934387207">
        <ele>1496.4554443359375</ele>
        <time>2020-11-02T10:08:24Z</time>
      </trkpt>
      <trkpt lat="40.60380935668945" lon="-4.202495574951172">
        <ele>1496.4554443359375</ele>
        <time>2020-11-02T10:08:27Z</time>
      </trkpt>
      <trkpt lat="40.60383987426758" lon="-4.202439785003662">
        <ele>1496.4554443359375</ele>
        <time>2020-11-02T10:08:30Z</time>
      </trkpt>
      <trkpt lat="40.6038703918457" lon="-4.202383995056152">
        <ele>1496.4554443359375</ele>
        <time>2020-11-02T10:08:33Z</time>
      </trkpt>
      <trkpt lat="40.60392379760742" lon="-4.20231819152832">
        <ele>1497.63720703125</ele>
        <time>2020-11-02T10:08:37Z</time>
      </trkpt>
      <trkpt lat="40.603965759277344" lon="-4.202267169952393">
        <ele>1497.63720703125</ele>
        <time>2020-11-02T10:08:40Z</time>
      </trkpt>
      <trkpt lat="40.604000091552734" lon="-4.202219009399414">
        <ele>1498.8189697265625</ele>
        <time>2020-11-02T10:08:43Z</time>
      </trkpt>
      <trkpt lat="40.60404586791992" lon="-4.202153205871582">
        <ele>1498.8189697265625</ele>
        <time>2020-11-02T10:08:47Z</time>
      </trkpt>
      <trkpt lat="40.604087829589844" lon="-4.2020978927612305">
        <ele>1500.0916748046875</ele>
        <time>2020-11-02T10:08:50Z</time>
      </trkpt>
      <trkpt lat="40.604122161865234" lon="-4.202038288116455">
        <ele>1500.0916748046875</ele>
        <time>2020-11-02T10:08:53Z</time>
      </trkpt>
      <trkpt lat="40.604164123535156" lon="-4.2019805908203125">
        <ele>1501.3643798828125</ele>
        <time>2020-11-02T10:08:56Z</time>
      </trkpt>
      <trkpt lat="40.60420608520508" lon="-4.20191764831543">
        <ele>1501.3643798828125</ele>
        <time>2020-11-02T10:08:59Z</time>
      </trkpt>
      <trkpt lat="40.604251861572266" lon="-4.201865196228027">
        <ele>1502.546142578125</ele>
        <time>2020-11-02T10:09:02Z</time>
      </trkpt>
      <trkpt lat="40.60429382324219" lon="-4.201813220977783">
        <ele>1502.546142578125</ele>
        <time>2020-11-02T10:09:05Z</time>
      </trkpt>
      <trkpt lat="40.604331970214844" lon="-4.201760768890381">
        <ele>1509.0775146484375</ele>
        <time>2020-11-02T10:09:08Z</time>
      </trkpt>
      <trkpt lat="40.6043586730957" lon="-4.20170783996582">
        <ele>1509.0775146484375</ele>
        <time>2020-11-02T10:09:11Z</time>
      </trkpt>
      <trkpt lat="40.60439682006836" lon="-4.20164155960083">
        <ele>1509.0775146484375</ele>
        <time>2020-11-02T10:09:15Z</time>
      </trkpt>
      <trkpt lat="40.604434967041016" lon="-4.201582431793213">
        <ele>1509.0775146484375</ele>
        <time>2020-11-02T10:09:19Z</time>
      </trkpt>
      <trkpt lat="40.60446548461914" lon="-4.201533317565918">
        <ele>1509.0775146484375</ele>
        <time>2020-11-02T10:09:22Z</time>
      </trkpt>
      <trkpt lat="40.6045036315918" lon="-4.2014617919921875">
        <ele>1509.0775146484375</ele>
        <time>2020-11-02T10:09:26Z</time>
      </trkpt>
      <trkpt lat="40.60453414916992" lon="-4.201409339904785">
        <ele>1509.0775146484375</ele>
        <time>2020-11-02T10:09:29Z</time>
      </trkpt>
      <trkpt lat="40.60457992553711" lon="-4.20133638381958">
        <ele>1509.0775146484375</ele>
        <time>2020-11-02T10:09:33Z</time>
      </trkpt>
      <trkpt lat="40.6046142578125" lon="-4.201278209686279">
        <ele>1510.25927734375</ele>
        <time>2020-11-02T10:09:36Z</time>
      </trkpt>
      <trkpt lat="40.604652404785156" lon="-4.201213359832764">
        <ele>1510.25927734375</ele>
        <time>2020-11-02T10:09:39Z</time>
      </trkpt>
      <trkpt lat="40.60470199584961" lon="-4.201118469238281">
        <ele>1510.25927734375</ele>
        <time>2020-11-02T10:09:42Z</time>
      </trkpt>
      <trkpt lat="40.604740142822266" lon="-4.201045036315918">
        <ele>1511.4410400390625</ele>
        <time>2020-11-02T10:09:46Z</time>
      </trkpt>
      <trkpt lat="40.60477828979492" lon="-4.200963497161865">
        <ele>1511.4410400390625</ele>
        <time>2020-11-02T10:09:49Z</time>
      </trkpt>
      <trkpt lat="40.604801177978516" lon="-4.20090389251709">
        <ele>1511.4410400390625</ele>
        <time>2020-11-02T10:09:51Z</time>
      </trkpt>
      <trkpt lat="40.604835510253906" lon="-4.2008161544799805">
        <ele>1511.4410400390625</ele>
        <time>2020-11-02T10:09:54Z</time>
      </trkpt>
      <trkpt lat="40.604854583740234" lon="-4.2007598876953125">
        <ele>1512.622802734375</ele>
        <time>2020-11-02T10:09:56Z</time>
      </trkpt>
      <trkpt lat="40.604881286621094" lon="-4.200676918029785">
        <ele>1512.622802734375</ele>
        <time>2020-11-02T10:09:59Z</time>
      </trkpt>
      <trkpt lat="40.60490417480469" lon="-4.200598239898682">
        <ele>1512.622802734375</ele>
        <time>2020-11-02T10:10:02Z</time>
      </trkpt>
      <trkpt lat="40.60493469238281" lon="-4.200518608093262">
        <ele>1512.622802734375</ele>
        <time>2020-11-02T10:10:05Z</time>
      </trkpt>
      <trkpt lat="40.604957580566406" lon="-4.200444221496582">
        <ele>1512.622802734375</ele>
        <time>2020-11-02T10:10:08Z</time>
      </trkpt>
      <trkpt lat="40.60498046875" lon="-4.200368881225586">
        <ele>1512.622802734375</ele>
        <time>2020-11-02T10:10:11Z</time>
      </trkpt>
      <trkpt lat="40.60499954223633" lon="-4.200291156768799">
        <ele>1512.622802734375</ele>
        <time>2020-11-02T10:10:14Z</time>
      </trkpt>
      <trkpt lat="40.60502243041992" lon="-4.200215816497803">
        <ele>1512.622802734375</ele>
        <time>2020-11-02T10:10:17Z</time>
      </trkpt>
      <trkpt lat="40.60504913330078" lon="-4.200138568878174">
        <ele>1512.622802734375</ele>
        <time>2020-11-02T10:10:20Z</time>
      </trkpt>
      <trkpt lat="40.605072021484375" lon="-4.200063228607178">
        <ele>1512.622802734375</ele>
        <time>2020-11-02T10:10:23Z</time>
      </trkpt>
      <trkpt lat="40.60508728027344" lon="-4.199978828430176">
        <ele>1512.622802734375</ele>
        <time>2020-11-02T10:10:26Z</time>
      </trkpt>
      <trkpt lat="40.60509490966797" lon="-4.199891567230225">
        <ele>1512.622802734375</ele>
        <time>2020-11-02T10:10:29Z</time>
      </trkpt>
      <trkpt lat="40.605106353759766" lon="-4.199801445007324">
        <ele>1512.622802734375</ele>
        <time>2020-11-02T10:10:32Z</time>
      </trkpt>
      <trkpt lat="40.605106353759766" lon="-4.199710845947266">
        <ele>1512.622802734375</ele>
        <time>2020-11-02T10:10:35Z</time>
      </trkpt>
      <trkpt lat="40.605106353759766" lon="-4.199621200561523">
        <ele>1512.622802734375</ele>
        <time>2020-11-02T10:10:38Z</time>
      </trkpt>
      <trkpt lat="40.6051025390625" lon="-4.199526309967041">
        <ele>1512.622802734375</ele>
        <time>2020-11-02T10:10:41Z</time>
      </trkpt>
      <trkpt lat="40.60509490966797" lon="-4.199426174163818">
        <ele>1512.622802734375</ele>
        <time>2020-11-02T10:10:44Z</time>
      </trkpt>
      <trkpt lat="40.60508728027344" lon="-4.199360370635986">
        <ele>1511.4410400390625</ele>
        <time>2020-11-02T10:10:46Z</time>
      </trkpt>
      <trkpt lat="40.60507583618164" lon="-4.199292182922363">
        <ele>1511.4410400390625</ele>
        <time>2020-11-02T10:10:48Z</time>
      </trkpt>
      <trkpt lat="40.605064392089844" lon="-4.199223518371582">
        <ele>1511.4410400390625</ele>
        <time>2020-11-02T10:10:50Z</time>
      </trkpt>
      <trkpt lat="40.605064392089844" lon="-4.199129104614258">
        <ele>1511.4410400390625</ele>
        <time>2020-11-02T10:10:53Z</time>
      </trkpt>
      <trkpt lat="40.60509490966797" lon="-4.199039936065674">
        <ele>1510.25927734375</ele>
        <time>2020-11-02T10:10:56Z</time>
      </trkpt>
      <trkpt lat="40.60512161254883" lon="-4.198986530303955">
        <ele>1510.25927734375</ele>
        <time>2020-11-02T10:10:58Z</time>
      </trkpt>
      <trkpt lat="40.605159759521484" lon="-4.198899269104004">
        <ele>1510.25927734375</ele>
        <time>2020-11-02T10:11:01Z</time>
      </trkpt>
      <trkpt lat="40.60517501831055" lon="-4.198833465576172">
        <ele>1510.25927734375</ele>
        <time>2020-11-02T10:11:03Z</time>
      </trkpt>
      <trkpt lat="40.60518264770508" lon="-4.198766708374023">
        <ele>1510.25927734375</ele>
        <time>2020-11-02T10:11:05Z</time>
      </trkpt>
      <trkpt lat="40.60518264770508" lon="-4.19866418838501">
        <ele>1510.25927734375</ele>
        <time>2020-11-02T10:11:08Z</time>
      </trkpt>
      <trkpt lat="40.60518264770508" lon="-4.198593616485596">
        <ele>1510.25927734375</ele>
        <time>2020-11-02T10:11:10Z</time>
      </trkpt>
      <trkpt lat="40.60517883300781" lon="-4.198524475097656">
        <ele>1510.25927734375</ele>
        <time>2020-11-02T10:11:12Z</time>
      </trkpt>
      <trkpt lat="40.60517501831055" lon="-4.198455810546875">
        <ele>1509.0704345703125</ele>
        <time>2020-11-02T10:11:14Z</time>
      </trkpt>
      <trkpt lat="40.60517120361328" lon="-4.198387145996094">
        <ele>1510.252197265625</ele>
        <time>2020-11-02T10:11:16Z</time>
      </trkpt>
      <trkpt lat="40.60517501831055" lon="-4.1982951164245605">
        <ele>1510.252197265625</ele>
        <time>2020-11-02T10:11:19Z</time>
      </trkpt>
      <trkpt lat="40.60517501831055" lon="-4.198205471038818">
        <ele>1510.252197265625</ele>
        <time>2020-11-02T10:11:22Z</time>
      </trkpt>
      <trkpt lat="40.60517883300781" lon="-4.1981425285339355">
        <ele>1510.252197265625</ele>
        <time>2020-11-02T10:11:24Z</time>
      </trkpt>
      <trkpt lat="40.60519027709961" lon="-4.1980438232421875">
        <ele>1511.4339599609375</ele>
        <time>2020-11-02T10:11:27Z</time>
      </trkpt>
      <trkpt lat="40.60519027709961" lon="-4.197957515716553">
        <ele>1511.4339599609375</ele>
        <time>2020-11-02T10:11:30Z</time>
      </trkpt>
      <trkpt lat="40.60519027709961" lon="-4.197873115539551">
        <ele>1511.4339599609375</ele>
        <time>2020-11-02T10:11:33Z</time>
      </trkpt>
      <trkpt lat="40.60517883300781" lon="-4.197787761688232">
        <ele>1511.4339599609375</ele>
        <time>2020-11-02T10:11:36Z</time>
      </trkpt>
      <trkpt lat="40.60516357421875" lon="-4.1977128982543945">
        <ele>1512.61572265625</ele>
        <time>2020-11-02T10:11:39Z</time>
      </trkpt>
      <trkpt lat="40.60515594482422" lon="-4.19763708114624">
        <ele>1512.61572265625</ele>
        <time>2020-11-02T10:11:42Z</time>
      </trkpt>
      <trkpt lat="40.60514450073242" lon="-4.19755744934082">
        <ele>1512.61572265625</ele>
        <time>2020-11-02T10:11:45Z</time>
      </trkpt>
      <trkpt lat="40.605140686035156" lon="-4.197476863861084">
        <ele>1513.888427734375</ele>
        <time>2020-11-02T10:11:48Z</time>
      </trkpt>
      <trkpt lat="40.605140686035156" lon="-4.197393894195557">
        <ele>1513.888427734375</ele>
        <time>2020-11-02T10:11:51Z</time>
      </trkpt>
      <trkpt lat="40.60513687133789" lon="-4.197317123413086">
        <ele>1513.888427734375</ele>
        <time>2020-11-02T10:11:54Z</time>
      </trkpt>
      <trkpt lat="40.60513687133789" lon="-4.197235584259033">
        <ele>1513.888427734375</ele>
        <time>2020-11-02T10:11:57Z</time>
      </trkpt>
      <trkpt lat="40.605140686035156" lon="-4.197153568267822">
        <ele>1515.0701904296875</ele>
        <time>2020-11-02T10:12:00Z</time>
      </trkpt>
      <trkpt lat="40.60514831542969" lon="-4.1970672607421875">
        <ele>1515.0701904296875</ele>
        <time>2020-11-02T10:12:03Z</time>
      </trkpt>
      <trkpt lat="40.60514831542969" lon="-4.196983814239502">
        <ele>1515.0701904296875</ele>
        <time>2020-11-02T10:12:06Z</time>
      </trkpt>
      <trkpt lat="40.60515213012695" lon="-4.196902275085449">
        <ele>1516.251953125</ele>
        <time>2020-11-02T10:12:09Z</time>
      </trkpt>
      <trkpt lat="40.60514450073242" lon="-4.19681978225708">
        <ele>1516.251953125</ele>
        <time>2020-11-02T10:12:12Z</time>
      </trkpt>
      <trkpt lat="40.60513687133789" lon="-4.1967387199401855">
        <ele>1516.251953125</ele>
        <time>2020-11-02T10:12:15Z</time>
      </trkpt>
      <trkpt lat="40.605133056640625" lon="-4.196659564971924">
        <ele>1517.4337158203125</ele>
        <time>2020-11-02T10:12:18Z</time>
      </trkpt>
      <trkpt lat="40.60512924194336" lon="-4.1965813636779785">
        <ele>1517.4337158203125</ele>
        <time>2020-11-02T10:12:21Z</time>
      </trkpt>
      <trkpt lat="40.605125427246094" lon="-4.196497440338135">
        <ele>1517.4337158203125</ele>
        <time>2020-11-02T10:12:24Z</time>
      </trkpt>
      <trkpt lat="40.6051139831543" lon="-4.196413516998291">
        <ele>1517.4337158203125</ele>
        <time>2020-11-02T10:12:27Z</time>
      </trkpt>
      <trkpt lat="40.6050910949707" lon="-4.196343421936035">
        <ele>1518.615478515625</ele>
        <time>2020-11-02T10:12:30Z</time>
      </trkpt>
      <trkpt lat="40.605064392089844" lon="-4.196275234222412">
        <ele>1518.615478515625</ele>
        <time>2020-11-02T10:12:33Z</time>
      </trkpt>
      <trkpt lat="40.605045318603516" lon="-4.196202754974365">
        <ele>1518.615478515625</ele>
        <time>2020-11-02T10:12:36Z</time>
      </trkpt>
      <trkpt lat="40.605037689208984" lon="-4.196126937866211">
        <ele>1518.615478515625</ele>
        <time>2020-11-02T10:12:39Z</time>
      </trkpt>
      <trkpt lat="40.60504150390625" lon="-4.196047782897949">
        <ele>1518.615478515625</ele>
        <time>2020-11-02T10:12:42Z</time>
      </trkpt>
      <trkpt lat="40.60504913330078" lon="-4.195968151092529">
        <ele>1519.7972412109375</ele>
        <time>2020-11-02T10:12:45Z</time>
      </trkpt>
      <trkpt lat="40.605064392089844" lon="-4.195882797241211">
        <ele>1519.7972412109375</ele>
        <time>2020-11-02T10:12:48Z</time>
      </trkpt>
      <trkpt lat="40.605079650878906" lon="-4.195803165435791">
        <ele>1519.7972412109375</ele>
        <time>2020-11-02T10:12:51Z</time>
      </trkpt>
      <trkpt lat="40.6051025390625" lon="-4.195724964141846">
        <ele>1521.0699462890625</ele>
        <time>2020-11-02T10:12:54Z</time>
      </trkpt>
      <trkpt lat="40.60511779785156" lon="-4.195642471313477">
        <ele>1521.0699462890625</ele>
        <time>2020-11-02T10:12:57Z</time>
      </trkpt>
      <trkpt lat="40.605133056640625" lon="-4.195562839508057">
        <ele>1522.3426513671875</ele>
        <time>2020-11-02T10:13:00Z</time>
      </trkpt>
      <trkpt lat="40.60515213012695" lon="-4.1954803466796875">
        <ele>1522.3426513671875</ele>
        <time>2020-11-02T10:13:03Z</time>
      </trkpt>
      <trkpt lat="40.60516357421875" lon="-4.195396423339844">
        <ele>1523.6153564453125</ele>
        <time>2020-11-02T10:13:06Z</time>
      </trkpt>
      <trkpt lat="40.605167388916016" lon="-4.1953125">
        <ele>1520.441650390625</ele>
        <time>2020-11-02T10:13:09Z</time>
      </trkpt>
      <trkpt lat="40.60516357421875" lon="-4.195234775543213">
        <ele>1521.6234130859375</ele>
        <time>2020-11-02T10:13:12Z</time>
      </trkpt>
      <trkpt lat="40.60514450073242" lon="-4.195164203643799">
        <ele>1521.6234130859375</ele>
        <time>2020-11-02T10:13:15Z</time>
      </trkpt>
      <trkpt lat="40.60511016845703" lon="-4.195104122161865">
        <ele>1522.80517578125</ele>
        <time>2020-11-02T10:13:18Z</time>
      </trkpt>
      <trkpt lat="40.60508728027344" lon="-4.19504451751709">
        <ele>1523.9869384765625</ele>
        <time>2020-11-02T10:13:21Z</time>
      </trkpt>
      <trkpt lat="40.605072021484375" lon="-4.194981575012207">
        <ele>1523.9869384765625</ele>
        <time>2020-11-02T10:13:24Z</time>
      </trkpt>
      <trkpt lat="40.60504913330078" lon="-4.194892883300781">
        <ele>1525.168701171875</ele>
        <time>2020-11-02T10:13:28Z</time>
      </trkpt>
      <trkpt lat="40.60504150390625" lon="-4.19482946395874">
        <ele>1525.168701171875</ele>
        <time>2020-11-02T10:13:31Z</time>
      </trkpt>
      <trkpt lat="40.60503387451172" lon="-4.194745063781738">
        <ele>1525.168701171875</ele>
        <time>2020-11-02T10:13:35Z</time>
      </trkpt>
      <trkpt lat="40.60502243041992" lon="-4.194664478302002">
        <ele>1526.3504638671875</ele>
        <time>2020-11-02T10:13:39Z</time>
      </trkpt>
      <trkpt lat="40.605018615722656" lon="-4.194585800170898">
        <ele>1526.3504638671875</ele>
        <time>2020-11-02T10:13:43Z</time>
      </trkpt>
      <trkpt lat="40.60500717163086" lon="-4.194509506225586">
        <ele>1526.3504638671875</ele>
        <time>2020-11-02T10:13:47Z</time>
      </trkpt>
      <trkpt lat="40.605003356933594" lon="-4.194433689117432">
        <ele>1527.5322265625</ele>
        <time>2020-11-02T10:13:51Z</time>
      </trkpt>
      <trkpt lat="40.60499954223633" lon="-4.194351673126221">
        <ele>1527.5322265625</ele>
        <time>2020-11-02T10:13:55Z</time>
      </trkpt>
      <trkpt lat="40.60499572753906" lon="-4.194264888763428">
        <ele>1527.5322265625</ele>
        <time>2020-11-02T10:13:59Z</time>
      </trkpt>
      <trkpt lat="40.60498809814453" lon="-4.194199562072754">
        <ele>1527.5322265625</ele>
        <time>2020-11-02T10:14:02Z</time>
      </trkpt>
      <trkpt lat="40.60498046875" lon="-4.1941094398498535">
        <ele>1527.5322265625</ele>
        <time>2020-11-02T10:14:06Z</time>
      </trkpt>
      <trkpt lat="40.60497283935547" lon="-4.194041728973389">
        <ele>1527.5322265625</ele>
        <time>2020-11-02T10:14:09Z</time>
      </trkpt>
      <trkpt lat="40.60497283935547" lon="-4.193967819213867">
        <ele>1527.5322265625</ele>
        <time>2020-11-02T10:14:12Z</time>
      </trkpt>
      <trkpt lat="40.6049690246582" lon="-4.193892002105713">
        <ele>1527.5322265625</ele>
        <time>2020-11-02T10:14:15Z</time>
      </trkpt>
      <trkpt lat="40.604976654052734" lon="-4.193819046020508">
        <ele>1528.7139892578125</ele>
        <time>2020-11-02T10:14:18Z</time>
      </trkpt>
      <trkpt lat="40.6049919128418" lon="-4.193748474121094">
        <ele>1528.7139892578125</ele>
        <time>2020-11-02T10:14:21Z</time>
      </trkpt>
      <trkpt lat="40.60502243041992" lon="-4.193685054779053">
        <ele>1529.895751953125</ele>
        <time>2020-11-02T10:14:24Z</time>
      </trkpt>
      <trkpt lat="40.60492706298828" lon="-4.193343162536621">
        <ele>1529.895751953125</ele>
        <time>2020-11-02T10:19:27Z</time>
      </trkpt>
      <trkpt lat="40.60491180419922" lon="-4.193309783935547">
        <ele>1529.895751953125</ele>
        <time>2020-11-02T10:19:29Z</time>
      </trkpt>
      <trkpt lat="40.6048583984375" lon="-4.193234443664551">
        <ele>1529.895751953125</ele>
        <time>2020-11-02T10:19:33Z</time>
      </trkpt>
      <trkpt lat="40.604820251464844" lon="-4.193195819854736">
        <ele>1529.895751953125</ele>
        <time>2020-11-02T10:19:35Z</time>
      </trkpt>
      <trkpt lat="40.60475540161133" lon="-4.193142414093018">
        <ele>1529.895751953125</ele>
        <time>2020-11-02T10:19:38Z</time>
      </trkpt>
      <trkpt lat="40.60469055175781" lon="-4.193083763122559">
        <ele>1529.895751953125</ele>
        <time>2020-11-02T10:19:41Z</time>
      </trkpt>
      <trkpt lat="40.60462188720703" lon="-4.193020820617676">
        <ele>1529.895751953125</ele>
        <time>2020-11-02T10:19:44Z</time>
      </trkpt>
      <trkpt lat="40.60457992553711" lon="-4.192978382110596">
        <ele>1529.895751953125</ele>
        <time>2020-11-02T10:19:46Z</time>
      </trkpt>
      <trkpt lat="40.60453796386719" lon="-4.192936897277832">
        <ele>1529.895751953125</ele>
        <time>2020-11-02T10:19:48Z</time>
      </trkpt>
      <trkpt lat="40.60447311401367" lon="-4.192881107330322">
        <ele>1529.895751953125</ele>
        <time>2020-11-02T10:19:51Z</time>
      </trkpt>
      <trkpt lat="40.604427337646484" lon="-4.1928510665893555">
        <ele>1529.895751953125</ele>
        <time>2020-11-02T10:19:53Z</time>
      </trkpt>
      <trkpt lat="40.60437774658203" lon="-4.192825794219971">
        <ele>1529.895751953125</ele>
        <time>2020-11-02T10:19:55Z</time>
      </trkpt>
      <trkpt lat="40.60430145263672" lon="-4.192802429199219">
        <ele>1529.895751953125</ele>
        <time>2020-11-02T10:19:58Z</time>
      </trkpt>
      <trkpt lat="40.604251861572266" lon="-4.192794322967529">
        <ele>1529.895751953125</ele>
        <time>2020-11-02T10:20:00Z</time>
      </trkpt>
      <trkpt lat="40.60420227050781" lon="-4.192788600921631">
        <ele>1529.895751953125</ele>
        <time>2020-11-02T10:20:02Z</time>
      </trkpt>
      <trkpt lat="40.6041259765625" lon="-4.192783355712891">
        <ele>1529.895751953125</ele>
        <time>2020-11-02T10:20:05Z</time>
      </trkpt>
      <trkpt lat="40.60407257080078" lon="-4.192782878875732">
        <ele>1531.0775146484375</ele>
        <time>2020-11-02T10:20:07Z</time>
      </trkpt>
      <trkpt lat="40.60402297973633" lon="-4.192784309387207">
        <ele>1531.0775146484375</ele>
        <time>2020-11-02T10:20:09Z</time>
      </trkpt>
      <trkpt lat="40.60394287109375" lon="-4.19278621673584">
        <ele>1531.0775146484375</ele>
        <time>2020-11-02T10:20:12Z</time>
      </trkpt>
      <trkpt lat="40.60388946533203" lon="-4.192789554595947">
        <ele>1531.0775146484375</ele>
        <time>2020-11-02T10:20:14Z</time>
      </trkpt>
      <trkpt lat="40.60383605957031" lon="-4.192792892456055">
        <ele>1531.0775146484375</ele>
        <time>2020-11-02T10:20:16Z</time>
      </trkpt>
      <trkpt lat="40.603782653808594" lon="-4.192795753479004">
        <ele>1531.0775146484375</ele>
        <time>2020-11-02T10:20:18Z</time>
      </trkpt>
      <trkpt lat="40.603729248046875" lon="-4.192798137664795">
        <ele>1531.0775146484375</ele>
        <time>2020-11-02T10:20:20Z</time>
      </trkpt>
      <trkpt lat="40.60365295410156" lon="-4.1927971839904785">
        <ele>1531.0775146484375</ele>
        <time>2020-11-02T10:20:23Z</time>
      </trkpt>
      <trkpt lat="40.60360336303711" lon="-4.1927924156188965">
        <ele>1531.0775146484375</ele>
        <time>2020-11-02T10:20:25Z</time>
      </trkpt>
      <trkpt lat="40.60354995727539" lon="-4.192784309387207">
        <ele>1531.0775146484375</ele>
        <time>2020-11-02T10:20:27Z</time>
      </trkpt>
      <trkpt lat="40.603477478027344" lon="-4.192769527435303">
        <ele>1531.0775146484375</ele>
        <time>2020-11-02T10:20:30Z</time>
      </trkpt>
      <trkpt lat="40.60342788696289" lon="-4.192755699157715">
        <ele>1531.0775146484375</ele>
        <time>2020-11-02T10:20:32Z</time>
      </trkpt>
      <trkpt lat="40.60335922241211" lon="-4.192732810974121">
        <ele>1531.0775146484375</ele>
        <time>2020-11-02T10:20:35Z</time>
      </trkpt>
      <trkpt lat="40.60328674316406" lon="-4.1926984786987305">
        <ele>1531.0775146484375</ele>
        <time>2020-11-02T10:20:38Z</time>
      </trkpt>
      <trkpt lat="40.60323715209961" lon="-4.192670822143555">
        <ele>1531.0775146484375</ele>
        <time>2020-11-02T10:20:40Z</time>
      </trkpt>
      <trkpt lat="40.603172302246094" lon="-4.192623138427734">
        <ele>1531.0775146484375</ele>
        <time>2020-11-02T10:20:43Z</time>
      </trkpt>
      <trkpt lat="40.6031379699707" lon="-4.192587852478027">
        <ele>1531.916259765625</ele>
        <time>2020-11-02T10:20:45Z</time>
      </trkpt>
      <trkpt lat="40.60312271118164" lon="-4.19252872467041">
        <ele>1531.916259765625</ele>
        <time>2020-11-02T10:20:49Z</time>
      </trkpt>
      <trkpt lat="40.6031379699707" lon="-4.192458152770996">
        <ele>1531.916259765625</ele>
        <time>2020-11-02T10:20:54Z</time>
      </trkpt>
      <trkpt lat="40.6031608581543" lon="-4.192397594451904">
        <ele>1531.916259765625</ele>
        <time>2020-11-02T10:20:58Z</time>
      </trkpt>
      <trkpt lat="40.60319519042969" lon="-4.1923418045043945">
        <ele>1531.916259765625</ele>
        <time>2020-11-02T10:21:02Z</time>
      </trkpt>
      <trkpt lat="40.60323715209961" lon="-4.192298412322998">
        <ele>1531.916259765625</ele>
        <time>2020-11-02T10:21:06Z</time>
      </trkpt>
      <trkpt lat="40.603267669677734" lon="-4.192244052886963">
        <ele>1533.0980224609375</ele>
        <time>2020-11-02T10:21:10Z</time>
      </trkpt>
      <trkpt lat="40.603302001953125" lon="-4.1921892166137695">
        <ele>1533.0980224609375</ele>
        <time>2020-11-02T10:21:15Z</time>
      </trkpt>
      <trkpt lat="40.603328704833984" lon="-4.192115783691406">
        <ele>1533.0980224609375</ele>
        <time>2020-11-02T10:21:20Z</time>
      </trkpt>
      <trkpt lat="40.603336334228516" lon="-4.1920485496521">
        <ele>1533.0980224609375</ele>
        <time>2020-11-02T10:21:24Z</time>
      </trkpt>
      <trkpt lat="40.60333251953125" lon="-4.191977500915527">
        <ele>1533.0980224609375</ele>
        <time>2020-11-02T10:21:29Z</time>
      </trkpt>
      <trkpt lat="40.60333251953125" lon="-4.191895961761475">
        <ele>1533.0980224609375</ele>
        <time>2020-11-02T10:21:34Z</time>
      </trkpt>
      <trkpt lat="40.603336334228516" lon="-4.191823482513428">
        <ele>1533.0980224609375</ele>
        <time>2020-11-02T10:21:38Z</time>
      </trkpt>
      <trkpt lat="40.60335159301758" lon="-4.19175910949707">
        <ele>1533.0980224609375</ele>
        <time>2020-11-02T10:21:42Z</time>
      </trkpt>
      <trkpt lat="40.60340118408203" lon="-4.191703796386719">
        <ele>1533.0980224609375</ele>
        <time>2020-11-02T10:21:48Z</time>
      </trkpt>
      <trkpt lat="40.60340881347656" lon="-4.1916184425354">
        <ele>1533.0980224609375</ele>
        <time>2020-11-02T10:21:52Z</time>
      </trkpt>
      <trkpt lat="40.603397369384766" lon="-4.191534519195557">
        <ele>1533.0980224609375</ele>
        <time>2020-11-02T10:21:55Z</time>
      </trkpt>
      <trkpt lat="40.603370666503906" lon="-4.191449165344238">
        <ele>1534.27978515625</ele>
        <time>2020-11-02T10:21:58Z</time>
      </trkpt>
      <trkpt lat="40.60334014892578" lon="-4.191361904144287">
        <ele>1534.27978515625</ele>
        <time>2020-11-02T10:22:01Z</time>
      </trkpt>
      <trkpt lat="40.603302001953125" lon="-4.191283226013184">
        <ele>1534.27978515625</ele>
        <time>2020-11-02T10:22:04Z</time>
      </trkpt>
      <trkpt lat="40.603267669677734" lon="-4.191201686859131">
        <ele>1534.27978515625</ele>
        <time>2020-11-02T10:22:07Z</time>
      </trkpt>
      <trkpt lat="40.60324478149414" lon="-4.19111442565918">
        <ele>1534.27978515625</ele>
        <time>2020-11-02T10:22:10Z</time>
      </trkpt>
      <trkpt lat="40.60322570800781" lon="-4.1910247802734375">
        <ele>1535.4615478515625</ele>
        <time>2020-11-02T10:22:13Z</time>
      </trkpt>
      <trkpt lat="40.603206634521484" lon="-4.190932273864746">
        <ele>1535.4615478515625</ele>
        <time>2020-11-02T10:22:16Z</time>
      </trkpt>
      <trkpt lat="40.603179931640625" lon="-4.190843105316162">
        <ele>1535.4615478515625</ele>
        <time>2020-11-02T10:22:19Z</time>
      </trkpt>
      <trkpt lat="40.603153228759766" lon="-4.19075870513916">
        <ele>1535.4615478515625</ele>
        <time>2020-11-02T10:22:22Z</time>
      </trkpt>
      <trkpt lat="40.603118896484375" lon="-4.190672874450684">
        <ele>1536.643310546875</ele>
        <time>2020-11-02T10:22:25Z</time>
      </trkpt>
      <trkpt lat="40.60309600830078" lon="-4.190617561340332">
        <ele>1536.643310546875</ele>
        <time>2020-11-02T10:22:27Z</time>
      </trkpt>
      <trkpt lat="40.60307312011719" lon="-4.190530776977539">
        <ele>1536.643310546875</ele>
        <time>2020-11-02T10:22:30Z</time>
      </trkpt>
      <trkpt lat="40.60305404663086" lon="-4.1904449462890625">
        <ele>1536.643310546875</ele>
        <time>2020-11-02T10:22:33Z</time>
      </trkpt>
      <trkpt lat="40.60304641723633" lon="-4.190356731414795">
        <ele>1536.643310546875</ele>
        <time>2020-11-02T10:22:36Z</time>
      </trkpt>
      <trkpt lat="40.60304260253906" lon="-4.190268039703369">
        <ele>1536.643310546875</ele>
        <time>2020-11-02T10:22:39Z</time>
      </trkpt>
      <trkpt lat="40.603023529052734" lon="-4.190185546875">
        <ele>1536.643310546875</ele>
        <time>2020-11-02T10:22:42Z</time>
      </trkpt>
      <trkpt lat="40.602996826171875" lon="-4.1901044845581055">
        <ele>1536.643310546875</ele>
        <time>2020-11-02T10:22:45Z</time>
      </trkpt>
      <trkpt lat="40.602962493896484" lon="-4.190027236938477">
        <ele>1537.8250732421875</ele>
        <time>2020-11-02T10:22:48Z</time>
      </trkpt>
      <trkpt lat="40.60292434692383" lon="-4.189953804016113">
        <ele>1539.0977783203125</ele>
        <time>2020-11-02T10:22:51Z</time>
      </trkpt>
      <trkpt lat="40.6028938293457" lon="-4.189876556396484">
        <ele>1539.0977783203125</ele>
        <time>2020-11-02T10:22:54Z</time>
      </trkpt>
      <trkpt lat="40.60286331176758" lon="-4.189794540405273">
        <ele>1538.7066650390625</ele>
        <time>2020-11-02T10:22:57Z</time>
      </trkpt>
      <trkpt lat="40.60283279418945" lon="-4.1897149085998535">
        <ele>1538.7066650390625</ele>
        <time>2020-11-02T10:23:00Z</time>
      </trkpt>
      <trkpt lat="40.60280990600586" lon="-4.189634799957275">
        <ele>1539.888427734375</ele>
        <time>2020-11-02T10:23:03Z</time>
      </trkpt>
      <trkpt lat="40.60279083251953" lon="-4.189554214477539">
        <ele>1539.888427734375</ele>
        <time>2020-11-02T10:23:06Z</time>
      </trkpt>
      <trkpt lat="40.6027717590332" lon="-4.189473628997803">
        <ele>1539.888427734375</ele>
        <time>2020-11-02T10:23:09Z</time>
      </trkpt>
      <trkpt lat="40.60274887084961" lon="-4.189396858215332">
        <ele>1539.888427734375</ele>
        <time>2020-11-02T10:23:12Z</time>
      </trkpt>
      <trkpt lat="40.602718353271484" lon="-4.189324855804443">
        <ele>1539.888427734375</ele>
        <time>2020-11-02T10:23:15Z</time>
      </trkpt>
      <trkpt lat="40.60269546508789" lon="-4.189250469207764">
        <ele>1539.888427734375</ele>
        <time>2020-11-02T10:23:18Z</time>
      </trkpt>
      <trkpt lat="40.60268020629883" lon="-4.189173698425293">
        <ele>1541.0701904296875</ele>
        <time>2020-11-02T10:23:21Z</time>
      </trkpt>
      <trkpt lat="40.60266876220703" lon="-4.189091682434082">
        <ele>1541.0701904296875</ele>
        <time>2020-11-02T10:23:24Z</time>
      </trkpt>
      <trkpt lat="40.6026496887207" lon="-4.189011096954346">
        <ele>1541.0701904296875</ele>
        <time>2020-11-02T10:23:27Z</time>
      </trkpt>
      <trkpt lat="40.60262680053711" lon="-4.188931465148926">
        <ele>1541.0701904296875</ele>
        <time>2020-11-02T10:23:30Z</time>
      </trkpt>
      <trkpt lat="40.60260772705078" lon="-4.188851833343506">
        <ele>1541.0701904296875</ele>
        <time>2020-11-02T10:23:33Z</time>
      </trkpt>
      <trkpt lat="40.60258865356445" lon="-4.1887664794921875">
        <ele>1541.0701904296875</ele>
        <time>2020-11-02T10:23:36Z</time>
      </trkpt>
      <trkpt lat="40.602577209472656" lon="-4.18867826461792">
        <ele>1541.0701904296875</ele>
        <time>2020-11-02T10:23:39Z</time>
      </trkpt>
      <trkpt lat="40.602577209472656" lon="-4.188590049743652">
        <ele>1541.0701904296875</ele>
        <time>2020-11-02T10:23:42Z</time>
      </trkpt>
      <trkpt lat="40.60259246826172" lon="-4.188501834869385">
        <ele>1541.0701904296875</ele>
        <time>2020-11-02T10:23:45Z</time>
      </trkpt>
      <trkpt lat="40.602596282958984" lon="-4.188441276550293">
        <ele>1542.251953125</ele>
        <time>2020-11-02T10:23:47Z</time>
      </trkpt>
      <trkpt lat="40.60260009765625" lon="-4.188350200653076">
        <ele>1542.251953125</ele>
        <time>2020-11-02T10:23:50Z</time>
      </trkpt>
      <trkpt lat="40.602596282958984" lon="-4.188258171081543">
        <ele>1542.251953125</ele>
        <time>2020-11-02T10:23:53Z</time>
      </trkpt>
      <trkpt lat="40.60259246826172" lon="-4.188168525695801">
        <ele>1542.251953125</ele>
        <time>2020-11-02T10:23:56Z</time>
      </trkpt>
      <trkpt lat="40.602577209472656" lon="-4.188078880310059">
        <ele>1542.251953125</ele>
        <time>2020-11-02T10:23:59Z</time>
      </trkpt>
      <trkpt lat="40.602561950683594" lon="-4.188021183013916">
        <ele>1542.251953125</ele>
        <time>2020-11-02T10:24:01Z</time>
      </trkpt>
      <trkpt lat="40.6025390625" lon="-4.1879353523254395">
        <ele>1542.251953125</ele>
        <time>2020-11-02T10:24:04Z</time>
      </trkpt>
      <trkpt lat="40.6025276184082" lon="-4.18785285949707">
        <ele>1542.251953125</ele>
        <time>2020-11-02T10:24:07Z</time>
      </trkpt>
      <trkpt lat="40.60251998901367" lon="-4.187786102294922">
        <ele>1542.251953125</ele>
        <time>2020-11-02T10:24:10Z</time>
      </trkpt>
      <trkpt lat="40.602508544921875" lon="-4.187706470489502">
        <ele>1542.251953125</ele>
        <time>2020-11-02T10:24:14Z</time>
      </trkpt>
      <trkpt lat="40.60248947143555" lon="-4.187637805938721">
        <ele>1542.251953125</ele>
        <time>2020-11-02T10:24:18Z</time>
      </trkpt>
      <trkpt lat="40.60246276855469" lon="-4.187580108642578">
        <ele>1542.251953125</ele>
        <time>2020-11-02T10:24:22Z</time>
      </trkpt>
      <trkpt lat="40.60247039794922" lon="-4.187504768371582">
        <ele>1542.251953125</ele>
        <time>2020-11-02T10:24:27Z</time>
      </trkpt>
      <trkpt lat="40.602500915527344" lon="-4.187452793121338">
        <ele>1542.251953125</ele>
        <time>2020-11-02T10:24:30Z</time>
      </trkpt>
      <trkpt lat="40.602542877197266" lon="-4.18739128112793">
        <ele>1542.251953125</ele>
        <time>2020-11-02T10:24:33Z</time>
      </trkpt>
      <trkpt lat="40.602577209472656" lon="-4.187321186065674">
        <ele>1540.979248046875</ele>
        <time>2020-11-02T10:24:36Z</time>
      </trkpt>
      <trkpt lat="40.60260772705078" lon="-4.187240123748779">
        <ele>1540.979248046875</ele>
        <time>2020-11-02T10:24:39Z</time>
      </trkpt>
      <trkpt lat="40.60264205932617" lon="-4.187160491943359">
        <ele>1539.70654296875</ele>
        <time>2020-11-02T10:24:42Z</time>
      </trkpt>
      <trkpt lat="40.60266876220703" lon="-4.187108516693115">
        <ele>1538.433837890625</ele>
        <time>2020-11-02T10:24:44Z</time>
      </trkpt>
      <trkpt lat="40.60271072387695" lon="-4.187034606933594">
        <ele>1537.0701904296875</ele>
        <time>2020-11-02T10:24:47Z</time>
      </trkpt>
      <trkpt lat="40.602752685546875" lon="-4.186959266662598">
        <ele>1535.3428955078125</ele>
        <time>2020-11-02T10:24:50Z</time>
      </trkpt>
      <trkpt lat="40.60277557373047" lon="-4.186903476715088">
        <ele>1533.7974853515625</ele>
        <time>2020-11-02T10:24:52Z</time>
      </trkpt>
      <trkpt lat="40.60280990600586" lon="-4.186823844909668">
        <ele>1532.2520751953125</ele>
        <time>2020-11-02T10:24:55Z</time>
      </trkpt>
      <trkpt lat="40.602840423583984" lon="-4.186741352081299">
        <ele>1531.0826416015625</ele>
        <time>2020-11-02T10:24:58Z</time>
      </trkpt>
      <trkpt lat="40.60285949707031" lon="-4.186659812927246">
        <ele>1531.0826416015625</ele>
        <time>2020-11-02T10:25:01Z</time>
      </trkpt>
      <trkpt lat="40.602867126464844" lon="-4.18657112121582">
        <ele>1531.0826416015625</ele>
        <time>2020-11-02T10:25:04Z</time>
      </trkpt>
      <trkpt lat="40.60288619995117" lon="-4.186500072479248">
        <ele>1529.8099365234375</ele>
        <time>2020-11-02T10:25:07Z</time>
      </trkpt>
      <trkpt lat="40.60293197631836" lon="-4.186452388763428">
        <ele>1528.628173828125</ele>
        <time>2020-11-02T10:25:10Z</time>
      </trkpt>
      <trkpt lat="40.60297775268555" lon="-4.186394214630127">
        <ele>1528.628173828125</ele>
        <time>2020-11-02T10:25:13Z</time>
      </trkpt>
      <trkpt lat="40.6030158996582" lon="-4.186325550079346">
        <ele>1528.628173828125</ele>
        <time>2020-11-02T10:25:16Z</time>
      </trkpt>
      <trkpt lat="40.60304641723633" lon="-4.186248779296875">
        <ele>1527.35546875</ele>
        <time>2020-11-02T10:25:19Z</time>
      </trkpt>
      <trkpt lat="40.603084564208984" lon="-4.186188697814941">
        <ele>1527.35546875</ele>
        <time>2020-11-02T10:25:22Z</time>
      </trkpt>
      <trkpt lat="40.60313415527344" lon="-4.1861252784729">
        <ele>1527.35546875</ele>
        <time>2020-11-02T10:25:25Z</time>
      </trkpt>
      <trkpt lat="40.60316848754883" lon="-4.18607234954834">
        <ele>1528.628173828125</ele>
        <time>2020-11-02T10:25:27Z</time>
      </trkpt>
      <trkpt lat="40.60321044921875" lon="-4.1860032081604">
        <ele>1528.628173828125</ele>
        <time>2020-11-02T10:25:30Z</time>
      </trkpt>
      <trkpt lat="40.60325241088867" lon="-4.185945510864258">
        <ele>1528.628173828125</ele>
        <time>2020-11-02T10:25:33Z</time>
      </trkpt>
      <trkpt lat="40.603302001953125" lon="-4.185887336730957">
        <ele>1527.35546875</ele>
        <time>2020-11-02T10:25:36Z</time>
      </trkpt>
      <trkpt lat="40.60335159301758" lon="-4.185822010040283">
        <ele>1527.35546875</ele>
        <time>2020-11-02T10:25:39Z</time>
      </trkpt>
      <trkpt lat="40.6033821105957" lon="-4.185772895812988">
        <ele>1526.1737060546875</ele>
        <time>2020-11-02T10:25:41Z</time>
      </trkpt>
      <trkpt lat="40.60342788696289" lon="-4.185701847076416">
        <ele>1524.9010009765625</ele>
        <time>2020-11-02T10:25:44Z</time>
      </trkpt>
      <trkpt lat="40.60346984863281" lon="-4.1856279373168945">
        <ele>1524.9010009765625</ele>
        <time>2020-11-02T10:25:47Z</time>
      </trkpt>
      <trkpt lat="40.60350799560547" lon="-4.185546398162842">
        <ele>1523.6282958984375</ele>
        <time>2020-11-02T10:25:50Z</time>
      </trkpt>
      <trkpt lat="40.60353088378906" lon="-4.185489177703857">
        <ele>1523.6282958984375</ele>
        <time>2020-11-02T10:25:52Z</time>
      </trkpt>
      <trkpt lat="40.60356903076172" lon="-4.185403823852539">
        <ele>1522.446533203125</ele>
        <time>2020-11-02T10:25:55Z</time>
      </trkpt>
      <trkpt lat="40.60359191894531" lon="-4.1853461265563965">
        <ele>1522.446533203125</ele>
        <time>2020-11-02T10:25:57Z</time>
      </trkpt>
      <trkpt lat="40.60362243652344" lon="-4.185261249542236">
        <ele>1521.2647705078125</ele>
        <time>2020-11-02T10:26:00Z</time>
      </trkpt>
      <trkpt lat="40.6036491394043" lon="-4.185173511505127">
        <ele>1521.2647705078125</ele>
        <time>2020-11-02T10:26:03Z</time>
      </trkpt>
      <trkpt lat="40.603668212890625" lon="-4.185092449188232">
        <ele>1520.0830078125</ele>
        <time>2020-11-02T10:26:06Z</time>
      </trkpt>
      <trkpt lat="40.60369873046875" lon="-4.184985637664795">
        <ele>1520.0830078125</ele>
        <time>2020-11-02T10:26:10Z</time>
      </trkpt>
      <trkpt lat="40.60372543334961" lon="-4.184910774230957">
        <ele>1518.7193603515625</ele>
        <time>2020-11-02T10:26:13Z</time>
      </trkpt>
      <trkpt lat="40.6037483215332" lon="-4.184830665588379">
        <ele>1518.7193603515625</ele>
        <time>2020-11-02T10:26:16Z</time>
      </trkpt>
      <trkpt lat="40.6037712097168" lon="-4.184746742248535">
        <ele>1517.355712890625</ele>
        <time>2020-11-02T10:26:19Z</time>
      </trkpt>
      <trkpt lat="40.603797912597656" lon="-4.184661388397217">
        <ele>1515.9920654296875</ele>
        <time>2020-11-02T10:26:22Z</time>
      </trkpt>
      <trkpt lat="40.60381317138672" lon="-4.184602737426758">
        <ele>1515.9920654296875</ele>
        <time>2020-11-02T10:26:24Z</time>
      </trkpt>
      <trkpt lat="40.60383224487305" lon="-4.184512615203857">
        <ele>1514.62841796875</ele>
        <time>2020-11-02T10:26:27Z</time>
      </trkpt>
      <trkpt lat="40.60384750366211" lon="-4.184453964233398">
        <ele>1514.62841796875</ele>
        <time>2020-11-02T10:26:29Z</time>
      </trkpt>
      <trkpt lat="40.6038703918457" lon="-4.184375286102295">
        <ele>1513.4466552734375</ele>
        <time>2020-11-02T10:26:32Z</time>
      </trkpt>
      <trkpt lat="40.6038932800293" lon="-4.184300899505615">
        <ele>1512.0830078125</ele>
        <time>2020-11-02T10:26:35Z</time>
      </trkpt>
      <trkpt lat="40.603919982910156" lon="-4.184239864349365">
        <ele>1512.0830078125</ele>
        <time>2020-11-02T10:26:38Z</time>
      </trkpt>
      <trkpt lat="40.60395050048828" lon="-4.184177875518799">
        <ele>1510.9012451171875</ele>
        <time>2020-11-02T10:26:41Z</time>
      </trkpt>
      <trkpt lat="40.60397720336914" lon="-4.184110164642334">
        <ele>1510.9012451171875</ele>
        <time>2020-11-02T10:26:44Z</time>
      </trkpt>
      <trkpt lat="40.60400390625" lon="-4.18403959274292">
        <ele>1509.53759765625</ele>
        <time>2020-11-02T10:26:47Z</time>
      </trkpt>
      <trkpt lat="40.604026794433594" lon="-4.183968544006348">
        <ele>1508.264892578125</ele>
        <time>2020-11-02T10:26:50Z</time>
      </trkpt>
      <trkpt lat="40.60405349731445" lon="-4.183897018432617">
        <ele>1508.264892578125</ele>
        <time>2020-11-02T10:26:53Z</time>
      </trkpt>
      <trkpt lat="40.60408020019531" lon="-4.183818340301514">
        <ele>1506.9921875</ele>
        <time>2020-11-02T10:26:56Z</time>
      </trkpt>
      <trkpt lat="40.604095458984375" lon="-4.1837358474731445">
        <ele>1510.91748046875</ele>
        <time>2020-11-02T10:26:59Z</time>
      </trkpt>
      <trkpt lat="40.6041145324707" lon="-4.183655261993408">
        <ele>1510.91748046875</ele>
        <time>2020-11-02T10:27:02Z</time>
      </trkpt>
      <trkpt lat="40.604129791259766" lon="-4.183575630187988">
        <ele>1509.644775390625</ele>
        <time>2020-11-02T10:27:05Z</time>
      </trkpt>
      <trkpt lat="40.60415267944336" lon="-4.183492183685303">
        <ele>1508.3720703125</ele>
        <time>2020-11-02T10:27:08Z</time>
      </trkpt>
      <trkpt lat="40.60417175292969" lon="-4.183407783508301">
        <ele>1508.3720703125</ele>
        <time>2020-11-02T10:27:11Z</time>
      </trkpt>
      <trkpt lat="40.604190826416016" lon="-4.183327674865723">
        <ele>1507.0084228515625</ele>
        <time>2020-11-02T10:27:14Z</time>
      </trkpt>
      <trkpt lat="40.604209899902344" lon="-4.183246612548828">
        <ele>1507.0084228515625</ele>
        <time>2020-11-02T10:27:17Z</time>
      </trkpt>
      <trkpt lat="40.604225158691406" lon="-4.183163166046143">
        <ele>1505.7357177734375</ele>
        <time>2020-11-02T10:27:20Z</time>
      </trkpt>
      <trkpt lat="40.60423278808594" lon="-4.183076858520508">
        <ele>1504.4630126953125</ele>
        <time>2020-11-02T10:27:23Z</time>
      </trkpt>
      <trkpt lat="40.604244232177734" lon="-4.182995796203613">
        <ele>1503.1903076171875</ele>
        <time>2020-11-02T10:27:26Z</time>
      </trkpt>
      <trkpt lat="40.604251861572266" lon="-4.182920455932617">
        <ele>1503.1903076171875</ele>
        <time>2020-11-02T10:27:29Z</time>
      </trkpt>
      <trkpt lat="40.60426330566406" lon="-4.182844161987305">
        <ele>1501.9176025390625</ele>
        <time>2020-11-02T10:27:32Z</time>
      </trkpt>
      <trkpt lat="40.60427474975586" lon="-4.182769298553467">
        <ele>1500.553955078125</ele>
        <time>2020-11-02T10:27:35Z</time>
      </trkpt>
      <trkpt lat="40.60427474975586" lon="-4.182673454284668">
        <ele>1499.3721923828125</ele>
        <time>2020-11-02T10:27:39Z</time>
      </trkpt>
      <trkpt lat="40.604270935058594" lon="-4.182592391967773">
        <ele>1499.3721923828125</ele>
        <time>2020-11-02T10:27:42Z</time>
      </trkpt>
      <trkpt lat="40.6042594909668" lon="-4.182507514953613">
        <ele>1499.3721923828125</ele>
        <time>2020-11-02T10:27:45Z</time>
      </trkpt>
      <trkpt lat="40.6042594909668" lon="-4.182429790496826">
        <ele>1499.3721923828125</ele>
        <time>2020-11-02T10:27:48Z</time>
      </trkpt>
      <trkpt lat="40.60426330566406" lon="-4.1823554039001465">
        <ele>1499.3721923828125</ele>
        <time>2020-11-02T10:27:51Z</time>
      </trkpt>
      <trkpt lat="40.60426712036133" lon="-4.182280540466309">
        <ele>1499.3721923828125</ele>
        <time>2020-11-02T10:27:54Z</time>
      </trkpt>
      <trkpt lat="40.604278564453125" lon="-4.182210445404053">
        <ele>1499.3721923828125</ele>
        <time>2020-11-02T10:27:57Z</time>
      </trkpt>
      <trkpt lat="40.60430145263672" lon="-4.182145118713379">
        <ele>1499.3721923828125</ele>
        <time>2020-11-02T10:28:00Z</time>
      </trkpt>
      <trkpt lat="40.60431671142578" lon="-4.182079792022705">
        <ele>1500.6448974609375</ele>
        <time>2020-11-02T10:28:03Z</time>
      </trkpt>
      <trkpt lat="40.604331970214844" lon="-4.182004928588867">
        <ele>1500.6448974609375</ele>
        <time>2020-11-02T10:28:06Z</time>
      </trkpt>
      <trkpt lat="40.60434341430664" lon="-4.181919097900391">
        <ele>1501.82666015625</ele>
        <time>2020-11-02T10:28:09Z</time>
      </trkpt>
      <trkpt lat="40.60434341430664" lon="-4.181835651397705">
        <ele>1501.82666015625</ele>
        <time>2020-11-02T10:28:12Z</time>
      </trkpt>
      <trkpt lat="40.604339599609375" lon="-4.181752681732178">
        <ele>1501.82666015625</ele>
        <time>2020-11-02T10:28:15Z</time>
      </trkpt>
      <trkpt lat="40.60433578491211" lon="-4.181678771972656">
        <ele>1503.0084228515625</ele>
        <time>2020-11-02T10:28:18Z</time>
      </trkpt>
      <trkpt lat="40.60432815551758" lon="-4.181604862213135">
        <ele>1503.0084228515625</ele>
        <time>2020-11-02T10:28:21Z</time>
      </trkpt>
      <trkpt lat="40.60432434082031" lon="-4.1815338134765625">
        <ele>1504.2811279296875</ele>
        <time>2020-11-02T10:28:24Z</time>
      </trkpt>
      <trkpt lat="40.60431671142578" lon="-4.181461811065674">
        <ele>1504.2811279296875</ele>
        <time>2020-11-02T10:28:27Z</time>
      </trkpt>
      <trkpt lat="40.604312896728516" lon="-4.181390762329102">
        <ele>1504.2811279296875</ele>
        <time>2020-11-02T10:28:30Z</time>
      </trkpt>
      <trkpt lat="40.604305267333984" lon="-4.181319236755371">
        <ele>1504.2811279296875</ele>
        <time>2020-11-02T10:28:33Z</time>
      </trkpt>
      <trkpt lat="40.60430145263672" lon="-4.181247711181641">
        <ele>1505.462890625</ele>
        <time>2020-11-02T10:28:36Z</time>
      </trkpt>
      <trkpt lat="40.60429000854492" lon="-4.181174278259277">
        <ele>1505.462890625</ele>
        <time>2020-11-02T10:28:39Z</time>
      </trkpt>
      <trkpt lat="40.604286193847656" lon="-4.181105136871338">
        <ele>1505.462890625</ele>
        <time>2020-11-02T10:28:42Z</time>
      </trkpt>
      <trkpt lat="40.60428237915039" lon="-4.181034088134766">
        <ele>1506.6446533203125</ele>
        <time>2020-11-02T10:28:45Z</time>
      </trkpt>
      <trkpt lat="40.60427474975586" lon="-4.180963516235352">
        <ele>1506.6446533203125</ele>
        <time>2020-11-02T10:28:48Z</time>
      </trkpt>
      <trkpt lat="40.60426330566406" lon="-4.18089485168457">
        <ele>1506.6446533203125</ele>
        <time>2020-11-02T10:28:51Z</time>
      </trkpt>
      <trkpt lat="40.604248046875" lon="-4.180826187133789">
        <ele>1506.6446533203125</ele>
        <time>2020-11-02T10:28:54Z</time>
      </trkpt>
      <trkpt lat="40.60423278808594" lon="-4.180753231048584">
        <ele>1501.5947265625</ele>
        <time>2020-11-02T10:28:57Z</time>
      </trkpt>
      <trkpt lat="40.604217529296875" lon="-4.180678844451904">
        <ele>1501.5947265625</ele>
        <time>2020-11-02T10:29:00Z</time>
      </trkpt>
      <trkpt lat="40.60420227050781" lon="-4.180606365203857">
        <ele>1501.5947265625</ele>
        <time>2020-11-02T10:29:03Z</time>
      </trkpt>
      <trkpt lat="40.604183197021484" lon="-4.180537700653076">
        <ele>1501.5947265625</ele>
        <time>2020-11-02T10:29:06Z</time>
      </trkpt>
      <trkpt lat="40.60416793823242" lon="-4.180465221405029">
        <ele>1501.5947265625</ele>
        <time>2020-11-02T10:29:09Z</time>
      </trkpt>
      <trkpt lat="40.60415267944336" lon="-4.18039083480835">
        <ele>1501.5947265625</ele>
        <time>2020-11-02T10:29:12Z</time>
      </trkpt>
      <trkpt lat="40.6041374206543" lon="-4.180314540863037">
        <ele>1501.5947265625</ele>
        <time>2020-11-02T10:29:15Z</time>
      </trkpt>
      <trkpt lat="40.604129791259766" lon="-4.18023681640625">
        <ele>1502.7764892578125</ele>
        <time>2020-11-02T10:29:18Z</time>
      </trkpt>
      <trkpt lat="40.604122161865234" lon="-4.1801557540893555">
        <ele>1502.7764892578125</ele>
        <time>2020-11-02T10:29:21Z</time>
      </trkpt>
      <trkpt lat="40.604122161865234" lon="-4.180074214935303">
        <ele>1502.7764892578125</ele>
        <time>2020-11-02T10:29:24Z</time>
      </trkpt>
      <trkpt lat="40.6041259765625" lon="-4.179989814758301">
        <ele>1502.7764892578125</ele>
        <time>2020-11-02T10:29:27Z</time>
      </trkpt>
      <trkpt lat="40.604129791259766" lon="-4.17990779876709">
        <ele>1502.7764892578125</ele>
        <time>2020-11-02T10:29:30Z</time>
      </trkpt>
      <trkpt lat="40.60414123535156" lon="-4.179828643798828">
        <ele>1502.7764892578125</ele>
        <time>2020-11-02T10:29:33Z</time>
      </trkpt>
      <trkpt lat="40.60415267944336" lon="-4.179743766784668">
        <ele>1503.958251953125</ele>
        <time>2020-11-02T10:29:36Z</time>
      </trkpt>
      <trkpt lat="40.604164123535156" lon="-4.179656982421875">
        <ele>1503.958251953125</ele>
        <time>2020-11-02T10:29:39Z</time>
      </trkpt>
      <trkpt lat="40.60417556762695" lon="-4.179571628570557">
        <ele>1503.958251953125</ele>
        <time>2020-11-02T10:29:42Z</time>
      </trkpt>
      <trkpt lat="40.60418701171875" lon="-4.179485321044922">
        <ele>1505.1400146484375</ele>
        <time>2020-11-02T10:29:45Z</time>
      </trkpt>
      <trkpt lat="40.60419845581055" lon="-4.179399013519287">
        <ele>1505.1400146484375</ele>
        <time>2020-11-02T10:29:48Z</time>
      </trkpt>
      <trkpt lat="40.60421371459961" lon="-4.179311275482178">
        <ele>1505.1400146484375</ele>
        <time>2020-11-02T10:29:51Z</time>
      </trkpt>
      <trkpt lat="40.604225158691406" lon="-4.179226875305176">
        <ele>1505.1400146484375</ele>
        <time>2020-11-02T10:29:54Z</time>
      </trkpt>
      <trkpt lat="40.6042366027832" lon="-4.1791486740112305">
        <ele>1505.1400146484375</ele>
        <time>2020-11-02T10:29:57Z</time>
      </trkpt>
      <trkpt lat="40.604248046875" lon="-4.179073810577393">
        <ele>1506.32177734375</ele>
        <time>2020-11-02T10:30:00Z</time>
      </trkpt>
      <trkpt lat="40.60425567626953" lon="-4.17900276184082">
        <ele>1506.32177734375</ele>
        <time>2020-11-02T10:30:03Z</time>
      </trkpt>
      <trkpt lat="40.60426712036133" lon="-4.1789093017578125">
        <ele>1506.32177734375</ele>
        <time>2020-11-02T10:30:07Z</time>
      </trkpt>
      <trkpt lat="40.604278564453125" lon="-4.1788411140441895">
        <ele>1506.32177734375</ele>
        <time>2020-11-02T10:30:10Z</time>
      </trkpt>
      <trkpt lat="40.60429000854492" lon="-4.178773403167725">
        <ele>1507.594482421875</ele>
        <time>2020-11-02T10:30:13Z</time>
      </trkpt>
      <trkpt lat="40.60430145263672" lon="-4.178699016571045">
        <ele>1507.594482421875</ele>
        <time>2020-11-02T10:30:16Z</time>
      </trkpt>
      <trkpt lat="40.60431671142578" lon="-4.178622722625732">
        <ele>1508.7762451171875</ele>
        <time>2020-11-02T10:30:19Z</time>
      </trkpt>
      <trkpt lat="40.60432434082031" lon="-4.1785454750061035">
        <ele>1508.7762451171875</ele>
        <time>2020-11-02T10:30:22Z</time>
      </trkpt>
      <trkpt lat="40.60433578491211" lon="-4.178470134735107">
        <ele>1508.7762451171875</ele>
        <time>2020-11-02T10:30:25Z</time>
      </trkpt>
      <trkpt lat="40.604347229003906" lon="-4.178393840789795">
        <ele>1509.9580078125</ele>
        <time>2020-11-02T10:30:28Z</time>
      </trkpt>
      <trkpt lat="40.60435104370117" lon="-4.178317546844482">
        <ele>1509.9580078125</ele>
        <time>2020-11-02T10:30:31Z</time>
      </trkpt>
      <trkpt lat="40.604347229003906" lon="-4.178245544433594">
        <ele>1509.9580078125</ele>
        <time>2020-11-02T10:30:34Z</time>
      </trkpt>
      <trkpt lat="40.604339599609375" lon="-4.178155422210693">
        <ele>1509.9580078125</ele>
        <time>2020-11-02T10:30:38Z</time>
      </trkpt>
      <trkpt lat="40.60432434082031" lon="-4.178089618682861">
        <ele>1511.1397705078125</ele>
        <time>2020-11-02T10:30:41Z</time>
      </trkpt>
      <trkpt lat="40.60430145263672" lon="-4.178009510040283">
        <ele>1511.1397705078125</ele>
        <time>2020-11-02T10:30:45Z</time>
      </trkpt>
      <trkpt lat="40.604278564453125" lon="-4.177952289581299">
        <ele>1512.4124755859375</ele>
        <time>2020-11-02T10:30:48Z</time>
      </trkpt>
      <trkpt lat="40.60424041748047" lon="-4.177883148193359">
        <ele>1512.4124755859375</ele>
        <time>2020-11-02T10:30:52Z</time>
      </trkpt>
      <trkpt lat="40.604209899902344" lon="-4.177827835083008">
        <ele>1508.3570556640625</ele>
        <time>2020-11-02T10:30:55Z</time>
      </trkpt>
      <trkpt lat="40.60417556762695" lon="-4.177770614624023">
        <ele>1508.3570556640625</ele>
        <time>2020-11-02T10:30:58Z</time>
      </trkpt>
      <trkpt lat="40.60414505004883" lon="-4.177712440490723">
        <ele>1509.538818359375</ele>
        <time>2020-11-02T10:31:01Z</time>
      </trkpt>
      <trkpt lat="40.6041145324707" lon="-4.177652835845947">
        <ele>1509.538818359375</ele>
        <time>2020-11-02T10:31:04Z</time>
      </trkpt>
      <trkpt lat="40.604087829589844" lon="-4.177591800689697">
        <ele>1510.7205810546875</ele>
        <time>2020-11-02T10:31:07Z</time>
      </trkpt>
      <trkpt lat="40.60407257080078" lon="-4.177525997161865">
        <ele>1510.7205810546875</ele>
        <time>2020-11-02T10:31:10Z</time>
      </trkpt>
      <trkpt lat="40.604061126708984" lon="-4.177434921264648">
        <ele>1510.7205810546875</ele>
        <time>2020-11-02T10:31:14Z</time>
      </trkpt>
      <trkpt lat="40.60405731201172" lon="-4.177374362945557">
        <ele>1511.90234375</ele>
        <time>2020-11-02T10:31:17Z</time>
      </trkpt>
      <trkpt lat="40.60405731201172" lon="-4.177292346954346">
        <ele>1511.90234375</ele>
        <time>2020-11-02T10:31:21Z</time>
      </trkpt>
      <trkpt lat="40.60405731201172" lon="-4.17720890045166">
        <ele>1511.90234375</ele>
        <time>2020-11-02T10:31:25Z</time>
      </trkpt>
      <trkpt lat="40.604068756103516" lon="-4.177127361297607">
        <ele>1513.0841064453125</ele>
        <time>2020-11-02T10:31:29Z</time>
      </trkpt>
      <trkpt lat="40.60408020019531" lon="-4.177049160003662">
        <ele>1513.0841064453125</ele>
        <time>2020-11-02T10:31:33Z</time>
      </trkpt>
      <trkpt lat="40.604095458984375" lon="-4.176966667175293">
        <ele>1513.0841064453125</ele>
        <time>2020-11-02T10:31:37Z</time>
      </trkpt>
      <trkpt lat="40.6041145324707" lon="-4.176878929138184">
        <ele>1514.3568115234375</ele>
        <time>2020-11-02T10:31:41Z</time>
      </trkpt>
      <trkpt lat="40.6041259765625" lon="-4.176813125610352">
        <ele>1514.3568115234375</ele>
        <time>2020-11-02T10:31:44Z</time>
      </trkpt>
      <trkpt lat="40.60414505004883" lon="-4.176728248596191">
        <ele>1515.6295166015625</ele>
        <time>2020-11-02T10:31:48Z</time>
      </trkpt>
      <trkpt lat="40.60416030883789" lon="-4.1766581535339355">
        <ele>1515.6295166015625</ele>
        <time>2020-11-02T10:31:51Z</time>
      </trkpt>
      <trkpt lat="40.60417556762695" lon="-4.176570415496826">
        <ele>1516.9022216796875</ele>
        <time>2020-11-02T10:31:55Z</time>
      </trkpt>
      <trkpt lat="40.60418701171875" lon="-4.1765055656433105">
        <ele>1516.9022216796875</ele>
        <time>2020-11-02T10:31:58Z</time>
      </trkpt>
      <trkpt lat="40.60420227050781" lon="-4.1764397621154785">
        <ele>1518.083984375</ele>
        <time>2020-11-02T10:32:01Z</time>
      </trkpt>
      <trkpt lat="40.60422134399414" lon="-4.176349639892578">
        <ele>1518.083984375</ele>
        <time>2020-11-02T10:32:05Z</time>
      </trkpt>
      <trkpt lat="40.6042366027832" lon="-4.1762847900390625">
        <ele>1519.2657470703125</ele>
        <time>2020-11-02T10:32:08Z</time>
      </trkpt>
      <trkpt lat="40.604244232177734" lon="-4.176219940185547">
        <ele>1519.2657470703125</ele>
        <time>2020-11-02T10:32:11Z</time>
      </trkpt>
      <trkpt lat="40.60425567626953" lon="-4.176154136657715">
        <ele>1520.5384521484375</ele>
        <time>2020-11-02T10:32:14Z</time>
      </trkpt>
      <trkpt lat="40.60427474975586" lon="-4.1760687828063965">
        <ele>1521.72021484375</ele>
        <time>2020-11-02T10:32:18Z</time>
      </trkpt>
      <trkpt lat="40.60429000854492" lon="-4.176005840301514">
        <ele>1521.72021484375</ele>
        <time>2020-11-02T10:32:21Z</time>
      </trkpt>
      <trkpt lat="40.604305267333984" lon="-4.175922870635986">
        <ele>1522.9019775390625</ele>
        <time>2020-11-02T10:32:25Z</time>
      </trkpt>
      <trkpt lat="40.60432434082031" lon="-4.175841331481934">
        <ele>1522.9019775390625</ele>
        <time>2020-11-02T10:32:29Z</time>
      </trkpt>
      <trkpt lat="40.604339599609375" lon="-4.175764560699463">
        <ele>1524.083740234375</ele>
        <time>2020-11-02T10:32:33Z</time>
      </trkpt>
      <trkpt lat="40.6043586730957" lon="-4.175687789916992">
        <ele>1524.083740234375</ele>
        <time>2020-11-02T10:32:37Z</time>
      </trkpt>
      <trkpt lat="40.60438919067383" lon="-4.175614833831787">
        <ele>1525.3564453125</ele>
        <time>2020-11-02T10:32:41Z</time>
      </trkpt>
      <trkpt lat="40.60441207885742" lon="-4.175539016723633">
        <ele>1525.3564453125</ele>
        <time>2020-11-02T10:32:45Z</time>
      </trkpt>
      <trkpt lat="40.60443115234375" lon="-4.175464630126953">
        <ele>1529.447265625</ele>
        <time>2020-11-02T10:32:49Z</time>
      </trkpt>
      <trkpt lat="40.60444259643555" lon="-4.175393104553223">
        <ele>1529.447265625</ele>
        <time>2020-11-02T10:32:53Z</time>
      </trkpt>
      <trkpt lat="40.604454040527344" lon="-4.175323486328125">
        <ele>1530.6290283203125</ele>
        <time>2020-11-02T10:32:57Z</time>
      </trkpt>
      <trkpt lat="40.604461669921875" lon="-4.17525577545166">
        <ele>1530.6290283203125</ele>
        <time>2020-11-02T10:33:01Z</time>
      </trkpt>
      <trkpt lat="40.60446548461914" lon="-4.175170421600342">
        <ele>1531.9017333984375</ele>
        <time>2020-11-02T10:33:06Z</time>
      </trkpt>
      <trkpt lat="40.604461669921875" lon="-4.17509651184082">
        <ele>1531.9017333984375</ele>
        <time>2020-11-02T10:33:10Z</time>
      </trkpt>
      <trkpt lat="40.604454040527344" lon="-4.175025463104248">
        <ele>1531.9017333984375</ele>
        <time>2020-11-02T10:33:14Z</time>
      </trkpt>
      <trkpt lat="40.60443878173828" lon="-4.174955368041992">
        <ele>1533.08349609375</ele>
        <time>2020-11-02T10:33:18Z</time>
      </trkpt>
      <trkpt lat="40.60442352294922" lon="-4.17488431930542">
        <ele>1533.08349609375</ele>
        <time>2020-11-02T10:33:22Z</time>
      </trkpt>
      <trkpt lat="40.60440444946289" lon="-4.174816131591797">
        <ele>1534.2652587890625</ele>
        <time>2020-11-02T10:33:26Z</time>
      </trkpt>
      <trkpt lat="40.60438537597656" lon="-4.174747467041016">
        <ele>1534.2652587890625</ele>
        <time>2020-11-02T10:33:30Z</time>
      </trkpt>
      <trkpt lat="40.60436248779297" lon="-4.17467737197876">
        <ele>1534.2652587890625</ele>
        <time>2020-11-02T10:33:34Z</time>
      </trkpt>
      <trkpt lat="40.604339599609375" lon="-4.1746063232421875">
        <ele>1534.2652587890625</ele>
        <time>2020-11-02T10:33:38Z</time>
      </trkpt>
      <trkpt lat="40.60432052612305" lon="-4.174534797668457">
        <ele>1534.2652587890625</ele>
        <time>2020-11-02T10:33:42Z</time>
      </trkpt>
      <trkpt lat="40.60430145263672" lon="-4.1744585037231445">
        <ele>1535.5379638671875</ele>
        <time>2020-11-02T10:33:46Z</time>
      </trkpt>
      <trkpt lat="40.60428237915039" lon="-4.174378395080566">
        <ele>1535.5379638671875</ele>
        <time>2020-11-02T10:33:50Z</time>
      </trkpt>
      <trkpt lat="40.6042594909668" lon="-4.174299716949463">
        <ele>1536.8106689453125</ele>
        <time>2020-11-02T10:33:54Z</time>
      </trkpt>
      <trkpt lat="40.60422897338867" lon="-4.174200534820557">
        <ele>1539.3560791015625</ele>
        <time>2020-11-02T10:33:59Z</time>
      </trkpt>
      <trkpt lat="40.60420227050781" lon="-4.174142837524414">
        <ele>1540.6287841796875</ele>
        <time>2020-11-02T10:34:03Z</time>
      </trkpt>
      <trkpt lat="40.60419845581055" lon="-4.174087047576904">
        <ele>1541.9014892578125</ele>
        <time>2020-11-02T10:34:10Z</time>
      </trkpt>
      <trkpt lat="40.604270935058594" lon="-4.173600196838379">
        <ele>1541.9014892578125</ele>
        <time>2020-11-02T10:37:20Z</time>
      </trkpt>
      <trkpt lat="40.60429763793945" lon="-4.173583507537842">
        <ele>1543.083251953125</ele>
        <time>2020-11-02T10:37:22Z</time>
      </trkpt>
      <trkpt lat="40.6043586730957" lon="-4.173536777496338">
        <ele>1544.4468994140625</ele>
        <time>2020-11-02T10:37:26Z</time>
      </trkpt>
      <trkpt lat="40.60441207885742" lon="-4.173493385314941">
        <ele>1545.628662109375</ele>
        <time>2020-11-02T10:37:29Z</time>
      </trkpt>
      <trkpt lat="40.604461669921875" lon="-4.173463821411133">
        <ele>1545.628662109375</ele>
        <time>2020-11-02T10:37:32Z</time>
      </trkpt>
      <trkpt lat="40.60451889038086" lon="-4.173426151275635">
        <ele>1545.628662109375</ele>
        <time>2020-11-02T10:37:36Z</time>
      </trkpt>
      <trkpt lat="40.604557037353516" lon="-4.173379421234131">
        <ele>1546.9013671875</ele>
        <time>2020-11-02T10:37:39Z</time>
      </trkpt>
      <trkpt lat="40.604610443115234" lon="-4.173336029052734">
        <ele>1546.9013671875</ele>
        <time>2020-11-02T10:37:43Z</time>
      </trkpt>
      <trkpt lat="40.60466384887695" lon="-4.173303127288818">
        <ele>1546.9013671875</ele>
        <time>2020-11-02T10:37:47Z</time>
      </trkpt>
      <trkpt lat="40.60470199584961" lon="-4.173257827758789">
        <ele>1548.174072265625</ele>
        <time>2020-11-02T10:37:51Z</time>
      </trkpt>
      <trkpt lat="40.6047477722168" lon="-4.173211574554443">
        <ele>1548.174072265625</ele>
        <time>2020-11-02T10:37:55Z</time>
      </trkpt>
      <trkpt lat="40.604801177978516" lon="-4.173182487487793">
        <ele>1548.174072265625</ele>
        <time>2020-11-02T10:37:59Z</time>
      </trkpt>
      <trkpt lat="40.604862213134766" lon="-4.173161506652832">
        <ele>1548.174072265625</ele>
        <time>2020-11-02T10:38:03Z</time>
      </trkpt>
      <trkpt lat="40.60491180419922" lon="-4.173145294189453">
        <ele>1548.174072265625</ele>
        <time>2020-11-02T10:38:07Z</time>
      </trkpt>
      <trkpt lat="40.60498046875" lon="-4.1731414794921875">
        <ele>1548.174072265625</ele>
        <time>2020-11-02T10:38:12Z</time>
      </trkpt>
      <trkpt lat="40.60504150390625" lon="-4.173112869262695">
        <ele>1548.174072265625</ele>
        <time>2020-11-02T10:38:16Z</time>
      </trkpt>
      <trkpt lat="40.605079650878906" lon="-4.173073768615723">
        <ele>1548.174072265625</ele>
        <time>2020-11-02T10:38:19Z</time>
      </trkpt>
      <trkpt lat="40.60512924194336" lon="-4.173026084899902">
        <ele>1548.174072265625</ele>
        <time>2020-11-02T10:38:23Z</time>
      </trkpt>
      <trkpt lat="40.605186462402344" lon="-4.1729865074157715">
        <ele>1548.174072265625</ele>
        <time>2020-11-02T10:38:27Z</time>
      </trkpt>
      <trkpt lat="40.6052360534668" lon="-4.172952175140381">
        <ele>1548.174072265625</ele>
        <time>2020-11-02T10:38:30Z</time>
      </trkpt>
      <trkpt lat="40.605289459228516" lon="-4.172908782958984">
        <ele>1548.174072265625</ele>
        <time>2020-11-02T10:38:33Z</time>
      </trkpt>
      <trkpt lat="40.6053352355957" lon="-4.172861099243164">
        <ele>1548.174072265625</ele>
        <time>2020-11-02T10:38:36Z</time>
      </trkpt>
      <trkpt lat="40.605384826660156" lon="-4.172811031341553">
        <ele>1548.174072265625</ele>
        <time>2020-11-02T10:38:39Z</time>
      </trkpt>
      <trkpt lat="40.60543441772461" lon="-4.1727519035339355">
        <ele>1548.174072265625</ele>
        <time>2020-11-02T10:38:42Z</time>
      </trkpt>
      <trkpt lat="40.6054801940918" lon="-4.172685146331787">
        <ele>1548.174072265625</ele>
        <time>2020-11-02T10:38:45Z</time>
      </trkpt>
      <trkpt lat="40.605525970458984" lon="-4.172616958618164">
        <ele>1548.174072265625</ele>
        <time>2020-11-02T10:38:48Z</time>
      </trkpt>
      <trkpt lat="40.605567932128906" lon="-4.172547817230225">
        <ele>1545.30078125</ele>
        <time>2020-11-02T10:38:51Z</time>
      </trkpt>
      <trkpt lat="40.60560989379883" lon="-4.172471523284912">
        <ele>1545.30078125</ele>
        <time>2020-11-02T10:38:54Z</time>
      </trkpt>
      <trkpt lat="40.60564422607422" lon="-4.172396659851074">
        <ele>1546.4825439453125</ele>
        <time>2020-11-02T10:38:57Z</time>
      </trkpt>
      <trkpt lat="40.605674743652344" lon="-4.172348976135254">
        <ele>1547.664306640625</ele>
        <time>2020-11-02T10:39:00Z</time>
      </trkpt>
      <trkpt lat="40.605712890625" lon="-4.172307968139648">
        <ele>1547.664306640625</ele>
        <time>2020-11-02T10:39:03Z</time>
      </trkpt>
      <trkpt lat="40.60575485229492" lon="-4.172260761260986">
        <ele>1548.8460693359375</ele>
        <time>2020-11-02T10:39:06Z</time>
      </trkpt>
      <trkpt lat="40.60580062866211" lon="-4.172202110290527">
        <ele>1550.1187744140625</ele>
        <time>2020-11-02T10:39:09Z</time>
      </trkpt>
      <trkpt lat="40.6058464050293" lon="-4.172144889831543">
        <ele>1550.1187744140625</ele>
        <time>2020-11-02T10:39:12Z</time>
      </trkpt>
      <trkpt lat="40.60589599609375" lon="-4.172096252441406">
        <ele>1551.300537109375</ele>
        <time>2020-11-02T10:39:15Z</time>
      </trkpt>
      <trkpt lat="40.60594940185547" lon="-4.172061920166016">
        <ele>1552.4822998046875</ele>
        <time>2020-11-02T10:39:18Z</time>
      </trkpt>
      <trkpt lat="40.605987548828125" lon="-4.172028541564941">
        <ele>1552.4822998046875</ele>
        <time>2020-11-02T10:39:21Z</time>
      </trkpt>
      <trkpt lat="40.60604476928711" lon="-4.171994209289551">
        <ele>1553.482177734375</ele>
        <time>2020-11-02T10:39:25Z</time>
      </trkpt>
      <trkpt lat="40.6060905456543" lon="-4.172006130218506">
        <ele>1554.8458251953125</ele>
        <time>2020-11-02T10:39:29Z</time>
      </trkpt>
      <trkpt lat="40.60615158081055" lon="-4.172007083892822">
        <ele>1554.8458251953125</ele>
        <time>2020-11-02T10:39:34Z</time>
      </trkpt>
      <trkpt lat="40.606197357177734" lon="-4.172008037567139">
        <ele>1556.1185302734375</ele>
        <time>2020-11-02T10:39:38Z</time>
      </trkpt>
      <trkpt lat="40.60628890991211" lon="-4.171998500823975">
        <ele>1556.1185302734375</ele>
        <time>2020-11-02T10:39:43Z</time>
      </trkpt>
      <trkpt lat="40.60630798339844" lon="-4.17199182510376">
        <ele>1557.30029296875</ele>
        <time>2020-11-02T10:39:45Z</time>
      </trkpt>
      <trkpt lat="40.60635757446289" lon="-4.171956539154053">
        <ele>1557.30029296875</ele>
        <time>2020-11-02T10:39:49Z</time>
      </trkpt>
      <trkpt lat="40.60641860961914" lon="-4.171920299530029">
        <ele>1557.30029296875</ele>
        <time>2020-11-02T10:39:53Z</time>
      </trkpt>
      <trkpt lat="40.60646438598633" lon="-4.171884059906006">
        <ele>1558.572998046875</ele>
        <time>2020-11-02T10:39:56Z</time>
      </trkpt>
      <trkpt lat="40.606502532958984" lon="-4.171846866607666">
        <ele>1558.572998046875</ele>
        <time>2020-11-02T10:40:00Z</time>
      </trkpt>
      <trkpt lat="40.60655212402344" lon="-4.171797752380371">
        <ele>1558.572998046875</ele>
        <time>2020-11-02T10:40:48Z</time>
      </trkpt>
      <trkpt lat="40.60659408569336" lon="-4.171717643737793">
        <ele>1559.7547607421875</ele>
        <time>2020-11-02T10:40:53Z</time>
      </trkpt>
      <trkpt lat="40.606632232666016" lon="-4.171651840209961">
        <ele>1559.7547607421875</ele>
        <time>2020-11-02T10:40:56Z</time>
      </trkpt>
      <trkpt lat="40.60667037963867" lon="-4.1715989112854">
        <ele>1559.7547607421875</ele>
        <time>2020-11-02T10:40:59Z</time>
      </trkpt>
      <trkpt lat="40.60671615600586" lon="-4.1715497970581055">
        <ele>1560.9365234375</ele>
        <time>2020-11-02T10:41:02Z</time>
      </trkpt>
      <trkpt lat="40.60675048828125" lon="-4.1714887619018555">
        <ele>1560.9365234375</ele>
        <time>2020-11-02T10:41:05Z</time>
      </trkpt>
      <trkpt lat="40.606781005859375" lon="-4.1714253425598145">
        <ele>1560.9365234375</ele>
        <time>2020-11-02T10:41:08Z</time>
      </trkpt>
      <trkpt lat="40.606807708740234" lon="-4.171360015869141">
        <ele>1562.1182861328125</ele>
        <time>2020-11-02T10:41:11Z</time>
      </trkpt>
      <trkpt lat="40.60684585571289" lon="-4.1713080406188965">
        <ele>1562.1182861328125</ele>
        <time>2020-11-02T10:41:14Z</time>
      </trkpt>
      <trkpt lat="40.606895446777344" lon="-4.171289443969727">
        <ele>1562.1182861328125</ele>
        <time>2020-11-02T10:41:17Z</time>
      </trkpt>
      <trkpt lat="40.60694885253906" lon="-4.171296119689941">
        <ele>1564.7493896484375</ele>
        <time>2020-11-02T10:41:20Z</time>
      </trkpt>
      <trkpt lat="40.60700225830078" lon="-4.171292781829834">
        <ele>1564.7493896484375</ele>
        <time>2020-11-02T10:41:23Z</time>
      </trkpt>
      <trkpt lat="40.607051849365234" lon="-4.171281337738037">
        <ele>1564.7493896484375</ele>
        <time>2020-11-02T10:41:26Z</time>
      </trkpt>
      <trkpt lat="40.60710144042969" lon="-4.171261787414551">
        <ele>1564.7493896484375</ele>
        <time>2020-11-02T10:41:29Z</time>
      </trkpt>
      <trkpt lat="40.60715103149414" lon="-4.17124080657959">
        <ele>1564.7493896484375</ele>
        <time>2020-11-02T10:41:32Z</time>
      </trkpt>
      <trkpt lat="40.607215881347656" lon="-4.171239852905273">
        <ele>1564.7493896484375</ele>
        <time>2020-11-02T10:41:36Z</time>
      </trkpt>
      <trkpt lat="40.607276916503906" lon="-4.171275615692139">
        <ele>1564.7493896484375</ele>
        <time>2020-11-02T10:41:40Z</time>
      </trkpt>
      <trkpt lat="40.607337951660156" lon="-4.171308994293213">
        <ele>1564.7493896484375</ele>
        <time>2020-11-02T10:41:44Z</time>
      </trkpt>
      <trkpt lat="40.607391357421875" lon="-4.171330451965332">
        <ele>1564.7493896484375</ele>
        <time>2020-11-02T10:41:47Z</time>
      </trkpt>
      <trkpt lat="40.607444763183594" lon="-4.171347141265869">
        <ele>1564.7493896484375</ele>
        <time>2020-11-02T10:41:50Z</time>
      </trkpt>
      <trkpt lat="40.60749816894531" lon="-4.171374797821045">
        <ele>1563.567626953125</ele>
        <time>2020-11-02T10:41:53Z</time>
      </trkpt>
      <trkpt lat="40.60753631591797" lon="-4.171414375305176">
        <ele>1563.567626953125</ele>
        <time>2020-11-02T10:41:56Z</time>
      </trkpt>
      <trkpt lat="40.60757064819336" lon="-4.17147970199585">
        <ele>1563.567626953125</ele>
        <time>2020-11-02T10:42:00Z</time>
      </trkpt>
      <trkpt lat="40.60761642456055" lon="-4.171517848968506">
        <ele>1563.567626953125</ele>
        <time>2020-11-02T10:42:06Z</time>
      </trkpt>
      <trkpt lat="40.60765838623047" lon="-4.171595573425293">
        <ele>1563.567626953125</ele>
        <time>2020-11-02T10:42:12Z</time>
      </trkpt>
      <trkpt lat="40.607688903808594" lon="-4.1716718673706055">
        <ele>1563.567626953125</ele>
        <time>2020-11-02T10:42:16Z</time>
      </trkpt>
      <trkpt lat="40.60769271850586" lon="-4.171739101409912">
        <ele>1564.7493896484375</ele>
        <time>2020-11-02T10:42:19Z</time>
      </trkpt>
      <trkpt lat="40.60770797729492" lon="-4.171810150146484">
        <ele>1564.7493896484375</ele>
        <time>2020-11-02T10:42:22Z</time>
      </trkpt>
      <trkpt lat="40.607723236083984" lon="-4.171882152557373">
        <ele>1564.7493896484375</ele>
        <time>2020-11-02T10:42:25Z</time>
      </trkpt>
      <trkpt lat="40.60773468017578" lon="-4.171945095062256">
        <ele>1565.93115234375</ele>
        <time>2020-11-02T10:42:28Z</time>
      </trkpt>
      <trkpt lat="40.60771942138672" lon="-4.172004222869873">
        <ele>1565.93115234375</ele>
        <time>2020-11-02T10:42:32Z</time>
      </trkpt>
      <trkpt lat="40.607749938964844" lon="-4.172075271606445">
        <ele>1567.1129150390625</ele>
        <time>2020-11-02T10:42:37Z</time>
      </trkpt>
      <trkpt lat="40.607791900634766" lon="-4.172118663787842">
        <ele>1567.1129150390625</ele>
        <time>2020-11-02T10:42:40Z</time>
      </trkpt>
      <trkpt lat="40.607852935791016" lon="-4.172171115875244">
        <ele>1568.294677734375</ele>
        <time>2020-11-02T10:42:44Z</time>
      </trkpt>
      <trkpt lat="40.6078987121582" lon="-4.172205924987793">
        <ele>1568.294677734375</ele>
        <time>2020-11-02T10:42:47Z</time>
      </trkpt>
      <trkpt lat="40.60795211791992" lon="-4.1722564697265625">
        <ele>1567.02197265625</ele>
        <time>2020-11-02T10:42:51Z</time>
      </trkpt>
      <trkpt lat="40.60799789428711" lon="-4.172301769256592">
        <ele>1567.02197265625</ele>
        <time>2020-11-02T10:42:54Z</time>
      </trkpt>
      <trkpt lat="40.608036041259766" lon="-4.172351837158203">
        <ele>1567.02197265625</ele>
        <time>2020-11-02T10:42:57Z</time>
      </trkpt>
      <trkpt lat="40.60807418823242" lon="-4.172393798828125">
        <ele>1567.02197265625</ele>
        <time>2020-11-02T10:43:00Z</time>
      </trkpt>
      <trkpt lat="40.608116149902344" lon="-4.172436237335205">
        <ele>1567.02197265625</ele>
        <time>2020-11-02T10:43:03Z</time>
      </trkpt>
      <trkpt lat="40.608158111572266" lon="-4.172476291656494">
        <ele>1568.2037353515625</ele>
        <time>2020-11-02T10:43:06Z</time>
      </trkpt>
      <trkpt lat="40.60820770263672" lon="-4.1725263595581055">
        <ele>1570.11279296875</ele>
        <time>2020-11-02T10:43:10Z</time>
      </trkpt>
      <trkpt lat="40.6082649230957" lon="-4.172573566436768">
        <ele>1571.2945556640625</ele>
        <time>2020-11-02T10:43:14Z</time>
      </trkpt>
      <trkpt lat="40.608314514160156" lon="-4.172601699829102">
        <ele>1572.658203125</ele>
        <time>2020-11-02T10:43:17Z</time>
      </trkpt>
      <trkpt lat="40.60835647583008" lon="-4.172634601593018">
        <ele>1576.542236328125</ele>
        <time>2020-11-02T10:43:20Z</time>
      </trkpt>
      <trkpt lat="40.6084098815918" lon="-4.17268180847168">
        <ele>1577.81494140625</ele>
        <time>2020-11-02T10:43:24Z</time>
      </trkpt>
      <trkpt lat="40.608463287353516" lon="-4.172726154327393">
        <ele>1577.81494140625</ele>
        <time>2020-11-02T10:43:28Z</time>
      </trkpt>
      <trkpt lat="40.6085090637207" lon="-4.172762870788574">
        <ele>1577.81494140625</ele>
        <time>2020-11-02T10:43:31Z</time>
      </trkpt>
      <trkpt lat="40.60856628417969" lon="-4.172804832458496">
        <ele>1579.087646484375</ele>
        <time>2020-11-02T10:43:35Z</time>
      </trkpt>
      <trkpt lat="40.60860824584961" lon="-4.172836780548096">
        <ele>1579.087646484375</ele>
        <time>2020-11-02T10:43:38Z</time>
      </trkpt>
      <trkpt lat="40.6086540222168" lon="-4.172873497009277">
        <ele>1580.2694091796875</ele>
        <time>2020-11-02T10:43:41Z</time>
      </trkpt>
      <trkpt lat="40.60870361328125" lon="-4.172905445098877">
        <ele>1580.2694091796875</ele>
        <time>2020-11-02T10:43:44Z</time>
      </trkpt>
      <trkpt lat="40.6087532043457" lon="-4.172934532165527">
        <ele>1580.2694091796875</ele>
        <time>2020-11-02T10:43:47Z</time>
      </trkpt>
      <trkpt lat="40.60881423950195" lon="-4.17296838760376">
        <ele>1581.451171875</ele>
        <time>2020-11-02T10:43:51Z</time>
      </trkpt>
      <trkpt lat="40.608863830566406" lon="-4.1729841232299805">
        <ele>1581.451171875</ele>
        <time>2020-11-02T10:43:54Z</time>
      </trkpt>
      <trkpt lat="40.60893249511719" lon="-4.172998905181885">
        <ele>1581.451171875</ele>
        <time>2020-11-02T10:43:58Z</time>
      </trkpt>
      <trkpt lat="40.60898971557617" lon="-4.172999858856201">
        <ele>1582.723876953125</ele>
        <time>2020-11-02T10:44:01Z</time>
      </trkpt>
      <trkpt lat="40.60903549194336" lon="-4.172994136810303">
        <ele>1582.723876953125</ele>
        <time>2020-11-02T10:44:04Z</time>
      </trkpt>
      <trkpt lat="40.60908508300781" lon="-4.172995090484619">
        <ele>1583.9056396484375</ele>
        <time>2020-11-02T10:44:07Z</time>
      </trkpt>
      <trkpt lat="40.60914993286133" lon="-4.1729865074157715">
        <ele>1583.9056396484375</ele>
        <time>2020-11-02T10:44:11Z</time>
      </trkpt>
      <trkpt lat="40.60920333862305" lon="-4.172972679138184">
        <ele>1583.9056396484375</ele>
        <time>2020-11-02T10:44:14Z</time>
      </trkpt>
      <trkpt lat="40.6092643737793" lon="-4.172952175140381">
        <ele>1585.08740234375</ele>
        <time>2020-11-02T10:44:18Z</time>
      </trkpt>
      <trkpt lat="40.60931396484375" lon="-4.172937393188477">
        <ele>1585.08740234375</ele>
        <time>2020-11-02T10:44:21Z</time>
      </trkpt>
      <trkpt lat="40.609375" lon="-4.17291784286499">
        <ele>1586.360107421875</ele>
        <time>2020-11-02T10:44:25Z</time>
      </trkpt>
      <trkpt lat="40.60944366455078" lon="-4.172905921936035">
        <ele>1586.360107421875</ele>
        <time>2020-11-02T10:44:29Z</time>
      </trkpt>
      <trkpt lat="40.60948944091797" lon="-4.172896862030029">
        <ele>1587.5418701171875</ele>
        <time>2020-11-02T10:44:32Z</time>
      </trkpt>
      <trkpt lat="40.609554290771484" lon="-4.172887325286865">
        <ele>1587.5418701171875</ele>
        <time>2020-11-02T10:44:36Z</time>
      </trkpt>
      <trkpt lat="40.609615325927734" lon="-4.172867774963379">
        <ele>1587.5418701171875</ele>
        <time>2020-11-02T10:44:40Z</time>
      </trkpt>
      <trkpt lat="40.60968017578125" lon="-4.172853469848633">
        <ele>1587.5418701171875</ele>
        <time>2020-11-02T10:44:44Z</time>
      </trkpt>
      <trkpt lat="40.6097412109375" lon="-4.172832489013672">
        <ele>1588.7236328125</ele>
        <time>2020-11-02T10:44:48Z</time>
      </trkpt>
      <trkpt lat="40.60978698730469" lon="-4.1728081703186035">
        <ele>1588.7236328125</ele>
        <time>2020-11-02T10:44:51Z</time>
      </trkpt>
      <trkpt lat="40.60984802246094" lon="-4.1727800369262695">
        <ele>1589.996337890625</ele>
        <time>2020-11-02T10:44:55Z</time>
      </trkpt>
      <trkpt lat="40.60989761352539" lon="-4.172763824462891">
        <ele>1589.996337890625</ele>
        <time>2020-11-02T10:44:58Z</time>
      </trkpt>
      <trkpt lat="40.609962463378906" lon="-4.172749996185303">
        <ele>1591.1781005859375</ele>
        <time>2020-11-02T10:45:02Z</time>
      </trkpt>
      <trkpt lat="40.61001205444336" lon="-4.172737121582031">
        <ele>1591.1781005859375</ele>
        <time>2020-11-02T10:45:05Z</time>
      </trkpt>
      <trkpt lat="40.61007308959961" lon="-4.17271614074707">
        <ele>1591.1781005859375</ele>
        <time>2020-11-02T10:45:09Z</time>
      </trkpt>
      <trkpt lat="40.61013412475586" lon="-4.172697067260742">
        <ele>1591.1781005859375</ele>
        <time>2020-11-02T10:45:13Z</time>
      </trkpt>
      <trkpt lat="40.61019515991211" lon="-4.172682762145996">
        <ele>1592.35986328125</ele>
        <time>2020-11-02T10:45:17Z</time>
      </trkpt>
      <trkpt lat="40.610260009765625" lon="-4.172673225402832">
        <ele>1586.6956787109375</ele>
        <time>2020-11-02T10:45:21Z</time>
      </trkpt>
      <trkpt lat="40.610313415527344" lon="-4.172660827636719">
        <ele>1586.6956787109375</ele>
        <time>2020-11-02T10:45:24Z</time>
      </trkpt>
      <trkpt lat="40.61037063598633" lon="-4.172627925872803">
        <ele>1586.6956787109375</ele>
        <time>2020-11-02T10:45:28Z</time>
      </trkpt>
      <trkpt lat="40.61039733886719" lon="-4.172560214996338">
        <ele>1586.6956787109375</ele>
        <time>2020-11-02T10:45:32Z</time>
      </trkpt>
      <trkpt lat="40.610374450683594" lon="-4.172487735748291">
        <ele>1586.6956787109375</ele>
        <time>2020-11-02T10:45:36Z</time>
      </trkpt>
      <trkpt lat="40.610313415527344" lon="-4.1724348068237305">
        <ele>1586.6956787109375</ele>
        <time>2020-11-02T10:45:40Z</time>
      </trkpt>
      <trkpt lat="40.610252380371094" lon="-4.172397136688232">
        <ele>1587.87744140625</ele>
        <time>2020-11-02T10:45:43Z</time>
      </trkpt>
      <trkpt lat="40.61021041870117" lon="-4.1723785400390625">
        <ele>1587.87744140625</ele>
        <time>2020-11-02T10:45:45Z</time>
      </trkpt>
      <trkpt lat="40.610145568847656" lon="-4.172354221343994">
        <ele>1587.87744140625</ele>
        <time>2020-11-02T10:45:48Z</time>
      </trkpt>
      <trkpt lat="40.610084533691406" lon="-4.1723313331604">
        <ele>1589.0592041015625</ele>
        <time>2020-11-02T10:45:51Z</time>
      </trkpt>
      <trkpt lat="40.610023498535156" lon="-4.172300815582275">
        <ele>1589.0592041015625</ele>
        <time>2020-11-02T10:45:54Z</time>
      </trkpt>
      <trkpt lat="40.609962463378906" lon="-4.172271251678467">
        <ele>1589.0592041015625</ele>
        <time>2020-11-02T10:45:57Z</time>
      </trkpt>
      <trkpt lat="40.60990524291992" lon="-4.172234535217285">
        <ele>1590.240966796875</ele>
        <time>2020-11-02T10:46:00Z</time>
      </trkpt>
      <trkpt lat="40.609859466552734" lon="-4.172190189361572">
        <ele>1590.240966796875</ele>
        <time>2020-11-02T10:46:03Z</time>
      </trkpt>
      <trkpt lat="40.60982131958008" lon="-4.172138214111328">
        <ele>1590.240966796875</ele>
        <time>2020-11-02T10:46:06Z</time>
      </trkpt>
      <trkpt lat="40.60978698730469" lon="-4.172056674957275">
        <ele>1591.4227294921875</ele>
        <time>2020-11-02T10:46:10Z</time>
      </trkpt>
      <trkpt lat="40.60975646972656" lon="-4.171988487243652">
        <ele>1591.4227294921875</ele>
        <time>2020-11-02T10:46:13Z</time>
      </trkpt>
      <trkpt lat="40.60972213745117" lon="-4.171922206878662">
        <ele>1591.4227294921875</ele>
        <time>2020-11-02T10:46:16Z</time>
      </trkpt>
      <trkpt lat="40.60968780517578" lon="-4.171852111816406">
        <ele>1591.4227294921875</ele>
        <time>2020-11-02T10:46:19Z</time>
      </trkpt>
      <trkpt lat="40.609649658203125" lon="-4.1717848777771">
        <ele>1592.6044921875</ele>
        <time>2020-11-02T10:46:22Z</time>
      </trkpt>
      <trkpt lat="40.60962677001953" lon="-4.171726226806641">
        <ele>1592.6044921875</ele>
        <time>2020-11-02T10:46:25Z</time>
      </trkpt>
      <trkpt lat="40.60960006713867" lon="-4.171659469604492">
        <ele>1592.6044921875</ele>
        <time>2020-11-02T10:46:28Z</time>
      </trkpt>
      <trkpt lat="40.60957717895508" lon="-4.171590805053711">
        <ele>1593.7862548828125</ele>
        <time>2020-11-02T10:46:31Z</time>
      </trkpt>
      <trkpt lat="40.609554290771484" lon="-4.171525478363037">
        <ele>1593.7862548828125</ele>
        <time>2020-11-02T10:46:34Z</time>
      </trkpt>
      <trkpt lat="40.60952377319336" lon="-4.171464443206787">
        <ele>1593.7862548828125</ele>
        <time>2020-11-02T10:46:37Z</time>
      </trkpt>
      <trkpt lat="40.609500885009766" lon="-4.171399116516113">
        <ele>1593.7862548828125</ele>
        <time>2020-11-02T10:46:40Z</time>
      </trkpt>
      <trkpt lat="40.60947799682617" lon="-4.171330451965332">
        <ele>1594.968017578125</ele>
        <time>2020-11-02T10:46:43Z</time>
      </trkpt>
      <trkpt lat="40.60945510864258" lon="-4.171261787414551">
        <ele>1594.968017578125</ele>
        <time>2020-11-02T10:46:46Z</time>
      </trkpt>
      <trkpt lat="40.609432220458984" lon="-4.171194553375244">
        <ele>1594.968017578125</ele>
        <time>2020-11-02T10:46:49Z</time>
      </trkpt>
      <trkpt lat="40.609413146972656" lon="-4.171125411987305">
        <ele>1596.1497802734375</ele>
        <time>2020-11-02T10:46:52Z</time>
      </trkpt>
      <trkpt lat="40.609405517578125" lon="-4.171053886413574">
        <ele>1596.1497802734375</ele>
        <time>2020-11-02T10:46:55Z</time>
      </trkpt>
      <trkpt lat="40.60939407348633" lon="-4.170985221862793">
        <ele>1596.1497802734375</ele>
        <time>2020-11-02T10:46:58Z</time>
      </trkpt>
      <trkpt lat="40.6093864440918" lon="-4.170915126800537">
        <ele>1597.4224853515625</ele>
        <time>2020-11-02T10:47:01Z</time>
      </trkpt>
      <trkpt lat="40.609378814697266" lon="-4.170844078063965">
        <ele>1597.4224853515625</ele>
        <time>2020-11-02T10:47:04Z</time>
      </trkpt>
      <trkpt lat="40.609371185302734" lon="-4.17077112197876">
        <ele>1597.4224853515625</ele>
        <time>2020-11-02T10:47:07Z</time>
      </trkpt>
      <trkpt lat="40.60935974121094" lon="-4.170700550079346">
        <ele>1598.604248046875</ele>
        <time>2020-11-02T10:47:10Z</time>
      </trkpt>
      <trkpt lat="40.609352111816406" lon="-4.170635223388672">
        <ele>1598.604248046875</ele>
        <time>2020-11-02T10:47:13Z</time>
      </trkpt>
      <trkpt lat="40.609352111816406" lon="-4.17054557800293">
        <ele>1599.7860107421875</ele>
        <time>2020-11-02T10:47:17Z</time>
      </trkpt>
      <trkpt lat="40.60934829711914" lon="-4.170475482940674">
        <ele>1606.60791015625</ele>
        <time>2020-11-02T10:47:20Z</time>
      </trkpt>
      <trkpt lat="40.609336853027344" lon="-4.170413494110107">
        <ele>1606.60791015625</ele>
        <time>2020-11-02T10:47:23Z</time>
      </trkpt>
      <trkpt lat="40.60932540893555" lon="-4.170330047607422">
        <ele>1607.7896728515625</ele>
        <time>2020-11-02T10:47:27Z</time>
      </trkpt>
      <trkpt lat="40.60932159423828" lon="-4.170246124267578">
        <ele>1607.7896728515625</ele>
        <time>2020-11-02T10:47:31Z</time>
      </trkpt>
      <trkpt lat="40.60931396484375" lon="-4.170159816741943">
        <ele>1608.971435546875</ele>
        <time>2020-11-02T10:47:35Z</time>
      </trkpt>
      <trkpt lat="40.609317779541016" lon="-4.170087814331055">
        <ele>1608.971435546875</ele>
        <time>2020-11-02T10:47:38Z</time>
      </trkpt>
      <trkpt lat="40.609310150146484" lon="-4.170018672943115">
        <ele>1608.971435546875</ele>
        <time>2020-11-02T10:47:41Z</time>
      </trkpt>
      <trkpt lat="40.60930633544922" lon="-4.169954776763916">
        <ele>1610.1531982421875</ele>
        <time>2020-11-02T10:47:44Z</time>
      </trkpt>
      <trkpt lat="40.60930633544922" lon="-4.169870853424072">
        <ele>1610.1531982421875</ele>
        <time>2020-11-02T10:47:48Z</time>
      </trkpt>
      <trkpt lat="40.609310150146484" lon="-4.169780731201172">
        <ele>1610.1531982421875</ele>
        <time>2020-11-02T10:47:52Z</time>
      </trkpt>
      <trkpt lat="40.60932159423828" lon="-4.169715404510498">
        <ele>1611.3349609375</ele>
        <time>2020-11-02T10:47:55Z</time>
      </trkpt>
      <trkpt lat="40.60933303833008" lon="-4.169649124145508">
        <ele>1611.3349609375</ele>
        <time>2020-11-02T10:47:58Z</time>
      </trkpt>
      <trkpt lat="40.60934066772461" lon="-4.169561386108398">
        <ele>1611.3349609375</ele>
        <time>2020-11-02T10:48:02Z</time>
      </trkpt>
      <trkpt lat="40.60934829711914" lon="-4.169489860534668">
        <ele>1612.5167236328125</ele>
        <time>2020-11-02T10:48:05Z</time>
      </trkpt>
      <trkpt lat="40.60934829711914" lon="-4.1694231033325195">
        <ele>1612.5167236328125</ele>
        <time>2020-11-02T10:48:08Z</time>
      </trkpt>
      <trkpt lat="40.60934829711914" lon="-4.169334888458252">
        <ele>1612.5167236328125</ele>
        <time>2020-11-02T10:48:12Z</time>
      </trkpt>
      <trkpt lat="40.60935592651367" lon="-4.169265270233154">
        <ele>1613.7894287109375</ele>
        <time>2020-11-02T10:48:15Z</time>
      </trkpt>
      <trkpt lat="40.6093635559082" lon="-4.169201374053955">
        <ele>1613.7894287109375</ele>
        <time>2020-11-02T10:48:18Z</time>
      </trkpt>
      <trkpt lat="40.60936737060547" lon="-4.16911506652832">
        <ele>1615.0621337890625</ele>
        <time>2020-11-02T10:48:22Z</time>
      </trkpt>
      <trkpt lat="40.60936737060547" lon="-4.1690473556518555">
        <ele>1615.0621337890625</ele>
        <time>2020-11-02T10:48:25Z</time>
      </trkpt>
      <trkpt lat="40.609371185302734" lon="-4.168978214263916">
        <ele>1615.0621337890625</ele>
        <time>2020-11-02T10:48:28Z</time>
      </trkpt>
      <trkpt lat="40.609378814697266" lon="-4.168906211853027">
        <ele>1616.243896484375</ele>
        <time>2020-11-02T10:48:31Z</time>
      </trkpt>
      <trkpt lat="40.60938262939453" lon="-4.168835163116455">
        <ele>1616.243896484375</ele>
        <time>2020-11-02T10:48:34Z</time>
      </trkpt>
      <trkpt lat="40.6093864440918" lon="-4.168764591217041">
        <ele>1616.243896484375</ele>
        <time>2020-11-02T10:48:37Z</time>
      </trkpt>
      <trkpt lat="40.6093864440918" lon="-4.168694972991943">
        <ele>1617.5166015625</ele>
        <time>2020-11-02T10:48:40Z</time>
      </trkpt>
      <trkpt lat="40.60939407348633" lon="-4.168625354766846">
        <ele>1617.5166015625</ele>
        <time>2020-11-02T10:48:43Z</time>
      </trkpt>
      <trkpt lat="40.60940170288086" lon="-4.168555736541748">
        <ele>1618.789306640625</ele>
        <time>2020-11-02T10:48:46Z</time>
      </trkpt>
      <trkpt lat="40.609405517578125" lon="-4.1684675216674805">
        <ele>1618.789306640625</ele>
        <time>2020-11-02T10:48:50Z</time>
      </trkpt>
      <trkpt lat="40.60940933227539" lon="-4.168396472930908">
        <ele>1618.789306640625</ele>
        <time>2020-11-02T10:48:53Z</time>
      </trkpt>
      <trkpt lat="40.609405517578125" lon="-4.168323516845703">
        <ele>1620.06201171875</ele>
        <time>2020-11-02T10:48:56Z</time>
      </trkpt>
      <trkpt lat="40.60940933227539" lon="-4.168254375457764">
        <ele>1620.06201171875</ele>
        <time>2020-11-02T10:48:59Z</time>
      </trkpt>
      <trkpt lat="40.60940933227539" lon="-4.168185710906982">
        <ele>1620.06201171875</ele>
        <time>2020-11-02T10:49:02Z</time>
      </trkpt>
      <trkpt lat="40.609405517578125" lon="-4.168118476867676">
        <ele>1621.2437744140625</ele>
        <time>2020-11-02T10:49:05Z</time>
      </trkpt>
      <trkpt lat="40.60940170288086" lon="-4.168027877807617">
        <ele>1621.2437744140625</ele>
        <time>2020-11-02T10:49:09Z</time>
      </trkpt>
      <trkpt lat="40.609397888183594" lon="-4.167959213256836">
        <ele>1621.2437744140625</ele>
        <time>2020-11-02T10:49:12Z</time>
      </trkpt>
      <trkpt lat="40.609397888183594" lon="-4.167885780334473">
        <ele>1622.425537109375</ele>
        <time>2020-11-02T10:49:15Z</time>
      </trkpt>
      <trkpt lat="40.609397888183594" lon="-4.167815208435059">
        <ele>1622.425537109375</ele>
        <time>2020-11-02T10:49:18Z</time>
      </trkpt>
      <trkpt lat="40.60939025878906" lon="-4.167745113372803">
        <ele>1622.425537109375</ele>
        <time>2020-11-02T10:49:21Z</time>
      </trkpt>
      <trkpt lat="40.60939025878906" lon="-4.16767692565918">
        <ele>1622.162109375</ele>
        <time>2020-11-02T10:49:24Z</time>
      </trkpt>
      <trkpt lat="40.60939025878906" lon="-4.167609214782715">
        <ele>1622.162109375</ele>
        <time>2020-11-02T10:49:27Z</time>
      </trkpt>
      <trkpt lat="40.60939407348633" lon="-4.167539119720459">
        <ele>1623.3438720703125</ele>
        <time>2020-11-02T10:49:30Z</time>
      </trkpt>
      <trkpt lat="40.60940170288086" lon="-4.16746711730957">
        <ele>1623.3438720703125</ele>
        <time>2020-11-02T10:49:33Z</time>
      </trkpt>
      <trkpt lat="40.609413146972656" lon="-4.167394161224365">
        <ele>1623.3438720703125</ele>
        <time>2020-11-02T10:49:36Z</time>
      </trkpt>
      <trkpt lat="40.60942840576172" lon="-4.167322635650635">
        <ele>1624.6165771484375</ele>
        <time>2020-11-02T10:49:39Z</time>
      </trkpt>
      <trkpt lat="40.60944366455078" lon="-4.167257308959961">
        <ele>1624.6165771484375</ele>
        <time>2020-11-02T10:49:42Z</time>
      </trkpt>
      <trkpt lat="40.60945510864258" lon="-4.167194366455078">
        <ele>1625.79833984375</ele>
        <time>2020-11-02T10:49:45Z</time>
      </trkpt>
      <trkpt lat="40.60947799682617" lon="-4.167108535766602">
        <ele>1625.79833984375</ele>
        <time>2020-11-02T10:49:49Z</time>
      </trkpt>
      <trkpt lat="40.6094970703125" lon="-4.167044639587402">
        <ele>1625.79833984375</ele>
        <time>2020-11-02T10:49:52Z</time>
      </trkpt>
      <trkpt lat="40.60952377319336" lon="-4.166989803314209">
        <ele>1625.79833984375</ele>
        <time>2020-11-02T10:49:55Z</time>
      </trkpt>
      <trkpt lat="40.609554290771484" lon="-4.166933059692383">
        <ele>1626.9801025390625</ele>
        <time>2020-11-02T10:49:58Z</time>
      </trkpt>
      <trkpt lat="40.609580993652344" lon="-4.16685676574707">
        <ele>1626.9801025390625</ele>
        <time>2020-11-02T10:50:02Z</time>
      </trkpt>
      <trkpt lat="40.60961151123047" lon="-4.166778564453125">
        <ele>1626.9801025390625</ele>
        <time>2020-11-02T10:50:06Z</time>
      </trkpt>
      <trkpt lat="40.6096305847168" lon="-4.166711807250977">
        <ele>1626.9801025390625</ele>
        <time>2020-11-02T10:50:09Z</time>
      </trkpt>
      <trkpt lat="40.609649658203125" lon="-4.166648864746094">
        <ele>1626.9801025390625</ele>
        <time>2020-11-02T10:50:12Z</time>
      </trkpt>
      <trkpt lat="40.609676361083984" lon="-4.166590690612793">
        <ele>1626.9801025390625</ele>
        <time>2020-11-02T10:50:15Z</time>
      </trkpt>
      <trkpt lat="40.609703063964844" lon="-4.166506767272949">
        <ele>1626.9801025390625</ele>
        <time>2020-11-02T10:50:19Z</time>
      </trkpt>
      <trkpt lat="40.60972595214844" lon="-4.16644287109375">
        <ele>1628.161865234375</ele>
        <time>2020-11-02T10:50:22Z</time>
      </trkpt>
      <trkpt lat="40.60975646972656" lon="-4.16635799407959">
        <ele>1628.161865234375</ele>
        <time>2020-11-02T10:50:26Z</time>
      </trkpt>
      <trkpt lat="40.60978317260742" lon="-4.16628885269165">
        <ele>1628.161865234375</ele>
        <time>2020-11-02T10:50:29Z</time>
      </trkpt>
      <trkpt lat="40.60980987548828" lon="-4.166212558746338">
        <ele>1628.161865234375</ele>
        <time>2020-11-02T10:50:32Z</time>
      </trkpt>
      <trkpt lat="40.60983657836914" lon="-4.166134834289551">
        <ele>1628.161865234375</ele>
        <time>2020-11-02T10:50:35Z</time>
      </trkpt>
      <trkpt lat="40.60986328125" lon="-4.166057586669922">
        <ele>1628.161865234375</ele>
        <time>2020-11-02T10:50:38Z</time>
      </trkpt>
      <trkpt lat="40.609893798828125" lon="-4.165983200073242">
        <ele>1628.161865234375</ele>
        <time>2020-11-02T10:50:41Z</time>
      </trkpt>
      <trkpt lat="40.609928131103516" lon="-4.165909767150879">
        <ele>1629.3436279296875</ele>
        <time>2020-11-02T10:50:44Z</time>
      </trkpt>
      <trkpt lat="40.60995864868164" lon="-4.165835857391357">
        <ele>1629.3436279296875</ele>
        <time>2020-11-02T10:50:47Z</time>
      </trkpt>
      <trkpt lat="40.6099967956543" lon="-4.165766716003418">
        <ele>1629.3436279296875</ele>
        <time>2020-11-02T10:50:50Z</time>
      </trkpt>
      <trkpt lat="40.61003875732422" lon="-4.165700435638428">
        <ele>1629.3436279296875</ele>
        <time>2020-11-02T10:50:53Z</time>
      </trkpt>
      <trkpt lat="40.610076904296875" lon="-4.165633201599121">
        <ele>1629.3436279296875</ele>
        <time>2020-11-02T10:50:56Z</time>
      </trkpt>
      <trkpt lat="40.61012268066406" lon="-4.165565490722656">
        <ele>1629.3436279296875</ele>
        <time>2020-11-02T10:50:59Z</time>
      </trkpt>
      <trkpt lat="40.610164642333984" lon="-4.165495872497559">
        <ele>1630.525390625</ele>
        <time>2020-11-02T10:51:02Z</time>
      </trkpt>
      <trkpt lat="40.610198974609375" lon="-4.165421962738037">
        <ele>1630.525390625</ele>
        <time>2020-11-02T10:51:05Z</time>
      </trkpt>
      <trkpt lat="40.6102294921875" lon="-4.165343761444092">
        <ele>1630.525390625</ele>
        <time>2020-11-02T10:51:08Z</time>
      </trkpt>
      <trkpt lat="40.610252380371094" lon="-4.165265083312988">
        <ele>1630.525390625</ele>
        <time>2020-11-02T10:51:11Z</time>
      </trkpt>
      <trkpt lat="40.61027526855469" lon="-4.165187835693359">
        <ele>1630.525390625</ele>
        <time>2020-11-02T10:51:14Z</time>
      </trkpt>
      <trkpt lat="40.61029815673828" lon="-4.16511344909668">
        <ele>1630.525390625</ele>
        <time>2020-11-02T10:51:17Z</time>
      </trkpt>
      <trkpt lat="40.610328674316406" lon="-4.165041446685791">
        <ele>1631.7071533203125</ele>
        <time>2020-11-02T10:51:20Z</time>
      </trkpt>
      <trkpt lat="40.610355377197266" lon="-4.1649651527404785">
        <ele>1633.8509521484375</ele>
        <time>2020-11-02T10:51:23Z</time>
      </trkpt>
      <trkpt lat="40.61038589477539" lon="-4.164891242980957">
        <ele>1633.8509521484375</ele>
        <time>2020-11-02T10:51:26Z</time>
      </trkpt>
      <trkpt lat="40.61042022705078" lon="-4.164820194244385">
        <ele>1635.03271484375</ele>
        <time>2020-11-02T10:51:29Z</time>
      </trkpt>
      <trkpt lat="40.6104621887207" lon="-4.164750576019287">
        <ele>1635.03271484375</ele>
        <time>2020-11-02T10:51:32Z</time>
      </trkpt>
      <trkpt lat="40.610496520996094" lon="-4.164677619934082">
        <ele>1635.03271484375</ele>
        <time>2020-11-02T10:51:35Z</time>
      </trkpt>
      <trkpt lat="40.61052703857422" lon="-4.164600849151611">
        <ele>1635.03271484375</ele>
        <time>2020-11-02T10:51:38Z</time>
      </trkpt>
      <trkpt lat="40.610557556152344" lon="-4.164525032043457">
        <ele>1635.03271484375</ele>
        <time>2020-11-02T10:51:41Z</time>
      </trkpt>
      <trkpt lat="40.610591888427734" lon="-4.164449691772461">
        <ele>1636.2144775390625</ele>
        <time>2020-11-02T10:51:44Z</time>
      </trkpt>
      <trkpt lat="40.610618591308594" lon="-4.1643757820129395">
        <ele>1635.03271484375</ele>
        <time>2020-11-02T10:51:47Z</time>
      </trkpt>
      <trkpt lat="40.61064529418945" lon="-4.1642985343933105">
        <ele>1633.8509521484375</ele>
        <time>2020-11-02T10:51:50Z</time>
      </trkpt>
      <trkpt lat="40.61066436767578" lon="-4.1642165184021">
        <ele>1633.8509521484375</ele>
        <time>2020-11-02T10:51:53Z</time>
      </trkpt>
      <trkpt lat="40.61068344116211" lon="-4.164132118225098">
        <ele>1633.8509521484375</ele>
        <time>2020-11-02T10:51:56Z</time>
      </trkpt>
      <trkpt lat="40.6107063293457" lon="-4.164046287536621">
        <ele>1633.8509521484375</ele>
        <time>2020-11-02T10:51:59Z</time>
      </trkpt>
      <trkpt lat="40.6107292175293" lon="-4.163959980010986">
        <ele>1633.8509521484375</ele>
        <time>2020-11-02T10:52:02Z</time>
      </trkpt>
      <trkpt lat="40.61074447631836" lon="-4.163870811462402">
        <ele>1633.8509521484375</ele>
        <time>2020-11-02T10:52:05Z</time>
      </trkpt>
      <trkpt lat="40.610755920410156" lon="-4.163785457611084">
        <ele>1633.8509521484375</ele>
        <time>2020-11-02T10:52:08Z</time>
      </trkpt>
      <trkpt lat="40.610774993896484" lon="-4.163702011108398">
        <ele>1633.8509521484375</ele>
        <time>2020-11-02T10:52:11Z</time>
      </trkpt>
      <trkpt lat="40.61079025268555" lon="-4.163618087768555">
        <ele>1635.1236572265625</ele>
        <time>2020-11-02T10:52:14Z</time>
      </trkpt>
      <trkpt lat="40.610816955566406" lon="-4.163537979125977">
        <ele>1635.1236572265625</ele>
        <time>2020-11-02T10:52:17Z</time>
      </trkpt>
      <trkpt lat="40.610836029052734" lon="-4.163453102111816">
        <ele>1635.1236572265625</ele>
        <time>2020-11-02T10:52:20Z</time>
      </trkpt>
      <trkpt lat="40.61085510253906" lon="-4.163368225097656">
        <ele>1636.8509521484375</ele>
        <time>2020-11-02T10:52:23Z</time>
      </trkpt>
      <trkpt lat="40.610877990722656" lon="-4.163284778594971">
        <ele>1638.3055419921875</ele>
        <time>2020-11-02T10:52:26Z</time>
      </trkpt>
      <trkpt lat="40.61090850830078" lon="-4.163210391998291">
        <ele>1638.3055419921875</ele>
        <time>2020-11-02T10:52:29Z</time>
      </trkpt>
      <trkpt lat="40.61094284057617" lon="-4.163137435913086">
        <ele>1639.4873046875</ele>
        <time>2020-11-02T10:52:32Z</time>
      </trkpt>
      <trkpt lat="40.61097717285156" lon="-4.163063049316406">
        <ele>1639.4873046875</ele>
        <time>2020-11-02T10:52:35Z</time>
      </trkpt>
      <trkpt lat="40.611000061035156" lon="-4.16301155090332">
        <ele>1639.4873046875</ele>
        <time>2020-11-02T10:52:37Z</time>
      </trkpt>
      <trkpt lat="40.61103820800781" lon="-4.16293478012085">
        <ele>1639.4873046875</ele>
        <time>2020-11-02T10:52:40Z</time>
      </trkpt>
      <trkpt lat="40.61106872558594" lon="-4.162857532501221">
        <ele>1639.4873046875</ele>
        <time>2020-11-02T10:52:43Z</time>
      </trkpt>
      <trkpt lat="40.61110305786133" lon="-4.162784576416016">
        <ele>1640.760009765625</ele>
        <time>2020-11-02T10:52:46Z</time>
      </trkpt>
      <trkpt lat="40.61113739013672" lon="-4.1627092361450195">
        <ele>1640.760009765625</ele>
        <time>2020-11-02T10:52:49Z</time>
      </trkpt>
      <trkpt lat="40.611175537109375" lon="-4.162636756896973">
        <ele>1641.9417724609375</ele>
        <time>2020-11-02T10:52:52Z</time>
      </trkpt>
      <trkpt lat="40.611202239990234" lon="-4.162557125091553">
        <ele>1641.9417724609375</ele>
        <time>2020-11-02T10:52:55Z</time>
      </trkpt>
      <trkpt lat="40.61123275756836" lon="-4.162474155426025">
        <ele>1641.9417724609375</ele>
        <time>2020-11-02T10:52:58Z</time>
      </trkpt>
      <trkpt lat="40.61126708984375" lon="-4.162393569946289">
        <ele>1643.12353515625</ele>
        <time>2020-11-02T10:53:01Z</time>
      </trkpt>
      <trkpt lat="40.61128616333008" lon="-4.162344455718994">
        <ele>1643.12353515625</ele>
        <time>2020-11-02T10:53:03Z</time>
      </trkpt>
      <trkpt lat="40.611328125" lon="-4.16227388381958">
        <ele>1643.12353515625</ele>
        <time>2020-11-02T10:53:06Z</time>
      </trkpt>
      <trkpt lat="40.61136245727539" lon="-4.162204265594482">
        <ele>1643.12353515625</ele>
        <time>2020-11-02T10:53:09Z</time>
      </trkpt>
      <trkpt lat="40.61138916015625" lon="-4.162128448486328">
        <ele>1644.3052978515625</ele>
        <time>2020-11-02T10:53:12Z</time>
      </trkpt>
      <trkpt lat="40.611419677734375" lon="-4.162055015563965">
        <ele>1644.3052978515625</ele>
        <time>2020-11-02T10:53:15Z</time>
      </trkpt>
      <trkpt lat="40.6114501953125" lon="-4.161983489990234">
        <ele>1644.3052978515625</ele>
        <time>2020-11-02T10:53:18Z</time>
      </trkpt>
      <trkpt lat="40.611480712890625" lon="-4.161918640136719">
        <ele>1644.3052978515625</ele>
        <time>2020-11-02T10:53:21Z</time>
      </trkpt>
      <trkpt lat="40.611515045166016" lon="-4.161850452423096">
        <ele>1650.78271484375</ele>
        <time>2020-11-02T10:53:24Z</time>
      </trkpt>
      <trkpt lat="40.61153793334961" lon="-4.161776542663574">
        <ele>1650.78271484375</ele>
        <time>2020-11-02T10:53:27Z</time>
      </trkpt>
      <trkpt lat="40.61156463623047" lon="-4.161698818206787">
        <ele>1650.78271484375</ele>
        <time>2020-11-02T10:53:30Z</time>
      </trkpt>
      <trkpt lat="40.61158752441406" lon="-4.161622047424316">
        <ele>1650.78271484375</ele>
        <time>2020-11-02T10:53:33Z</time>
      </trkpt>
      <trkpt lat="40.61161422729492" lon="-4.1615447998046875">
        <ele>1652.055419921875</ele>
        <time>2020-11-02T10:53:36Z</time>
      </trkpt>
      <trkpt lat="40.61164474487305" lon="-4.161471843719482">
        <ele>1652.055419921875</ele>
        <time>2020-11-02T10:53:39Z</time>
      </trkpt>
      <trkpt lat="40.61167526245117" lon="-4.161399841308594">
        <ele>1653.328125</ele>
        <time>2020-11-02T10:53:42Z</time>
      </trkpt>
      <trkpt lat="40.61170196533203" lon="-4.161325454711914">
        <ele>1653.328125</ele>
        <time>2020-11-02T10:53:45Z</time>
      </trkpt>
      <trkpt lat="40.611732482910156" lon="-4.1612548828125">
        <ele>1653.328125</ele>
        <time>2020-11-02T10:53:48Z</time>
      </trkpt>
      <trkpt lat="40.61176300048828" lon="-4.1611833572387695">
        <ele>1653.328125</ele>
        <time>2020-11-02T10:53:51Z</time>
      </trkpt>
      <trkpt lat="40.611793518066406" lon="-4.161117076873779">
        <ele>1654.600830078125</ele>
        <time>2020-11-02T10:53:54Z</time>
      </trkpt>
      <trkpt lat="40.6118278503418" lon="-4.161061763763428">
        <ele>1654.600830078125</ele>
        <time>2020-11-02T10:53:57Z</time>
      </trkpt>
      <trkpt lat="40.61186599731445" lon="-4.161002159118652">
        <ele>1654.600830078125</ele>
        <time>2020-11-02T10:54:00Z</time>
      </trkpt>
      <trkpt lat="40.61191177368164" lon="-4.160947799682617">
        <ele>1654.600830078125</ele>
        <time>2020-11-02T10:54:03Z</time>
      </trkpt>
      <trkpt lat="40.611961364746094" lon="-4.160898685455322">
        <ele>1654.600830078125</ele>
        <time>2020-11-02T10:54:06Z</time>
      </trkpt>
      <trkpt lat="40.61201095581055" lon="-4.160851001739502">
        <ele>1654.600830078125</ele>
        <time>2020-11-02T10:54:09Z</time>
      </trkpt>
      <trkpt lat="40.612064361572266" lon="-4.160802841186523">
        <ele>1654.600830078125</ele>
        <time>2020-11-02T10:54:12Z</time>
      </trkpt>
      <trkpt lat="40.612117767333984" lon="-4.160763263702393">
        <ele>1654.600830078125</ele>
        <time>2020-11-02T10:54:15Z</time>
      </trkpt>
      <trkpt lat="40.612178802490234" lon="-4.160722732543945">
        <ele>1655.87353515625</ele>
        <time>2020-11-02T10:54:18Z</time>
      </trkpt>
      <trkpt lat="40.61225509643555" lon="-4.16066312789917">
        <ele>1657.0552978515625</ele>
        <time>2020-11-02T10:54:22Z</time>
      </trkpt>
      <trkpt lat="40.6123161315918" lon="-4.160617828369141">
        <ele>1657.0552978515625</ele>
        <time>2020-11-02T10:54:25Z</time>
      </trkpt>
      <trkpt lat="40.61235427856445" lon="-4.160586357116699">
        <ele>1657.0552978515625</ele>
        <time>2020-11-02T10:54:27Z</time>
      </trkpt>
      <trkpt lat="40.61240768432617" lon="-4.160536766052246">
        <ele>1657.0552978515625</ele>
        <time>2020-11-02T10:54:30Z</time>
      </trkpt>
      <trkpt lat="40.612457275390625" lon="-4.160485744476318">
        <ele>1658.237060546875</ele>
        <time>2020-11-02T10:54:33Z</time>
      </trkpt>
      <trkpt lat="40.61250305175781" lon="-4.160426139831543">
        <ele>1658.237060546875</ele>
        <time>2020-11-02T10:54:36Z</time>
      </trkpt>
      <trkpt lat="40.612548828125" lon="-4.160365104675293">
        <ele>1658.237060546875</ele>
        <time>2020-11-02T10:54:39Z</time>
      </trkpt>
      <trkpt lat="40.61259460449219" lon="-4.160311222076416">
        <ele>1658.237060546875</ele>
        <time>2020-11-02T10:54:42Z</time>
      </trkpt>
      <trkpt lat="40.612640380859375" lon="-4.160250186920166">
        <ele>1659.4188232421875</ele>
        <time>2020-11-02T10:54:45Z</time>
      </trkpt>
      <trkpt lat="40.61268997192383" lon="-4.160201549530029">
        <ele>1659.4188232421875</ele>
        <time>2020-11-02T10:54:48Z</time>
      </trkpt>
      <trkpt lat="40.61273956298828" lon="-4.160149574279785">
        <ele>1659.4188232421875</ele>
        <time>2020-11-02T10:54:51Z</time>
      </trkpt>
      <trkpt lat="40.61279296875" lon="-4.160111904144287">
        <ele>1659.4188232421875</ele>
        <time>2020-11-02T10:54:54Z</time>
      </trkpt>
      <trkpt lat="40.61285400390625" lon="-4.160083293914795">
        <ele>1659.4188232421875</ele>
        <time>2020-11-02T10:54:57Z</time>
      </trkpt>
      <trkpt lat="40.612911224365234" lon="-4.160045146942139">
        <ele>1659.4188232421875</ele>
        <time>2020-11-02T10:55:00Z</time>
      </trkpt>
      <trkpt lat="40.61296081542969" lon="-4.16000509262085">
        <ele>1659.4188232421875</ele>
        <time>2020-11-02T10:55:03Z</time>
      </trkpt>
      <trkpt lat="40.61301040649414" lon="-4.159965515136719">
        <ele>1660.782470703125</ele>
        <time>2020-11-02T10:55:06Z</time>
      </trkpt>
      <trkpt lat="40.613059997558594" lon="-4.159927845001221">
        <ele>1660.782470703125</ele>
        <time>2020-11-02T10:55:09Z</time>
      </trkpt>
      <trkpt lat="40.61311721801758" lon="-4.159897804260254">
        <ele>1660.782470703125</ele>
        <time>2020-11-02T10:55:12Z</time>
      </trkpt>
      <trkpt lat="40.61317825317383" lon="-4.15987491607666">
        <ele>1661.9642333984375</ele>
        <time>2020-11-02T10:55:15Z</time>
      </trkpt>
      <trkpt lat="40.61323547363281" lon="-4.159854888916016">
        <ele>1661.9642333984375</ele>
        <time>2020-11-02T10:55:18Z</time>
      </trkpt>
      <trkpt lat="40.6132926940918" lon="-4.15983247756958">
        <ele>1661.9642333984375</ele>
        <time>2020-11-02T10:55:21Z</time>
      </trkpt>
      <trkpt lat="40.61335372924805" lon="-4.159804821014404">
        <ele>1666.073974609375</ele>
        <time>2020-11-02T10:55:24Z</time>
      </trkpt>
      <trkpt lat="40.61341857910156" lon="-4.159772872924805">
        <ele>1666.073974609375</ele>
        <time>2020-11-02T10:55:27Z</time>
      </trkpt>
      <trkpt lat="40.61347579956055" lon="-4.159736156463623">
        <ele>1667.2557373046875</ele>
        <time>2020-11-02T10:55:30Z</time>
      </trkpt>
      <trkpt lat="40.613529205322266" lon="-4.159701824188232">
        <ele>1667.2557373046875</ele>
        <time>2020-11-02T10:55:33Z</time>
      </trkpt>
      <trkpt lat="40.613582611083984" lon="-4.159665107727051">
        <ele>1667.2557373046875</ele>
        <time>2020-11-02T10:55:36Z</time>
      </trkpt>
      <trkpt lat="40.61363220214844" lon="-4.159625053405762">
        <ele>1667.2557373046875</ele>
        <time>2020-11-02T10:55:39Z</time>
      </trkpt>
      <trkpt lat="40.613670349121094" lon="-4.159571170806885">
        <ele>1667.2557373046875</ele>
        <time>2020-11-02T10:55:42Z</time>
      </trkpt>
      <trkpt lat="40.61369705200195" lon="-4.159510612487793">
        <ele>1667.2557373046875</ele>
        <time>2020-11-02T10:55:45Z</time>
      </trkpt>
      <trkpt lat="40.61376190185547" lon="-4.159473896026611">
        <ele>1668.5284423828125</ele>
        <time>2020-11-02T10:55:48Z</time>
      </trkpt>
      <trkpt lat="40.61381530761719" lon="-4.15943717956543">
        <ele>1669.8011474609375</ele>
        <time>2020-11-02T10:55:51Z</time>
      </trkpt>
      <trkpt lat="40.613868713378906" lon="-4.159400939941406">
        <ele>1669.8011474609375</ele>
        <time>2020-11-02T10:55:54Z</time>
      </trkpt>
      <trkpt lat="40.613914489746094" lon="-4.159363269805908">
        <ele>1669.8011474609375</ele>
        <time>2020-11-02T10:55:57Z</time>
      </trkpt>
      <trkpt lat="40.61396408081055" lon="-4.1593241691589355">
        <ele>1670.98291015625</ele>
        <time>2020-11-02T10:56:00Z</time>
      </trkpt>
      <trkpt lat="40.614009857177734" lon="-4.159289836883545">
        <ele>1670.98291015625</ele>
        <time>2020-11-02T10:56:03Z</time>
      </trkpt>
      <trkpt lat="40.614051818847656" lon="-4.159254550933838">
        <ele>1670.98291015625</ele>
        <time>2020-11-02T10:56:06Z</time>
      </trkpt>
      <trkpt lat="40.61410140991211" lon="-4.15922212600708">
        <ele>1670.98291015625</ele>
        <time>2020-11-02T10:56:09Z</time>
      </trkpt>
      <trkpt lat="40.6141471862793" lon="-4.15919303894043">
        <ele>1672.1646728515625</ele>
        <time>2020-11-02T10:56:12Z</time>
      </trkpt>
      <trkpt lat="40.61420822143555" lon="-4.159157752990723">
        <ele>1672.1646728515625</ele>
        <time>2020-11-02T10:56:16Z</time>
      </trkpt>
      <trkpt lat="40.614253997802734" lon="-4.159125804901123">
        <ele>1672.1646728515625</ele>
        <time>2020-11-02T10:56:19Z</time>
      </trkpt>
      <trkpt lat="40.61430740356445" lon="-4.159100532531738">
        <ele>1672.1646728515625</ele>
        <time>2020-11-02T10:56:22Z</time>
      </trkpt>
      <trkpt lat="40.61436080932617" lon="-4.159077167510986">
        <ele>1672.1646728515625</ele>
        <time>2020-11-02T10:56:25Z</time>
      </trkpt>
      <trkpt lat="40.61441421508789" lon="-4.159057140350342">
        <ele>1672.1646728515625</ele>
        <time>2020-11-02T10:56:28Z</time>
      </trkpt>
      <trkpt lat="40.614463806152344" lon="-4.15902853012085">
        <ele>1672.1646728515625</ele>
        <time>2020-11-02T10:56:31Z</time>
      </trkpt>
      <trkpt lat="40.6145133972168" lon="-4.158994674682617">
        <ele>1673.6192626953125</ele>
        <time>2020-11-02T10:56:34Z</time>
      </trkpt>
      <trkpt lat="40.61456298828125" lon="-4.15894889831543">
        <ele>1674.8919677734375</ele>
        <time>2020-11-02T10:56:37Z</time>
      </trkpt>
      <trkpt lat="40.61460494995117" lon="-4.15889310836792">
        <ele>1674.8919677734375</ele>
        <time>2020-11-02T10:56:40Z</time>
      </trkpt>
      <trkpt lat="40.61464309692383" lon="-4.158839225769043">
        <ele>1674.8919677734375</ele>
        <time>2020-11-02T10:56:43Z</time>
      </trkpt>
      <trkpt lat="40.614688873291016" lon="-4.15878438949585">
        <ele>1676.07373046875</ele>
        <time>2020-11-02T10:56:46Z</time>
      </trkpt>
      <trkpt lat="40.6147346496582" lon="-4.158730983734131">
        <ele>1676.07373046875</ele>
        <time>2020-11-02T10:56:49Z</time>
      </trkpt>
      <trkpt lat="40.614776611328125" lon="-4.1586761474609375">
        <ele>1676.07373046875</ele>
        <time>2020-11-02T10:56:52Z</time>
      </trkpt>
      <trkpt lat="40.61481857299805" lon="-4.158623695373535">
        <ele>1676.07373046875</ele>
        <time>2020-11-02T10:56:55Z</time>
      </trkpt>
      <trkpt lat="40.61486053466797" lon="-4.158570766448975">
        <ele>1677.2554931640625</ele>
        <time>2020-11-02T10:56:58Z</time>
      </trkpt>
      <trkpt lat="40.614898681640625" lon="-4.158522129058838">
        <ele>1677.2554931640625</ele>
        <time>2020-11-02T10:57:01Z</time>
      </trkpt>
      <trkpt lat="40.61494445800781" lon="-4.158469200134277">
        <ele>1677.2554931640625</ele>
        <time>2020-11-02T10:57:04Z</time>
      </trkpt>
      <trkpt lat="40.614986419677734" lon="-4.158415794372559">
        <ele>1677.2554931640625</ele>
        <time>2020-11-02T10:57:07Z</time>
      </trkpt>
      <trkpt lat="40.61503601074219" lon="-4.158368110656738">
        <ele>1677.2554931640625</ele>
        <time>2020-11-02T10:57:10Z</time>
      </trkpt>
      <trkpt lat="40.61507797241211" lon="-4.158322334289551">
        <ele>1677.2554931640625</ele>
        <time>2020-11-02T10:57:13Z</time>
      </trkpt>
      <trkpt lat="40.6151237487793" lon="-4.158273696899414">
        <ele>1677.2554931640625</ele>
        <time>2020-11-02T10:57:16Z</time>
      </trkpt>
      <trkpt lat="40.61517333984375" lon="-4.15822696685791">
        <ele>1678.437255859375</ele>
        <time>2020-11-02T10:57:19Z</time>
      </trkpt>
      <trkpt lat="40.61521911621094" lon="-4.1581830978393555">
        <ele>1678.437255859375</ele>
        <time>2020-11-02T10:57:22Z</time>
      </trkpt>
      <trkpt lat="40.61526870727539" lon="-4.158142566680908">
        <ele>1682.50830078125</ele>
        <time>2020-11-02T10:57:25Z</time>
      </trkpt>
      <trkpt lat="40.615318298339844" lon="-4.158099174499512">
        <ele>1682.50830078125</ele>
        <time>2020-11-02T10:57:28Z</time>
      </trkpt>
      <trkpt lat="40.61536407470703" lon="-4.158055782318115">
        <ele>1682.50830078125</ele>
        <time>2020-11-02T10:57:31Z</time>
      </trkpt>
      <trkpt lat="40.615413665771484" lon="-4.1580119132995605">
        <ele>1683.6900634765625</ele>
        <time>2020-11-02T10:57:34Z</time>
      </trkpt>
      <trkpt lat="40.615455627441406" lon="-4.15796422958374">
        <ele>1683.6900634765625</ele>
        <time>2020-11-02T10:57:37Z</time>
      </trkpt>
      <trkpt lat="40.61550521850586" lon="-4.157919883728027">
        <ele>1683.6900634765625</ele>
        <time>2020-11-02T10:57:40Z</time>
      </trkpt>
      <trkpt lat="40.61555099487305" lon="-4.157872676849365">
        <ele>1683.6900634765625</ele>
        <time>2020-11-02T10:57:43Z</time>
      </trkpt>
      <trkpt lat="40.615596771240234" lon="-4.157824993133545">
        <ele>1684.871826171875</ele>
        <time>2020-11-02T10:57:46Z</time>
      </trkpt>
      <trkpt lat="40.61564636230469" lon="-4.157774448394775">
        <ele>1684.871826171875</ele>
        <time>2020-11-02T10:57:49Z</time>
      </trkpt>
      <trkpt lat="40.615692138671875" lon="-4.157724857330322">
        <ele>1684.871826171875</ele>
        <time>2020-11-02T10:57:52Z</time>
      </trkpt>
      <trkpt lat="40.61574172973633" lon="-4.157668590545654">
        <ele>1684.871826171875</ele>
        <time>2020-11-02T10:57:55Z</time>
      </trkpt>
      <trkpt lat="40.61579513549805" lon="-4.157612323760986">
        <ele>1684.871826171875</ele>
        <time>2020-11-02T10:57:58Z</time>
      </trkpt>
      <trkpt lat="40.6158447265625" lon="-4.157563209533691">
        <ele>1684.871826171875</ele>
        <time>2020-11-02T10:58:01Z</time>
      </trkpt>
      <trkpt lat="40.61589431762695" lon="-4.157506465911865">
        <ele>1684.871826171875</ele>
        <time>2020-11-02T10:58:04Z</time>
      </trkpt>
      <trkpt lat="40.61595916748047" lon="-4.1574296951293945">
        <ele>1686.417236328125</ele>
        <time>2020-11-02T10:58:08Z</time>
      </trkpt>
      <trkpt lat="40.61600112915039" lon="-4.1573638916015625">
        <ele>1686.417236328125</ele>
        <time>2020-11-02T10:58:11Z</time>
      </trkpt>
      <trkpt lat="40.61602783203125" lon="-4.157290458679199">
        <ele>1687.68994140625</ele>
        <time>2020-11-02T10:58:14Z</time>
      </trkpt>
      <trkpt lat="40.616031646728516" lon="-4.1572089195251465">
        <ele>1687.68994140625</ele>
        <time>2020-11-02T10:58:17Z</time>
      </trkpt>
      <trkpt lat="40.616024017333984" lon="-4.157124042510986">
        <ele>1687.68994140625</ele>
        <time>2020-11-02T10:58:20Z</time>
      </trkpt>
      <trkpt lat="40.61601638793945" lon="-4.157042503356934">
        <ele>1687.68994140625</ele>
        <time>2020-11-02T10:58:23Z</time>
      </trkpt>
      <trkpt lat="40.61600875854492" lon="-4.15696382522583">
        <ele>1688.8717041015625</ele>
        <time>2020-11-02T10:58:26Z</time>
      </trkpt>
      <trkpt lat="40.61599349975586" lon="-4.156888484954834">
        <ele>1688.8717041015625</ele>
        <time>2020-11-02T10:58:29Z</time>
      </trkpt>
      <trkpt lat="40.6159782409668" lon="-4.156814098358154">
        <ele>1688.8717041015625</ele>
        <time>2020-11-02T10:58:32Z</time>
      </trkpt>
      <trkpt lat="40.61595153808594" lon="-4.15673828125">
        <ele>1688.8717041015625</ele>
        <time>2020-11-02T10:58:35Z</time>
      </trkpt>
      <trkpt lat="40.61592483520508" lon="-4.156664848327637">
        <ele>1688.8717041015625</ele>
        <time>2020-11-02T10:58:38Z</time>
      </trkpt>
      <trkpt lat="40.61589813232422" lon="-4.156599521636963">
        <ele>1688.8717041015625</ele>
        <time>2020-11-02T10:58:41Z</time>
      </trkpt>
      <trkpt lat="40.61587142944336" lon="-4.15653133392334">
        <ele>1688.8717041015625</ele>
        <time>2020-11-02T10:58:44Z</time>
      </trkpt>
      <trkpt lat="40.615840911865234" lon="-4.156461238861084">
        <ele>1688.8717041015625</ele>
        <time>2020-11-02T10:58:47Z</time>
      </trkpt>
      <trkpt lat="40.61581039428711" lon="-4.156386852264404">
        <ele>1688.8717041015625</ele>
        <time>2020-11-02T10:58:50Z</time>
      </trkpt>
      <trkpt lat="40.61578369140625" lon="-4.156310558319092">
        <ele>1690.053466796875</ele>
        <time>2020-11-02T10:58:53Z</time>
      </trkpt>
      <trkpt lat="40.615753173828125" lon="-4.1562371253967285">
        <ele>1690.053466796875</ele>
        <time>2020-11-02T10:58:56Z</time>
      </trkpt>
      <trkpt lat="40.61573028564453" lon="-4.156160354614258">
        <ele>1691.2352294921875</ele>
        <time>2020-11-02T10:58:59Z</time>
      </trkpt>
      <trkpt lat="40.6157112121582" lon="-4.156083106994629">
        <ele>1691.2352294921875</ele>
        <time>2020-11-02T10:59:02Z</time>
      </trkpt>
      <trkpt lat="40.61568832397461" lon="-4.156003952026367">
        <ele>1691.2352294921875</ele>
        <time>2020-11-02T10:59:05Z</time>
      </trkpt>
      <trkpt lat="40.615657806396484" lon="-4.1559247970581055">
        <ele>1692.5079345703125</ele>
        <time>2020-11-02T10:59:08Z</time>
      </trkpt>
      <trkpt lat="40.615631103515625" lon="-4.155852317810059">
        <ele>1692.5079345703125</ele>
        <time>2020-11-02T10:59:11Z</time>
      </trkpt>
      <trkpt lat="40.61560821533203" lon="-4.155773162841797">
        <ele>1692.5079345703125</ele>
        <time>2020-11-02T10:59:14Z</time>
      </trkpt>
      <trkpt lat="40.61558532714844" lon="-4.155691146850586">
        <ele>1692.5079345703125</ele>
        <time>2020-11-02T10:59:17Z</time>
      </trkpt>
      <trkpt lat="40.615570068359375" lon="-4.15561056137085">
        <ele>1693.689697265625</ele>
        <time>2020-11-02T10:59:20Z</time>
      </trkpt>
      <trkpt lat="40.61553955078125" lon="-4.155538558959961">
        <ele>1686.63623046875</ele>
        <time>2020-11-02T10:59:23Z</time>
      </trkpt>
      <trkpt lat="40.61550521850586" lon="-4.155465126037598">
        <ele>1686.63623046875</ele>
        <time>2020-11-02T10:59:26Z</time>
      </trkpt>
      <trkpt lat="40.61547088623047" lon="-4.155389785766602">
        <ele>1686.63623046875</ele>
        <time>2020-11-02T10:59:29Z</time>
      </trkpt>
      <trkpt lat="40.615421295166016" lon="-4.155328273773193">
        <ele>1686.63623046875</ele>
        <time>2020-11-02T10:59:32Z</time>
      </trkpt>
      <trkpt lat="40.61537170410156" lon="-4.1552886962890625">
        <ele>1686.63623046875</ele>
        <time>2020-11-02T10:59:35Z</time>
      </trkpt>
      <trkpt lat="40.61532211303711" lon="-4.155240535736084">
        <ele>1686.63623046875</ele>
        <time>2020-11-02T10:59:38Z</time>
      </trkpt>
      <trkpt lat="40.615272521972656" lon="-4.155189514160156">
        <ele>1686.63623046875</ele>
        <time>2020-11-02T10:59:41Z</time>
      </trkpt>
      <trkpt lat="40.61522674560547" lon="-4.15513801574707">
        <ele>1687.8179931640625</ele>
        <time>2020-11-02T10:59:44Z</time>
      </trkpt>
      <trkpt lat="40.61518478393555" lon="-4.155081748962402">
        <ele>1687.8179931640625</ele>
        <time>2020-11-02T10:59:47Z</time>
      </trkpt>
      <trkpt lat="40.61513900756836" lon="-4.15502405166626">
        <ele>1687.8179931640625</ele>
        <time>2020-11-02T10:59:50Z</time>
      </trkpt>
      <trkpt lat="40.61508560180664" lon="-4.154969215393066">
        <ele>1688.999755859375</ele>
        <time>2020-11-02T10:59:53Z</time>
      </trkpt>
      <trkpt lat="40.61503601074219" lon="-4.154918670654297">
        <ele>1688.999755859375</ele>
        <time>2020-11-02T10:59:56Z</time>
      </trkpt>
      <trkpt lat="40.614986419677734" lon="-4.154860973358154">
        <ele>1688.999755859375</ele>
        <time>2020-11-02T10:59:59Z</time>
      </trkpt>
      <trkpt lat="40.614933013916016" lon="-4.154808044433594">
        <ele>1688.999755859375</ele>
        <time>2020-11-02T11:00:02Z</time>
      </trkpt>
      <trkpt lat="40.61487579345703" lon="-4.1547698974609375">
        <ele>1688.999755859375</ele>
        <time>2020-11-02T11:00:05Z</time>
      </trkpt>
      <trkpt lat="40.61481857299805" lon="-4.154735565185547">
        <ele>1688.999755859375</ele>
        <time>2020-11-02T11:00:08Z</time>
      </trkpt>
      <trkpt lat="40.6147575378418" lon="-4.1547064781188965">
        <ele>1688.999755859375</ele>
        <time>2020-11-02T11:00:11Z</time>
      </trkpt>
      <trkpt lat="40.61469268798828" lon="-4.154687881469727">
        <ele>1688.999755859375</ele>
        <time>2020-11-02T11:00:14Z</time>
      </trkpt>
      <trkpt lat="40.614646911621094" lon="-4.1546807289123535">
        <ele>1690.1815185546875</ele>
        <time>2020-11-02T11:00:16Z</time>
      </trkpt>
      <trkpt lat="40.614585876464844" lon="-4.154669284820557">
        <ele>1690.1815185546875</ele>
        <time>2020-11-02T11:00:19Z</time>
      </trkpt>
      <trkpt lat="40.61451721191406" lon="-4.154666423797607">
        <ele>1690.1815185546875</ele>
        <time>2020-11-02T11:00:22Z</time>
      </trkpt>
      <trkpt lat="40.61444091796875" lon="-4.154653549194336">
        <ele>1690.1815185546875</ele>
        <time>2020-11-02T11:00:25Z</time>
      </trkpt>
      <trkpt lat="40.61437225341797" lon="-4.154647350311279">
        <ele>1690.1815185546875</ele>
        <time>2020-11-02T11:00:28Z</time>
      </trkpt>
      <trkpt lat="40.61430740356445" lon="-4.154652118682861">
        <ele>1691.36328125</ele>
        <time>2020-11-02T11:00:31Z</time>
      </trkpt>
      <trkpt lat="40.614234924316406" lon="-4.154653549194336">
        <ele>1691.36328125</ele>
        <time>2020-11-02T11:00:34Z</time>
      </trkpt>
      <trkpt lat="40.61416244506836" lon="-4.154661178588867">
        <ele>1691.36328125</ele>
        <time>2020-11-02T11:00:37Z</time>
      </trkpt>
      <trkpt lat="40.61411666870117" lon="-4.154669761657715">
        <ele>1691.36328125</ele>
        <time>2020-11-02T11:00:39Z</time>
      </trkpt>
      <trkpt lat="40.614051818847656" lon="-4.154687881469727">
        <ele>1692.5450439453125</ele>
        <time>2020-11-02T11:00:42Z</time>
      </trkpt>
      <trkpt lat="40.61399459838867" lon="-4.154697895050049">
        <ele>1691.36328125</ele>
        <time>2020-11-02T11:00:45Z</time>
      </trkpt>
      <trkpt lat="40.613929748535156" lon="-4.154710292816162">
        <ele>1691.36328125</ele>
        <time>2020-11-02T11:00:48Z</time>
      </trkpt>
      <trkpt lat="40.61386489868164" lon="-4.154716968536377">
        <ele>1690.090576171875</ele>
        <time>2020-11-02T11:00:51Z</time>
      </trkpt>
      <trkpt lat="40.61380386352539" lon="-4.154721736907959">
        <ele>1690.090576171875</ele>
        <time>2020-11-02T11:00:54Z</time>
      </trkpt>
      <trkpt lat="40.613746643066406" lon="-4.154726505279541">
        <ele>1690.090576171875</ele>
        <time>2020-11-02T11:00:57Z</time>
      </trkpt>
      <trkpt lat="40.61368942260742" lon="-4.154736518859863">
        <ele>1690.090576171875</ele>
        <time>2020-11-02T11:01:00Z</time>
      </trkpt>
      <trkpt lat="40.6136360168457" lon="-4.154756546020508">
        <ele>1690.090576171875</ele>
        <time>2020-11-02T11:01:03Z</time>
      </trkpt>
      <trkpt lat="40.61357879638672" lon="-4.154770851135254">
        <ele>1690.090576171875</ele>
        <time>2020-11-02T11:01:06Z</time>
      </trkpt>
      <trkpt lat="40.61351776123047" lon="-4.154779434204102">
        <ele>1690.090576171875</ele>
        <time>2020-11-02T11:01:09Z</time>
      </trkpt>
      <trkpt lat="40.61345291137695" lon="-4.154787540435791">
        <ele>1690.090576171875</ele>
        <time>2020-11-02T11:01:12Z</time>
      </trkpt>
      <trkpt lat="40.61338806152344" lon="-4.154790878295898">
        <ele>1690.090576171875</ele>
        <time>2020-11-02T11:01:15Z</time>
      </trkpt>
      <trkpt lat="40.613319396972656" lon="-4.154789924621582">
        <ele>1691.2723388671875</ele>
        <time>2020-11-02T11:01:18Z</time>
      </trkpt>
      <trkpt lat="40.61324691772461" lon="-4.154797554016113">
        <ele>1691.2723388671875</ele>
        <time>2020-11-02T11:01:21Z</time>
      </trkpt>
      <trkpt lat="40.61320495605469" lon="-4.1548027992248535">
        <ele>1692.9996337890625</ele>
        <time>2020-11-02T11:01:23Z</time>
      </trkpt>
      <trkpt lat="40.613128662109375" lon="-4.1548051834106445">
        <ele>1697.8280029296875</ele>
        <time>2020-11-02T11:01:26Z</time>
      </trkpt>
      <trkpt lat="40.61308288574219" lon="-4.154806613922119">
        <ele>1699.009765625</ele>
        <time>2020-11-02T11:01:28Z</time>
      </trkpt>
      <trkpt lat="40.61302185058594" lon="-4.154820919036865">
        <ele>1699.009765625</ele>
        <time>2020-11-02T11:01:31Z</time>
      </trkpt>
      <trkpt lat="40.61295700073242" lon="-4.15482759475708">
        <ele>1699.009765625</ele>
        <time>2020-11-02T11:01:34Z</time>
      </trkpt>
      <trkpt lat="40.61288070678711" lon="-4.154828071594238">
        <ele>1699.009765625</ele>
        <time>2020-11-02T11:01:37Z</time>
      </trkpt>
      <trkpt lat="40.61281204223633" lon="-4.154832363128662">
        <ele>1699.009765625</ele>
        <time>2020-11-02T11:01:40Z</time>
      </trkpt>
      <trkpt lat="40.612735748291016" lon="-4.1548333168029785">
        <ele>1699.009765625</ele>
        <time>2020-11-02T11:01:43Z</time>
      </trkpt>
      <trkpt lat="40.6126594543457" lon="-4.154835224151611">
        <ele>1699.009765625</ele>
        <time>2020-11-02T11:01:46Z</time>
      </trkpt>
      <trkpt lat="40.61258316040039" lon="-4.154836654663086">
        <ele>1699.009765625</ele>
        <time>2020-11-02T11:01:49Z</time>
      </trkpt>
      <trkpt lat="40.6125373840332" lon="-4.154840469360352">
        <ele>1699.009765625</ele>
        <time>2020-11-02T11:01:51Z</time>
      </trkpt>
      <trkpt lat="40.612464904785156" lon="-4.154848098754883">
        <ele>1699.009765625</ele>
        <time>2020-11-02T11:01:54Z</time>
      </trkpt>
      <trkpt lat="40.61241912841797" lon="-4.154856204986572">
        <ele>1699.009765625</ele>
        <time>2020-11-02T11:01:56Z</time>
      </trkpt>
      <trkpt lat="40.61235046386719" lon="-4.154869556427002">
        <ele>1699.009765625</ele>
        <time>2020-11-02T11:01:59Z</time>
      </trkpt>
      <trkpt lat="40.612281799316406" lon="-4.154874801635742">
        <ele>1699.009765625</ele>
        <time>2020-11-02T11:02:02Z</time>
      </trkpt>
      <trkpt lat="40.61220932006836" lon="-4.154874324798584">
        <ele>1699.009765625</ele>
        <time>2020-11-02T11:02:05Z</time>
      </trkpt>
      <trkpt lat="40.61214065551758" lon="-4.154871463775635">
        <ele>1702.282470703125</ele>
        <time>2020-11-02T11:02:08Z</time>
      </trkpt>
      <trkpt lat="40.61206817626953" lon="-4.154862880706787">
        <ele>1703.737060546875</ele>
        <time>2020-11-02T11:02:11Z</time>
      </trkpt>
      <trkpt lat="40.611995697021484" lon="-4.154852390289307">
        <ele>1703.737060546875</ele>
        <time>2020-11-02T11:02:14Z</time>
      </trkpt>
      <trkpt lat="40.61185836791992" lon="-4.154743194580078">
        <ele>1704.9188232421875</ele>
        <time>2020-11-02T11:03:18Z</time>
      </trkpt>
      <trkpt lat="40.61189270019531" lon="-4.154731750488281">
        <ele>1704.9188232421875</ele>
        <time>2020-11-02T11:03:20Z</time>
      </trkpt>
      <trkpt lat="40.61197280883789" lon="-4.154676914215088">
        <ele>1704.9188232421875</ele>
        <time>2020-11-02T11:03:25Z</time>
      </trkpt>
      <trkpt lat="40.61202621459961" lon="-4.154641628265381">
        <ele>1706.1005859375</ele>
        <time>2020-11-02T11:03:28Z</time>
      </trkpt>
      <trkpt lat="40.612083435058594" lon="-4.154615879058838">
        <ele>1706.1005859375</ele>
        <time>2020-11-02T11:03:31Z</time>
      </trkpt>
      <trkpt lat="40.61213302612305" lon="-4.154586315155029">
        <ele>1706.1005859375</ele>
        <time>2020-11-02T11:03:34Z</time>
      </trkpt>
      <trkpt lat="40.6121826171875" lon="-4.154542446136475">
        <ele>1707.2823486328125</ele>
        <time>2020-11-02T11:03:37Z</time>
      </trkpt>
      <trkpt lat="40.61223220825195" lon="-4.154504299163818">
        <ele>1707.2823486328125</ele>
        <time>2020-11-02T11:03:40Z</time>
      </trkpt>
      <trkpt lat="40.612281799316406" lon="-4.154463768005371">
        <ele>1707.2823486328125</ele>
        <time>2020-11-02T11:03:43Z</time>
      </trkpt>
      <trkpt lat="40.612327575683594" lon="-4.154432773590088">
        <ele>1708.464111328125</ele>
        <time>2020-11-02T11:03:46Z</time>
      </trkpt>
      <trkpt lat="40.61237716674805" lon="-4.154413223266602">
        <ele>1708.464111328125</ele>
        <time>2020-11-02T11:03:49Z</time>
      </trkpt>
      <trkpt lat="40.6124267578125" lon="-4.1543869972229">
        <ele>1708.464111328125</ele>
        <time>2020-11-02T11:03:52Z</time>
      </trkpt>
      <trkpt lat="40.61248016357422" lon="-4.154356956481934">
        <ele>1709.6458740234375</ele>
        <time>2020-11-02T11:03:55Z</time>
      </trkpt>
      <trkpt lat="40.61252975463867" lon="-4.15432071685791">
        <ele>1709.6458740234375</ele>
        <time>2020-11-02T11:03:58Z</time>
      </trkpt>
      <trkpt lat="40.61257553100586" lon="-4.1542863845825195">
        <ele>1709.6458740234375</ele>
        <time>2020-11-02T11:04:01Z</time>
      </trkpt>
      <trkpt lat="40.61262512207031" lon="-4.154249668121338">
        <ele>1709.6458740234375</ele>
        <time>2020-11-02T11:04:04Z</time>
      </trkpt>
      <trkpt lat="40.61267852783203" lon="-4.154205322265625">
        <ele>1709.6458740234375</ele>
        <time>2020-11-02T11:04:07Z</time>
      </trkpt>
      <trkpt lat="40.61274337768555" lon="-4.154146194458008">
        <ele>1709.6458740234375</ele>
        <time>2020-11-02T11:04:11Z</time>
      </trkpt>
      <trkpt lat="40.61278533935547" lon="-4.154118537902832">
        <ele>1709.6458740234375</ele>
        <time>2020-11-02T11:04:14Z</time>
      </trkpt>
      <trkpt lat="40.61283493041992" lon="-4.154108047485352">
        <ele>1709.6458740234375</ele>
        <time>2020-11-02T11:04:17Z</time>
      </trkpt>
      <trkpt lat="40.61290740966797" lon="-4.154097557067871">
        <ele>1709.6458740234375</ele>
        <time>2020-11-02T11:04:21Z</time>
      </trkpt>
      <trkpt lat="40.61296081542969" lon="-4.15409517288208">
        <ele>1709.6458740234375</ele>
        <time>2020-11-02T11:04:24Z</time>
      </trkpt>
      <trkpt lat="40.61301803588867" lon="-4.154091835021973">
        <ele>1710.82763671875</ele>
        <time>2020-11-02T11:04:27Z</time>
      </trkpt>
      <trkpt lat="40.61307144165039" lon="-4.154075622558594">
        <ele>1710.82763671875</ele>
        <time>2020-11-02T11:04:30Z</time>
      </trkpt>
      <trkpt lat="40.613128662109375" lon="-4.154052734375">
        <ele>1710.82763671875</ele>
        <time>2020-11-02T11:04:33Z</time>
      </trkpt>
      <trkpt lat="40.61318588256836" lon="-4.1540398597717285">
        <ele>1710.82763671875</ele>
        <time>2020-11-02T11:04:36Z</time>
      </trkpt>
      <trkpt lat="40.61324691772461" lon="-4.15402364730835">
        <ele>1710.82763671875</ele>
        <time>2020-11-02T11:04:39Z</time>
      </trkpt>
      <trkpt lat="40.613319396972656" lon="-4.1539764404296875">
        <ele>1710.82763671875</ele>
        <time>2020-11-02T11:04:43Z</time>
      </trkpt>
      <trkpt lat="40.613380432128906" lon="-4.153939723968506">
        <ele>1710.82763671875</ele>
        <time>2020-11-02T11:04:46Z</time>
      </trkpt>
      <trkpt lat="40.61343002319336" lon="-4.153889179229736">
        <ele>1702.373291015625</ele>
        <time>2020-11-02T11:04:49Z</time>
      </trkpt>
      <trkpt lat="40.61347579956055" lon="-4.153827667236328">
        <ele>1702.373291015625</ele>
        <time>2020-11-02T11:04:52Z</time>
      </trkpt>
      <trkpt lat="40.613525390625" lon="-4.153774738311768">
        <ele>1702.373291015625</ele>
        <time>2020-11-02T11:04:55Z</time>
      </trkpt>
      <trkpt lat="40.61357498168945" lon="-4.153720855712891">
        <ele>1702.373291015625</ele>
        <time>2020-11-02T11:04:58Z</time>
      </trkpt>
      <trkpt lat="40.61363220214844" lon="-4.153672218322754">
        <ele>1702.373291015625</ele>
        <time>2020-11-02T11:05:01Z</time>
      </trkpt>
      <trkpt lat="40.613685607910156" lon="-4.153634071350098">
        <ele>1702.373291015625</ele>
        <time>2020-11-02T11:05:04Z</time>
      </trkpt>
      <trkpt lat="40.61374282836914" lon="-4.153595447540283">
        <ele>1702.373291015625</ele>
        <time>2020-11-02T11:05:07Z</time>
      </trkpt>
      <trkpt lat="40.61379623413086" lon="-4.153550624847412">
        <ele>1702.373291015625</ele>
        <time>2020-11-02T11:05:10Z</time>
      </trkpt>
      <trkpt lat="40.61385726928711" lon="-4.153496265411377">
        <ele>1702.373291015625</ele>
        <time>2020-11-02T11:05:13Z</time>
      </trkpt>
      <trkpt lat="40.613895416259766" lon="-4.153459072113037">
        <ele>1703.5550537109375</ele>
        <time>2020-11-02T11:05:15Z</time>
      </trkpt>
      <trkpt lat="40.61395263671875" lon="-4.153415203094482">
        <ele>1703.5550537109375</ele>
        <time>2020-11-02T11:05:18Z</time>
      </trkpt>
      <trkpt lat="40.614017486572266" lon="-4.15338134765625">
        <ele>1703.5550537109375</ele>
        <time>2020-11-02T11:05:21Z</time>
      </trkpt>
      <trkpt lat="40.61408233642578" lon="-4.153349876403809">
        <ele>1704.8277587890625</ele>
        <time>2020-11-02T11:05:24Z</time>
      </trkpt>
      <trkpt lat="40.6141471862793" lon="-4.153326988220215">
        <ele>1704.8277587890625</ele>
        <time>2020-11-02T11:05:27Z</time>
      </trkpt>
      <trkpt lat="40.61421585083008" lon="-4.153306484222412">
        <ele>1706.1004638671875</ele>
        <time>2020-11-02T11:05:30Z</time>
      </trkpt>
      <trkpt lat="40.61427688598633" lon="-4.153284072875977">
        <ele>1706.1004638671875</ele>
        <time>2020-11-02T11:05:33Z</time>
      </trkpt>
      <trkpt lat="40.614322662353516" lon="-4.153263092041016">
        <ele>1707.3731689453125</ele>
        <time>2020-11-02T11:05:36Z</time>
      </trkpt>
      <trkpt lat="40.61437225341797" lon="-4.15324592590332">
        <ele>1707.3731689453125</ele>
        <time>2020-11-02T11:05:40Z</time>
      </trkpt>
      <trkpt lat="40.614418029785156" lon="-4.153222560882568">
        <ele>1707.3731689453125</ele>
        <time>2020-11-02T11:05:44Z</time>
      </trkpt>
      <trkpt lat="40.61445617675781" lon="-4.153177738189697">
        <ele>1708.554931640625</ele>
        <time>2020-11-02T11:05:49Z</time>
      </trkpt>
      <trkpt lat="40.61447525024414" lon="-4.153096675872803">
        <ele>1708.554931640625</ele>
        <time>2020-11-02T11:05:55Z</time>
      </trkpt>
      <trkpt lat="40.614501953125" lon="-4.153024196624756">
        <ele>1708.554931640625</ele>
        <time>2020-11-02T11:05:59Z</time>
      </trkpt>
      <trkpt lat="40.6145133972168" lon="-4.152946472167969">
        <ele>1708.554931640625</ele>
        <time>2020-11-02T11:06:03Z</time>
      </trkpt>
      <trkpt lat="40.61455154418945" lon="-4.152881145477295">
        <ele>1709.9185791015625</ele>
        <time>2020-11-02T11:06:07Z</time>
      </trkpt>
      <trkpt lat="40.614566802978516" lon="-4.152796745300293">
        <ele>1709.9185791015625</ele>
        <time>2020-11-02T11:06:11Z</time>
      </trkpt>
      <trkpt lat="40.61458969116211" lon="-4.152715682983398">
        <ele>1709.9185791015625</ele>
        <time>2020-11-02T11:06:15Z</time>
      </trkpt>
      <trkpt lat="40.6146125793457" lon="-4.152650833129883">
        <ele>1711.100341796875</ele>
        <time>2020-11-02T11:06:18Z</time>
      </trkpt>
      <trkpt lat="40.6146125793457" lon="-4.1525726318359375">
        <ele>1711.100341796875</ele>
        <time>2020-11-02T11:06:21Z</time>
      </trkpt>
      <trkpt lat="40.6146354675293" lon="-4.1525187492370605">
        <ele>1711.100341796875</ele>
        <time>2020-11-02T11:06:25Z</time>
      </trkpt>
      <trkpt lat="40.61468505859375" lon="-4.152499198913574">
        <ele>1713.7366943359375</ele>
        <time>2020-11-02T11:06:29Z</time>
      </trkpt>
      <trkpt lat="40.61474609375" lon="-4.152475833892822">
        <ele>1713.7366943359375</ele>
        <time>2020-11-02T11:06:33Z</time>
      </trkpt>
      <trkpt lat="40.61479568481445" lon="-4.152430057525635">
        <ele>1720.093505859375</ele>
        <time>2020-11-02T11:06:37Z</time>
      </trkpt>
      <trkpt lat="40.61482238769531" lon="-4.152348518371582">
        <ele>1721.3662109375</ele>
        <time>2020-11-02T11:06:41Z</time>
      </trkpt>
      <trkpt lat="40.61482620239258" lon="-4.152283191680908">
        <ele>1722.5479736328125</ele>
        <time>2020-11-02T11:06:44Z</time>
      </trkpt>
      <trkpt lat="40.61482620239258" lon="-4.152212619781494">
        <ele>1723.729736328125</ele>
        <time>2020-11-02T11:06:48Z</time>
      </trkpt>
      <trkpt lat="40.61485290527344" lon="-4.15215539932251">
        <ele>1723.729736328125</ele>
        <time>2020-11-02T11:06:53Z</time>
      </trkpt>
      <trkpt lat="40.614898681640625" lon="-4.152132034301758">
        <ele>1724.9114990234375</ele>
        <time>2020-11-02T11:06:57Z</time>
      </trkpt>
      <trkpt lat="40.61494445800781" lon="-4.152083873748779">
        <ele>1726.1842041015625</ele>
        <time>2020-11-02T11:07:02Z</time>
      </trkpt>
      <trkpt lat="40.614990234375" lon="-4.152031898498535">
        <ele>1727.365966796875</ele>
        <time>2020-11-02T11:07:07Z</time>
      </trkpt>
      <trkpt lat="40.61504364013672" lon="-4.1519904136657715">
        <ele>1728.5477294921875</ele>
        <time>2020-11-02T11:07:12Z</time>
      </trkpt>
      <trkpt lat="40.61508560180664" lon="-4.151960849761963">
        <ele>1729.7294921875</ele>
        <time>2020-11-02T11:07:16Z</time>
      </trkpt>
      <trkpt lat="40.615135192871094" lon="-4.151905536651611">
        <ele>1729.7294921875</ele>
        <time>2020-11-02T11:07:21Z</time>
      </trkpt>
      <trkpt lat="40.61517333984375" lon="-4.151861667633057">
        <ele>1732.1839599609375</ele>
        <time>2020-11-02T11:07:26Z</time>
      </trkpt>
      <trkpt lat="40.61521911621094" lon="-4.151830196380615">
        <ele>1733.4566650390625</ele>
        <time>2020-11-02T11:07:32Z</time>
      </trkpt>
      <trkpt lat="40.61524963378906" lon="-4.151771545410156">
        <ele>1734.7293701171875</ele>
        <time>2020-11-02T11:07:39Z</time>
      </trkpt>
      <trkpt lat="40.615291595458984" lon="-4.151722431182861">
        <ele>1735.9111328125</ele>
        <time>2020-11-02T11:07:46Z</time>
      </trkpt>
      <trkpt lat="40.61533737182617" lon="-4.1516876220703125">
        <ele>1735.9111328125</ele>
        <time>2020-11-02T11:07:52Z</time>
      </trkpt>
      <trkpt lat="40.61537551879883" lon="-4.151652812957764">
        <ele>1737.0928955078125</ele>
        <time>2020-11-02T11:07:59Z</time>
      </trkpt>
      <trkpt lat="40.61542892456055" lon="-4.151654243469238">
        <ele>1737.0928955078125</ele>
        <time>2020-11-02T11:08:06Z</time>
      </trkpt>
      <trkpt lat="40.615478515625" lon="-4.151647090911865">
        <ele>1737.1680908203125</ele>
        <time>2020-11-02T11:08:14Z</time>
      </trkpt>
      <trkpt lat="40.615535736083984" lon="-4.151628017425537">
        <ele>1738.6226806640625</ele>
        <time>2020-11-02T11:08:22Z</time>
      </trkpt>
      <trkpt lat="40.615577697753906" lon="-4.151612758636475">
        <ele>1739.8953857421875</ele>
        <time>2020-11-02T11:08:29Z</time>
      </trkpt>
      <trkpt lat="40.61562728881836" lon="-4.151585102081299">
        <ele>1741.0771484375</ele>
        <time>2020-11-02T11:08:38Z</time>
      </trkpt>
      <trkpt lat="40.61566925048828" lon="-4.151541709899902">
        <ele>1742.2589111328125</ele>
        <time>2020-11-02T11:08:45Z</time>
      </trkpt>
      <trkpt lat="40.61572265625" lon="-4.151538848876953">
        <ele>1743.62255859375</ele>
        <time>2020-11-02T11:08:52Z</time>
      </trkpt>
      <trkpt lat="40.61577606201172" lon="-4.151531219482422">
        <ele>1743.62255859375</ele>
        <time>2020-11-02T11:08:58Z</time>
      </trkpt>
      <trkpt lat="40.61582946777344" lon="-4.15153169631958">
        <ele>1744.8043212890625</ele>
        <time>2020-11-02T11:09:05Z</time>
      </trkpt>
      <trkpt lat="40.61587142944336" lon="-4.151486873626709">
        <ele>1744.8043212890625</ele>
        <time>2020-11-02T11:09:11Z</time>
      </trkpt>
      <trkpt lat="40.615901947021484" lon="-4.1514058113098145">
        <ele>1744.8043212890625</ele>
        <time>2020-11-02T11:09:17Z</time>
      </trkpt>
      <trkpt lat="40.61591339111328" lon="-4.151328086853027">
        <ele>1744.8043212890625</ele>
        <time>2020-11-02T11:09:21Z</time>
      </trkpt>
      <trkpt lat="40.6159553527832" lon="-4.1512861251831055">
        <ele>1744.8043212890625</ele>
        <time>2020-11-02T11:09:25Z</time>
      </trkpt>
      <trkpt lat="40.616004943847656" lon="-4.151281833648682">
        <ele>1744.8043212890625</ele>
        <time>2020-11-02T11:09:29Z</time>
      </trkpt>
      <trkpt lat="40.61606216430664" lon="-4.151253700256348">
        <ele>1744.8043212890625</ele>
        <time>2020-11-02T11:09:34Z</time>
      </trkpt>
      <trkpt lat="40.61609649658203" lon="-4.151196479797363">
        <ele>1748.16796875</ele>
        <time>2020-11-02T11:09:38Z</time>
      </trkpt>
      <trkpt lat="40.61614227294922" lon="-4.151147365570068">
        <ele>1749.71337890625</ele>
        <time>2020-11-02T11:09:42Z</time>
      </trkpt>
      <trkpt lat="40.61616897583008" lon="-4.1510910987854">
        <ele>1749.71337890625</ele>
        <time>2020-11-02T11:09:45Z</time>
      </trkpt>
      <trkpt lat="40.616180419921875" lon="-4.151028156280518">
        <ele>1750.986083984375</ele>
        <time>2020-11-02T11:09:49Z</time>
      </trkpt>
      <trkpt lat="40.616432189941406" lon="-4.15085506439209">
        <ele>1750.986083984375</ele>
        <time>2020-11-02T11:16:59Z</time>
      </trkpt>
      <trkpt lat="40.616451263427734" lon="-4.1508708000183105">
        <ele>1752.1678466796875</ele>
        <time>2020-11-02T11:17:01Z</time>
      </trkpt>
      <trkpt lat="40.61652374267578" lon="-4.150919437408447">
        <ele>1752.1678466796875</ele>
        <time>2020-11-02T11:17:06Z</time>
      </trkpt>
      <trkpt lat="40.616580963134766" lon="-4.150941848754883">
        <ele>1752.1678466796875</ele>
        <time>2020-11-02T11:17:09Z</time>
      </trkpt>
      <trkpt lat="40.61663818359375" lon="-4.150963306427002">
        <ele>1752.1678466796875</ele>
        <time>2020-11-02T11:17:12Z</time>
      </trkpt>
      <trkpt lat="40.61669921875" lon="-4.150974273681641">
        <ele>1752.1678466796875</ele>
        <time>2020-11-02T11:17:15Z</time>
      </trkpt>
      <trkpt lat="40.61675262451172" lon="-4.150993824005127">
        <ele>1752.1678466796875</ele>
        <time>2020-11-02T11:17:18Z</time>
      </trkpt>
      <trkpt lat="40.6168098449707" lon="-4.151034832000732">
        <ele>1752.1678466796875</ele>
        <time>2020-11-02T11:17:22Z</time>
      </trkpt>
      <trkpt lat="40.61686325073242" lon="-4.151065826416016">
        <ele>1752.1678466796875</ele>
        <time>2020-11-02T11:17:25Z</time>
      </trkpt>
      <trkpt lat="40.616912841796875" lon="-4.151105880737305">
        <ele>1750.80419921875</ele>
        <time>2020-11-02T11:17:28Z</time>
      </trkpt>
      <trkpt lat="40.61696243286133" lon="-4.151151657104492">
        <ele>1750.80419921875</ele>
        <time>2020-11-02T11:17:31Z</time>
      </trkpt>
      <trkpt lat="40.61701583862305" lon="-4.15120267868042">
        <ele>1749.4405517578125</ele>
        <time>2020-11-02T11:17:34Z</time>
      </trkpt>
      <trkpt lat="40.6170654296875" lon="-4.151244163513184">
        <ele>1749.4405517578125</ele>
        <time>2020-11-02T11:17:37Z</time>
      </trkpt>
      <trkpt lat="40.61712646484375" lon="-4.15128231048584">
        <ele>1748.076904296875</ele>
        <time>2020-11-02T11:17:40Z</time>
      </trkpt>
      <trkpt lat="40.617183685302734" lon="-4.151332855224609">
        <ele>1746.7132568359375</ele>
        <time>2020-11-02T11:17:43Z</time>
      </trkpt>
      <trkpt lat="40.61723709106445" lon="-4.1513895988464355">
        <ele>1746.7132568359375</ele>
        <time>2020-11-02T11:17:46Z</time>
      </trkpt>
      <trkpt lat="40.617286682128906" lon="-4.151456356048584">
        <ele>1745.531494140625</ele>
        <time>2020-11-02T11:17:49Z</time>
      </trkpt>
      <trkpt lat="40.61733627319336" lon="-4.151517868041992">
        <ele>1744.3497314453125</ele>
        <time>2020-11-02T11:17:52Z</time>
      </trkpt>
      <trkpt lat="40.617366790771484" lon="-4.1515607833862305">
        <ele>1743.16796875</ele>
        <time>2020-11-02T11:17:54Z</time>
      </trkpt>
      <trkpt lat="40.61741256713867" lon="-4.151627540588379">
        <ele>1743.16796875</ele>
        <time>2020-11-02T11:17:57Z</time>
      </trkpt>
      <trkpt lat="40.61744689941406" lon="-4.151697158813477">
        <ele>1741.9862060546875</ele>
        <time>2020-11-02T11:18:00Z</time>
      </trkpt>
      <trkpt lat="40.617462158203125" lon="-4.151772499084473">
        <ele>1740.804443359375</ele>
        <time>2020-11-02T11:18:03Z</time>
      </trkpt>
      <trkpt lat="40.617469787597656" lon="-4.151859283447266">
        <ele>1740.804443359375</ele>
        <time>2020-11-02T11:18:06Z</time>
      </trkpt>
      <trkpt lat="40.617469787597656" lon="-4.151943683624268">
        <ele>1739.6226806640625</ele>
        <time>2020-11-02T11:18:09Z</time>
      </trkpt>
      <trkpt lat="40.61748504638672" lon="-4.152019500732422">
        <ele>1739.6226806640625</ele>
        <time>2020-11-02T11:18:12Z</time>
      </trkpt>
      <trkpt lat="40.617523193359375" lon="-4.152081489562988">
        <ele>1739.6226806640625</ele>
        <time>2020-11-02T11:18:15Z</time>
      </trkpt>
      <trkpt lat="40.617557525634766" lon="-4.152146816253662">
        <ele>1739.6226806640625</ele>
        <time>2020-11-02T11:18:18Z</time>
      </trkpt>
      <trkpt lat="40.61756896972656" lon="-4.152225494384766">
        <ele>1738.3499755859375</ele>
        <time>2020-11-02T11:18:21Z</time>
      </trkpt>
      <trkpt lat="40.617591857910156" lon="-4.152304172515869">
        <ele>1738.3499755859375</ele>
        <time>2020-11-02T11:18:24Z</time>
      </trkpt>
      <trkpt lat="40.61761474609375" lon="-4.152379989624023">
        <ele>1737.168212890625</ele>
        <time>2020-11-02T11:18:27Z</time>
      </trkpt>
      <trkpt lat="40.617618560791016" lon="-4.152462005615234">
        <ele>1737.168212890625</ele>
        <time>2020-11-02T11:18:30Z</time>
      </trkpt>
      <trkpt lat="40.61764144897461" lon="-4.152547359466553">
        <ele>1742.3089599609375</ele>
        <time>2020-11-02T11:18:33Z</time>
      </trkpt>
      <trkpt lat="40.61769104003906" lon="-4.15261173248291">
        <ele>1740.9453125</ele>
        <time>2020-11-02T11:18:36Z</time>
      </trkpt>
      <trkpt lat="40.617759704589844" lon="-4.152645587921143">
        <ele>1740.9453125</ele>
        <time>2020-11-02T11:18:39Z</time>
      </trkpt>
      <trkpt lat="40.6178092956543" lon="-4.152665138244629">
        <ele>1740.9453125</ele>
        <time>2020-11-02T11:18:41Z</time>
      </trkpt>
      <trkpt lat="40.61786651611328" lon="-4.152719497680664">
        <ele>1739.7635498046875</ele>
        <time>2020-11-02T11:18:44Z</time>
      </trkpt>
      <trkpt lat="40.61790466308594" lon="-4.152790069580078">
        <ele>1739.7635498046875</ele>
        <time>2020-11-02T11:18:47Z</time>
      </trkpt>
      <trkpt lat="40.61793518066406" lon="-4.152876853942871">
        <ele>1738.4908447265625</ele>
        <time>2020-11-02T11:18:50Z</time>
      </trkpt>
      <trkpt lat="40.61796569824219" lon="-4.152971267700195">
        <ele>1738.4908447265625</ele>
        <time>2020-11-02T11:18:53Z</time>
      </trkpt>
      <trkpt lat="40.61798858642578" lon="-4.153036117553711">
        <ele>1737.0362548828125</ele>
        <time>2020-11-02T11:18:55Z</time>
      </trkpt>
      <trkpt lat="40.61800765991211" lon="-4.153102874755859">
        <ele>1735.5816650390625</ele>
        <time>2020-11-02T11:18:57Z</time>
      </trkpt>
      <trkpt lat="40.618019104003906" lon="-4.15316915512085">
        <ele>1734.3089599609375</ele>
        <time>2020-11-02T11:18:59Z</time>
      </trkpt>
      <trkpt lat="40.61803436279297" lon="-4.153232097625732">
        <ele>1734.3089599609375</ele>
        <time>2020-11-02T11:19:01Z</time>
      </trkpt>
      <trkpt lat="40.61805725097656" lon="-4.153294563293457">
        <ele>1734.3089599609375</ele>
        <time>2020-11-02T11:19:03Z</time>
      </trkpt>
      <trkpt lat="40.61808395385742" lon="-4.153355121612549">
        <ele>1734.3089599609375</ele>
        <time>2020-11-02T11:19:05Z</time>
      </trkpt>
      <trkpt lat="40.618125915527344" lon="-4.153442859649658">
        <ele>1734.3089599609375</ele>
        <time>2020-11-02T11:19:08Z</time>
      </trkpt>
      <trkpt lat="40.61814880371094" lon="-4.153504848480225">
        <ele>1734.3089599609375</ele>
        <time>2020-11-02T11:19:10Z</time>
      </trkpt>
      <trkpt lat="40.6181640625" lon="-4.153572082519531">
        <ele>1734.3089599609375</ele>
        <time>2020-11-02T11:19:12Z</time>
      </trkpt>
      <trkpt lat="40.61817932128906" lon="-4.153636932373047">
        <ele>1735.49072265625</ele>
        <time>2020-11-02T11:19:14Z</time>
      </trkpt>
      <trkpt lat="40.61819839477539" lon="-4.153705596923828">
        <ele>1735.49072265625</ele>
        <time>2020-11-02T11:19:16Z</time>
      </trkpt>
      <trkpt lat="40.61821365356445" lon="-4.153770446777344">
        <ele>1735.49072265625</ele>
        <time>2020-11-02T11:19:18Z</time>
      </trkpt>
      <trkpt lat="40.618228912353516" lon="-4.153836727142334">
        <ele>1735.49072265625</ele>
        <time>2020-11-02T11:19:20Z</time>
      </trkpt>
      <trkpt lat="40.61824035644531" lon="-4.153901100158691">
        <ele>1735.49072265625</ele>
        <time>2020-11-02T11:19:22Z</time>
      </trkpt>
      <trkpt lat="40.618263244628906" lon="-4.153995037078857">
        <ele>1735.49072265625</ele>
        <time>2020-11-02T11:19:25Z</time>
      </trkpt>
      <trkpt lat="40.61829376220703" lon="-4.154078483581543">
        <ele>1734.1270751953125</ele>
        <time>2020-11-02T11:19:28Z</time>
      </trkpt>
      <trkpt lat="40.618316650390625" lon="-4.154170513153076">
        <ele>1734.1270751953125</ele>
        <time>2020-11-02T11:19:31Z</time>
      </trkpt>
      <trkpt lat="40.61833190917969" lon="-4.154230117797852">
        <ele>1734.1270751953125</ele>
        <time>2020-11-02T11:19:33Z</time>
      </trkpt>
      <trkpt lat="40.61835861206055" lon="-4.154327392578125">
        <ele>1732.8543701171875</ele>
        <time>2020-11-02T11:19:36Z</time>
      </trkpt>
      <trkpt lat="40.61838150024414" lon="-4.15442419052124">
        <ele>1732.8543701171875</ele>
        <time>2020-11-02T11:19:39Z</time>
      </trkpt>
      <trkpt lat="40.61839294433594" lon="-4.154491901397705">
        <ele>1731.672607421875</ele>
        <time>2020-11-02T11:19:41Z</time>
      </trkpt>
      <trkpt lat="40.618412017822266" lon="-4.154556751251221">
        <ele>1731.672607421875</ele>
        <time>2020-11-02T11:19:43Z</time>
      </trkpt>
      <trkpt lat="40.61843490600586" lon="-4.154618740081787">
        <ele>1731.672607421875</ele>
        <time>2020-11-02T11:19:45Z</time>
      </trkpt>
      <trkpt lat="40.61845016479492" lon="-4.154681205749512">
        <ele>1730.39990234375</ele>
        <time>2020-11-02T11:19:47Z</time>
      </trkpt>
      <trkpt lat="40.618465423583984" lon="-4.154781341552734">
        <ele>1729.127197265625</ele>
        <time>2020-11-02T11:19:50Z</time>
      </trkpt>
      <trkpt lat="40.61848068237305" lon="-4.154843807220459">
        <ele>1729.127197265625</ele>
        <time>2020-11-02T11:19:52Z</time>
      </trkpt>
      <trkpt lat="40.61849594116211" lon="-4.154908180236816">
        <ele>1727.9454345703125</ele>
        <time>2020-11-02T11:19:54Z</time>
      </trkpt>
      <trkpt lat="40.61851501464844" lon="-4.155003547668457">
        <ele>1726.4908447265625</ele>
        <time>2020-11-02T11:19:57Z</time>
      </trkpt>
      <trkpt lat="40.6185302734375" lon="-4.155097484588623">
        <ele>1726.4908447265625</ele>
        <time>2020-11-02T11:20:00Z</time>
      </trkpt>
      <trkpt lat="40.61853790283203" lon="-4.155162334442139">
        <ele>1725.127197265625</ele>
        <time>2020-11-02T11:20:02Z</time>
      </trkpt>
      <trkpt lat="40.618560791015625" lon="-4.155253887176514">
        <ele>1725.127197265625</ele>
        <time>2020-11-02T11:20:05Z</time>
      </trkpt>
      <trkpt lat="40.618587493896484" lon="-4.155343532562256">
        <ele>1723.8544921875</ele>
        <time>2020-11-02T11:20:08Z</time>
      </trkpt>
      <trkpt lat="40.61860656738281" lon="-4.155421257019043">
        <ele>1723.8544921875</ele>
        <time>2020-11-02T11:20:11Z</time>
      </trkpt>
      <trkpt lat="40.61862564086914" lon="-4.155505657196045">
        <ele>1723.8544921875</ele>
        <time>2020-11-02T11:20:14Z</time>
      </trkpt>
      <trkpt lat="40.61863708496094" lon="-4.15559720993042">
        <ele>1722.6727294921875</ele>
        <time>2020-11-02T11:20:17Z</time>
      </trkpt>
      <trkpt lat="40.618648529052734" lon="-4.155661106109619">
        <ele>1722.6727294921875</ele>
        <time>2020-11-02T11:20:19Z</time>
      </trkpt>
      <trkpt lat="40.6186637878418" lon="-4.155753135681152">
        <ele>1722.6727294921875</ele>
        <time>2020-11-02T11:20:22Z</time>
      </trkpt>
      <trkpt lat="40.618682861328125" lon="-4.155843734741211">
        <ele>1722.6727294921875</ele>
        <time>2020-11-02T11:20:25Z</time>
      </trkpt>
      <trkpt lat="40.618709564208984" lon="-4.155933856964111">
        <ele>1722.6727294921875</ele>
        <time>2020-11-02T11:20:28Z</time>
      </trkpt>
      <trkpt lat="40.618736267089844" lon="-4.1560235023498535">
        <ele>1722.6727294921875</ele>
        <time>2020-11-02T11:20:31Z</time>
      </trkpt>
      <trkpt lat="40.61875534057617" lon="-4.156081676483154">
        <ele>1726.348876953125</ele>
        <time>2020-11-02T11:20:33Z</time>
      </trkpt>
      <trkpt lat="40.618797302246094" lon="-4.156171798706055">
        <ele>1726.348876953125</ele>
        <time>2020-11-02T11:20:36Z</time>
      </trkpt>
      <trkpt lat="40.618812561035156" lon="-4.156232833862305">
        <ele>1725.1671142578125</ele>
        <time>2020-11-02T11:20:38Z</time>
      </trkpt>
      <trkpt lat="40.618812561035156" lon="-4.156320095062256">
        <ele>1725.1671142578125</ele>
        <time>2020-11-02T11:20:41Z</time>
      </trkpt>
      <trkpt lat="40.61878204345703" lon="-4.156397342681885">
        <ele>1723.9853515625</ele>
        <time>2020-11-02T11:20:44Z</time>
      </trkpt>
      <trkpt lat="40.61872482299805" lon="-4.156460285186768">
        <ele>1723.9853515625</ele>
        <time>2020-11-02T11:20:47Z</time>
      </trkpt>
      <trkpt lat="40.61865234375" lon="-4.156506538391113">
        <ele>1723.9853515625</ele>
        <time>2020-11-02T11:20:50Z</time>
      </trkpt>
      <trkpt lat="40.61861038208008" lon="-4.156544208526611">
        <ele>1722.712646484375</ele>
        <time>2020-11-02T11:20:52Z</time>
      </trkpt>
      <trkpt lat="40.61855697631836" lon="-4.156615734100342">
        <ele>1722.712646484375</ele>
        <time>2020-11-02T11:20:55Z</time>
      </trkpt>
      <trkpt lat="40.61852264404297" lon="-4.156665802001953">
        <ele>1721.5308837890625</ele>
        <time>2020-11-02T11:20:57Z</time>
      </trkpt>
      <trkpt lat="40.61848068237305" lon="-4.156740665435791">
        <ele>1720.0762939453125</ele>
        <time>2020-11-02T11:21:00Z</time>
      </trkpt>
      <trkpt lat="40.61842727661133" lon="-4.156799793243408">
        <ele>1718.89453125</ele>
        <time>2020-11-02T11:21:03Z</time>
      </trkpt>
      <trkpt lat="40.61836624145508" lon="-4.156854629516602">
        <ele>1718.89453125</ele>
        <time>2020-11-02T11:21:06Z</time>
      </trkpt>
      <trkpt lat="40.61832809448242" lon="-4.156905174255371">
        <ele>1717.621826171875</ele>
        <time>2020-11-02T11:21:08Z</time>
      </trkpt>
      <trkpt lat="40.6182975769043" lon="-4.156959533691406">
        <ele>1716.34912109375</ele>
        <time>2020-11-02T11:21:10Z</time>
      </trkpt>
      <trkpt lat="40.61826705932617" lon="-4.157018184661865">
        <ele>1716.34912109375</ele>
        <time>2020-11-02T11:21:12Z</time>
      </trkpt>
      <trkpt lat="40.61824035644531" lon="-4.1570725440979">
        <ele>1714.9854736328125</ele>
        <time>2020-11-02T11:21:14Z</time>
      </trkpt>
      <trkpt lat="40.61819076538086" lon="-4.157142162322998">
        <ele>1713.621826171875</ele>
        <time>2020-11-02T11:21:17Z</time>
      </trkpt>
      <trkpt lat="40.618141174316406" lon="-4.157201766967773">
        <ele>1713.621826171875</ele>
        <time>2020-11-02T11:21:20Z</time>
      </trkpt>
      <trkpt lat="40.61808776855469" lon="-4.157248497009277">
        <ele>1712.167236328125</ele>
        <time>2020-11-02T11:21:23Z</time>
      </trkpt>
      <trkpt lat="40.6180305480957" lon="-4.157289505004883">
        <ele>1710.8035888671875</ele>
        <time>2020-11-02T11:21:26Z</time>
      </trkpt>
      <trkpt lat="40.61796569824219" lon="-4.157325267791748">
        <ele>1709.5308837890625</ele>
        <time>2020-11-02T11:21:29Z</time>
      </trkpt>
      <trkpt lat="40.617897033691406" lon="-4.157358169555664">
        <ele>1707.9854736328125</ele>
        <time>2020-11-02T11:21:32Z</time>
      </trkpt>
      <trkpt lat="40.617828369140625" lon="-4.157389163970947">
        <ele>1706.7127685546875</ele>
        <time>2020-11-02T11:21:35Z</time>
      </trkpt>
      <trkpt lat="40.617759704589844" lon="-4.1574201583862305">
        <ele>1706.7127685546875</ele>
        <time>2020-11-02T11:21:38Z</time>
      </trkpt>
      <trkpt lat="40.617706298828125" lon="-4.157476902008057">
        <ele>1705.531005859375</ele>
        <time>2020-11-02T11:21:41Z</time>
      </trkpt>
      <trkpt lat="40.61764144897461" lon="-4.157555103302002">
        <ele>1705.531005859375</ele>
        <time>2020-11-02T11:21:45Z</time>
      </trkpt>
      <trkpt lat="40.61758041381836" lon="-4.157583236694336">
        <ele>1705.531005859375</ele>
        <time>2020-11-02T11:21:48Z</time>
      </trkpt>
      <trkpt lat="40.61751174926758" lon="-4.157602787017822">
        <ele>1704.3492431640625</ele>
        <time>2020-11-02T11:21:51Z</time>
      </trkpt>
      <trkpt lat="40.617462158203125" lon="-4.157608509063721">
        <ele>1704.3492431640625</ele>
        <time>2020-11-02T11:21:53Z</time>
      </trkpt>
      <trkpt lat="40.617393493652344" lon="-4.15760612487793">
        <ele>1703.0765380859375</ele>
        <time>2020-11-02T11:21:56Z</time>
      </trkpt>
      <trkpt lat="40.61732482910156" lon="-4.157609939575195">
        <ele>1701.6219482421875</ele>
        <time>2020-11-02T11:21:59Z</time>
      </trkpt>
      <trkpt lat="40.617252349853516" lon="-4.157602787017822">
        <ele>1700.3492431640625</ele>
        <time>2020-11-02T11:22:02Z</time>
      </trkpt>
      <trkpt lat="40.617183685302734" lon="-4.157595634460449">
        <ele>1700.3492431640625</ele>
        <time>2020-11-02T11:22:05Z</time>
      </trkpt>
      <trkpt lat="40.61711502075195" lon="-4.157604217529297">
        <ele>1698.985595703125</ele>
        <time>2020-11-02T11:22:08Z</time>
      </trkpt>
      <trkpt lat="40.61705780029297" lon="-4.157644271850586">
        <ele>1697.531005859375</ele>
        <time>2020-11-02T11:22:11Z</time>
      </trkpt>
      <trkpt lat="40.617000579833984" lon="-4.157690525054932">
        <ele>1696.1673583984375</ele>
        <time>2020-11-02T11:22:14Z</time>
      </trkpt>
      <trkpt lat="40.61693572998047" lon="-4.157698154449463">
        <ele>1694.985595703125</ele>
        <time>2020-11-02T11:22:17Z</time>
      </trkpt>
      <trkpt lat="40.616859436035156" lon="-4.157683372497559">
        <ele>1693.8038330078125</ele>
        <time>2020-11-02T11:22:20Z</time>
      </trkpt>
      <trkpt lat="40.61678695678711" lon="-4.157672882080078">
        <ele>1693.8038330078125</ele>
        <time>2020-11-02T11:22:23Z</time>
      </trkpt>
      <trkpt lat="40.61671829223633" lon="-4.157649517059326">
        <ele>1692.6220703125</ele>
        <time>2020-11-02T11:22:26Z</time>
      </trkpt>
      <trkpt lat="40.61665725708008" lon="-4.1576337814331055">
        <ele>1691.962890625</ele>
        <time>2020-11-02T11:22:29Z</time>
      </trkpt>
      <trkpt lat="40.6165885925293" lon="-4.157608509063721">
        <ele>1690.7811279296875</ele>
        <time>2020-11-02T11:22:32Z</time>
      </trkpt>
      <trkpt lat="40.61652374267578" lon="-4.157584190368652">
        <ele>1689.5084228515625</ele>
        <time>2020-11-02T11:22:35Z</time>
      </trkpt>
      <trkpt lat="40.616458892822266" lon="-4.157581806182861">
        <ele>1689.5084228515625</ele>
        <time>2020-11-02T11:22:38Z</time>
      </trkpt>
      <trkpt lat="40.616390228271484" lon="-4.157591342926025">
        <ele>1689.5084228515625</ele>
        <time>2020-11-02T11:22:41Z</time>
      </trkpt>
      <trkpt lat="40.61631774902344" lon="-4.157602787017822">
        <ele>1689.5084228515625</ele>
        <time>2020-11-02T11:22:44Z</time>
      </trkpt>
      <trkpt lat="40.616249084472656" lon="-4.157590866088867">
        <ele>1689.5084228515625</ele>
        <time>2020-11-02T11:22:47Z</time>
      </trkpt>
      <trkpt lat="40.61618423461914" lon="-4.157546520233154">
        <ele>1688.32666015625</ele>
        <time>2020-11-02T11:22:50Z</time>
      </trkpt>
      <trkpt lat="40.616119384765625" lon="-4.157496929168701">
        <ele>1688.32666015625</ele>
        <time>2020-11-02T11:22:53Z</time>
      </trkpt>
      <trkpt lat="40.616058349609375" lon="-4.157455921173096">
        <ele>1688.32666015625</ele>
        <time>2020-11-02T11:22:56Z</time>
      </trkpt>
      <trkpt lat="40.61599349975586" lon="-4.1574201583862305">
        <ele>1687.1448974609375</ele>
        <time>2020-11-02T11:22:59Z</time>
      </trkpt>
      <trkpt lat="40.61593246459961" lon="-4.157418251037598">
        <ele>1687.1448974609375</ele>
        <time>2020-11-02T11:23:02Z</time>
      </trkpt>
      <trkpt lat="40.61585998535156" lon="-4.157454013824463">
        <ele>1685.8721923828125</ele>
        <time>2020-11-02T11:23:05Z</time>
      </trkpt>
      <trkpt lat="40.61581802368164" lon="-4.157497406005859">
        <ele>1685.8721923828125</ele>
        <time>2020-11-02T11:23:07Z</time>
      </trkpt>
      <trkpt lat="40.615779876708984" lon="-4.157553672790527">
        <ele>1685.8721923828125</ele>
        <time>2020-11-02T11:23:09Z</time>
      </trkpt>
      <trkpt lat="40.615745544433594" lon="-4.157609462738037">
        <ele>1685.8721923828125</ele>
        <time>2020-11-02T11:23:11Z</time>
      </trkpt>
      <trkpt lat="40.615699768066406" lon="-4.157663345336914">
        <ele>1685.8721923828125</ele>
        <time>2020-11-02T11:23:13Z</time>
      </trkpt>
      <trkpt lat="40.615657806396484" lon="-4.157711982727051">
        <ele>1685.8721923828125</ele>
        <time>2020-11-02T11:23:15Z</time>
      </trkpt>
      <trkpt lat="40.6156120300293" lon="-4.157764434814453">
        <ele>1684.5994873046875</ele>
        <time>2020-11-02T11:23:17Z</time>
      </trkpt>
      <trkpt lat="40.61556625366211" lon="-4.157815456390381">
        <ele>1684.5994873046875</ele>
        <time>2020-11-02T11:23:19Z</time>
      </trkpt>
      <trkpt lat="40.61552047729492" lon="-4.157865524291992">
        <ele>1684.5994873046875</ele>
        <time>2020-11-02T11:23:21Z</time>
      </trkpt>
      <trkpt lat="40.615478515625" lon="-4.157914638519287">
        <ele>1684.5994873046875</ele>
        <time>2020-11-02T11:23:23Z</time>
      </trkpt>
      <trkpt lat="40.61543655395508" lon="-4.157959461212158">
        <ele>1683.417724609375</ele>
        <time>2020-11-02T11:23:25Z</time>
      </trkpt>
      <trkpt lat="40.61539077758789" lon="-4.158003807067871">
        <ele>1683.417724609375</ele>
        <time>2020-11-02T11:23:27Z</time>
      </trkpt>
      <trkpt lat="40.6153450012207" lon="-4.158049583435059">
        <ele>1683.417724609375</ele>
        <time>2020-11-02T11:23:29Z</time>
      </trkpt>
      <trkpt lat="40.61529541015625" lon="-4.158092498779297">
        <ele>1683.417724609375</ele>
        <time>2020-11-02T11:23:31Z</time>
      </trkpt>
      <trkpt lat="40.61524200439453" lon="-4.158132553100586">
        <ele>1682.2359619140625</ele>
        <time>2020-11-02T11:23:33Z</time>
      </trkpt>
      <trkpt lat="40.61518859863281" lon="-4.158174514770508">
        <ele>1682.2359619140625</ele>
        <time>2020-11-02T11:23:35Z</time>
      </trkpt>
      <trkpt lat="40.615142822265625" lon="-4.158218860626221">
        <ele>1682.2359619140625</ele>
        <time>2020-11-02T11:23:37Z</time>
      </trkpt>
      <trkpt lat="40.61509323120117" lon="-4.158262252807617">
        <ele>1682.2359619140625</ele>
        <time>2020-11-02T11:23:39Z</time>
      </trkpt>
      <trkpt lat="40.615047454833984" lon="-4.158310890197754">
        <ele>1680.9632568359375</ele>
        <time>2020-11-02T11:23:41Z</time>
      </trkpt>
      <trkpt lat="40.61500549316406" lon="-4.158364295959473">
        <ele>1680.9632568359375</ele>
        <time>2020-11-02T11:23:43Z</time>
      </trkpt>
      <trkpt lat="40.614959716796875" lon="-4.15841817855835">
        <ele>1679.6905517578125</ele>
        <time>2020-11-02T11:23:45Z</time>
      </trkpt>
      <trkpt lat="40.61491394042969" lon="-4.158467769622803">
        <ele>1679.6905517578125</ele>
        <time>2020-11-02T11:23:47Z</time>
      </trkpt>
      <trkpt lat="40.6148681640625" lon="-4.158517360687256">
        <ele>1678.4178466796875</ele>
        <time>2020-11-02T11:23:49Z</time>
      </trkpt>
      <trkpt lat="40.614830017089844" lon="-4.158572196960449">
        <ele>1678.4178466796875</ele>
        <time>2020-11-02T11:23:51Z</time>
      </trkpt>
      <trkpt lat="40.61478805541992" lon="-4.158624172210693">
        <ele>1678.4178466796875</ele>
        <time>2020-11-02T11:23:53Z</time>
      </trkpt>
      <trkpt lat="40.61474609375" lon="-4.158674716949463">
        <ele>1678.4178466796875</ele>
        <time>2020-11-02T11:23:55Z</time>
      </trkpt>
      <trkpt lat="40.61470413208008" lon="-4.158721923828125">
        <ele>1678.4178466796875</ele>
        <time>2020-11-02T11:23:57Z</time>
      </trkpt>
      <trkpt lat="40.614654541015625" lon="-4.1587677001953125">
        <ele>1678.4178466796875</ele>
        <time>2020-11-02T11:23:59Z</time>
      </trkpt>
      <trkpt lat="40.6146125793457" lon="-4.158816814422607">
        <ele>1677.236083984375</ele>
        <time>2020-11-02T11:24:01Z</time>
      </trkpt>
      <trkpt lat="40.61457061767578" lon="-4.158865451812744">
        <ele>1677.236083984375</ele>
        <time>2020-11-02T11:24:03Z</time>
      </trkpt>
      <trkpt lat="40.614524841308594" lon="-4.158912181854248">
        <ele>1677.236083984375</ele>
        <time>2020-11-02T11:24:05Z</time>
      </trkpt>
      <trkpt lat="40.61448287963867" lon="-4.158958911895752">
        <ele>1675.96337890625</ele>
        <time>2020-11-02T11:24:07Z</time>
      </trkpt>
      <trkpt lat="40.61443328857422" lon="-4.15900182723999">
        <ele>1675.96337890625</ele>
        <time>2020-11-02T11:24:09Z</time>
      </trkpt>
      <trkpt lat="40.6143798828125" lon="-4.159036636352539">
        <ele>1675.96337890625</ele>
        <time>2020-11-02T11:24:11Z</time>
      </trkpt>
      <trkpt lat="40.61432647705078" lon="-4.159067153930664">
        <ele>1674.7816162109375</ele>
        <time>2020-11-02T11:24:13Z</time>
      </trkpt>
      <trkpt lat="40.61427307128906" lon="-4.159099102020264">
        <ele>1674.7816162109375</ele>
        <time>2020-11-02T11:24:15Z</time>
      </trkpt>
      <trkpt lat="40.614219665527344" lon="-4.159127235412598">
        <ele>1674.7816162109375</ele>
        <time>2020-11-02T11:24:17Z</time>
      </trkpt>
      <trkpt lat="40.61416244506836" lon="-4.159153461456299">
        <ele>1674.7816162109375</ele>
        <time>2020-11-02T11:24:19Z</time>
      </trkpt>
      <trkpt lat="40.614105224609375" lon="-4.159182548522949">
        <ele>1673.5089111328125</ele>
        <time>2020-11-02T11:24:21Z</time>
      </trkpt>
      <trkpt lat="40.614051818847656" lon="-4.15921688079834">
        <ele>1673.5089111328125</ele>
        <time>2020-11-02T11:24:23Z</time>
      </trkpt>
      <trkpt lat="40.6140022277832" lon="-4.159252166748047">
        <ele>1673.5089111328125</ele>
        <time>2020-11-02T11:24:25Z</time>
      </trkpt>
      <trkpt lat="40.61395263671875" lon="-4.159286022186279">
        <ele>1672.2362060546875</ele>
        <time>2020-11-02T11:24:27Z</time>
      </trkpt>
      <trkpt lat="40.6139030456543" lon="-4.1593217849731445">
        <ele>1672.2362060546875</ele>
        <time>2020-11-02T11:24:29Z</time>
      </trkpt>
      <trkpt lat="40.613853454589844" lon="-4.159360885620117">
        <ele>1672.2362060546875</ele>
        <time>2020-11-02T11:24:31Z</time>
      </trkpt>
      <trkpt lat="40.613807678222656" lon="-4.159396648406982">
        <ele>1671.054443359375</ele>
        <time>2020-11-02T11:24:33Z</time>
      </trkpt>
      <trkpt lat="40.61375427246094" lon="-4.159433364868164">
        <ele>1671.054443359375</ele>
        <time>2020-11-02T11:24:35Z</time>
      </trkpt>
      <trkpt lat="40.613704681396484" lon="-4.159471035003662">
        <ele>1671.054443359375</ele>
        <time>2020-11-02T11:24:37Z</time>
      </trkpt>
      <trkpt lat="40.613651275634766" lon="-4.159510135650635">
        <ele>1661.9517822265625</ele>
        <time>2020-11-02T11:24:39Z</time>
      </trkpt>
      <trkpt lat="40.61359786987305" lon="-4.159548282623291">
        <ele>1661.9517822265625</ele>
        <time>2020-11-02T11:24:41Z</time>
      </trkpt>
      <trkpt lat="40.613548278808594" lon="-4.159585475921631">
        <ele>1661.9517822265625</ele>
        <time>2020-11-02T11:24:43Z</time>
      </trkpt>
      <trkpt lat="40.613494873046875" lon="-4.159617900848389">
        <ele>1661.9517822265625</ele>
        <time>2020-11-02T11:24:45Z</time>
      </trkpt>
      <trkpt lat="40.61343765258789" lon="-4.159641742706299">
        <ele>1661.9517822265625</ele>
        <time>2020-11-02T11:24:47Z</time>
      </trkpt>
      <trkpt lat="40.61338424682617" lon="-4.159660816192627">
        <ele>1661.9517822265625</ele>
        <time>2020-11-02T11:24:49Z</time>
      </trkpt>
      <trkpt lat="40.61333084106445" lon="-4.159685134887695">
        <ele>1661.9517822265625</ele>
        <time>2020-11-02T11:24:51Z</time>
      </trkpt>
      <trkpt lat="40.61328125" lon="-4.159717559814453">
        <ele>1660.6790771484375</ele>
        <time>2020-11-02T11:24:53Z</time>
      </trkpt>
      <trkpt lat="40.61323547363281" lon="-4.1597490310668945">
        <ele>1660.6790771484375</ele>
        <time>2020-11-02T11:24:55Z</time>
      </trkpt>
      <trkpt lat="40.613189697265625" lon="-4.15977668762207">
        <ele>1660.6790771484375</ele>
        <time>2020-11-02T11:24:57Z</time>
      </trkpt>
      <trkpt lat="40.613136291503906" lon="-4.159802436828613">
        <ele>1660.6790771484375</ele>
        <time>2020-11-02T11:24:59Z</time>
      </trkpt>
      <trkpt lat="40.61307907104492" lon="-4.159834861755371">
        <ele>1660.6790771484375</ele>
        <time>2020-11-02T11:25:01Z</time>
      </trkpt>
      <trkpt lat="40.6130256652832" lon="-4.159873962402344">
        <ele>1659.497314453125</ele>
        <time>2020-11-02T11:25:03Z</time>
      </trkpt>
      <trkpt lat="40.61297607421875" lon="-4.159913539886475">
        <ele>1659.497314453125</ele>
        <time>2020-11-02T11:25:05Z</time>
      </trkpt>
      <trkpt lat="40.61293029785156" lon="-4.1599578857421875">
        <ele>1659.497314453125</ele>
        <time>2020-11-02T11:25:07Z</time>
      </trkpt>
      <trkpt lat="40.612876892089844" lon="-4.159998893737793">
        <ele>1659.497314453125</ele>
        <time>2020-11-02T11:25:09Z</time>
      </trkpt>
      <trkpt lat="40.61282730102539" lon="-4.160037040710449">
        <ele>1658.1336669921875</ele>
        <time>2020-11-02T11:25:11Z</time>
      </trkpt>
      <trkpt lat="40.6127815246582" lon="-4.160078525543213">
        <ele>1658.1336669921875</ele>
        <time>2020-11-02T11:25:13Z</time>
      </trkpt>
      <trkpt lat="40.612735748291016" lon="-4.160126209259033">
        <ele>1656.951904296875</ele>
        <time>2020-11-02T11:25:15Z</time>
      </trkpt>
      <trkpt lat="40.612693786621094" lon="-4.160179138183594">
        <ele>1656.951904296875</ele>
        <time>2020-11-02T11:25:17Z</time>
      </trkpt>
      <trkpt lat="40.61265182495117" lon="-4.160233020782471">
        <ele>1656.951904296875</ele>
        <time>2020-11-02T11:25:19Z</time>
      </trkpt>
      <trkpt lat="40.61260986328125" lon="-4.160283088684082">
        <ele>1656.951904296875</ele>
        <time>2020-11-02T11:25:21Z</time>
      </trkpt>
      <trkpt lat="40.61256790161133" lon="-4.160330772399902">
        <ele>1656.951904296875</ele>
        <time>2020-11-02T11:25:23Z</time>
      </trkpt>
      <trkpt lat="40.61252212524414" lon="-4.160379886627197">
        <ele>1656.951904296875</ele>
        <time>2020-11-02T11:25:25Z</time>
      </trkpt>
      <trkpt lat="40.61248016357422" lon="-4.16042947769165">
        <ele>1656.951904296875</ele>
        <time>2020-11-02T11:25:27Z</time>
      </trkpt>
      <trkpt lat="40.612430572509766" lon="-4.160481929779053">
        <ele>1656.951904296875</ele>
        <time>2020-11-02T11:25:29Z</time>
      </trkpt>
      <trkpt lat="40.61238479614258" lon="-4.160531997680664">
        <ele>1655.7701416015625</ele>
        <time>2020-11-02T11:25:31Z</time>
      </trkpt>
      <trkpt lat="40.61233901977539" lon="-4.160579681396484">
        <ele>1655.7701416015625</ele>
        <time>2020-11-02T11:25:33Z</time>
      </trkpt>
      <trkpt lat="40.61229705810547" lon="-4.160624027252197">
        <ele>1655.7701416015625</ele>
        <time>2020-11-02T11:25:35Z</time>
      </trkpt>
      <trkpt lat="40.61225128173828" lon="-4.1606669425964355">
        <ele>1654.4974365234375</ele>
        <time>2020-11-02T11:25:37Z</time>
      </trkpt>
      <trkpt lat="40.61219787597656" lon="-4.160705089569092">
        <ele>1654.4974365234375</ele>
        <time>2020-11-02T11:25:39Z</time>
      </trkpt>
      <trkpt lat="40.612144470214844" lon="-4.160739898681641">
        <ele>1654.4974365234375</ele>
        <time>2020-11-02T11:25:41Z</time>
      </trkpt>
      <trkpt lat="40.61208724975586" lon="-4.160775184631348">
        <ele>1654.4974365234375</ele>
        <time>2020-11-02T11:25:43Z</time>
      </trkpt>
      <trkpt lat="40.61202621459961" lon="-4.1608147621154785">
        <ele>1654.4974365234375</ele>
        <time>2020-11-02T11:25:45Z</time>
      </trkpt>
      <trkpt lat="40.61197280883789" lon="-4.160861015319824">
        <ele>1653.2247314453125</ele>
        <time>2020-11-02T11:25:47Z</time>
      </trkpt>
      <trkpt lat="40.61192321777344" lon="-4.160911560058594">
        <ele>1653.2247314453125</ele>
        <time>2020-11-02T11:25:49Z</time>
      </trkpt>
      <trkpt lat="40.61185073852539" lon="-4.16099214553833">
        <ele>1653.2247314453125</ele>
        <time>2020-11-02T11:25:52Z</time>
      </trkpt>
      <trkpt lat="40.6118049621582" lon="-4.161047458648682">
        <ele>1652.04296875</ele>
        <time>2020-11-02T11:25:54Z</time>
      </trkpt>
      <trkpt lat="40.61176681518555" lon="-4.161107540130615">
        <ele>1652.04296875</ele>
        <time>2020-11-02T11:25:56Z</time>
      </trkpt>
      <trkpt lat="40.611732482910156" lon="-4.161166191101074">
        <ele>1652.04296875</ele>
        <time>2020-11-02T11:25:58Z</time>
      </trkpt>
      <trkpt lat="40.61170196533203" lon="-4.161229610443115">
        <ele>1652.04296875</ele>
        <time>2020-11-02T11:26:00Z</time>
      </trkpt>
      <trkpt lat="40.61167526245117" lon="-4.1612958908081055">
        <ele>1650.8612060546875</ele>
        <time>2020-11-02T11:26:02Z</time>
      </trkpt>
      <trkpt lat="40.61164855957031" lon="-4.161362171173096">
        <ele>1650.8612060546875</ele>
        <time>2020-11-02T11:26:04Z</time>
      </trkpt>
      <trkpt lat="40.61162185668945" lon="-4.161428451538086">
        <ele>1650.8612060546875</ele>
        <time>2020-11-02T11:26:06Z</time>
      </trkpt>
      <trkpt lat="40.611595153808594" lon="-4.161494731903076">
        <ele>1650.8612060546875</ele>
        <time>2020-11-02T11:26:08Z</time>
      </trkpt>
      <trkpt lat="40.611568450927734" lon="-4.161560535430908">
        <ele>1650.8612060546875</ele>
        <time>2020-11-02T11:26:10Z</time>
      </trkpt>
      <trkpt lat="40.611549377441406" lon="-4.161626815795898">
        <ele>1650.8612060546875</ele>
        <time>2020-11-02T11:26:12Z</time>
      </trkpt>
      <trkpt lat="40.61153030395508" lon="-4.161693096160889">
        <ele>1650.8612060546875</ele>
        <time>2020-11-02T11:26:14Z</time>
      </trkpt>
      <trkpt lat="40.611515045166016" lon="-4.161762714385986">
        <ele>1649.679443359375</ele>
        <time>2020-11-02T11:26:16Z</time>
      </trkpt>
      <trkpt lat="40.61149978637695" lon="-4.161832809448242">
        <ele>1649.679443359375</ele>
        <time>2020-11-02T11:26:18Z</time>
      </trkpt>
      <trkpt lat="40.611480712890625" lon="-4.1619038581848145">
        <ele>1649.679443359375</ele>
        <time>2020-11-02T11:26:20Z</time>
      </trkpt>
      <trkpt lat="40.61145782470703" lon="-4.16197395324707">
        <ele>1649.679443359375</ele>
        <time>2020-11-02T11:26:22Z</time>
      </trkpt>
      <trkpt lat="40.61143112182617" lon="-4.162042140960693">
        <ele>1648.4976806640625</ele>
        <time>2020-11-02T11:26:24Z</time>
      </trkpt>
      <trkpt lat="40.61140441894531" lon="-4.162108898162842">
        <ele>1648.4976806640625</ele>
        <time>2020-11-02T11:26:26Z</time>
      </trkpt>
      <trkpt lat="40.61137771606445" lon="-4.162171363830566">
        <ele>1648.4976806640625</ele>
        <time>2020-11-02T11:26:28Z</time>
      </trkpt>
      <trkpt lat="40.61134338378906" lon="-4.162229537963867">
        <ele>1648.4976806640625</ele>
        <time>2020-11-02T11:26:30Z</time>
      </trkpt>
      <trkpt lat="40.611305236816406" lon="-4.162283897399902">
        <ele>1648.4976806640625</ele>
        <time>2020-11-02T11:26:32Z</time>
      </trkpt>
      <trkpt lat="40.611270904541016" lon="-4.16234016418457">
        <ele>1647.31591796875</ele>
        <time>2020-11-02T11:26:34Z</time>
      </trkpt>
      <trkpt lat="40.61123275756836" lon="-4.162399768829346">
        <ele>1647.31591796875</ele>
        <time>2020-11-02T11:26:36Z</time>
      </trkpt>
      <trkpt lat="40.611202239990234" lon="-4.16246223449707">
        <ele>1648.683349609375</ele>
        <time>2020-11-02T11:26:38Z</time>
      </trkpt>
      <trkpt lat="40.61117172241211" lon="-4.16252326965332">
        <ele>1647.5015869140625</ele>
        <time>2020-11-02T11:26:40Z</time>
      </trkpt>
      <trkpt lat="40.611141204833984" lon="-4.162583827972412">
        <ele>1647.5015869140625</ele>
        <time>2020-11-02T11:26:42Z</time>
      </trkpt>
      <trkpt lat="40.61111068725586" lon="-4.162648677825928">
        <ele>1647.5015869140625</ele>
        <time>2020-11-02T11:26:44Z</time>
      </trkpt>
      <trkpt lat="40.611080169677734" lon="-4.162711143493652">
        <ele>1647.5015869140625</ele>
        <time>2020-11-02T11:26:46Z</time>
      </trkpt>
      <trkpt lat="40.611053466796875" lon="-4.16277551651001">
        <ele>1647.5015869140625</ele>
        <time>2020-11-02T11:26:48Z</time>
      </trkpt>
      <trkpt lat="40.61102294921875" lon="-4.162838459014893">
        <ele>1647.5015869140625</ele>
        <time>2020-11-02T11:26:50Z</time>
      </trkpt>
      <trkpt lat="40.610992431640625" lon="-4.162899017333984">
        <ele>1647.5015869140625</ele>
        <time>2020-11-02T11:26:52Z</time>
      </trkpt>
      <trkpt lat="40.610965728759766" lon="-4.162960529327393">
        <ele>1647.5015869140625</ele>
        <time>2020-11-02T11:26:54Z</time>
      </trkpt>
      <trkpt lat="40.61094284057617" lon="-4.163023471832275">
        <ele>1647.5015869140625</ele>
        <time>2020-11-02T11:26:56Z</time>
      </trkpt>
      <trkpt lat="40.61091232299805" lon="-4.163120746612549">
        <ele>1647.5015869140625</ele>
        <time>2020-11-02T11:26:59Z</time>
      </trkpt>
      <trkpt lat="40.61088943481445" lon="-4.163187026977539">
        <ele>1646.31982421875</ele>
        <time>2020-11-02T11:27:01Z</time>
      </trkpt>
      <trkpt lat="40.610862731933594" lon="-4.163254737854004">
        <ele>1646.31982421875</ele>
        <time>2020-11-02T11:27:03Z</time>
      </trkpt>
      <trkpt lat="40.61083984375" lon="-4.163323879241943">
        <ele>1646.31982421875</ele>
        <time>2020-11-02T11:27:05Z</time>
      </trkpt>
      <trkpt lat="40.61082458496094" lon="-4.163392066955566">
        <ele>1646.31982421875</ele>
        <time>2020-11-02T11:27:07Z</time>
      </trkpt>
      <trkpt lat="40.610809326171875" lon="-4.163456439971924">
        <ele>1645.1380615234375</ele>
        <time>2020-11-02T11:27:09Z</time>
      </trkpt>
      <trkpt lat="40.61079406738281" lon="-4.163521766662598">
        <ele>1645.1380615234375</ele>
        <time>2020-11-02T11:27:11Z</time>
      </trkpt>
      <trkpt lat="40.61077880859375" lon="-4.163589000701904">
        <ele>1645.1380615234375</ele>
        <time>2020-11-02T11:27:13Z</time>
      </trkpt>
      <trkpt lat="40.61076354980469" lon="-4.16365385055542">
        <ele>1645.1380615234375</ele>
        <time>2020-11-02T11:27:15Z</time>
      </trkpt>
      <trkpt lat="40.61073684692383" lon="-4.163754463195801">
        <ele>1645.1380615234375</ele>
        <time>2020-11-02T11:27:18Z</time>
      </trkpt>
      <trkpt lat="40.610721588134766" lon="-4.16382360458374">
        <ele>1643.7744140625</ele>
        <time>2020-11-02T11:27:20Z</time>
      </trkpt>
      <trkpt lat="40.61071014404297" lon="-4.163896560668945">
        <ele>1643.7744140625</ele>
        <time>2020-11-02T11:27:22Z</time>
      </trkpt>
      <trkpt lat="40.610694885253906" lon="-4.163970947265625">
        <ele>1643.7744140625</ele>
        <time>2020-11-02T11:27:24Z</time>
      </trkpt>
      <trkpt lat="40.610679626464844" lon="-4.1640448570251465">
        <ele>1642.501708984375</ele>
        <time>2020-11-02T11:27:26Z</time>
      </trkpt>
      <trkpt lat="40.610660552978516" lon="-4.164117813110352">
        <ele>1642.501708984375</ele>
        <time>2020-11-02T11:27:28Z</time>
      </trkpt>
      <trkpt lat="40.61064529418945" lon="-4.164193153381348">
        <ele>1642.501708984375</ele>
        <time>2020-11-02T11:27:30Z</time>
      </trkpt>
      <trkpt lat="40.61063003540039" lon="-4.164270877838135">
        <ele>1642.501708984375</ele>
        <time>2020-11-02T11:27:32Z</time>
      </trkpt>
      <trkpt lat="40.61061477661133" lon="-4.164342880249023">
        <ele>1642.501708984375</ele>
        <time>2020-11-02T11:27:34Z</time>
      </trkpt>
      <trkpt lat="40.610591888427734" lon="-4.16441535949707">
        <ele>1642.501708984375</ele>
        <time>2020-11-02T11:27:36Z</time>
      </trkpt>
      <trkpt lat="40.61056137084961" lon="-4.16448450088501">
        <ele>1642.501708984375</ele>
        <time>2020-11-02T11:27:38Z</time>
      </trkpt>
      <trkpt lat="40.610530853271484" lon="-4.164551258087158">
        <ele>1642.501708984375</ele>
        <time>2020-11-02T11:27:40Z</time>
      </trkpt>
      <trkpt lat="40.61050033569336" lon="-4.164619445800781">
        <ele>1642.501708984375</ele>
        <time>2020-11-02T11:27:42Z</time>
      </trkpt>
      <trkpt lat="40.610469818115234" lon="-4.164687633514404">
        <ele>1642.501708984375</ele>
        <time>2020-11-02T11:27:44Z</time>
      </trkpt>
      <trkpt lat="40.610443115234375" lon="-4.164755344390869">
        <ele>1642.501708984375</ele>
        <time>2020-11-02T11:27:46Z</time>
      </trkpt>
      <trkpt lat="40.61041259765625" lon="-4.164820671081543">
        <ele>1641.3199462890625</ele>
        <time>2020-11-02T11:27:48Z</time>
      </trkpt>
      <trkpt lat="40.61038589477539" lon="-4.164886951446533">
        <ele>1641.3199462890625</ele>
        <time>2020-11-02T11:27:50Z</time>
      </trkpt>
      <trkpt lat="40.610355377197266" lon="-4.164949893951416">
        <ele>1639.68359375</ele>
        <time>2020-11-02T11:27:52Z</time>
      </trkpt>
      <trkpt lat="40.61032485961914" lon="-4.165012836456299">
        <ele>1639.68359375</ele>
        <time>2020-11-02T11:27:54Z</time>
      </trkpt>
      <trkpt lat="40.610294342041016" lon="-4.165079116821289">
        <ele>1638.3199462890625</ele>
        <time>2020-11-02T11:27:56Z</time>
      </trkpt>
      <trkpt lat="40.610260009765625" lon="-4.1651411056518555">
        <ele>1638.3199462890625</ele>
        <time>2020-11-02T11:27:58Z</time>
      </trkpt>
      <trkpt lat="40.61021423339844" lon="-4.165236473083496">
        <ele>1638.3199462890625</ele>
        <time>2020-11-02T11:28:01Z</time>
      </trkpt>
      <trkpt lat="40.61018753051758" lon="-4.165301322937012">
        <ele>1637.13818359375</ele>
        <time>2020-11-02T11:28:03Z</time>
      </trkpt>
      <trkpt lat="40.61015701293945" lon="-4.165367126464844">
        <ele>1637.13818359375</ele>
        <time>2020-11-02T11:28:05Z</time>
      </trkpt>
      <trkpt lat="40.61012649536133" lon="-4.165430545806885">
        <ele>1637.13818359375</ele>
        <time>2020-11-02T11:28:07Z</time>
      </trkpt>
      <trkpt lat="40.61009979248047" lon="-4.165493488311768">
        <ele>1637.13818359375</ele>
        <time>2020-11-02T11:28:09Z</time>
      </trkpt>
      <trkpt lat="40.610069274902344" lon="-4.165555477142334">
        <ele>1637.13818359375</ele>
        <time>2020-11-02T11:28:11Z</time>
      </trkpt>
      <trkpt lat="40.61003875732422" lon="-4.165616512298584">
        <ele>1637.13818359375</ele>
        <time>2020-11-02T11:28:13Z</time>
      </trkpt>
      <trkpt lat="40.610008239746094" lon="-4.165679454803467">
        <ele>1635.9564208984375</ele>
        <time>2020-11-02T11:28:15Z</time>
      </trkpt>
      <trkpt lat="40.609981536865234" lon="-4.165741443634033">
        <ele>1635.9564208984375</ele>
        <time>2020-11-02T11:28:17Z</time>
      </trkpt>
      <trkpt lat="40.60995101928711" lon="-4.165803909301758">
        <ele>1635.9564208984375</ele>
        <time>2020-11-02T11:28:19Z</time>
      </trkpt>
      <trkpt lat="40.60992431640625" lon="-4.165866374969482">
        <ele>1635.9564208984375</ele>
        <time>2020-11-02T11:28:21Z</time>
      </trkpt>
      <trkpt lat="40.609893798828125" lon="-4.165926456451416">
        <ele>1634.774658203125</ele>
        <time>2020-11-02T11:28:23Z</time>
      </trkpt>
      <trkpt lat="40.609859466552734" lon="-4.1660261154174805">
        <ele>1634.774658203125</ele>
        <time>2020-11-02T11:28:26Z</time>
      </trkpt>
      <trkpt lat="40.609840393066406" lon="-4.166091442108154">
        <ele>1634.774658203125</ele>
        <time>2020-11-02T11:28:28Z</time>
      </trkpt>
      <trkpt lat="40.60982131958008" lon="-4.166163921356201">
        <ele>1633.5928955078125</ele>
        <time>2020-11-02T11:28:30Z</time>
      </trkpt>
      <trkpt lat="40.60980224609375" lon="-4.166233539581299">
        <ele>1633.5928955078125</ele>
        <time>2020-11-02T11:28:32Z</time>
      </trkpt>
      <trkpt lat="40.60977554321289" lon="-4.166300296783447">
        <ele>1634.774658203125</ele>
        <time>2020-11-02T11:28:34Z</time>
      </trkpt>
      <trkpt lat="40.609745025634766" lon="-4.1663713455200195">
        <ele>1634.774658203125</ele>
        <time>2020-11-02T11:28:36Z</time>
      </trkpt>
      <trkpt lat="40.609718322753906" lon="-4.166441917419434">
        <ele>1631.8095703125</ele>
        <time>2020-11-02T11:28:38Z</time>
      </trkpt>
      <trkpt lat="40.60969161987305" lon="-4.166507720947266">
        <ele>1631.8095703125</ele>
        <time>2020-11-02T11:28:40Z</time>
      </trkpt>
      <trkpt lat="40.60965347290039" lon="-4.166595458984375">
        <ele>1631.8095703125</ele>
        <time>2020-11-02T11:28:43Z</time>
      </trkpt>
      <trkpt lat="40.60962677001953" lon="-4.166656494140625">
        <ele>1631.8095703125</ele>
        <time>2020-11-02T11:28:45Z</time>
      </trkpt>
      <trkpt lat="40.60960006713867" lon="-4.166718006134033">
        <ele>1630.536865234375</ele>
        <time>2020-11-02T11:28:47Z</time>
      </trkpt>
      <trkpt lat="40.60956954956055" lon="-4.166784763336182">
        <ele>1630.536865234375</ele>
        <time>2020-11-02T11:28:49Z</time>
      </trkpt>
      <trkpt lat="40.60953903198242" lon="-4.166853904724121">
        <ele>1629.1732177734375</ele>
        <time>2020-11-02T11:28:51Z</time>
      </trkpt>
      <trkpt lat="40.60951232910156" lon="-4.166923522949219">
        <ele>1629.1732177734375</ele>
        <time>2020-11-02T11:28:53Z</time>
      </trkpt>
      <trkpt lat="40.6094856262207" lon="-4.1669921875">
        <ele>1629.1732177734375</ele>
        <time>2020-11-02T11:28:55Z</time>
      </trkpt>
      <trkpt lat="40.60946273803711" lon="-4.167060375213623">
        <ele>1627.991455078125</ele>
        <time>2020-11-02T11:28:57Z</time>
      </trkpt>
      <trkpt lat="40.609439849853516" lon="-4.167131423950195">
        <ele>1627.991455078125</ele>
        <time>2020-11-02T11:28:59Z</time>
      </trkpt>
      <trkpt lat="40.60942077636719" lon="-4.167203903198242">
        <ele>1627.991455078125</ele>
        <time>2020-11-02T11:29:01Z</time>
      </trkpt>
      <trkpt lat="40.60940170288086" lon="-4.167276859283447">
        <ele>1626.8096923828125</ele>
        <time>2020-11-02T11:29:03Z</time>
      </trkpt>
      <trkpt lat="40.6093864440918" lon="-4.167352199554443">
        <ele>1626.8096923828125</ele>
        <time>2020-11-02T11:29:05Z</time>
      </trkpt>
      <trkpt lat="40.609371185302734" lon="-4.167427062988281">
        <ele>1625.5369873046875</ele>
        <time>2020-11-02T11:29:07Z</time>
      </trkpt>
      <trkpt lat="40.60935592651367" lon="-4.167502403259277">
        <ele>1625.5369873046875</ele>
        <time>2020-11-02T11:29:09Z</time>
      </trkpt>
      <trkpt lat="40.609344482421875" lon="-4.1675801277160645">
        <ele>1625.5369873046875</ele>
        <time>2020-11-02T11:29:11Z</time>
      </trkpt>
      <trkpt lat="40.60934066772461" lon="-4.167656421661377">
        <ele>1624.17333984375</ele>
        <time>2020-11-02T11:29:13Z</time>
      </trkpt>
      <trkpt lat="40.609344482421875" lon="-4.167729377746582">
        <ele>1624.17333984375</ele>
        <time>2020-11-02T11:29:15Z</time>
      </trkpt>
      <trkpt lat="40.609352111816406" lon="-4.167806148529053">
        <ele>1624.17333984375</ele>
        <time>2020-11-02T11:29:17Z</time>
      </trkpt>
      <trkpt lat="40.60935974121094" lon="-4.167885780334473">
        <ele>1622.900634765625</ele>
        <time>2020-11-02T11:29:19Z</time>
      </trkpt>
      <trkpt lat="40.60935974121094" lon="-4.167965888977051">
        <ele>1622.900634765625</ele>
        <time>2020-11-02T11:29:21Z</time>
      </trkpt>
      <trkpt lat="40.60935974121094" lon="-4.1680450439453125">
        <ele>1622.900634765625</ele>
        <time>2020-11-02T11:29:23Z</time>
      </trkpt>
      <trkpt lat="40.60935974121094" lon="-4.168121337890625">
        <ele>1621.7188720703125</ele>
        <time>2020-11-02T11:29:25Z</time>
      </trkpt>
      <trkpt lat="40.60935974121094" lon="-4.168193817138672">
        <ele>1621.7188720703125</ele>
        <time>2020-11-02T11:29:27Z</time>
      </trkpt>
      <trkpt lat="40.60935592651367" lon="-4.1682658195495605">
        <ele>1621.7188720703125</ele>
        <time>2020-11-02T11:29:29Z</time>
      </trkpt>
      <trkpt lat="40.60935592651367" lon="-4.168337821960449">
        <ele>1620.355224609375</ele>
        <time>2020-11-02T11:29:31Z</time>
      </trkpt>
      <trkpt lat="40.60935592651367" lon="-4.168406963348389">
        <ele>1620.355224609375</ele>
        <time>2020-11-02T11:29:33Z</time>
      </trkpt>
      <trkpt lat="40.609352111816406" lon="-4.168478965759277">
        <ele>1619.1734619140625</ele>
        <time>2020-11-02T11:29:35Z</time>
      </trkpt>
      <trkpt lat="40.60934829711914" lon="-4.168557167053223">
        <ele>1619.1734619140625</ele>
        <time>2020-11-02T11:29:37Z</time>
      </trkpt>
      <trkpt lat="40.609344482421875" lon="-4.168636798858643">
        <ele>1619.1734619140625</ele>
        <time>2020-11-02T11:29:39Z</time>
      </trkpt>
      <trkpt lat="40.609344482421875" lon="-4.168717384338379">
        <ele>1617.809814453125</ele>
        <time>2020-11-02T11:29:41Z</time>
      </trkpt>
      <trkpt lat="40.609336853027344" lon="-4.168797492980957">
        <ele>1617.809814453125</ele>
        <time>2020-11-02T11:29:43Z</time>
      </trkpt>
      <trkpt lat="40.60932922363281" lon="-4.168875694274902">
        <ele>1617.809814453125</ele>
        <time>2020-11-02T11:29:45Z</time>
      </trkpt>
      <trkpt lat="40.60932922363281" lon="-4.168951034545898">
        <ele>1616.6280517578125</ele>
        <time>2020-11-02T11:29:47Z</time>
      </trkpt>
      <trkpt lat="40.60932922363281" lon="-4.169029712677002">
        <ele>1616.6280517578125</ele>
        <time>2020-11-02T11:29:49Z</time>
      </trkpt>
      <trkpt lat="40.60932922363281" lon="-4.169107437133789">
        <ele>1616.6280517578125</ele>
        <time>2020-11-02T11:29:51Z</time>
      </trkpt>
      <trkpt lat="40.60932922363281" lon="-4.169185161590576">
        <ele>1615.3553466796875</ele>
        <time>2020-11-02T11:29:53Z</time>
      </trkpt>
      <trkpt lat="40.60932540893555" lon="-4.1692705154418945">
        <ele>1615.3553466796875</ele>
        <time>2020-11-02T11:29:55Z</time>
      </trkpt>
      <trkpt lat="40.60932540893555" lon="-4.169349670410156">
        <ele>1613.99169921875</ele>
        <time>2020-11-02T11:29:57Z</time>
      </trkpt>
      <trkpt lat="40.60932159423828" lon="-4.169424533843994">
        <ele>1613.99169921875</ele>
        <time>2020-11-02T11:29:59Z</time>
      </trkpt>
      <trkpt lat="40.609310150146484" lon="-4.169498443603516">
        <ele>1613.99169921875</ele>
        <time>2020-11-02T11:30:01Z</time>
      </trkpt>
      <trkpt lat="40.60930252075195" lon="-4.169569492340088">
        <ele>1612.718994140625</ele>
        <time>2020-11-02T11:30:03Z</time>
      </trkpt>
      <trkpt lat="40.60929870605469" lon="-4.169642448425293">
        <ele>1612.718994140625</ele>
        <time>2020-11-02T11:30:05Z</time>
      </trkpt>
      <trkpt lat="40.60929489135742" lon="-4.169715881347656">
        <ele>1612.718994140625</ele>
        <time>2020-11-02T11:30:07Z</time>
      </trkpt>
      <trkpt lat="40.609291076660156" lon="-4.169789791107178">
        <ele>1611.5372314453125</ele>
        <time>2020-11-02T11:30:09Z</time>
      </trkpt>
      <trkpt lat="40.60928726196289" lon="-4.16986608505249">
        <ele>1611.5372314453125</ele>
        <time>2020-11-02T11:30:11Z</time>
      </trkpt>
      <trkpt lat="40.609283447265625" lon="-4.169943332672119">
        <ele>1611.5372314453125</ele>
        <time>2020-11-02T11:30:13Z</time>
      </trkpt>
      <trkpt lat="40.60927963256836" lon="-4.170018196105957">
        <ele>1610.173583984375</ele>
        <time>2020-11-02T11:30:15Z</time>
      </trkpt>
      <trkpt lat="40.60927963256836" lon="-4.170091152191162">
        <ele>1610.173583984375</ele>
        <time>2020-11-02T11:30:17Z</time>
      </trkpt>
      <trkpt lat="40.60927963256836" lon="-4.170165538787842">
        <ele>1610.173583984375</ele>
        <time>2020-11-02T11:30:19Z</time>
      </trkpt>
      <trkpt lat="40.609283447265625" lon="-4.170242786407471">
        <ele>1608.9918212890625</ele>
        <time>2020-11-02T11:30:21Z</time>
      </trkpt>
      <trkpt lat="40.609291076660156" lon="-4.170319557189941">
        <ele>1608.9918212890625</ele>
        <time>2020-11-02T11:30:23Z</time>
      </trkpt>
      <trkpt lat="40.60929870605469" lon="-4.170399188995361">
        <ele>1607.81005859375</ele>
        <time>2020-11-02T11:30:25Z</time>
      </trkpt>
      <trkpt lat="40.60930252075195" lon="-4.170482158660889">
        <ele>1607.81005859375</ele>
        <time>2020-11-02T11:30:27Z</time>
      </trkpt>
      <trkpt lat="40.609310150146484" lon="-4.1705641746521">
        <ele>1607.81005859375</ele>
        <time>2020-11-02T11:30:29Z</time>
      </trkpt>
      <trkpt lat="40.609317779541016" lon="-4.170644283294678">
        <ele>1607.81005859375</ele>
        <time>2020-11-02T11:30:31Z</time>
      </trkpt>
      <trkpt lat="40.60932540893555" lon="-4.1707234382629395">
        <ele>1606.6282958984375</ele>
        <time>2020-11-02T11:30:33Z</time>
      </trkpt>
      <trkpt lat="40.60933303833008" lon="-4.170803070068359">
        <ele>1606.6282958984375</ele>
        <time>2020-11-02T11:30:35Z</time>
      </trkpt>
      <trkpt lat="40.60934829711914" lon="-4.170880317687988">
        <ele>1606.6282958984375</ele>
        <time>2020-11-02T11:30:37Z</time>
      </trkpt>
      <trkpt lat="40.6093635559082" lon="-4.170959949493408">
        <ele>1608.09619140625</ele>
        <time>2020-11-02T11:30:39Z</time>
      </trkpt>
      <trkpt lat="40.609375" lon="-4.171040058135986">
        <ele>1608.09619140625</ele>
        <time>2020-11-02T11:30:41Z</time>
      </trkpt>
      <trkpt lat="40.6093864440918" lon="-4.171117782592773">
        <ele>1608.09619140625</ele>
        <time>2020-11-02T11:30:43Z</time>
      </trkpt>
      <trkpt lat="40.60939407348633" lon="-4.171197414398193">
        <ele>1606.9144287109375</ele>
        <time>2020-11-02T11:30:45Z</time>
      </trkpt>
      <trkpt lat="40.60940933227539" lon="-4.171274662017822">
        <ele>1606.9144287109375</ele>
        <time>2020-11-02T11:30:47Z</time>
      </trkpt>
      <trkpt lat="40.60942840576172" lon="-4.171351432800293">
        <ele>1606.9144287109375</ele>
        <time>2020-11-02T11:30:49Z</time>
      </trkpt>
      <trkpt lat="40.60945129394531" lon="-4.171424865722656">
        <ele>1605.55078125</ele>
        <time>2020-11-02T11:30:51Z</time>
      </trkpt>
      <trkpt lat="40.609474182128906" lon="-4.1714959144592285">
        <ele>1605.55078125</ele>
        <time>2020-11-02T11:30:53Z</time>
      </trkpt>
      <trkpt lat="40.60950469970703" lon="-4.171567440032959">
        <ele>1605.55078125</ele>
        <time>2020-11-02T11:30:55Z</time>
      </trkpt>
      <trkpt lat="40.60953903198242" lon="-4.171635627746582">
        <ele>1604.3690185546875</ele>
        <time>2020-11-02T11:30:57Z</time>
      </trkpt>
      <trkpt lat="40.60956954956055" lon="-4.171703815460205">
        <ele>1604.3690185546875</ele>
        <time>2020-11-02T11:30:59Z</time>
      </trkpt>
      <trkpt lat="40.60960006713867" lon="-4.171772480010986">
        <ele>1604.3690185546875</ele>
        <time>2020-11-02T11:31:01Z</time>
      </trkpt>
      <trkpt lat="40.60962677001953" lon="-4.171838760375977">
        <ele>1604.3690185546875</ele>
        <time>2020-11-02T11:31:03Z</time>
      </trkpt>
      <trkpt lat="40.60965347290039" lon="-4.171904563903809">
        <ele>1604.3690185546875</ele>
        <time>2020-11-02T11:31:05Z</time>
      </trkpt>
      <trkpt lat="40.60969543457031" lon="-4.171997547149658">
        <ele>1603.187255859375</ele>
        <time>2020-11-02T11:31:08Z</time>
      </trkpt>
      <trkpt lat="40.60972213745117" lon="-4.172058582305908">
        <ele>1601.8236083984375</ele>
        <time>2020-11-02T11:31:10Z</time>
      </trkpt>
      <trkpt lat="40.60976028442383" lon="-4.172115802764893">
        <ele>1601.8236083984375</ele>
        <time>2020-11-02T11:31:12Z</time>
      </trkpt>
      <trkpt lat="40.60982131958008" lon="-4.1721978187561035">
        <ele>1600.4599609375</ele>
        <time>2020-11-02T11:31:15Z</time>
      </trkpt>
      <trkpt lat="40.609867095947266" lon="-4.172238826751709">
        <ele>1600.4599609375</ele>
        <time>2020-11-02T11:31:17Z</time>
      </trkpt>
      <trkpt lat="40.609920501708984" lon="-4.172272682189941">
        <ele>1600.4599609375</ele>
        <time>2020-11-02T11:31:19Z</time>
      </trkpt>
      <trkpt lat="40.60997009277344" lon="-4.172299861907959">
        <ele>1600.4599609375</ele>
        <time>2020-11-02T11:31:21Z</time>
      </trkpt>
      <trkpt lat="40.610015869140625" lon="-4.172328948974609">
        <ele>1600.4599609375</ele>
        <time>2020-11-02T11:31:23Z</time>
      </trkpt>
      <trkpt lat="40.610050201416016" lon="-4.172367095947266">
        <ele>1600.4599609375</ele>
        <time>2020-11-02T11:31:25Z</time>
      </trkpt>
      <trkpt lat="40.61005783081055" lon="-4.17242956161499">
        <ele>1600.4599609375</ele>
        <time>2020-11-02T11:31:28Z</time>
      </trkpt>
      <trkpt lat="40.610042572021484" lon="-4.172521114349365">
        <ele>1599.2781982421875</ele>
        <time>2020-11-02T11:31:32Z</time>
      </trkpt>
      <trkpt lat="40.61003875732422" lon="-4.172581195831299">
        <ele>1599.2781982421875</ele>
        <time>2020-11-02T11:31:35Z</time>
      </trkpt>
      <trkpt lat="40.61003112792969" lon="-4.1726531982421875">
        <ele>1599.2781982421875</ele>
        <time>2020-11-02T11:31:39Z</time>
      </trkpt>
      <trkpt lat="40.61000061035156" lon="-4.1727166175842285">
        <ele>1599.2781982421875</ele>
        <time>2020-11-02T11:31:42Z</time>
      </trkpt>
      <trkpt lat="40.60967254638672" lon="-4.172863483428955">
        <ele>1599.2781982421875</ele>
        <time>2020-11-02T11:32:41Z</time>
      </trkpt>
      <trkpt lat="40.60956954956055" lon="-4.172879219055176">
        <ele>1599.2781982421875</ele>
        <time>2020-11-02T11:32:46Z</time>
      </trkpt>
      <trkpt lat="40.60951614379883" lon="-4.1728925704956055">
        <ele>1599.2781982421875</ele>
        <time>2020-11-02T11:32:48Z</time>
      </trkpt>
      <trkpt lat="40.609466552734375" lon="-4.172906875610352">
        <ele>1599.2781982421875</ele>
        <time>2020-11-02T11:32:50Z</time>
      </trkpt>
      <trkpt lat="40.609413146972656" lon="-4.172922611236572">
        <ele>1599.2781982421875</ele>
        <time>2020-11-02T11:32:52Z</time>
      </trkpt>
      <trkpt lat="40.60935974121094" lon="-4.172938346862793">
        <ele>1598.096435546875</ele>
        <time>2020-11-02T11:32:54Z</time>
      </trkpt>
      <trkpt lat="40.60930633544922" lon="-4.172951698303223">
        <ele>1598.096435546875</ele>
        <time>2020-11-02T11:32:56Z</time>
      </trkpt>
      <trkpt lat="40.609256744384766" lon="-4.1729631423950195">
        <ele>1598.096435546875</ele>
        <time>2020-11-02T11:32:58Z</time>
      </trkpt>
      <trkpt lat="40.60917663574219" lon="-4.172980308532715">
        <ele>1596.82373046875</ele>
        <time>2020-11-02T11:33:01Z</time>
      </trkpt>
      <trkpt lat="40.60912322998047" lon="-4.172988414764404">
        <ele>1596.82373046875</ele>
        <time>2020-11-02T11:33:03Z</time>
      </trkpt>
      <trkpt lat="40.609066009521484" lon="-4.172995567321777">
        <ele>1596.82373046875</ele>
        <time>2020-11-02T11:33:05Z</time>
      </trkpt>
      <trkpt lat="40.609012603759766" lon="-4.173000335693359">
        <ele>1595.4600830078125</ele>
        <time>2020-11-02T11:33:07Z</time>
      </trkpt>
      <trkpt lat="40.60895919799805" lon="-4.172999858856201">
        <ele>1595.4600830078125</ele>
        <time>2020-11-02T11:33:09Z</time>
      </trkpt>
      <trkpt lat="40.60890579223633" lon="-4.172994136810303">
        <ele>1594.2783203125</ele>
        <time>2020-11-02T11:33:11Z</time>
      </trkpt>
      <trkpt lat="40.60885238647461" lon="-4.172985076904297">
        <ele>1594.2783203125</ele>
        <time>2020-11-02T11:33:13Z</time>
      </trkpt>
      <trkpt lat="40.60879898071289" lon="-4.172972202301025">
        <ele>1594.2783203125</ele>
        <time>2020-11-02T11:33:15Z</time>
      </trkpt>
      <trkpt lat="40.608741760253906" lon="-4.172951698303223">
        <ele>1592.9146728515625</ele>
        <time>2020-11-02T11:33:17Z</time>
      </trkpt>
      <trkpt lat="40.60868835449219" lon="-4.1729254722595215">
        <ele>1592.9146728515625</ele>
        <time>2020-11-02T11:33:19Z</time>
      </trkpt>
      <trkpt lat="40.60863494873047" lon="-4.172896862030029">
        <ele>1591.551025390625</ele>
        <time>2020-11-02T11:33:21Z</time>
      </trkpt>
      <trkpt lat="40.60858154296875" lon="-4.172868728637695">
        <ele>1590.1873779296875</ele>
        <time>2020-11-02T11:33:23Z</time>
      </trkpt>
      <trkpt lat="40.6085319519043" lon="-4.172837257385254">
        <ele>1590.1873779296875</ele>
        <time>2020-11-02T11:33:25Z</time>
      </trkpt>
      <trkpt lat="40.608482360839844" lon="-4.172806739807129">
        <ele>1589.005615234375</ele>
        <time>2020-11-02T11:33:27Z</time>
      </trkpt>
      <trkpt lat="40.60843276977539" lon="-4.1727728843688965">
        <ele>1589.005615234375</ele>
        <time>2020-11-02T11:33:29Z</time>
      </trkpt>
      <trkpt lat="40.608367919921875" lon="-4.172719478607178">
        <ele>1589.005615234375</ele>
        <time>2020-11-02T11:33:32Z</time>
      </trkpt>
      <trkpt lat="40.60832214355469" lon="-4.172679901123047">
        <ele>1589.005615234375</ele>
        <time>2020-11-02T11:33:34Z</time>
      </trkpt>
      <trkpt lat="40.6082763671875" lon="-4.172637462615967">
        <ele>1589.005615234375</ele>
        <time>2020-11-02T11:33:36Z</time>
      </trkpt>
      <trkpt lat="40.60822677612305" lon="-4.172596454620361">
        <ele>1587.8238525390625</ele>
        <time>2020-11-02T11:33:38Z</time>
      </trkpt>
      <trkpt lat="40.60818099975586" lon="-4.172553539276123">
        <ele>1587.8238525390625</ele>
        <time>2020-11-02T11:33:40Z</time>
      </trkpt>
      <trkpt lat="40.60813522338867" lon="-4.172510147094727">
        <ele>1586.5511474609375</ele>
        <time>2020-11-02T11:33:42Z</time>
      </trkpt>
      <trkpt lat="40.60808563232422" lon="-4.17246150970459">
        <ele>1586.5511474609375</ele>
        <time>2020-11-02T11:33:44Z</time>
      </trkpt>
      <trkpt lat="40.60803985595703" lon="-4.172413349151611">
        <ele>1586.5511474609375</ele>
        <time>2020-11-02T11:33:46Z</time>
      </trkpt>
      <trkpt lat="40.607994079589844" lon="-4.172369480133057">
        <ele>1585.1875</ele>
        <time>2020-11-02T11:33:48Z</time>
      </trkpt>
      <trkpt lat="40.607948303222656" lon="-4.1723198890686035">
        <ele>1585.1875</ele>
        <time>2020-11-02T11:33:50Z</time>
      </trkpt>
      <trkpt lat="40.607906341552734" lon="-4.172268867492676">
        <ele>1584.0057373046875</ele>
        <time>2020-11-02T11:33:52Z</time>
      </trkpt>
      <trkpt lat="40.60786437988281" lon="-4.1722211837768555">
        <ele>1584.0057373046875</ele>
        <time>2020-11-02T11:33:54Z</time>
      </trkpt>
      <trkpt lat="40.60782241821289" lon="-4.172175407409668">
        <ele>1582.823974609375</ele>
        <time>2020-11-02T11:33:56Z</time>
      </trkpt>
      <trkpt lat="40.60778045654297" lon="-4.172131538391113">
        <ele>1582.823974609375</ele>
        <time>2020-11-02T11:33:58Z</time>
      </trkpt>
      <trkpt lat="40.60773849487305" lon="-4.17209529876709">
        <ele>1581.6422119140625</ele>
        <time>2020-11-02T11:34:00Z</time>
      </trkpt>
      <trkpt lat="40.607669830322266" lon="-4.1720452308654785">
        <ele>1581.6422119140625</ele>
        <time>2020-11-02T11:34:03Z</time>
      </trkpt>
      <trkpt lat="40.60762023925781" lon="-4.172016620635986">
        <ele>1580.46044921875</ele>
        <time>2020-11-02T11:34:05Z</time>
      </trkpt>
      <trkpt lat="40.607566833496094" lon="-4.171990871429443">
        <ele>1580.46044921875</ele>
        <time>2020-11-02T11:34:07Z</time>
      </trkpt>
      <trkpt lat="40.607521057128906" lon="-4.171970844268799">
        <ele>1579.187744140625</ele>
        <time>2020-11-02T11:34:09Z</time>
      </trkpt>
      <trkpt lat="40.60746765136719" lon="-4.171957969665527">
        <ele>1579.187744140625</ele>
        <time>2020-11-02T11:34:11Z</time>
      </trkpt>
      <trkpt lat="40.60741424560547" lon="-4.171957492828369">
        <ele>1579.187744140625</ele>
        <time>2020-11-02T11:34:13Z</time>
      </trkpt>
      <trkpt lat="40.60736083984375" lon="-4.171966075897217">
        <ele>1579.187744140625</ele>
        <time>2020-11-02T11:34:15Z</time>
      </trkpt>
      <trkpt lat="40.607303619384766" lon="-4.171975135803223">
        <ele>1579.187744140625</ele>
        <time>2020-11-02T11:34:17Z</time>
      </trkpt>
      <trkpt lat="40.60724639892578" lon="-4.171988487243652">
        <ele>1579.187744140625</ele>
        <time>2020-11-02T11:34:19Z</time>
      </trkpt>
      <trkpt lat="40.6071891784668" lon="-4.1720051765441895">
        <ele>1564.6737060546875</ele>
        <time>2020-11-02T11:34:21Z</time>
      </trkpt>
      <trkpt lat="40.60713577270508" lon="-4.172025203704834">
        <ele>1563.491943359375</ele>
        <time>2020-11-02T11:34:23Z</time>
      </trkpt>
      <trkpt lat="40.607078552246094" lon="-4.172048091888428">
        <ele>1563.491943359375</ele>
        <time>2020-11-02T11:34:25Z</time>
      </trkpt>
      <trkpt lat="40.607025146484375" lon="-4.172069072723389">
        <ele>1563.491943359375</ele>
        <time>2020-11-02T11:34:27Z</time>
      </trkpt>
      <trkpt lat="40.60696792602539" lon="-4.172085285186768">
        <ele>1562.21923828125</ele>
        <time>2020-11-02T11:34:29Z</time>
      </trkpt>
      <trkpt lat="40.606910705566406" lon="-4.172098636627197">
        <ele>1562.21923828125</ele>
        <time>2020-11-02T11:34:31Z</time>
      </trkpt>
      <trkpt lat="40.60685729980469" lon="-4.172110080718994">
        <ele>1560.7646484375</ele>
        <time>2020-11-02T11:34:33Z</time>
      </trkpt>
      <trkpt lat="40.60680389404297" lon="-4.172121524810791">
        <ele>1559.491943359375</ele>
        <time>2020-11-02T11:34:35Z</time>
      </trkpt>
      <trkpt lat="40.606746673583984" lon="-4.172133445739746">
        <ele>1559.491943359375</ele>
        <time>2020-11-02T11:34:37Z</time>
      </trkpt>
      <trkpt lat="40.606693267822266" lon="-4.172146797180176">
        <ele>1558.21923828125</ele>
        <time>2020-11-02T11:34:39Z</time>
      </trkpt>
      <trkpt lat="40.60664367675781" lon="-4.1721577644348145">
        <ele>1558.21923828125</ele>
        <time>2020-11-02T11:34:41Z</time>
      </trkpt>
      <trkpt lat="40.606590270996094" lon="-4.172165393829346">
        <ele>1556.946533203125</ele>
        <time>2020-11-02T11:34:43Z</time>
      </trkpt>
      <trkpt lat="40.606536865234375" lon="-4.172169208526611">
        <ele>1556.946533203125</ele>
        <time>2020-11-02T11:34:45Z</time>
      </trkpt>
      <trkpt lat="40.606483459472656" lon="-4.172172546386719">
        <ele>1555.7647705078125</ele>
        <time>2020-11-02T11:34:47Z</time>
      </trkpt>
      <trkpt lat="40.60643005371094" lon="-4.17217493057251">
        <ele>1555.7647705078125</ele>
        <time>2020-11-02T11:34:49Z</time>
      </trkpt>
      <trkpt lat="40.606380462646484" lon="-4.172176837921143">
        <ele>1555.7647705078125</ele>
        <time>2020-11-02T11:34:51Z</time>
      </trkpt>
      <trkpt lat="40.60629653930664" lon="-4.172179698944092">
        <ele>1555.7647705078125</ele>
        <time>2020-11-02T11:34:54Z</time>
      </trkpt>
      <trkpt lat="40.60622024536133" lon="-4.172182559967041">
        <ele>1555.7647705078125</ele>
        <time>2020-11-02T11:34:57Z</time>
      </trkpt>
      <trkpt lat="40.606170654296875" lon="-4.172175407409668">
        <ele>1555.7647705078125</ele>
        <time>2020-11-02T11:34:59Z</time>
      </trkpt>
      <trkpt lat="40.606117248535156" lon="-4.172163009643555">
        <ele>1555.7647705078125</ele>
        <time>2020-11-02T11:35:01Z</time>
      </trkpt>
      <trkpt lat="40.60606384277344" lon="-4.172156810760498">
        <ele>1555.7647705078125</ele>
        <time>2020-11-02T11:35:03Z</time>
      </trkpt>
      <trkpt lat="40.60598373413086" lon="-4.172164440155029">
        <ele>1555.7647705078125</ele>
        <time>2020-11-02T11:35:06Z</time>
      </trkpt>
      <trkpt lat="40.605926513671875" lon="-4.172184467315674">
        <ele>1555.7647705078125</ele>
        <time>2020-11-02T11:35:08Z</time>
      </trkpt>
      <trkpt lat="40.605873107910156" lon="-4.172213077545166">
        <ele>1555.7647705078125</ele>
        <time>2020-11-02T11:35:10Z</time>
      </trkpt>
      <trkpt lat="40.60582733154297" lon="-4.172251224517822">
        <ele>1555.7647705078125</ele>
        <time>2020-11-02T11:35:12Z</time>
      </trkpt>
      <trkpt lat="40.60578918457031" lon="-4.17230224609375">
        <ele>1555.7647705078125</ele>
        <time>2020-11-02T11:35:14Z</time>
      </trkpt>
      <trkpt lat="40.60575485229492" lon="-4.172395706176758">
        <ele>1554.5830078125</ele>
        <time>2020-11-02T11:35:17Z</time>
      </trkpt>
      <trkpt lat="40.605735778808594" lon="-4.172461986541748">
        <ele>1554.5830078125</ele>
        <time>2020-11-02T11:35:19Z</time>
      </trkpt>
      <trkpt lat="40.605716705322266" lon="-4.172529697418213">
        <ele>1554.5830078125</ele>
        <time>2020-11-02T11:35:21Z</time>
      </trkpt>
      <trkpt lat="40.6057014465332" lon="-4.172602653503418">
        <ele>1554.5830078125</ele>
        <time>2020-11-02T11:35:23Z</time>
      </trkpt>
      <trkpt lat="40.60568618774414" lon="-4.1726765632629395">
        <ele>1553.310302734375</ele>
        <time>2020-11-02T11:35:25Z</time>
      </trkpt>
      <trkpt lat="40.60567092895508" lon="-4.172748565673828">
        <ele>1553.310302734375</ele>
        <time>2020-11-02T11:35:27Z</time>
      </trkpt>
      <trkpt lat="40.605648040771484" lon="-4.172820568084717">
        <ele>1553.310302734375</ele>
        <time>2020-11-02T11:35:29Z</time>
      </trkpt>
      <trkpt lat="40.605621337890625" lon="-4.172889232635498">
        <ele>1551.9466552734375</ele>
        <time>2020-11-02T11:35:31Z</time>
      </trkpt>
      <trkpt lat="40.60559844970703" lon="-4.172959327697754">
        <ele>1551.9466552734375</ele>
        <time>2020-11-02T11:35:33Z</time>
      </trkpt>
      <trkpt lat="40.605567932128906" lon="-4.173025131225586">
        <ele>1551.9466552734375</ele>
        <time>2020-11-02T11:35:35Z</time>
      </trkpt>
      <trkpt lat="40.605533599853516" lon="-4.173086166381836">
        <ele>1551.9466552734375</ele>
        <time>2020-11-02T11:35:37Z</time>
      </trkpt>
      <trkpt lat="40.60549545288086" lon="-4.173145294189453">
        <ele>1551.9466552734375</ele>
        <time>2020-11-02T11:35:39Z</time>
      </trkpt>
      <trkpt lat="40.6054573059082" lon="-4.1732025146484375">
        <ele>1551.9466552734375</ele>
        <time>2020-11-02T11:35:41Z</time>
      </trkpt>
      <trkpt lat="40.60541534423828" lon="-4.173254013061523">
        <ele>1551.9466552734375</ele>
        <time>2020-11-02T11:35:43Z</time>
      </trkpt>
      <trkpt lat="40.605377197265625" lon="-4.173299789428711">
        <ele>1550.764892578125</ele>
        <time>2020-11-02T11:35:45Z</time>
      </trkpt>
      <trkpt lat="40.6053352355957" lon="-4.173346519470215">
        <ele>1550.764892578125</ele>
        <time>2020-11-02T11:35:47Z</time>
      </trkpt>
      <trkpt lat="40.60529327392578" lon="-4.173390865325928">
        <ele>1549.4012451171875</ele>
        <time>2020-11-02T11:35:49Z</time>
      </trkpt>
      <trkpt lat="40.6052360534668" lon="-4.173455238342285">
        <ele>1549.4012451171875</ele>
        <time>2020-11-02T11:35:52Z</time>
      </trkpt>
      <trkpt lat="40.605194091796875" lon="-4.173495769500732">
        <ele>1549.4012451171875</ele>
        <time>2020-11-02T11:35:54Z</time>
      </trkpt>
      <trkpt lat="40.60514831542969" lon="-4.1735358238220215">
        <ele>1548.219482421875</ele>
        <time>2020-11-02T11:35:56Z</time>
      </trkpt>
      <trkpt lat="40.605106353759766" lon="-4.173577785491943">
        <ele>1548.219482421875</ele>
        <time>2020-11-02T11:35:58Z</time>
      </trkpt>
      <trkpt lat="40.60506057739258" lon="-4.173620223999023">
        <ele>1546.94677734375</ele>
        <time>2020-11-02T11:36:00Z</time>
      </trkpt>
      <trkpt lat="40.60501480102539" lon="-4.173656940460205">
        <ele>1546.94677734375</ele>
        <time>2020-11-02T11:36:02Z</time>
      </trkpt>
      <trkpt lat="40.60496520996094" lon="-4.173691272735596">
        <ele>1546.94677734375</ele>
        <time>2020-11-02T11:36:04Z</time>
      </trkpt>
      <trkpt lat="40.60490036010742" lon="-4.173738956451416">
        <ele>1546.94677734375</ele>
        <time>2020-11-02T11:36:07Z</time>
      </trkpt>
      <trkpt lat="40.604827880859375" lon="-4.173785209655762">
        <ele>1545.674072265625</ele>
        <time>2020-11-02T11:36:10Z</time>
      </trkpt>
      <trkpt lat="40.60478210449219" lon="-4.173815727233887">
        <ele>1545.674072265625</ele>
        <time>2020-11-02T11:36:12Z</time>
      </trkpt>
      <trkpt lat="40.604736328125" lon="-4.17384147644043">
        <ele>1545.674072265625</ele>
        <time>2020-11-02T11:36:14Z</time>
      </trkpt>
      <trkpt lat="40.60466384887695" lon="-4.173879623413086">
        <ele>1545.674072265625</ele>
        <time>2020-11-02T11:36:17Z</time>
      </trkpt>
      <trkpt lat="40.6046142578125" lon="-4.173904895782471">
        <ele>1545.674072265625</ele>
        <time>2020-11-02T11:36:19Z</time>
      </trkpt>
      <trkpt lat="40.60456085205078" lon="-4.173929214477539">
        <ele>1546.94677734375</ele>
        <time>2020-11-02T11:36:21Z</time>
      </trkpt>
      <trkpt lat="40.60451126098633" lon="-4.173951148986816">
        <ele>1546.94677734375</ele>
        <time>2020-11-02T11:36:23Z</time>
      </trkpt>
      <trkpt lat="40.60445785522461" lon="-4.1739702224731445">
        <ele>1548.4921875</ele>
        <time>2020-11-02T11:36:25Z</time>
      </trkpt>
      <trkpt lat="40.604408264160156" lon="-4.1739821434021">
        <ele>1549.8558349609375</ele>
        <time>2020-11-02T11:36:27Z</time>
      </trkpt>
      <trkpt lat="40.60433578491211" lon="-4.174008369445801">
        <ele>1551.219482421875</ele>
        <time>2020-11-02T11:36:30Z</time>
      </trkpt>
      <trkpt lat="40.60428237915039" lon="-4.174027442932129">
        <ele>1552.4921875</ele>
        <time>2020-11-02T11:36:33Z</time>
      </trkpt>
      <trkpt lat="40.60410690307617" lon="-4.1741485595703125">
        <ele>1553.764892578125</ele>
        <time>2020-11-02T11:38:29Z</time>
      </trkpt>
      <trkpt lat="40.60407257080078" lon="-4.174156188964844">
        <ele>1553.764892578125</ele>
        <time>2020-11-02T11:38:31Z</time>
      </trkpt>
      <trkpt lat="40.604000091552734" lon="-4.174173355102539">
        <ele>1554.9466552734375</ele>
        <time>2020-11-02T11:38:35Z</time>
      </trkpt>
      <trkpt lat="40.60394287109375" lon="-4.174210071563721">
        <ele>1554.9466552734375</ele>
        <time>2020-11-02T11:38:38Z</time>
      </trkpt>
      <trkpt lat="40.60389709472656" lon="-4.174277305603027">
        <ele>1556.2193603515625</ele>
        <time>2020-11-02T11:38:42Z</time>
      </trkpt>
      <trkpt lat="40.60386657714844" lon="-4.174337863922119">
        <ele>1557.401123046875</ele>
        <time>2020-11-02T11:38:45Z</time>
      </trkpt>
      <trkpt lat="40.60383224487305" lon="-4.174394130706787">
        <ele>1557.401123046875</ele>
        <time>2020-11-02T11:38:48Z</time>
      </trkpt>
      <trkpt lat="40.60380554199219" lon="-4.174452781677246">
        <ele>1557.401123046875</ele>
        <time>2020-11-02T11:38:51Z</time>
      </trkpt>
      <trkpt lat="40.60377883911133" lon="-4.174508094787598">
        <ele>1557.401123046875</ele>
        <time>2020-11-02T11:38:54Z</time>
      </trkpt>
      <trkpt lat="40.60374069213867" lon="-4.17457914352417">
        <ele>1558.5828857421875</ele>
        <time>2020-11-02T11:38:58Z</time>
      </trkpt>
      <trkpt lat="40.60371017456055" lon="-4.174627780914307">
        <ele>1560.0374755859375</ele>
        <time>2020-11-02T11:39:01Z</time>
      </trkpt>
      <trkpt lat="40.603668212890625" lon="-4.1746931076049805">
        <ele>1561.3101806640625</ele>
        <time>2020-11-02T11:39:05Z</time>
      </trkpt>
      <trkpt lat="40.6036262512207" lon="-4.174758434295654">
        <ele>1561.3101806640625</ele>
        <time>2020-11-02T11:39:09Z</time>
      </trkpt>
      <trkpt lat="40.60359191894531" lon="-4.174811840057373">
        <ele>1562.5828857421875</ele>
        <time>2020-11-02T11:39:12Z</time>
      </trkpt>
      <trkpt lat="40.60354995727539" lon="-4.174871921539307">
        <ele>1562.5828857421875</ele>
        <time>2020-11-02T11:39:16Z</time>
      </trkpt>
      <trkpt lat="40.6035041809082" lon="-4.174925804138184">
        <ele>1563.7646484375</ele>
        <time>2020-11-02T11:39:20Z</time>
      </trkpt>
      <trkpt lat="40.60346603393555" lon="-4.1749773025512695">
        <ele>1563.7646484375</ele>
        <time>2020-11-02T11:39:24Z</time>
      </trkpt>
      <trkpt lat="40.603431701660156" lon="-4.175032615661621">
        <ele>1563.7646484375</ele>
        <time>2020-11-02T11:39:28Z</time>
      </trkpt>
      <trkpt lat="40.6033935546875" lon="-4.175084590911865">
        <ele>1564.9464111328125</ele>
        <time>2020-11-02T11:39:32Z</time>
      </trkpt>
      <trkpt lat="40.603355407714844" lon="-4.175138473510742">
        <ele>1564.9464111328125</ele>
        <time>2020-11-02T11:39:36Z</time>
      </trkpt>
      <trkpt lat="40.60331726074219" lon="-4.175195217132568">
        <ele>1564.9464111328125</ele>
        <time>2020-11-02T11:39:40Z</time>
      </trkpt>
      <trkpt lat="40.603271484375" lon="-4.1752424240112305">
        <ele>1564.9464111328125</ele>
        <time>2020-11-02T11:39:44Z</time>
      </trkpt>
      <trkpt lat="40.60322570800781" lon="-4.175293922424316">
        <ele>1554.7882080078125</ele>
        <time>2020-11-02T11:39:48Z</time>
      </trkpt>
      <trkpt lat="40.60319519042969" lon="-4.175356388092041">
        <ele>1555.969970703125</ele>
        <time>2020-11-02T11:39:52Z</time>
      </trkpt>
      <trkpt lat="40.60316467285156" lon="-4.17542028427124">
        <ele>1555.969970703125</ele>
        <time>2020-11-02T11:39:56Z</time>
      </trkpt>
      <trkpt lat="40.60311508178711" lon="-4.1754961013793945">
        <ele>1555.969970703125</ele>
        <time>2020-11-02T11:40:00Z</time>
      </trkpt>
      <trkpt lat="40.60306930541992" lon="-4.175544738769531">
        <ele>1555.969970703125</ele>
        <time>2020-11-02T11:40:06Z</time>
      </trkpt>
      <trkpt lat="40.603023529052734" lon="-4.175602436065674">
        <ele>1557.24267578125</ele>
        <time>2020-11-02T11:40:11Z</time>
      </trkpt>
      <trkpt lat="40.602989196777344" lon="-4.175648212432861">
        <ele>1557.24267578125</ele>
        <time>2020-11-02T11:40:15Z</time>
      </trkpt>
      <trkpt lat="40.60294723510742" lon="-4.175689220428467">
        <ele>1558.4244384765625</ele>
        <time>2020-11-02T11:40:19Z</time>
      </trkpt>
      <trkpt lat="40.6029052734375" lon="-4.175736904144287">
        <ele>1558.4244384765625</ele>
        <time>2020-11-02T11:40:23Z</time>
      </trkpt>
      <trkpt lat="40.602867126464844" lon="-4.175798416137695">
        <ele>1558.4244384765625</ele>
        <time>2020-11-02T11:40:27Z</time>
      </trkpt>
      <trkpt lat="40.60284423828125" lon="-4.1758527755737305">
        <ele>1558.4244384765625</ele>
        <time>2020-11-02T11:40:30Z</time>
      </trkpt>
      <trkpt lat="40.602806091308594" lon="-4.175920486450195">
        <ele>1559.606201171875</ele>
        <time>2020-11-02T11:40:34Z</time>
      </trkpt>
      <trkpt lat="40.60276412963867" lon="-4.175991535186768">
        <ele>1559.606201171875</ele>
        <time>2020-11-02T11:40:38Z</time>
      </trkpt>
      <trkpt lat="40.60273361206055" lon="-4.176046371459961">
        <ele>1559.606201171875</ele>
        <time>2020-11-02T11:40:41Z</time>
      </trkpt>
      <trkpt lat="40.602699279785156" lon="-4.176098823547363">
        <ele>1559.606201171875</ele>
        <time>2020-11-02T11:40:44Z</time>
      </trkpt>
      <trkpt lat="40.60265350341797" lon="-4.1761651039123535">
        <ele>1559.606201171875</ele>
        <time>2020-11-02T11:40:48Z</time>
      </trkpt>
      <trkpt lat="40.60261535644531" lon="-4.176214694976807">
        <ele>1559.606201171875</ele>
        <time>2020-11-02T11:40:51Z</time>
      </trkpt>
      <trkpt lat="40.602577209472656" lon="-4.176264762878418">
        <ele>1560.7879638671875</ele>
        <time>2020-11-02T11:40:54Z</time>
      </trkpt>
      <trkpt lat="40.6025390625" lon="-4.176313877105713">
        <ele>1562.0606689453125</ele>
        <time>2020-11-02T11:40:57Z</time>
      </trkpt>
      <trkpt lat="40.60250473022461" lon="-4.176362991333008">
        <ele>1562.0606689453125</ele>
        <time>2020-11-02T11:41:00Z</time>
      </trkpt>
      <trkpt lat="40.60247039794922" lon="-4.176413536071777">
        <ele>1563.3333740234375</ele>
        <time>2020-11-02T11:41:03Z</time>
      </trkpt>
      <trkpt lat="40.60242462158203" lon="-4.176486015319824">
        <ele>1563.3333740234375</ele>
        <time>2020-11-02T11:41:07Z</time>
      </trkpt>
      <trkpt lat="40.602386474609375" lon="-4.176541805267334">
        <ele>1564.51513671875</ele>
        <time>2020-11-02T11:41:10Z</time>
      </trkpt>
      <trkpt lat="40.602352142333984" lon="-4.176596164703369">
        <ele>1564.51513671875</ele>
        <time>2020-11-02T11:41:13Z</time>
      </trkpt>
      <trkpt lat="40.602317810058594" lon="-4.176645755767822">
        <ele>1564.51513671875</ele>
        <time>2020-11-02T11:41:16Z</time>
      </trkpt>
      <trkpt lat="40.602264404296875" lon="-4.176701068878174">
        <ele>1565.6968994140625</ele>
        <time>2020-11-02T11:41:20Z</time>
      </trkpt>
      <trkpt lat="40.602210998535156" lon="-4.176743507385254">
        <ele>1565.6968994140625</ele>
        <time>2020-11-02T11:41:24Z</time>
      </trkpt>
      <trkpt lat="40.6021614074707" lon="-4.176787853240967">
        <ele>1565.6968994140625</ele>
        <time>2020-11-02T11:41:28Z</time>
      </trkpt>
      <trkpt lat="40.60211181640625" lon="-4.1768412590026855">
        <ele>1566.878662109375</ele>
        <time>2020-11-02T11:41:32Z</time>
      </trkpt>
      <trkpt lat="40.60206985473633" lon="-4.176900863647461">
        <ele>1566.878662109375</ele>
        <time>2020-11-02T11:41:36Z</time>
      </trkpt>
      <trkpt lat="40.602027893066406" lon="-4.176963806152344">
        <ele>1568.0604248046875</ele>
        <time>2020-11-02T11:41:40Z</time>
      </trkpt>
      <trkpt lat="40.601993560791016" lon="-4.177033424377441">
        <ele>1568.0604248046875</ele>
        <time>2020-11-02T11:41:44Z</time>
      </trkpt>
      <trkpt lat="40.60196304321289" lon="-4.177105903625488">
        <ele>1568.0604248046875</ele>
        <time>2020-11-02T11:41:48Z</time>
      </trkpt>
      <trkpt lat="40.6019287109375" lon="-4.177196025848389">
        <ele>1568.0604248046875</ele>
        <time>2020-11-02T11:41:53Z</time>
      </trkpt>
      <trkpt lat="40.601898193359375" lon="-4.177265167236328">
        <ele>1573.4146728515625</ele>
        <time>2020-11-02T11:41:57Z</time>
      </trkpt>
      <trkpt lat="40.60187530517578" lon="-4.177338123321533">
        <ele>1573.4146728515625</ele>
        <time>2020-11-02T11:42:01Z</time>
      </trkpt>
      <trkpt lat="40.60186004638672" lon="-4.177414894104004">
        <ele>1573.4146728515625</ele>
        <time>2020-11-02T11:42:05Z</time>
      </trkpt>
      <trkpt lat="40.60184860229492" lon="-4.177478790283203">
        <ele>1574.596435546875</ele>
        <time>2020-11-02T11:42:08Z</time>
      </trkpt>
      <trkpt lat="40.601829528808594" lon="-4.177557468414307">
        <ele>1574.596435546875</ele>
        <time>2020-11-02T11:42:12Z</time>
      </trkpt>
      <trkpt lat="40.601810455322266" lon="-4.1776227951049805">
        <ele>1574.596435546875</ele>
        <time>2020-11-02T11:42:15Z</time>
      </trkpt>
      <trkpt lat="40.60179138183594" lon="-4.177688121795654">
        <ele>1574.596435546875</ele>
        <time>2020-11-02T11:42:18Z</time>
      </trkpt>
      <trkpt lat="40.60176086425781" lon="-4.177751541137695">
        <ele>1574.596435546875</ele>
        <time>2020-11-02T11:42:21Z</time>
      </trkpt>
      <trkpt lat="40.60173034667969" lon="-4.177811145782471">
        <ele>1575.7781982421875</ele>
        <time>2020-11-02T11:42:24Z</time>
      </trkpt>
      <trkpt lat="40.60170364379883" lon="-4.177871227264404">
        <ele>1575.7781982421875</ele>
        <time>2020-11-02T11:42:27Z</time>
      </trkpt>
      <trkpt lat="40.60166549682617" lon="-4.1779398918151855">
        <ele>1577.0509033203125</ele>
        <time>2020-11-02T11:42:31Z</time>
      </trkpt>
      <trkpt lat="40.60163497924805" lon="-4.177990436553955">
        <ele>1578.232666015625</ele>
        <time>2020-11-02T11:42:34Z</time>
      </trkpt>
      <trkpt lat="40.60158920288086" lon="-4.178046226501465">
        <ele>1578.232666015625</ele>
        <time>2020-11-02T11:42:38Z</time>
      </trkpt>
      <trkpt lat="40.60154342651367" lon="-4.1780924797058105">
        <ele>1579.50537109375</ele>
        <time>2020-11-02T11:42:42Z</time>
      </trkpt>
      <trkpt lat="40.60150146484375" lon="-4.178152084350586">
        <ele>1579.50537109375</ele>
        <time>2020-11-02T11:42:46Z</time>
      </trkpt>
      <trkpt lat="40.60146713256836" lon="-4.178219795227051">
        <ele>1579.50537109375</ele>
        <time>2020-11-02T11:42:50Z</time>
      </trkpt>
      <trkpt lat="40.6014404296875" lon="-4.178283214569092">
        <ele>1580.6871337890625</ele>
        <time>2020-11-02T11:42:53Z</time>
      </trkpt>
      <trkpt lat="40.601417541503906" lon="-4.178351879119873">
        <ele>1580.6871337890625</ele>
        <time>2020-11-02T11:42:56Z</time>
      </trkpt>
      <trkpt lat="40.60139465332031" lon="-4.178412437438965">
        <ele>1580.6871337890625</ele>
        <time>2020-11-02T11:42:59Z</time>
      </trkpt>
      <trkpt lat="40.60137176513672" lon="-4.178472518920898">
        <ele>1581.9598388671875</ele>
        <time>2020-11-02T11:43:02Z</time>
      </trkpt>
      <trkpt lat="40.60133743286133" lon="-4.178537845611572">
        <ele>1583.2325439453125</ele>
        <time>2020-11-02T11:43:06Z</time>
      </trkpt>
      <trkpt lat="40.60130310058594" lon="-4.178594589233398">
        <ele>1584.414306640625</ele>
        <time>2020-11-02T11:43:10Z</time>
      </trkpt>
      <trkpt lat="40.60127639770508" lon="-4.178658962249756">
        <ele>1584.414306640625</ele>
        <time>2020-11-02T11:43:14Z</time>
      </trkpt>
      <trkpt lat="40.60126495361328" lon="-4.178732872009277">
        <ele>1585.68701171875</ele>
        <time>2020-11-02T11:43:18Z</time>
      </trkpt>
      <trkpt lat="40.601261138916016" lon="-4.178809642791748">
        <ele>1585.68701171875</ele>
        <time>2020-11-02T11:43:22Z</time>
      </trkpt>
      <trkpt lat="40.60126495361328" lon="-4.178884506225586">
        <ele>1586.8687744140625</ele>
        <time>2020-11-02T11:43:26Z</time>
      </trkpt>
      <trkpt lat="40.60126495361328" lon="-4.178956508636475">
        <ele>1586.8687744140625</ele>
        <time>2020-11-02T11:43:30Z</time>
      </trkpt>
      <trkpt lat="40.60127639770508" lon="-4.179023265838623">
        <ele>1586.8687744140625</ele>
        <time>2020-11-02T11:43:34Z</time>
      </trkpt>
      <trkpt lat="40.601280212402344" lon="-4.179088115692139">
        <ele>1586.8687744140625</ele>
        <time>2020-11-02T11:43:38Z</time>
      </trkpt>
      <trkpt lat="40.60127639770508" lon="-4.179157257080078">
        <ele>1586.8687744140625</ele>
        <time>2020-11-02T11:43:42Z</time>
      </trkpt>
      <trkpt lat="40.60126876831055" lon="-4.179234027862549">
        <ele>1586.8687744140625</ele>
        <time>2020-11-02T11:43:47Z</time>
      </trkpt>
      <trkpt lat="40.60124969482422" lon="-4.179291248321533">
        <ele>1586.8687744140625</ele>
        <time>2020-11-02T11:43:51Z</time>
      </trkpt>
      <trkpt lat="40.6012077331543" lon="-4.1793437004089355">
        <ele>1587.39697265625</ele>
        <time>2020-11-02T11:43:56Z</time>
      </trkpt>
      <trkpt lat="40.60115432739258" lon="-4.179360866546631">
        <ele>1587.39697265625</ele>
        <time>2020-11-02T11:44:00Z</time>
      </trkpt>
      <trkpt lat="40.601097106933594" lon="-4.179359436035156">
        <ele>1587.39697265625</ele>
        <time>2020-11-02T11:44:04Z</time>
      </trkpt>
      <trkpt lat="40.601043701171875" lon="-4.179359436035156">
        <ele>1587.39697265625</ele>
        <time>2020-11-02T11:44:07Z</time>
      </trkpt>
      <trkpt lat="40.60099411010742" lon="-4.179361820220947">
        <ele>1587.39697265625</ele>
        <time>2020-11-02T11:44:10Z</time>
      </trkpt>
      <trkpt lat="40.60092544555664" lon="-4.17938232421875">
        <ele>1587.39697265625</ele>
        <time>2020-11-02T11:44:14Z</time>
      </trkpt>
      <trkpt lat="40.60087966918945" lon="-4.179418563842773">
        <ele>1587.39697265625</ele>
        <time>2020-11-02T11:44:17Z</time>
      </trkpt>
      <trkpt lat="40.60083770751953" lon="-4.17946720123291">
        <ele>1587.39697265625</ele>
        <time>2020-11-02T11:44:20Z</time>
      </trkpt>
      <trkpt lat="40.60079574584961" lon="-4.179519176483154">
        <ele>1587.39697265625</ele>
        <time>2020-11-02T11:44:23Z</time>
      </trkpt>
      <trkpt lat="40.600746154785156" lon="-4.179576396942139">
        <ele>1587.39697265625</ele>
        <time>2020-11-02T11:44:26Z</time>
      </trkpt>
      <trkpt lat="40.60070037841797" lon="-4.179636478424072">
        <ele>1587.39697265625</ele>
        <time>2020-11-02T11:44:29Z</time>
      </trkpt>
      <trkpt lat="40.600650787353516" lon="-4.179695129394531">
        <ele>1586.2152099609375</ele>
        <time>2020-11-02T11:44:32Z</time>
      </trkpt>
      <trkpt lat="40.60060119628906" lon="-4.179754734039307">
        <ele>1586.2152099609375</ele>
        <time>2020-11-02T11:44:35Z</time>
      </trkpt>
      <trkpt lat="40.60054397583008" lon="-4.17981481552124">
        <ele>1586.2152099609375</ele>
        <time>2020-11-02T11:44:38Z</time>
      </trkpt>
      <trkpt lat="40.60050964355469" lon="-4.17985200881958">
        <ele>1585.033447265625</ele>
        <time>2020-11-02T11:44:40Z</time>
      </trkpt>
      <trkpt lat="40.6004524230957" lon="-4.179906368255615">
        <ele>1585.033447265625</ele>
        <time>2020-11-02T11:44:43Z</time>
      </trkpt>
      <trkpt lat="40.60041809082031" lon="-4.179943084716797">
        <ele>1585.033447265625</ele>
        <time>2020-11-02T11:44:45Z</time>
      </trkpt>
      <trkpt lat="40.60035705566406" lon="-4.179993152618408">
        <ele>1585.033447265625</ele>
        <time>2020-11-02T11:44:48Z</time>
      </trkpt>
      <trkpt lat="40.60029602050781" lon="-4.1800336837768555">
        <ele>1585.033447265625</ele>
        <time>2020-11-02T11:44:51Z</time>
      </trkpt>
      <trkpt lat="40.60022735595703" lon="-4.180067539215088">
        <ele>1585.033447265625</ele>
        <time>2020-11-02T11:44:54Z</time>
      </trkpt>
      <trkpt lat="40.60015869140625" lon="-4.180091381072998">
        <ele>1585.033447265625</ele>
        <time>2020-11-02T11:44:57Z</time>
      </trkpt>
      <trkpt lat="40.60008239746094" lon="-4.18010139465332">
        <ele>1585.033447265625</ele>
        <time>2020-11-02T11:45:00Z</time>
      </trkpt>
      <trkpt lat="40.60002899169922" lon="-4.180108547210693">
        <ele>1585.033447265625</ele>
        <time>2020-11-02T11:45:02Z</time>
      </trkpt>
      <trkpt lat="40.5999755859375" lon="-4.180120468139648">
        <ele>1583.7607421875</ele>
        <time>2020-11-02T11:45:04Z</time>
      </trkpt>
      <trkpt lat="40.59990310668945" lon="-4.180143356323242">
        <ele>1583.7607421875</ele>
        <time>2020-11-02T11:45:07Z</time>
      </trkpt>
      <trkpt lat="40.599849700927734" lon="-4.180161952972412">
        <ele>1583.7607421875</ele>
        <time>2020-11-02T11:45:09Z</time>
      </trkpt>
      <trkpt lat="40.59980392456055" lon="-4.180182933807373">
        <ele>1582.5789794921875</ele>
        <time>2020-11-02T11:45:11Z</time>
      </trkpt>
      <trkpt lat="40.599754333496094" lon="-4.180207252502441">
        <ele>1582.5789794921875</ele>
        <time>2020-11-02T11:45:13Z</time>
      </trkpt>
      <trkpt lat="40.59968185424805" lon="-4.180243015289307">
        <ele>1581.3062744140625</ele>
        <time>2020-11-02T11:45:16Z</time>
      </trkpt>
      <trkpt lat="40.59963607788086" lon="-4.180266857147217">
        <ele>1581.3062744140625</ele>
        <time>2020-11-02T11:45:18Z</time>
      </trkpt>
      <trkpt lat="40.59958267211914" lon="-4.180287837982178">
        <ele>1581.3062744140625</ele>
        <time>2020-11-02T11:45:20Z</time>
      </trkpt>
      <trkpt lat="40.59952926635742" lon="-4.18031120300293">
        <ele>1581.3062744140625</ele>
        <time>2020-11-02T11:45:22Z</time>
      </trkpt>
      <trkpt lat="40.59947967529297" lon="-4.180333137512207">
        <ele>1581.3062744140625</ele>
        <time>2020-11-02T11:45:24Z</time>
      </trkpt>
      <trkpt lat="40.59942626953125" lon="-4.180354118347168">
        <ele>1580.12451171875</ele>
        <time>2020-11-02T11:45:26Z</time>
      </trkpt>
      <trkpt lat="40.5993766784668" lon="-4.180370807647705">
        <ele>1580.12451171875</ele>
        <time>2020-11-02T11:45:28Z</time>
      </trkpt>
      <trkpt lat="40.59932327270508" lon="-4.180383205413818">
        <ele>1580.12451171875</ele>
        <time>2020-11-02T11:45:30Z</time>
      </trkpt>
      <trkpt lat="40.599273681640625" lon="-4.180394649505615">
        <ele>1580.12451171875</ele>
        <time>2020-11-02T11:45:32Z</time>
      </trkpt>
      <trkpt lat="40.59919357299805" lon="-4.180413246154785">
        <ele>1580.12451171875</ele>
        <time>2020-11-02T11:45:35Z</time>
      </trkpt>
      <trkpt lat="40.599143981933594" lon="-4.18042516708374">
        <ele>1580.12451171875</ele>
        <time>2020-11-02T11:45:37Z</time>
      </trkpt>
      <trkpt lat="40.599090576171875" lon="-4.1804351806640625">
        <ele>1580.12451171875</ele>
        <time>2020-11-02T11:45:39Z</time>
      </trkpt>
      <trkpt lat="40.599037170410156" lon="-4.180444240570068">
        <ele>1580.12451171875</ele>
        <time>2020-11-02T11:45:41Z</time>
      </trkpt>
      <trkpt lat="40.59898376464844" lon="-4.1804518699646">
        <ele>1581.3062744140625</ele>
        <time>2020-11-02T11:45:43Z</time>
      </trkpt>
      <trkpt lat="40.598934173583984" lon="-4.180459022521973">
        <ele>1580.0335693359375</ele>
        <time>2020-11-02T11:45:45Z</time>
      </trkpt>
      <trkpt lat="40.59885787963867" lon="-4.180474281311035">
        <ele>1578.851806640625</ele>
        <time>2020-11-02T11:45:48Z</time>
      </trkpt>
      <trkpt lat="40.59880447387695" lon="-4.18048620223999">
        <ele>1578.851806640625</ele>
        <time>2020-11-02T11:45:50Z</time>
      </trkpt>
      <trkpt lat="40.5987548828125" lon="-4.180495738983154">
        <ele>1578.851806640625</ele>
        <time>2020-11-02T11:45:52Z</time>
      </trkpt>
      <trkpt lat="40.59868240356445" lon="-4.180517673492432">
        <ele>1578.851806640625</ele>
        <time>2020-11-02T11:45:55Z</time>
      </trkpt>
      <trkpt lat="40.59861373901367" lon="-4.180549144744873">
        <ele>1578.851806640625</ele>
        <time>2020-11-02T11:45:58Z</time>
      </trkpt>
      <trkpt lat="40.598567962646484" lon="-4.180574893951416">
        <ele>1584.0194091796875</ele>
        <time>2020-11-02T11:46:00Z</time>
      </trkpt>
      <trkpt lat="40.59850311279297" lon="-4.180620193481445">
        <ele>1584.0194091796875</ele>
        <time>2020-11-02T11:46:03Z</time>
      </trkpt>
      <trkpt lat="40.59844970703125" lon="-4.180668830871582">
        <ele>1584.0194091796875</ele>
        <time>2020-11-02T11:46:06Z</time>
      </trkpt>
      <trkpt lat="40.598392486572266" lon="-4.180716037750244">
        <ele>1585.7467041015625</ele>
        <time>2020-11-02T11:46:09Z</time>
      </trkpt>
      <trkpt lat="40.59834289550781" lon="-4.180768013000488">
        <ele>1587.2012939453125</ele>
        <time>2020-11-02T11:46:12Z</time>
      </trkpt>
      <trkpt lat="40.59829330444336" lon="-4.1808180809021">
        <ele>1588.4739990234375</ele>
        <time>2020-11-02T11:46:15Z</time>
      </trkpt>
      <trkpt lat="40.59823989868164" lon="-4.1808695793151855">
        <ele>1588.4739990234375</ele>
        <time>2020-11-02T11:46:18Z</time>
      </trkpt>
      <trkpt lat="40.59819030761719" lon="-4.180922985076904">
        <ele>1589.65576171875</ele>
        <time>2020-11-02T11:46:21Z</time>
      </trkpt>
      <trkpt lat="40.598140716552734" lon="-4.1809821128845215">
        <ele>1589.65576171875</ele>
        <time>2020-11-02T11:46:24Z</time>
      </trkpt>
      <trkpt lat="40.59809875488281" lon="-4.18104887008667">
        <ele>1589.65576171875</ele>
        <time>2020-11-02T11:46:27Z</time>
      </trkpt>
      <trkpt lat="40.598060607910156" lon="-4.181117534637451">
        <ele>1590.8375244140625</ele>
        <time>2020-11-02T11:46:30Z</time>
      </trkpt>
      <trkpt lat="40.598018646240234" lon="-4.181184768676758">
        <ele>1590.8375244140625</ele>
        <time>2020-11-02T11:46:33Z</time>
      </trkpt>
      <trkpt lat="40.597984313964844" lon="-4.181250095367432">
        <ele>1592.019287109375</ele>
        <time>2020-11-02T11:46:36Z</time>
      </trkpt>
      <trkpt lat="40.59794998168945" lon="-4.181313514709473">
        <ele>1592.019287109375</ele>
        <time>2020-11-02T11:46:39Z</time>
      </trkpt>
      <trkpt lat="40.59791946411133" lon="-4.181377410888672">
        <ele>1592.019287109375</ele>
        <time>2020-11-02T11:46:42Z</time>
      </trkpt>
      <trkpt lat="40.5978889465332" lon="-4.181435585021973">
        <ele>1592.019287109375</ele>
        <time>2020-11-02T11:46:45Z</time>
      </trkpt>
      <trkpt lat="40.597862243652344" lon="-4.181497097015381">
        <ele>1593.2010498046875</ele>
        <time>2020-11-02T11:46:48Z</time>
      </trkpt>
      <trkpt lat="40.59783172607422" lon="-4.181573867797852">
        <ele>1593.2010498046875</ele>
        <time>2020-11-02T11:46:52Z</time>
      </trkpt>
      <trkpt lat="40.597801208496094" lon="-4.181647777557373">
        <ele>1593.2010498046875</ele>
        <time>2020-11-02T11:46:56Z</time>
      </trkpt>
      <trkpt lat="40.597782135009766" lon="-4.181704521179199">
        <ele>1593.2010498046875</ele>
        <time>2020-11-02T11:46:59Z</time>
      </trkpt>
      <trkpt lat="40.597747802734375" lon="-4.181778430938721">
        <ele>1594.3828125</ele>
        <time>2020-11-02T11:47:03Z</time>
      </trkpt>
      <trkpt lat="40.59770965576172" lon="-4.181851863861084">
        <ele>1594.3828125</ele>
        <time>2020-11-02T11:47:07Z</time>
      </trkpt>
      <trkpt lat="40.597686767578125" lon="-4.181911468505859">
        <ele>1594.3828125</ele>
        <time>2020-11-02T11:47:10Z</time>
      </trkpt>
      <trkpt lat="40.597660064697266" lon="-4.181973457336426">
        <ele>1594.3828125</ele>
        <time>2020-11-02T11:47:13Z</time>
      </trkpt>
      <trkpt lat="40.59762954711914" lon="-4.182032585144043">
        <ele>1594.3828125</ele>
        <time>2020-11-02T11:47:16Z</time>
      </trkpt>
      <trkpt lat="40.597599029541016" lon="-4.1820878982543945">
        <ele>1594.3828125</ele>
        <time>2020-11-02T11:47:19Z</time>
      </trkpt>
      <trkpt lat="40.59756088256836" lon="-4.182160377502441">
        <ele>1594.3828125</ele>
        <time>2020-11-02T11:47:23Z</time>
      </trkpt>
      <trkpt lat="40.59752655029297" lon="-4.182215213775635">
        <ele>1594.3828125</ele>
        <time>2020-11-02T11:47:26Z</time>
      </trkpt>
      <trkpt lat="40.59748458862305" lon="-4.182263374328613">
        <ele>1595.655517578125</ele>
        <time>2020-11-02T11:47:29Z</time>
      </trkpt>
      <trkpt lat="40.597442626953125" lon="-4.182308197021484">
        <ele>1595.655517578125</ele>
        <time>2020-11-02T11:47:32Z</time>
      </trkpt>
      <trkpt lat="40.59739685058594" lon="-4.1823530197143555">
        <ele>1595.655517578125</ele>
        <time>2020-11-02T11:47:35Z</time>
      </trkpt>
      <trkpt lat="40.597354888916016" lon="-4.182399749755859">
        <ele>1595.655517578125</ele>
        <time>2020-11-02T11:47:38Z</time>
      </trkpt>
      <trkpt lat="40.59730529785156" lon="-4.182447910308838">
        <ele>1595.655517578125</ele>
        <time>2020-11-02T11:47:41Z</time>
      </trkpt>
      <trkpt lat="40.59726333618164" lon="-4.182493209838867">
        <ele>1595.655517578125</ele>
        <time>2020-11-02T11:47:44Z</time>
      </trkpt>
      <trkpt lat="40.59722137451172" lon="-4.182544231414795">
        <ele>1595.655517578125</ele>
        <time>2020-11-02T11:47:47Z</time>
      </trkpt>
      <trkpt lat="40.59717559814453" lon="-4.1825947761535645">
        <ele>1595.655517578125</ele>
        <time>2020-11-02T11:47:50Z</time>
      </trkpt>
      <trkpt lat="40.597129821777344" lon="-4.182647705078125">
        <ele>1595.655517578125</ele>
        <time>2020-11-02T11:47:53Z</time>
      </trkpt>
      <trkpt lat="40.59708786010742" lon="-4.182704925537109">
        <ele>1595.655517578125</ele>
        <time>2020-11-02T11:47:56Z</time>
      </trkpt>
      <trkpt lat="40.5970458984375" lon="-4.182764530181885">
        <ele>1592.0179443359375</ele>
        <time>2020-11-02T11:47:59Z</time>
      </trkpt>
      <trkpt lat="40.59700012207031" lon="-4.1828227043151855">
        <ele>1592.0179443359375</ele>
        <time>2020-11-02T11:48:02Z</time>
      </trkpt>
      <trkpt lat="40.596954345703125" lon="-4.182884216308594">
        <ele>1592.0179443359375</ele>
        <time>2020-11-02T11:48:05Z</time>
      </trkpt>
      <trkpt lat="40.59690475463867" lon="-4.182948589324951">
        <ele>1592.0179443359375</ele>
        <time>2020-11-02T11:48:08Z</time>
      </trkpt>
      <trkpt lat="40.596858978271484" lon="-4.18301248550415">
        <ele>1592.0179443359375</ele>
        <time>2020-11-02T11:48:11Z</time>
      </trkpt>
      <trkpt lat="40.59680938720703" lon="-4.183076858520508">
        <ele>1593.19970703125</ele>
        <time>2020-11-02T11:48:14Z</time>
      </trkpt>
      <trkpt lat="40.59676742553711" lon="-4.183136463165283">
        <ele>1593.19970703125</ele>
        <time>2020-11-02T11:48:17Z</time>
      </trkpt>
      <trkpt lat="40.59672164916992" lon="-4.183195114135742">
        <ele>1593.19970703125</ele>
        <time>2020-11-02T11:48:20Z</time>
      </trkpt>
      <trkpt lat="40.596675872802734" lon="-4.183250904083252">
        <ele>1593.19970703125</ele>
        <time>2020-11-02T11:48:23Z</time>
      </trkpt>
      <trkpt lat="40.59662628173828" lon="-4.183305263519287">
        <ele>1593.19970703125</ele>
        <time>2020-11-02T11:48:26Z</time>
      </trkpt>
      <trkpt lat="40.596580505371094" lon="-4.183356285095215">
        <ele>1593.19970703125</ele>
        <time>2020-11-02T11:48:29Z</time>
      </trkpt>
      <trkpt lat="40.59653091430664" lon="-4.183410167694092">
        <ele>1593.19970703125</ele>
        <time>2020-11-02T11:48:32Z</time>
      </trkpt>
      <trkpt lat="40.59648132324219" lon="-4.18346643447876">
        <ele>1593.19970703125</ele>
        <time>2020-11-02T11:48:35Z</time>
      </trkpt>
      <trkpt lat="40.596435546875" lon="-4.183523178100586">
        <ele>1594.3814697265625</ele>
        <time>2020-11-02T11:48:38Z</time>
      </trkpt>
      <trkpt lat="40.59638595581055" lon="-4.183578014373779">
        <ele>1594.3814697265625</ele>
        <time>2020-11-02T11:48:41Z</time>
      </trkpt>
      <trkpt lat="40.596336364746094" lon="-4.183630466461182">
        <ele>1594.3814697265625</ele>
        <time>2020-11-02T11:48:44Z</time>
      </trkpt>
      <trkpt lat="40.596282958984375" lon="-4.183683395385742">
        <ele>1594.3814697265625</ele>
        <time>2020-11-02T11:48:47Z</time>
      </trkpt>
      <trkpt lat="40.59623336791992" lon="-4.18373966217041">
        <ele>1594.3814697265625</ele>
        <time>2020-11-02T11:48:50Z</time>
      </trkpt>
      <trkpt lat="40.59618377685547" lon="-4.183798313140869">
        <ele>1594.3814697265625</ele>
        <time>2020-11-02T11:48:53Z</time>
      </trkpt>
      <trkpt lat="40.59613037109375" lon="-4.1838555335998535">
        <ele>1594.3814697265625</ele>
        <time>2020-11-02T11:48:56Z</time>
      </trkpt>
      <trkpt lat="40.59607696533203" lon="-4.183908462524414">
        <ele>1593.1087646484375</ele>
        <time>2020-11-02T11:48:59Z</time>
      </trkpt>
      <trkpt lat="40.59601974487305" lon="-4.183956146240234">
        <ele>1593.1087646484375</ele>
        <time>2020-11-02T11:49:02Z</time>
      </trkpt>
      <trkpt lat="40.59596633911133" lon="-4.184001445770264">
        <ele>1593.1087646484375</ele>
        <time>2020-11-02T11:49:05Z</time>
      </trkpt>
      <trkpt lat="40.595909118652344" lon="-4.184047222137451">
        <ele>1593.1087646484375</ele>
        <time>2020-11-02T11:49:08Z</time>
      </trkpt>
      <trkpt lat="40.59585189819336" lon="-4.1840925216674805">
        <ele>1593.1087646484375</ele>
        <time>2020-11-02T11:49:11Z</time>
      </trkpt>
      <trkpt lat="40.59579086303711" lon="-4.18413782119751">
        <ele>1593.1087646484375</ele>
        <time>2020-11-02T11:49:14Z</time>
      </trkpt>
      <trkpt lat="40.59572219848633" lon="-4.184179306030273">
        <ele>1593.1087646484375</ele>
        <time>2020-11-02T11:49:17Z</time>
      </trkpt>
      <trkpt lat="40.59567642211914" lon="-4.184205055236816">
        <ele>1591.8360595703125</ele>
        <time>2020-11-02T11:49:19Z</time>
      </trkpt>
      <trkpt lat="40.59560775756836" lon="-4.184239387512207">
        <ele>1591.8360595703125</ele>
        <time>2020-11-02T11:49:22Z</time>
      </trkpt>
      <trkpt lat="40.595558166503906" lon="-4.18425989151001">
        <ele>1591.8360595703125</ele>
        <time>2020-11-02T11:49:24Z</time>
      </trkpt>
      <trkpt lat="40.595489501953125" lon="-4.1842875480651855">
        <ele>1591.8360595703125</ele>
        <time>2020-11-02T11:49:27Z</time>
      </trkpt>
      <trkpt lat="40.59541702270508" lon="-4.1843109130859375">
        <ele>1590.654296875</ele>
        <time>2020-11-02T11:49:30Z</time>
      </trkpt>
      <trkpt lat="40.5953483581543" lon="-4.184343338012695">
        <ele>1590.654296875</ele>
        <time>2020-11-02T11:49:33Z</time>
      </trkpt>
      <trkpt lat="40.59530258178711" lon="-4.18437385559082">
        <ele>1590.654296875</ele>
        <time>2020-11-02T11:49:35Z</time>
      </trkpt>
      <trkpt lat="40.59524154663086" lon="-4.184432506561279">
        <ele>1589.4725341796875</ele>
        <time>2020-11-02T11:49:38Z</time>
      </trkpt>
      <trkpt lat="40.59519958496094" lon="-4.18447732925415">
        <ele>1589.4725341796875</ele>
        <time>2020-11-02T11:49:40Z</time>
      </trkpt>
      <trkpt lat="40.59516143798828" lon="-4.184524059295654">
        <ele>1588.290771484375</ele>
        <time>2020-11-02T11:49:42Z</time>
      </trkpt>
      <trkpt lat="40.59510803222656" lon="-4.184589862823486">
        <ele>1588.290771484375</ele>
        <time>2020-11-02T11:49:45Z</time>
      </trkpt>
      <trkpt lat="40.595069885253906" lon="-4.184633255004883">
        <ele>1587.1090087890625</ele>
        <time>2020-11-02T11:49:47Z</time>
      </trkpt>
      <trkpt lat="40.59501266479492" lon="-4.184696197509766">
        <ele>1587.1090087890625</ele>
        <time>2020-11-02T11:49:50Z</time>
      </trkpt>
      <trkpt lat="40.59495544433594" lon="-4.184757709503174">
        <ele>1587.1090087890625</ele>
        <time>2020-11-02T11:49:53Z</time>
      </trkpt>
      <trkpt lat="40.59491729736328" lon="-4.184797286987305">
        <ele>1587.1090087890625</ele>
        <time>2020-11-02T11:49:55Z</time>
      </trkpt>
      <trkpt lat="40.59485626220703" lon="-4.18485689163208">
        <ele>1585.92724609375</ele>
        <time>2020-11-02T11:49:58Z</time>
      </trkpt>
      <trkpt lat="40.594818115234375" lon="-4.18489933013916">
        <ele>1585.92724609375</ele>
        <time>2020-11-02T11:50:00Z</time>
      </trkpt>
      <trkpt lat="40.59476089477539" lon="-4.184963703155518">
        <ele>1585.92724609375</ele>
        <time>2020-11-02T11:50:03Z</time>
      </trkpt>
      <trkpt lat="40.594722747802734" lon="-4.1850056648254395">
        <ele>1585.92724609375</ele>
        <time>2020-11-02T11:50:05Z</time>
      </trkpt>
      <trkpt lat="40.59466552734375" lon="-4.185070991516113">
        <ele>1586.056884765625</ele>
        <time>2020-11-02T11:50:08Z</time>
      </trkpt>
      <trkpt lat="40.59462356567383" lon="-4.185113430023193">
        <ele>1586.056884765625</ele>
        <time>2020-11-02T11:50:10Z</time>
      </trkpt>
      <trkpt lat="40.59456253051758" lon="-4.185179233551025">
        <ele>1586.056884765625</ele>
        <time>2020-11-02T11:50:13Z</time>
      </trkpt>
      <trkpt lat="40.59451675415039" lon="-4.185221195220947">
        <ele>1586.056884765625</ele>
        <time>2020-11-02T11:50:15Z</time>
      </trkpt>
      <trkpt lat="40.59447479248047" lon="-4.185259819030762">
        <ele>1587.2386474609375</ele>
        <time>2020-11-02T11:50:17Z</time>
      </trkpt>
      <trkpt lat="40.59442901611328" lon="-4.185293674468994">
        <ele>1588.5113525390625</ele>
        <time>2020-11-02T11:50:19Z</time>
      </trkpt>
      <trkpt lat="40.59437942504883" lon="-4.185324192047119">
        <ele>1588.5113525390625</ele>
        <time>2020-11-02T11:50:21Z</time>
      </trkpt>
      <trkpt lat="40.59433364868164" lon="-4.185358047485352">
        <ele>1589.875</ele>
        <time>2020-11-02T11:50:23Z</time>
      </trkpt>
      <trkpt lat="40.59429168701172" lon="-4.1853928565979">
        <ele>1591.0567626953125</ele>
        <time>2020-11-02T11:50:25Z</time>
      </trkpt>
      <trkpt lat="40.5942268371582" lon="-4.1854329109191895">
        <ele>1592.238525390625</ele>
        <time>2020-11-02T11:50:28Z</time>
      </trkpt>
      <trkpt lat="40.594181060791016" lon="-4.185430526733398">
        <ele>1593.51123046875</ele>
        <time>2020-11-02T11:50:31Z</time>
      </trkpt>
      <trkpt lat="40.594120025634766" lon="-4.185416221618652">
        <ele>1593.51123046875</ele>
        <time>2020-11-02T11:50:35Z</time>
      </trkpt>
      <trkpt lat="40.59405517578125" lon="-4.185423374176025">
        <ele>1594.6929931640625</ele>
        <time>2020-11-02T11:50:39Z</time>
      </trkpt>
      <trkpt lat="40.59400177001953" lon="-4.1854119300842285">
        <ele>1594.6929931640625</ele>
        <time>2020-11-02T11:50:43Z</time>
      </trkpt>
      <trkpt lat="40.593955993652344" lon="-4.185372352600098">
        <ele>1595.874755859375</ele>
        <time>2020-11-02T11:50:47Z</time>
      </trkpt>
      <trkpt lat="40.59390640258789" lon="-4.185308933258057">
        <ele>1597.0565185546875</ele>
        <time>2020-11-02T11:50:52Z</time>
      </trkpt>
      <trkpt lat="40.593875885009766" lon="-4.185259819030762">
        <ele>1597.0565185546875</ele>
        <time>2020-11-02T11:50:56Z</time>
      </trkpt>
      <trkpt lat="40.59383010864258" lon="-4.185208797454834">
        <ele>1597.0565185546875</ele>
        <time>2020-11-02T11:51:02Z</time>
      </trkpt>
      <trkpt lat="40.593788146972656" lon="-4.185153484344482">
        <ele>1597.0565185546875</ele>
        <time>2020-11-02T11:51:09Z</time>
      </trkpt>
      <trkpt lat="40.59376525878906" lon="-4.185081481933594">
        <ele>1597.0565185546875</ele>
        <time>2020-11-02T11:51:16Z</time>
      </trkpt>
      <trkpt lat="40.593719482421875" lon="-4.185029029846191">
        <ele>1597.0565185546875</ele>
        <time>2020-11-02T11:51:22Z</time>
      </trkpt>
      <trkpt lat="40.593685150146484" lon="-4.184975624084473">
        <ele>1598.3292236328125</ele>
        <time>2020-11-02T11:51:29Z</time>
      </trkpt>
      <trkpt lat="40.593666076660156" lon="-4.184903144836426">
        <ele>1600.420166015625</ele>
        <time>2020-11-02T11:51:36Z</time>
      </trkpt>
      <trkpt lat="40.5936279296875" lon="-4.184858798980713">
        <ele>1603.0565185546875</ele>
        <time>2020-11-02T11:51:42Z</time>
      </trkpt>
      <trkpt lat="40.59357833862305" lon="-4.184824466705322">
        <ele>1604.3292236328125</ele>
        <time>2020-11-02T11:51:48Z</time>
      </trkpt>
      <trkpt lat="40.593536376953125" lon="-4.184775352478027">
        <ele>1604.3292236328125</ele>
        <time>2020-11-02T11:51:55Z</time>
      </trkpt>
      <trkpt lat="40.59333038330078" lon="-4.184605121612549">
        <ele>1605.6019287109375</ele>
        <time>2020-11-02T11:55:07Z</time>
      </trkpt>
      <trkpt lat="40.59324264526367" lon="-4.184585094451904">
        <ele>1605.6019287109375</ele>
        <time>2020-11-02T11:55:11Z</time>
      </trkpt>
      <trkpt lat="40.593177795410156" lon="-4.18460750579834">
        <ele>1606.78369140625</ele>
        <time>2020-11-02T11:55:17Z</time>
      </trkpt>
      <trkpt lat="40.59312438964844" lon="-4.184645652770996">
        <ele>1606.78369140625</ele>
        <time>2020-11-02T11:55:21Z</time>
      </trkpt>
      <trkpt lat="40.59306335449219" lon="-4.1846604347229">
        <ele>1607.9654541015625</ele>
        <time>2020-11-02T11:55:25Z</time>
      </trkpt>
      <trkpt lat="40.59300994873047" lon="-4.184690475463867">
        <ele>1607.9654541015625</ele>
        <time>2020-11-02T11:55:29Z</time>
      </trkpt>
      <trkpt lat="40.59295654296875" lon="-4.184732437133789">
        <ele>1609.147216796875</ele>
        <time>2020-11-02T11:55:33Z</time>
      </trkpt>
      <trkpt lat="40.5929069519043" lon="-4.184776782989502">
        <ele>1610.3289794921875</ele>
        <time>2020-11-02T11:55:37Z</time>
      </trkpt>
      <trkpt lat="40.59285354614258" lon="-4.184806823730469">
        <ele>1610.3289794921875</ele>
        <time>2020-11-02T11:55:41Z</time>
      </trkpt>
      <trkpt lat="40.592803955078125" lon="-4.184835910797119">
        <ele>1611.5107421875</ele>
        <time>2020-11-02T11:55:45Z</time>
      </trkpt>
      <trkpt lat="40.59276580810547" lon="-4.184877395629883">
        <ele>1612.783447265625</ele>
        <time>2020-11-02T11:55:49Z</time>
      </trkpt>
      <trkpt lat="40.59273147583008" lon="-4.18491792678833">
        <ele>1613.9652099609375</ele>
        <time>2020-11-02T11:55:53Z</time>
      </trkpt>
      <trkpt lat="40.59268569946289" lon="-4.184958457946777">
        <ele>1613.9652099609375</ele>
        <time>2020-11-02T11:55:58Z</time>
      </trkpt>
      <trkpt lat="40.59263610839844" lon="-4.184994697570801">
        <ele>1615.14697265625</ele>
        <time>2020-11-02T11:56:03Z</time>
      </trkpt>
      <trkpt lat="40.59259033203125" lon="-4.185030937194824">
        <ele>1613.95166015625</ele>
        <time>2020-11-02T11:56:08Z</time>
      </trkpt>
      <trkpt lat="40.59254455566406" lon="-4.185074329376221">
        <ele>1615.1334228515625</ele>
        <time>2020-11-02T11:56:14Z</time>
      </trkpt>
      <trkpt lat="40.592498779296875" lon="-4.185100555419922">
        <ele>1616.315185546875</ele>
        <time>2020-11-02T11:56:19Z</time>
      </trkpt>
      <trkpt lat="40.59244918823242" lon="-4.185128211975098">
        <ele>1617.587890625</ele>
        <time>2020-11-02T11:56:25Z</time>
      </trkpt>
      <trkpt lat="40.59239959716797" lon="-4.18515682220459">
        <ele>1618.860595703125</ele>
        <time>2020-11-02T11:56:32Z</time>
      </trkpt>
      <trkpt lat="40.59235382080078" lon="-4.1851887702941895">
        <ele>1618.860595703125</ele>
        <time>2020-11-02T11:56:40Z</time>
      </trkpt>
      <trkpt lat="40.592308044433594" lon="-4.185232639312744">
        <ele>1621.406005859375</ele>
        <time>2020-11-02T11:56:48Z</time>
      </trkpt>
      <trkpt lat="40.5922737121582" lon="-4.185283660888672">
        <ele>1622.6787109375</ele>
        <time>2020-11-02T11:56:54Z</time>
      </trkpt>
      <trkpt lat="40.592220306396484" lon="-4.185314178466797">
        <ele>1623.8604736328125</ele>
        <time>2020-11-02T11:57:00Z</time>
      </trkpt>
      <trkpt lat="40.5921745300293" lon="-4.185360431671143">
        <ele>1625.042236328125</ele>
        <time>2020-11-02T11:57:05Z</time>
      </trkpt>
      <trkpt lat="40.59213638305664" lon="-4.18538761138916">
        <ele>1626.31494140625</ele>
        <time>2020-11-02T11:57:10Z</time>
      </trkpt>
      <trkpt lat="40.59209060668945" lon="-4.1854248046875">
        <ele>1628.678466796875</ele>
        <time>2020-11-02T11:57:18Z</time>
      </trkpt>
      <trkpt lat="40.592044830322266" lon="-4.185456275939941">
        <ele>1629.8602294921875</ele>
        <time>2020-11-02T11:57:27Z</time>
      </trkpt>
      <trkpt lat="40.59200668334961" lon="-4.185504913330078">
        <ele>1631.0419921875</ele>
        <time>2020-11-02T11:57:35Z</time>
      </trkpt>
      <trkpt lat="40.59196090698242" lon="-4.185542106628418">
        <ele>1632.2237548828125</ele>
        <time>2020-11-02T11:57:42Z</time>
      </trkpt>
      <trkpt lat="40.59193420410156" lon="-4.185605525970459">
        <ele>1639.69140625</ele>
        <time>2020-11-02T11:57:49Z</time>
      </trkpt>
      <trkpt lat="40.591896057128906" lon="-4.185649871826172">
        <ele>1640.964111328125</ele>
        <time>2020-11-02T11:57:59Z</time>
      </trkpt>
      <trkpt lat="40.59185028076172" lon="-4.185686111450195">
        <ele>1640.964111328125</ele>
        <time>2020-11-02T11:58:08Z</time>
      </trkpt>
      <trkpt lat="40.59180450439453" lon="-4.185716152191162">
        <ele>1642.23681640625</ele>
        <time>2020-11-02T11:58:15Z</time>
      </trkpt>
      <trkpt lat="40.59175109863281" lon="-4.185751438140869">
        <ele>1643.509521484375</ele>
        <time>2020-11-02T11:58:24Z</time>
      </trkpt>
      <trkpt lat="40.59170913696289" lon="-4.185786724090576">
        <ele>1645.9639892578125</ele>
        <time>2020-11-02T11:58:33Z</time>
      </trkpt>
      <trkpt lat="40.5916633605957" lon="-4.18582010269165">
        <ele>1647.145751953125</ele>
        <time>2020-11-02T11:58:44Z</time>
      </trkpt>
      <trkpt lat="40.591617584228516" lon="-4.185871124267578">
        <ele>1648.3275146484375</ele>
        <time>2020-11-02T11:58:53Z</time>
      </trkpt>
      <trkpt lat="40.591575622558594" lon="-4.185906887054443">
        <ele>1649.50927734375</ele>
        <time>2020-11-02T11:59:01Z</time>
      </trkpt>
      <trkpt lat="40.591529846191406" lon="-4.185918807983398">
        <ele>1650.6910400390625</ele>
        <time>2020-11-02T11:59:08Z</time>
      </trkpt>
      <trkpt lat="40.59149169921875" lon="-4.185971260070801">
        <ele>1651.9637451171875</ele>
        <time>2020-11-02T11:59:16Z</time>
      </trkpt>
      <trkpt lat="40.591468811035156" lon="-4.186033248901367">
        <ele>1653.1455078125</ele>
        <time>2020-11-02T11:59:23Z</time>
      </trkpt>
      <trkpt lat="40.59144592285156" lon="-4.186098575592041">
        <ele>1654.418212890625</ele>
        <time>2020-11-02T11:59:30Z</time>
      </trkpt>
      <trkpt lat="40.59140396118164" lon="-4.186138153076172">
        <ele>1654.418212890625</ele>
        <time>2020-11-02T11:59:38Z</time>
      </trkpt>
      <trkpt lat="40.59135055541992" lon="-4.186158657073975">
        <ele>1655.5999755859375</ele>
        <time>2020-11-02T11:59:47Z</time>
      </trkpt>
      <trkpt lat="40.59130859375" lon="-4.186193466186523">
        <ele>1656.0870361328125</ele>
        <time>2020-11-02T11:59:54Z</time>
      </trkpt>
      <trkpt lat="40.59126663208008" lon="-4.186241149902344">
        <ele>1657.268798828125</ele>
        <time>2020-11-02T12:00:02Z</time>
      </trkpt>
      <trkpt lat="40.59122848510742" lon="-4.186293125152588">
        <ele>1658.4505615234375</ele>
        <time>2020-11-02T12:00:10Z</time>
      </trkpt>
      <trkpt lat="40.59117889404297" lon="-4.186304092407227">
        <ele>1659.63232421875</ele>
        <time>2020-11-02T12:00:19Z</time>
      </trkpt>
      <trkpt lat="40.591121673583984" lon="-4.1863017082214355">
        <ele>1660.8140869140625</ele>
        <time>2020-11-02T12:00:28Z</time>
      </trkpt>
      <trkpt lat="40.591060638427734" lon="-4.186313152313232">
        <ele>1660.8140869140625</ele>
        <time>2020-11-02T12:00:37Z</time>
      </trkpt>
      <trkpt lat="40.59101486206055" lon="-4.186336040496826">
        <ele>1661.995849609375</ele>
        <time>2020-11-02T12:00:44Z</time>
      </trkpt>
      <trkpt lat="40.59096145629883" lon="-4.18637228012085">
        <ele>1663.1776123046875</ele>
        <time>2020-11-02T12:00:51Z</time>
      </trkpt>
      <trkpt lat="40.590911865234375" lon="-4.186407566070557">
        <ele>1664.359375</ele>
        <time>2020-11-02T12:00:58Z</time>
      </trkpt>
      <trkpt lat="40.59086990356445" lon="-4.18643045425415">
        <ele>1665.5411376953125</ele>
        <time>2020-11-02T12:01:04Z</time>
      </trkpt>
      <trkpt lat="40.590816497802734" lon="-4.186484336853027">
        <ele>1666.8138427734375</ele>
        <time>2020-11-02T12:01:23Z</time>
      </trkpt>
      <trkpt lat="40.590763092041016" lon="-4.1865105628967285">
        <ele>1666.8138427734375</ele>
        <time>2020-11-02T12:01:31Z</time>
      </trkpt>
      <trkpt lat="40.59072494506836" lon="-4.186553478240967">
        <ele>1667.99560546875</ele>
        <time>2020-11-02T12:01:39Z</time>
      </trkpt>
      <trkpt lat="40.59069061279297" lon="-4.186611175537109">
        <ele>1669.1773681640625</ele>
        <time>2020-11-02T12:01:46Z</time>
      </trkpt>
      <trkpt lat="40.590641021728516" lon="-4.186623573303223">
        <ele>1669.1773681640625</ele>
        <time>2020-11-02T12:01:55Z</time>
      </trkpt>
      <trkpt lat="40.59058380126953" lon="-4.186642169952393">
        <ele>1670.4500732421875</ele>
        <time>2020-11-02T12:02:02Z</time>
      </trkpt>
      <trkpt lat="40.59053039550781" lon="-4.1866655349731445">
        <ele>1670.4500732421875</ele>
        <time>2020-11-02T12:02:09Z</time>
      </trkpt>
      <trkpt lat="40.590492248535156" lon="-4.186703205108643">
        <ele>1671.6318359375</ele>
        <time>2020-11-02T12:02:15Z</time>
      </trkpt>
      <trkpt lat="40.5904426574707" lon="-4.186744213104248">
        <ele>1671.6318359375</ele>
        <time>2020-11-02T12:02:22Z</time>
      </trkpt>
      <trkpt lat="40.590396881103516" lon="-4.186775207519531">
        <ele>1672.440185546875</ele>
        <time>2020-11-02T12:02:27Z</time>
      </trkpt>
      <trkpt lat="40.59033203125" lon="-4.186795711517334">
        <ele>1672.440185546875</ele>
        <time>2020-11-02T12:02:32Z</time>
      </trkpt>
      <trkpt lat="40.59028244018555" lon="-4.186830997467041">
        <ele>1673.6219482421875</ele>
        <time>2020-11-02T12:02:36Z</time>
      </trkpt>
      <trkpt lat="40.590232849121094" lon="-4.186861038208008">
        <ele>1673.6219482421875</ele>
        <time>2020-11-02T12:02:40Z</time>
      </trkpt>
      <trkpt lat="40.590187072753906" lon="-4.186889171600342">
        <ele>1673.6219482421875</ele>
        <time>2020-11-02T12:02:44Z</time>
      </trkpt>
      <trkpt lat="40.59013748168945" lon="-4.186927795410156">
        <ele>1673.6219482421875</ele>
        <time>2020-11-02T12:02:49Z</time>
      </trkpt>
      <trkpt lat="40.590087890625" lon="-4.186950206756592">
        <ele>1673.6219482421875</ele>
        <time>2020-11-02T12:02:54Z</time>
      </trkpt>
      <trkpt lat="40.59003829956055" lon="-4.186972141265869">
        <ele>1673.6219482421875</ele>
        <time>2020-11-02T12:02:59Z</time>
      </trkpt>
      <trkpt lat="40.589988708496094" lon="-4.187007427215576">
        <ele>1674.8037109375</ele>
        <time>2020-11-02T12:03:04Z</time>
      </trkpt>
      <trkpt lat="40.58994674682617" lon="-4.187042236328125">
        <ele>1674.8037109375</ele>
        <time>2020-11-02T12:03:08Z</time>
      </trkpt>
      <trkpt lat="40.58989715576172" lon="-4.187087059020996">
        <ele>1674.8037109375</ele>
        <time>2020-11-02T12:03:14Z</time>
      </trkpt>
      <trkpt lat="40.58985137939453" lon="-4.187122821807861">
        <ele>1674.8037109375</ele>
        <time>2020-11-02T12:03:20Z</time>
      </trkpt>
      <trkpt lat="40.58979415893555" lon="-4.187158584594727">
        <ele>1674.8037109375</ele>
        <time>2020-11-02T12:03:25Z</time>
      </trkpt>
      <trkpt lat="40.5897331237793" lon="-4.187189102172852">
        <ele>1674.8037109375</ele>
        <time>2020-11-02T12:03:29Z</time>
      </trkpt>
      <trkpt lat="40.58967208862305" lon="-4.187221527099609">
        <ele>1674.8037109375</ele>
        <time>2020-11-02T12:03:32Z</time>
      </trkpt>
      <trkpt lat="40.58962631225586" lon="-4.187244892120361">
        <ele>1674.8037109375</ele>
        <time>2020-11-02T12:03:34Z</time>
      </trkpt>
      <trkpt lat="40.589542388916016" lon="-4.187290191650391">
        <ele>1674.8037109375</ele>
        <time>2020-11-02T12:03:38Z</time>
      </trkpt>
      <trkpt lat="40.589481353759766" lon="-4.187329292297363">
        <ele>1674.8037109375</ele>
        <time>2020-11-02T12:03:41Z</time>
      </trkpt>
      <trkpt lat="40.58941650390625" lon="-4.187372207641602">
        <ele>1673.531005859375</ele>
        <time>2020-11-02T12:03:44Z</time>
      </trkpt>
      <trkpt lat="40.589378356933594" lon="-4.18740701675415">
        <ele>1672.076416015625</ele>
        <time>2020-11-02T12:03:46Z</time>
      </trkpt>
      <trkpt lat="40.589324951171875" lon="-4.187473773956299">
        <ele>1670.7127685546875</ele>
        <time>2020-11-02T12:03:49Z</time>
      </trkpt>
      <trkpt lat="40.589271545410156" lon="-4.1875481605529785">
        <ele>1670.7127685546875</ele>
        <time>2020-11-02T12:03:52Z</time>
      </trkpt>
      <trkpt lat="40.589237213134766" lon="-4.187602996826172">
        <ele>1670.7127685546875</ele>
        <time>2020-11-02T12:03:54Z</time>
      </trkpt>
      <trkpt lat="40.58919906616211" lon="-4.187659740447998">
        <ele>1670.7127685546875</ele>
        <time>2020-11-02T12:03:56Z</time>
      </trkpt>
      <trkpt lat="40.58916091918945" lon="-4.187716484069824">
        <ele>1670.7127685546875</ele>
        <time>2020-11-02T12:03:58Z</time>
      </trkpt>
      <trkpt lat="40.58912658691406" lon="-4.187771797180176">
        <ele>1670.7127685546875</ele>
        <time>2020-11-02T12:04:00Z</time>
      </trkpt>
      <trkpt lat="40.58909225463867" lon="-4.187827110290527">
        <ele>1669.531005859375</ele>
        <time>2020-11-02T12:04:02Z</time>
      </trkpt>
      <trkpt lat="40.589046478271484" lon="-4.187875747680664">
        <ele>1669.531005859375</ele>
        <time>2020-11-02T12:04:04Z</time>
      </trkpt>
      <trkpt lat="40.5890007019043" lon="-4.187915325164795">
        <ele>1669.531005859375</ele>
        <time>2020-11-02T12:04:06Z</time>
      </trkpt>
      <trkpt lat="40.588951110839844" lon="-4.1879472732543945">
        <ele>1669.531005859375</ele>
        <time>2020-11-02T12:04:08Z</time>
      </trkpt>
      <trkpt lat="40.58890151977539" lon="-4.187973499298096">
        <ele>1669.531005859375</ele>
        <time>2020-11-02T12:04:10Z</time>
      </trkpt>
      <trkpt lat="40.58884811401367" lon="-4.18800163269043">
        <ele>1669.531005859375</ele>
        <time>2020-11-02T12:04:12Z</time>
      </trkpt>
      <trkpt lat="40.58879852294922" lon="-4.188029766082764">
        <ele>1669.531005859375</ele>
        <time>2020-11-02T12:04:14Z</time>
      </trkpt>
      <trkpt lat="40.5887451171875" lon="-4.188063621520996">
        <ele>1669.531005859375</ele>
        <time>2020-11-02T12:04:16Z</time>
      </trkpt>
      <trkpt lat="40.58869552612305" lon="-4.188098907470703">
        <ele>1668.3492431640625</ele>
        <time>2020-11-02T12:04:18Z</time>
      </trkpt>
      <trkpt lat="40.58864212036133" lon="-4.188125133514404">
        <ele>1668.3492431640625</ele>
        <time>2020-11-02T12:04:20Z</time>
      </trkpt>
      <trkpt lat="40.58858871459961" lon="-4.188142776489258">
        <ele>1668.3492431640625</ele>
        <time>2020-11-02T12:04:22Z</time>
      </trkpt>
      <trkpt lat="40.58853530883789" lon="-4.188157558441162">
        <ele>1667.16748046875</ele>
        <time>2020-11-02T12:04:24Z</time>
      </trkpt>
      <trkpt lat="40.588478088378906" lon="-4.188173770904541">
        <ele>1667.16748046875</ele>
        <time>2020-11-02T12:04:26Z</time>
      </trkpt>
      <trkpt lat="40.58842468261719" lon="-4.188198089599609">
        <ele>1667.16748046875</ele>
        <time>2020-11-02T12:04:28Z</time>
      </trkpt>
      <trkpt lat="40.58837127685547" lon="-4.188230991363525">
        <ele>1667.16748046875</ele>
        <time>2020-11-02T12:04:30Z</time>
      </trkpt>
      <trkpt lat="40.588314056396484" lon="-4.18826150894165">
        <ele>1665.9857177734375</ele>
        <time>2020-11-02T12:04:32Z</time>
      </trkpt>
      <trkpt lat="40.5882568359375" lon="-4.188284397125244">
        <ele>1665.9857177734375</ele>
        <time>2020-11-02T12:04:34Z</time>
      </trkpt>
      <trkpt lat="40.588199615478516" lon="-4.188297748565674">
        <ele>1664.6220703125</ele>
        <time>2020-11-02T12:04:36Z</time>
      </trkpt>
      <trkpt lat="40.5881462097168" lon="-4.188313007354736">
        <ele>1664.6220703125</ele>
        <time>2020-11-02T12:04:38Z</time>
      </trkpt>
      <trkpt lat="40.58810043334961" lon="-4.188340187072754">
        <ele>1664.6220703125</ele>
        <time>2020-11-02T12:04:40Z</time>
      </trkpt>
      <trkpt lat="40.58806228637695" lon="-4.1883745193481445">
        <ele>1663.2584228515625</ele>
        <time>2020-11-02T12:04:42Z</time>
      </trkpt>
      <trkpt lat="40.588016510009766" lon="-4.188438415527344">
        <ele>1662.07666015625</ele>
        <time>2020-11-02T12:04:45Z</time>
      </trkpt>
      <trkpt lat="40.58797836303711" lon="-4.188516616821289">
        <ele>1669.206298828125</ele>
        <time>2020-11-02T12:04:48Z</time>
      </trkpt>
      <trkpt lat="40.58794403076172" lon="-4.1885905265808105">
        <ele>1669.206298828125</ele>
        <time>2020-11-02T12:04:51Z</time>
      </trkpt>
      <trkpt lat="40.58790969848633" lon="-4.188673496246338">
        <ele>1667.8426513671875</ele>
        <time>2020-11-02T12:04:54Z</time>
      </trkpt>
      <trkpt lat="40.58788299560547" lon="-4.188735485076904">
        <ele>1667.8426513671875</ele>
        <time>2020-11-02T12:04:56Z</time>
      </trkpt>
      <trkpt lat="40.58786392211914" lon="-4.188799858093262">
        <ele>1666.660888671875</ele>
        <time>2020-11-02T12:04:58Z</time>
      </trkpt>
      <trkpt lat="40.58784484863281" lon="-4.188866138458252">
        <ele>1665.4791259765625</ele>
        <time>2020-11-02T12:05:00Z</time>
      </trkpt>
      <trkpt lat="40.58782958984375" lon="-4.188931941986084">
        <ele>1665.4791259765625</ele>
        <time>2020-11-02T12:05:02Z</time>
      </trkpt>
      <trkpt lat="40.58781051635742" lon="-4.188992977142334">
        <ele>1664.115478515625</ele>
        <time>2020-11-02T12:05:04Z</time>
      </trkpt>
      <trkpt lat="40.58777618408203" lon="-4.189077377319336">
        <ele>1664.115478515625</ele>
        <time>2020-11-02T12:05:07Z</time>
      </trkpt>
      <trkpt lat="40.587738037109375" lon="-4.189161777496338">
        <ele>1662.8427734375</ele>
        <time>2020-11-02T12:05:10Z</time>
      </trkpt>
      <trkpt lat="40.58769989013672" lon="-4.189246654510498">
        <ele>1661.6610107421875</ele>
        <time>2020-11-02T12:05:13Z</time>
      </trkpt>
      <trkpt lat="40.587669372558594" lon="-4.189298152923584">
        <ele>1661.6610107421875</ele>
        <time>2020-11-02T12:05:15Z</time>
      </trkpt>
      <trkpt lat="40.587623596191406" lon="-4.189381122589111">
        <ele>1660.3883056640625</ele>
        <time>2020-11-02T12:05:18Z</time>
      </trkpt>
      <trkpt lat="40.58759689331055" lon="-4.1894354820251465">
        <ele>1660.3883056640625</ele>
        <time>2020-11-02T12:05:20Z</time>
      </trkpt>
      <trkpt lat="40.587562561035156" lon="-4.18951940536499">
        <ele>1659.024658203125</ele>
        <time>2020-11-02T12:05:23Z</time>
      </trkpt>
      <trkpt lat="40.5875358581543" lon="-4.189576148986816">
        <ele>1657.6610107421875</ele>
        <time>2020-11-02T12:05:25Z</time>
      </trkpt>
      <trkpt lat="40.58749771118164" lon="-4.189665794372559">
        <ele>1657.6610107421875</ele>
        <time>2020-11-02T12:05:28Z</time>
      </trkpt>
      <trkpt lat="40.58747100830078" lon="-4.189720153808594">
        <ele>1656.1156005859375</ele>
        <time>2020-11-02T12:05:30Z</time>
      </trkpt>
      <trkpt lat="40.58743667602539" lon="-4.189807891845703">
        <ele>1654.933837890625</ele>
        <time>2020-11-02T12:05:33Z</time>
      </trkpt>
      <trkpt lat="40.58740997314453" lon="-4.189894199371338">
        <ele>1653.7520751953125</ele>
        <time>2020-11-02T12:05:36Z</time>
      </trkpt>
      <trkpt lat="40.58738327026367" lon="-4.189980983734131">
        <ele>1652.388427734375</ele>
        <time>2020-11-02T12:05:39Z</time>
      </trkpt>
      <trkpt lat="40.58735275268555" lon="-4.190067291259766">
        <ele>1652.388427734375</ele>
        <time>2020-11-02T12:05:42Z</time>
      </trkpt>
      <trkpt lat="40.58732986450195" lon="-4.190161228179932">
        <ele>1651.2066650390625</ele>
        <time>2020-11-02T12:05:45Z</time>
      </trkpt>
      <trkpt lat="40.58731460571289" lon="-4.190222263336182">
        <ele>1649.9339599609375</ele>
        <time>2020-11-02T12:05:47Z</time>
      </trkpt>
      <trkpt lat="40.58729553222656" lon="-4.190311908721924">
        <ele>1649.9339599609375</ele>
        <time>2020-11-02T12:05:50Z</time>
      </trkpt>
      <trkpt lat="40.587276458740234" lon="-4.19040060043335">
        <ele>1648.6612548828125</ele>
        <time>2020-11-02T12:05:53Z</time>
      </trkpt>
      <trkpt lat="40.58726501464844" lon="-4.19045877456665">
        <ele>1647.3885498046875</ele>
        <time>2020-11-02T12:05:55Z</time>
      </trkpt>
      <trkpt lat="40.58723449707031" lon="-4.190539360046387">
        <ele>1647.3885498046875</ele>
        <time>2020-11-02T12:05:58Z</time>
      </trkpt>
      <trkpt lat="40.58720016479492" lon="-4.190617561340332">
        <ele>1646.206787109375</ele>
        <time>2020-11-02T12:06:01Z</time>
      </trkpt>
      <trkpt lat="40.58716583251953" lon="-4.190693378448486">
        <ele>1645.0250244140625</ele>
        <time>2020-11-02T12:06:04Z</time>
      </trkpt>
      <trkpt lat="40.58713150024414" lon="-4.190760135650635">
        <ele>1643.84326171875</ele>
        <time>2020-11-02T12:06:07Z</time>
      </trkpt>
      <trkpt lat="40.58708953857422" lon="-4.190814971923828">
        <ele>1642.2978515625</ele>
        <time>2020-11-02T12:06:10Z</time>
      </trkpt>
      <trkpt lat="40.58702850341797" lon="-4.190873146057129">
        <ele>1640.9342041015625</ele>
        <time>2020-11-02T12:06:13Z</time>
      </trkpt>
      <trkpt lat="40.58699035644531" lon="-4.190918445587158">
        <ele>1639.4796142578125</ele>
        <time>2020-11-02T12:06:15Z</time>
      </trkpt>
      <trkpt lat="40.586936950683594" lon="-4.190987586975098">
        <ele>1639.4796142578125</ele>
        <time>2020-11-02T12:06:18Z</time>
      </trkpt>
      <trkpt lat="40.58689880371094" lon="-4.191030979156494">
        <ele>1638.2069091796875</ele>
        <time>2020-11-02T12:06:20Z</time>
      </trkpt>
      <trkpt lat="40.58684539794922" lon="-4.191087245941162">
        <ele>1637.025146484375</ele>
        <time>2020-11-02T12:06:23Z</time>
      </trkpt>
      <trkpt lat="40.58680725097656" lon="-4.191123008728027">
        <ele>1637.025146484375</ele>
        <time>2020-11-02T12:06:25Z</time>
      </trkpt>
      <trkpt lat="40.586753845214844" lon="-4.191184997558594">
        <ele>1635.75244140625</ele>
        <time>2020-11-02T12:06:28Z</time>
      </trkpt>
      <trkpt lat="40.58671569824219" lon="-4.19121789932251">
        <ele>1634.5706787109375</ele>
        <time>2020-11-02T12:06:30Z</time>
      </trkpt>
      <trkpt lat="40.58666229248047" lon="-4.191266059875488">
        <ele>1634.5706787109375</ele>
        <time>2020-11-02T12:06:33Z</time>
      </trkpt>
      <trkpt lat="40.58660888671875" lon="-4.1913275718688965">
        <ele>1634.5706787109375</ele>
        <time>2020-11-02T12:06:36Z</time>
      </trkpt>
      <trkpt lat="40.586551666259766" lon="-4.191372871398926">
        <ele>1633.388916015625</ele>
        <time>2020-11-02T12:06:39Z</time>
      </trkpt>
      <trkpt lat="40.586490631103516" lon="-4.191417217254639">
        <ele>1633.388916015625</ele>
        <time>2020-11-02T12:06:42Z</time>
      </trkpt>
      <trkpt lat="40.58644104003906" lon="-4.191469669342041">
        <ele>1633.388916015625</ele>
        <time>2020-11-02T12:06:45Z</time>
      </trkpt>
      <trkpt lat="40.586387634277344" lon="-4.1915202140808105">
        <ele>1632.0252685546875</ele>
        <time>2020-11-02T12:06:48Z</time>
      </trkpt>
      <trkpt lat="40.58635330200195" lon="-4.191562175750732">
        <ele>1634.330078125</ele>
        <time>2020-11-02T12:06:50Z</time>
      </trkpt>
      <trkpt lat="40.586299896240234" lon="-4.19163179397583">
        <ele>1633.1483154296875</ele>
        <time>2020-11-02T12:06:53Z</time>
      </trkpt>
      <trkpt lat="40.586246490478516" lon="-4.191701889038086">
        <ele>1633.1483154296875</ele>
        <time>2020-11-02T12:06:56Z</time>
      </trkpt>
      <trkpt lat="40.586204528808594" lon="-4.191748142242432">
        <ele>1631.78466796875</ele>
        <time>2020-11-02T12:06:58Z</time>
      </trkpt>
      <trkpt lat="40.58616638183594" lon="-4.191800117492676">
        <ele>1631.78466796875</ele>
        <time>2020-11-02T12:07:00Z</time>
      </trkpt>
      <trkpt lat="40.58613204956055" lon="-4.191849708557129">
        <ele>1630.511962890625</ele>
        <time>2020-11-02T12:07:02Z</time>
      </trkpt>
      <trkpt lat="40.58609390258789" lon="-4.191898822784424">
        <ele>1630.511962890625</ele>
        <time>2020-11-02T12:07:04Z</time>
      </trkpt>
      <trkpt lat="40.58605194091797" lon="-4.191944122314453">
        <ele>1629.2392578125</ele>
        <time>2020-11-02T12:07:06Z</time>
      </trkpt>
      <trkpt lat="40.58600997924805" lon="-4.19198751449585">
        <ele>1629.2392578125</ele>
        <time>2020-11-02T12:07:08Z</time>
      </trkpt>
      <trkpt lat="40.585968017578125" lon="-4.19203519821167">
        <ele>1629.2392578125</ele>
        <time>2020-11-02T12:07:10Z</time>
      </trkpt>
      <trkpt lat="40.5859260559082" lon="-4.192083835601807">
        <ele>1628.0574951171875</ele>
        <time>2020-11-02T12:07:12Z</time>
      </trkpt>
      <trkpt lat="40.58588790893555" lon="-4.192128658294678">
        <ele>1628.0574951171875</ele>
        <time>2020-11-02T12:07:14Z</time>
      </trkpt>
      <trkpt lat="40.58583450317383" lon="-4.192195415496826">
        <ele>1628.0574951171875</ele>
        <time>2020-11-02T12:07:17Z</time>
      </trkpt>
      <trkpt lat="40.58580017089844" lon="-4.1922430992126465">
        <ele>1628.0574951171875</ele>
        <time>2020-11-02T12:07:19Z</time>
      </trkpt>
      <trkpt lat="40.58574295043945" lon="-4.192302227020264">
        <ele>1628.0574951171875</ele>
        <time>2020-11-02T12:07:22Z</time>
      </trkpt>
      <trkpt lat="40.5856819152832" lon="-4.192363739013672">
        <ele>1628.0574951171875</ele>
        <time>2020-11-02T12:07:25Z</time>
      </trkpt>
      <trkpt lat="40.58564376831055" lon="-4.1924147605896">
        <ele>1628.0574951171875</ele>
        <time>2020-11-02T12:07:27Z</time>
      </trkpt>
      <trkpt lat="40.58561325073242" lon="-4.192471504211426">
        <ele>1628.0574951171875</ele>
        <time>2020-11-02T12:07:29Z</time>
      </trkpt>
      <trkpt lat="40.58558654785156" lon="-4.192534923553467">
        <ele>1628.0574951171875</ele>
        <time>2020-11-02T12:07:31Z</time>
      </trkpt>
      <trkpt lat="40.585567474365234" lon="-4.192601680755615">
        <ele>1628.0574951171875</ele>
        <time>2020-11-02T12:07:33Z</time>
      </trkpt>
      <trkpt lat="40.58555603027344" lon="-4.192670822143555">
        <ele>1626.875732421875</ele>
        <time>2020-11-02T12:07:35Z</time>
      </trkpt>
      <trkpt lat="40.58555221557617" lon="-4.19274377822876">
        <ele>1626.875732421875</ele>
        <time>2020-11-02T12:07:37Z</time>
      </trkpt>
      <trkpt lat="40.585548400878906" lon="-4.192821025848389">
        <ele>1626.875732421875</ele>
        <time>2020-11-02T12:07:39Z</time>
      </trkpt>
      <trkpt lat="40.58555221557617" lon="-4.192897319793701">
        <ele>1626.875732421875</ele>
        <time>2020-11-02T12:07:41Z</time>
      </trkpt>
      <trkpt lat="40.58555603027344" lon="-4.192965507507324">
        <ele>1626.875732421875</ele>
        <time>2020-11-02T12:07:43Z</time>
      </trkpt>
      <trkpt lat="40.5855598449707" lon="-4.19303560256958">
        <ele>1626.875732421875</ele>
        <time>2020-11-02T12:07:45Z</time>
      </trkpt>
      <trkpt lat="40.5855712890625" lon="-4.193105697631836">
        <ele>1626.875732421875</ele>
        <time>2020-11-02T12:07:47Z</time>
      </trkpt>
      <trkpt lat="40.58558654785156" lon="-4.193174839019775">
        <ele>1626.875732421875</ele>
        <time>2020-11-02T12:07:49Z</time>
      </trkpt>
      <trkpt lat="40.585601806640625" lon="-4.193240165710449">
        <ele>1626.875732421875</ele>
        <time>2020-11-02T12:07:51Z</time>
      </trkpt>
      <trkpt lat="40.58562088012695" lon="-4.1933064460754395">
        <ele>1625.60302734375</ele>
        <time>2020-11-02T12:07:53Z</time>
      </trkpt>
      <trkpt lat="40.58563995361328" lon="-4.193371772766113">
        <ele>1625.60302734375</ele>
        <time>2020-11-02T12:07:55Z</time>
      </trkpt>
      <trkpt lat="40.58566665649414" lon="-4.193438529968262">
        <ele>1625.60302734375</ele>
        <time>2020-11-02T12:07:57Z</time>
      </trkpt>
      <trkpt lat="40.585689544677734" lon="-4.193498611450195">
        <ele>1624.2393798828125</ele>
        <time>2020-11-02T12:07:59Z</time>
      </trkpt>
      <trkpt lat="40.585716247558594" lon="-4.193558216094971">
        <ele>1624.2393798828125</ele>
        <time>2020-11-02T12:08:01Z</time>
      </trkpt>
      <trkpt lat="40.58574295043945" lon="-4.193615913391113">
        <ele>1622.875732421875</ele>
        <time>2020-11-02T12:08:03Z</time>
      </trkpt>
      <trkpt lat="40.58576583862305" lon="-4.193673610687256">
        <ele>1622.875732421875</ele>
        <time>2020-11-02T12:08:05Z</time>
      </trkpt>
      <trkpt lat="40.585792541503906" lon="-4.19376802444458">
        <ele>1621.6939697265625</ele>
        <time>2020-11-02T12:08:08Z</time>
      </trkpt>
      <trkpt lat="40.5858039855957" lon="-4.1938347816467285">
        <ele>1621.6939697265625</ele>
        <time>2020-11-02T12:08:10Z</time>
      </trkpt>
      <trkpt lat="40.5858154296875" lon="-4.193936347961426">
        <ele>1621.6939697265625</ele>
        <time>2020-11-02T12:08:13Z</time>
      </trkpt>
      <trkpt lat="40.5858154296875" lon="-4.194004058837891">
        <ele>1620.4212646484375</ele>
        <time>2020-11-02T12:08:15Z</time>
      </trkpt>
      <trkpt lat="40.5858039855957" lon="-4.194068908691406">
        <ele>1620.4212646484375</ele>
        <time>2020-11-02T12:08:17Z</time>
      </trkpt>
      <trkpt lat="40.585777282714844" lon="-4.1941609382629395">
        <ele>1620.4212646484375</ele>
        <time>2020-11-02T12:08:20Z</time>
      </trkpt>
      <trkpt lat="40.585758209228516" lon="-4.194223403930664">
        <ele>1619.1485595703125</ele>
        <time>2020-11-02T12:08:22Z</time>
      </trkpt>
      <trkpt lat="40.585731506347656" lon="-4.194319725036621">
        <ele>1619.1485595703125</ele>
        <time>2020-11-02T12:08:25Z</time>
      </trkpt>
      <trkpt lat="40.58572006225586" lon="-4.194383144378662">
        <ele>1619.1485595703125</ele>
        <time>2020-11-02T12:08:27Z</time>
      </trkpt>
      <trkpt lat="40.58571243286133" lon="-4.1944499015808105">
        <ele>1617.784912109375</ele>
        <time>2020-11-02T12:08:29Z</time>
      </trkpt>
      <trkpt lat="40.58570861816406" lon="-4.194519996643066">
        <ele>1617.784912109375</ele>
        <time>2020-11-02T12:08:31Z</time>
      </trkpt>
      <trkpt lat="40.58570861816406" lon="-4.194592475891113">
        <ele>1617.784912109375</ele>
        <time>2020-11-02T12:08:33Z</time>
      </trkpt>
      <trkpt lat="40.58572006225586" lon="-4.194662570953369">
        <ele>1617.784912109375</ele>
        <time>2020-11-02T12:08:35Z</time>
      </trkpt>
      <trkpt lat="40.58573532104492" lon="-4.19473123550415">
        <ele>1617.784912109375</ele>
        <time>2020-11-02T12:08:37Z</time>
      </trkpt>
      <trkpt lat="40.585758209228516" lon="-4.194797515869141">
        <ele>1617.784912109375</ele>
        <time>2020-11-02T12:08:39Z</time>
      </trkpt>
      <trkpt lat="40.585777282714844" lon="-4.194862365722656">
        <ele>1616.6031494140625</ele>
        <time>2020-11-02T12:08:41Z</time>
      </trkpt>
      <trkpt lat="40.58580017089844" lon="-4.194928169250488">
        <ele>1616.6031494140625</ele>
        <time>2020-11-02T12:08:43Z</time>
      </trkpt>
      <trkpt lat="40.5858268737793" lon="-4.194986343383789">
        <ele>1616.6031494140625</ele>
        <time>2020-11-02T12:08:45Z</time>
      </trkpt>
      <trkpt lat="40.585853576660156" lon="-4.195042133331299">
        <ele>1616.6031494140625</ele>
        <time>2020-11-02T12:08:47Z</time>
      </trkpt>
      <trkpt lat="40.58590316772461" lon="-4.195128440856934">
        <ele>1609.2108154296875</ele>
        <time>2020-11-02T12:08:50Z</time>
      </trkpt>
      <trkpt lat="40.585933685302734" lon="-4.195185661315918">
        <ele>1609.2108154296875</ele>
        <time>2020-11-02T12:08:52Z</time>
      </trkpt>
      <trkpt lat="40.585960388183594" lon="-4.195244312286377">
        <ele>1609.2108154296875</ele>
        <time>2020-11-02T12:08:54Z</time>
      </trkpt>
      <trkpt lat="40.58598709106445" lon="-4.195302486419678">
        <ele>1609.2108154296875</ele>
        <time>2020-11-02T12:08:56Z</time>
      </trkpt>
      <trkpt lat="40.58601760864258" lon="-4.195358753204346">
        <ele>1609.2108154296875</ele>
        <time>2020-11-02T12:08:58Z</time>
      </trkpt>
      <trkpt lat="40.58604431152344" lon="-4.195420265197754">
        <ele>1609.2108154296875</ele>
        <time>2020-11-02T12:09:00Z</time>
      </trkpt>
      <trkpt lat="40.58606719970703" lon="-4.19548225402832">
        <ele>1608.029052734375</ele>
        <time>2020-11-02T12:09:02Z</time>
      </trkpt>
      <trkpt lat="40.586082458496094" lon="-4.195547580718994">
        <ele>1608.029052734375</ele>
        <time>2020-11-02T12:09:04Z</time>
      </trkpt>
      <trkpt lat="40.58606719970703" lon="-4.195633888244629">
        <ele>1608.029052734375</ele>
        <time>2020-11-02T12:09:07Z</time>
      </trkpt>
      <trkpt lat="40.58600616455078" lon="-4.195694446563721">
        <ele>1606.75634765625</ele>
        <time>2020-11-02T12:09:10Z</time>
      </trkpt>
      <trkpt lat="40.585933685302734" lon="-4.195737838745117">
        <ele>1606.75634765625</ele>
        <time>2020-11-02T12:09:13Z</time>
      </trkpt>
      <trkpt lat="40.585880279541016" lon="-4.195760250091553">
        <ele>1605.483642578125</ele>
        <time>2020-11-02T12:09:15Z</time>
      </trkpt>
      <trkpt lat="40.5858268737793" lon="-4.195779323577881">
        <ele>1604.3018798828125</ele>
        <time>2020-11-02T12:09:17Z</time>
      </trkpt>
      <trkpt lat="40.58576965332031" lon="-4.195797443389893">
        <ele>1604.3018798828125</ele>
        <time>2020-11-02T12:09:19Z</time>
      </trkpt>
      <trkpt lat="40.585716247558594" lon="-4.195813179016113">
        <ele>1604.3018798828125</ele>
        <time>2020-11-02T12:09:21Z</time>
      </trkpt>
      <trkpt lat="40.58566665649414" lon="-4.195826530456543">
        <ele>1602.938232421875</ele>
        <time>2020-11-02T12:09:23Z</time>
      </trkpt>
      <trkpt lat="40.585609436035156" lon="-4.195833683013916">
        <ele>1601.7564697265625</ele>
        <time>2020-11-02T12:09:25Z</time>
      </trkpt>
      <trkpt lat="40.58555603027344" lon="-4.195838451385498">
        <ele>1601.7564697265625</ele>
        <time>2020-11-02T12:09:27Z</time>
      </trkpt>
      <trkpt lat="40.58550262451172" lon="-4.195842742919922">
        <ele>1600.392822265625</ele>
        <time>2020-11-02T12:09:29Z</time>
      </trkpt>
      <trkpt lat="40.58544921875" lon="-4.1958441734313965">
        <ele>1599.1201171875</ele>
        <time>2020-11-02T12:09:31Z</time>
      </trkpt>
      <trkpt lat="40.58539581298828" lon="-4.195850849151611">
        <ele>1599.1201171875</ele>
        <time>2020-11-02T12:09:33Z</time>
      </trkpt>
      <trkpt lat="40.58534240722656" lon="-4.195857048034668">
        <ele>1597.66552734375</ele>
        <time>2020-11-02T12:09:35Z</time>
      </trkpt>
      <trkpt lat="40.585289001464844" lon="-4.195865154266357">
        <ele>1596.4837646484375</ele>
        <time>2020-11-02T12:09:37Z</time>
      </trkpt>
      <trkpt lat="40.58523941040039" lon="-4.19587516784668">
        <ele>1595.1201171875</ele>
        <time>2020-11-02T12:09:39Z</time>
      </trkpt>
      <trkpt lat="40.58518600463867" lon="-4.195883274078369">
        <ele>1593.9383544921875</ele>
        <time>2020-11-02T12:09:41Z</time>
      </trkpt>
      <trkpt lat="40.58513259887695" lon="-4.195889472961426">
        <ele>1593.9383544921875</ele>
        <time>2020-11-02T12:09:43Z</time>
      </trkpt>
      <trkpt lat="40.58505630493164" lon="-4.1959004402160645">
        <ele>1592.6656494140625</ele>
        <time>2020-11-02T12:09:46Z</time>
      </trkpt>
      <trkpt lat="40.58500289916992" lon="-4.1959075927734375">
        <ele>1592.6656494140625</ele>
        <time>2020-11-02T12:09:48Z</time>
      </trkpt>
      <trkpt lat="40.58492660522461" lon="-4.195914268493652">
        <ele>1591.48388671875</ele>
        <time>2020-11-02T12:09:51Z</time>
      </trkpt>
      <trkpt lat="40.5848503112793" lon="-4.195919036865234">
        <ele>1590.3021240234375</ele>
        <time>2020-11-02T12:09:54Z</time>
      </trkpt>
      <trkpt lat="40.58479690551758" lon="-4.195921421051025">
        <ele>1590.3021240234375</ele>
        <time>2020-11-02T12:09:56Z</time>
      </trkpt>
      <trkpt lat="40.584720611572266" lon="-4.195922374725342">
        <ele>1589.120361328125</ele>
        <time>2020-11-02T12:09:59Z</time>
      </trkpt>
      <trkpt lat="40.58467102050781" lon="-4.195923805236816">
        <ele>1589.120361328125</ele>
        <time>2020-11-02T12:10:01Z</time>
      </trkpt>
      <trkpt lat="40.584617614746094" lon="-4.195929050445557">
        <ele>1589.120361328125</ele>
        <time>2020-11-02T12:10:03Z</time>
      </trkpt>
      <trkpt lat="40.58454132080078" lon="-4.195940971374512">
        <ele>1587.7567138671875</ele>
        <time>2020-11-02T12:10:06Z</time>
      </trkpt>
      <trkpt lat="40.58448791503906" lon="-4.195952892303467">
        <ele>1587.7567138671875</ele>
        <time>2020-11-02T12:10:08Z</time>
      </trkpt>
      <trkpt lat="40.584434509277344" lon="-4.195975303649902">
        <ele>1587.7567138671875</ele>
        <time>2020-11-02T12:10:10Z</time>
      </trkpt>
      <trkpt lat="40.584388732910156" lon="-4.196013450622559">
        <ele>1586.4840087890625</ele>
        <time>2020-11-02T12:10:12Z</time>
      </trkpt>
      <trkpt lat="40.5843505859375" lon="-4.196063995361328">
        <ele>1586.4840087890625</ele>
        <time>2020-11-02T12:10:14Z</time>
      </trkpt>
      <trkpt lat="40.584320068359375" lon="-4.196123123168945">
        <ele>1586.4840087890625</ele>
        <time>2020-11-02T12:10:16Z</time>
      </trkpt>
      <trkpt lat="40.58427810668945" lon="-4.196215629577637">
        <ele>1586.4840087890625</ele>
        <time>2020-11-02T12:10:19Z</time>
      </trkpt>
      <trkpt lat="40.584251403808594" lon="-4.196280479431152">
        <ele>1585.120361328125</ele>
        <time>2020-11-02T12:10:21Z</time>
      </trkpt>
      <trkpt lat="40.584228515625" lon="-4.196347236633301">
        <ele>1585.120361328125</ele>
        <time>2020-11-02T12:10:23Z</time>
      </trkpt>
      <trkpt lat="40.584205627441406" lon="-4.196411609649658">
        <ele>1583.84765625</ele>
        <time>2020-11-02T12:10:25Z</time>
      </trkpt>
      <trkpt lat="40.58418273925781" lon="-4.196481704711914">
        <ele>1582.4840087890625</ele>
        <time>2020-11-02T12:10:27Z</time>
      </trkpt>
      <trkpt lat="40.58415985107422" lon="-4.1965484619140625">
        <ele>1582.4840087890625</ele>
        <time>2020-11-02T12:10:29Z</time>
      </trkpt>
      <trkpt lat="40.58414077758789" lon="-4.196617126464844">
        <ele>1581.0294189453125</ele>
        <time>2020-11-02T12:10:31Z</time>
      </trkpt>
      <trkpt lat="40.58412170410156" lon="-4.196686744689941">
        <ele>1581.0294189453125</ele>
        <time>2020-11-02T12:10:33Z</time>
      </trkpt>
      <trkpt lat="40.584102630615234" lon="-4.196751594543457">
        <ele>1581.0294189453125</ele>
        <time>2020-11-02T12:10:35Z</time>
      </trkpt>
      <trkpt lat="40.584083557128906" lon="-4.196819305419922">
        <ele>1579.7567138671875</ele>
        <time>2020-11-02T12:10:37Z</time>
      </trkpt>
      <trkpt lat="40.58406066894531" lon="-4.196890354156494">
        <ele>1579.7567138671875</ele>
        <time>2020-11-02T12:10:39Z</time>
      </trkpt>
      <trkpt lat="40.58403396606445" lon="-4.196949481964111">
        <ele>1578.574951171875</ele>
        <time>2020-11-02T12:10:41Z</time>
      </trkpt>
      <trkpt lat="40.58399963378906" lon="-4.196993827819824">
        <ele>1578.574951171875</ele>
        <time>2020-11-02T12:10:43Z</time>
      </trkpt>
      <trkpt lat="40.58393096923828" lon="-4.19700813293457">
        <ele>1578.574951171875</ele>
        <time>2020-11-02T12:10:46Z</time>
      </trkpt>
      <trkpt lat="40.5838623046875" lon="-4.196967601776123">
        <ele>1577.3931884765625</ele>
        <time>2020-11-02T12:10:49Z</time>
      </trkpt>
      <trkpt lat="40.583824157714844" lon="-4.1969218254089355">
        <ele>1580.944580078125</ele>
        <time>2020-11-02T12:10:51Z</time>
      </trkpt>
      <trkpt lat="40.58378601074219" lon="-4.196864128112793">
        <ele>1579.7628173828125</ele>
        <time>2020-11-02T12:10:53Z</time>
      </trkpt>
      <trkpt lat="40.58374786376953" lon="-4.196807861328125">
        <ele>1579.7628173828125</ele>
        <time>2020-11-02T12:10:55Z</time>
      </trkpt>
      <trkpt lat="40.58370590209961" lon="-4.1967597007751465">
        <ele>1579.7628173828125</ele>
        <time>2020-11-02T12:10:57Z</time>
      </trkpt>
      <trkpt lat="40.58366012573242" lon="-4.19671630859375">
        <ele>1578.4901123046875</ele>
        <time>2020-11-02T12:10:59Z</time>
      </trkpt>
      <trkpt lat="40.58361053466797" lon="-4.196682453155518">
        <ele>1578.4901123046875</ele>
        <time>2020-11-02T12:11:01Z</time>
      </trkpt>
      <trkpt lat="40.583560943603516" lon="-4.196657180786133">
        <ele>1578.4901123046875</ele>
        <time>2020-11-02T12:11:03Z</time>
      </trkpt>
      <trkpt lat="40.58351135253906" lon="-4.1966328620910645">
        <ele>1577.12646484375</ele>
        <time>2020-11-02T12:11:05Z</time>
      </trkpt>
      <trkpt lat="40.58344268798828" lon="-4.196584224700928">
        <ele>1577.12646484375</ele>
        <time>2020-11-02T12:11:08Z</time>
      </trkpt>
      <trkpt lat="40.583396911621094" lon="-4.196537017822266">
        <ele>1577.12646484375</ele>
        <time>2020-11-02T12:11:10Z</time>
      </trkpt>
      <trkpt lat="40.58335876464844" lon="-4.196486473083496">
        <ele>1575.853759765625</ele>
        <time>2020-11-02T12:11:12Z</time>
      </trkpt>
      <trkpt lat="40.58332061767578" lon="-4.196430206298828">
        <ele>1575.853759765625</ele>
        <time>2020-11-02T12:11:14Z</time>
      </trkpt>
      <trkpt lat="40.583282470703125" lon="-4.196371078491211">
        <ele>1574.6719970703125</ele>
        <time>2020-11-02T12:11:16Z</time>
      </trkpt>
      <trkpt lat="40.583251953125" lon="-4.196309566497803">
        <ele>1574.6719970703125</ele>
        <time>2020-11-02T12:11:18Z</time>
      </trkpt>
      <trkpt lat="40.58321762084961" lon="-4.196247100830078">
        <ele>1574.6719970703125</ele>
        <time>2020-11-02T12:11:20Z</time>
      </trkpt>
      <trkpt lat="40.58319091796875" lon="-4.196186542510986">
        <ele>1573.308349609375</ele>
        <time>2020-11-02T12:11:22Z</time>
      </trkpt>
      <trkpt lat="40.58316421508789" lon="-4.196123123168945">
        <ele>1573.308349609375</ele>
        <time>2020-11-02T12:11:24Z</time>
      </trkpt>
      <trkpt lat="40.58313751220703" lon="-4.19605827331543">
        <ele>1573.308349609375</ele>
        <time>2020-11-02T12:11:26Z</time>
      </trkpt>
      <trkpt lat="40.58311080932617" lon="-4.195997714996338">
        <ele>1572.03564453125</ele>
        <time>2020-11-02T12:11:28Z</time>
      </trkpt>
      <trkpt lat="40.58308029174805" lon="-4.195934772491455">
        <ele>1572.03564453125</ele>
        <time>2020-11-02T12:11:30Z</time>
      </trkpt>
      <trkpt lat="40.583045959472656" lon="-4.19587516784668">
        <ele>1572.03564453125</ele>
        <time>2020-11-02T12:11:32Z</time>
      </trkpt>
      <trkpt lat="40.583003997802734" lon="-4.195821285247803">
        <ele>1570.762939453125</ele>
        <time>2020-11-02T12:11:34Z</time>
      </trkpt>
      <trkpt lat="40.58296585083008" lon="-4.195772171020508">
        <ele>1570.762939453125</ele>
        <time>2020-11-02T12:11:36Z</time>
      </trkpt>
      <trkpt lat="40.58292007446289" lon="-4.1957244873046875">
        <ele>1570.762939453125</ele>
        <time>2020-11-02T12:11:38Z</time>
      </trkpt>
      <trkpt lat="40.58287811279297" lon="-4.19567346572876">
        <ele>1569.3992919921875</ele>
        <time>2020-11-02T12:11:40Z</time>
      </trkpt>
      <trkpt lat="40.58283233642578" lon="-4.195621490478516">
        <ele>1569.3992919921875</ele>
        <time>2020-11-02T12:11:42Z</time>
      </trkpt>
      <trkpt lat="40.582794189453125" lon="-4.19556999206543">
        <ele>1568.03564453125</ele>
        <time>2020-11-02T12:11:44Z</time>
      </trkpt>
      <trkpt lat="40.58275604248047" lon="-4.195516109466553">
        <ele>1568.03564453125</ele>
        <time>2020-11-02T12:11:46Z</time>
      </trkpt>
      <trkpt lat="40.58271789550781" lon="-4.195463180541992">
        <ele>1568.03564453125</ele>
        <time>2020-11-02T12:11:48Z</time>
      </trkpt>
      <trkpt lat="40.58268356323242" lon="-4.195407867431641">
        <ele>1566.6719970703125</ele>
        <time>2020-11-02T12:11:50Z</time>
      </trkpt>
      <trkpt lat="40.5826530456543" lon="-4.1953511238098145">
        <ele>1566.6719970703125</ele>
        <time>2020-11-02T12:11:52Z</time>
      </trkpt>
      <trkpt lat="40.58262252807617" lon="-4.195292949676514">
        <ele>1565.490234375</ele>
        <time>2020-11-02T12:11:54Z</time>
      </trkpt>
      <trkpt lat="40.58259582519531" lon="-4.195235252380371">
        <ele>1565.490234375</ele>
        <time>2020-11-02T12:11:56Z</time>
      </trkpt>
      <trkpt lat="40.58256530761719" lon="-4.195178508758545">
        <ele>1565.490234375</ele>
        <time>2020-11-02T12:11:58Z</time>
      </trkpt>
      <trkpt lat="40.582523345947266" lon="-4.1950883865356445">
        <ele>1564.217529296875</ele>
        <time>2020-11-02T12:12:01Z</time>
      </trkpt>
      <trkpt lat="40.582496643066406" lon="-4.195026397705078">
        <ele>1564.217529296875</ele>
        <time>2020-11-02T12:12:03Z</time>
      </trkpt>
      <trkpt lat="40.58247375488281" lon="-4.19496488571167">
        <ele>1564.217529296875</ele>
        <time>2020-11-02T12:12:05Z</time>
      </trkpt>
      <trkpt lat="40.58244705200195" lon="-4.1949028968811035">
        <ele>1562.94482421875</ele>
        <time>2020-11-02T12:12:07Z</time>
      </trkpt>
      <trkpt lat="40.58242416381836" lon="-4.19484281539917">
        <ele>1562.94482421875</ele>
        <time>2020-11-02T12:12:09Z</time>
      </trkpt>
      <trkpt lat="40.5823974609375" lon="-4.194781303405762">
        <ele>1561.7630615234375</ele>
        <time>2020-11-02T12:12:11Z</time>
      </trkpt>
      <trkpt lat="40.58237075805664" lon="-4.194718837738037">
        <ele>1561.7630615234375</ele>
        <time>2020-11-02T12:12:13Z</time>
      </trkpt>
      <trkpt lat="40.58235168457031" lon="-4.194654941558838">
        <ele>1560.581298828125</ele>
        <time>2020-11-02T12:12:15Z</time>
      </trkpt>
      <trkpt lat="40.58232879638672" lon="-4.19455623626709">
        <ele>1559.2176513671875</ele>
        <time>2020-11-02T12:12:18Z</time>
      </trkpt>
      <trkpt lat="40.582313537597656" lon="-4.194489002227783">
        <ele>1559.2176513671875</ele>
        <time>2020-11-02T12:12:20Z</time>
      </trkpt>
      <trkpt lat="40.58230209350586" lon="-4.194423198699951">
        <ele>1557.9449462890625</ele>
        <time>2020-11-02T12:12:22Z</time>
      </trkpt>
      <trkpt lat="40.58229446411133" lon="-4.194355010986328">
        <ele>1557.9449462890625</ele>
        <time>2020-11-02T12:12:24Z</time>
      </trkpt>
      <trkpt lat="40.58229064941406" lon="-4.1942853927612305">
        <ele>1557.9449462890625</ele>
        <time>2020-11-02T12:12:26Z</time>
      </trkpt>
      <trkpt lat="40.58229064941406" lon="-4.194214820861816">
        <ele>1556.581298828125</ele>
        <time>2020-11-02T12:12:28Z</time>
      </trkpt>
      <trkpt lat="40.58229064941406" lon="-4.194143772125244">
        <ele>1556.581298828125</ele>
        <time>2020-11-02T12:12:30Z</time>
      </trkpt>
      <trkpt lat="40.582275390625" lon="-4.194046497344971">
        <ele>1555.3995361328125</ele>
        <time>2020-11-02T12:12:33Z</time>
      </trkpt>
      <trkpt lat="40.58224105834961" lon="-4.194004535675049">
        <ele>1555.3995361328125</ele>
        <time>2020-11-02T12:12:35Z</time>
      </trkpt>
      <trkpt lat="40.58218002319336" lon="-4.1940131187438965">
        <ele>1554.2177734375</ele>
        <time>2020-11-02T12:12:38Z</time>
      </trkpt>
      <trkpt lat="40.58212661743164" lon="-4.1940836906433105">
        <ele>1554.2177734375</ele>
        <time>2020-11-02T12:12:41Z</time>
      </trkpt>
      <trkpt lat="40.582096099853516" lon="-4.194141864776611">
        <ele>1552.945068359375</ele>
        <time>2020-11-02T12:12:43Z</time>
      </trkpt>
      <trkpt lat="40.58206558227539" lon="-4.194203853607178">
        <ele>1552.945068359375</ele>
        <time>2020-11-02T12:12:45Z</time>
      </trkpt>
      <trkpt lat="40.58203887939453" lon="-4.194265842437744">
        <ele>1551.490478515625</ele>
        <time>2020-11-02T12:12:47Z</time>
      </trkpt>
      <trkpt lat="40.58201217651367" lon="-4.1943278312683105">
        <ele>1549.76318359375</ele>
        <time>2020-11-02T12:12:49Z</time>
      </trkpt>
      <trkpt lat="40.58198165893555" lon="-4.194391250610352">
        <ele>1544.021240234375</ele>
        <time>2020-11-02T12:12:51Z</time>
      </trkpt>
      <trkpt lat="40.58195495605469" lon="-4.194455146789551">
        <ele>1542.566650390625</ele>
        <time>2020-11-02T12:12:53Z</time>
      </trkpt>
      <trkpt lat="40.581932067871094" lon="-4.194520473480225">
        <ele>1542.566650390625</ele>
        <time>2020-11-02T12:12:55Z</time>
      </trkpt>
      <trkpt lat="40.5819091796875" lon="-4.1945905685424805">
        <ele>1541.2939453125</ele>
        <time>2020-11-02T12:12:57Z</time>
      </trkpt>
      <trkpt lat="40.58189392089844" lon="-4.194662570953369">
        <ele>1541.2939453125</ele>
        <time>2020-11-02T12:12:59Z</time>
      </trkpt>
      <trkpt lat="40.581878662109375" lon="-4.194733142852783">
        <ele>1541.2939453125</ele>
        <time>2020-11-02T12:13:01Z</time>
      </trkpt>
      <trkpt lat="40.58186721801758" lon="-4.194803237915039">
        <ele>1540.021240234375</ele>
        <time>2020-11-02T12:13:03Z</time>
      </trkpt>
      <trkpt lat="40.581851959228516" lon="-4.194874286651611">
        <ele>1540.021240234375</ele>
        <time>2020-11-02T12:13:05Z</time>
      </trkpt>
      <trkpt lat="40.58183670043945" lon="-4.194942951202393">
        <ele>1540.021240234375</ele>
        <time>2020-11-02T12:13:07Z</time>
      </trkpt>
      <trkpt lat="40.58182144165039" lon="-4.195014476776123">
        <ele>1538.74853515625</ele>
        <time>2020-11-02T12:13:09Z</time>
      </trkpt>
      <trkpt lat="40.58180618286133" lon="-4.1950860023498535">
        <ele>1538.74853515625</ele>
        <time>2020-11-02T12:13:11Z</time>
      </trkpt>
      <trkpt lat="40.58180236816406" lon="-4.195155143737793">
        <ele>1538.74853515625</ele>
        <time>2020-11-02T12:13:13Z</time>
      </trkpt>
      <trkpt lat="40.5817985534668" lon="-4.195227146148682">
        <ele>1537.475830078125</ele>
        <time>2020-11-02T12:13:15Z</time>
      </trkpt>
      <trkpt lat="40.58180236816406" lon="-4.195300579071045">
        <ele>1537.475830078125</ele>
        <time>2020-11-02T12:13:17Z</time>
      </trkpt>
      <trkpt lat="40.581809997558594" lon="-4.195372104644775">
        <ele>1537.475830078125</ele>
        <time>2020-11-02T12:13:19Z</time>
      </trkpt>
      <trkpt lat="40.58181381225586" lon="-4.195445537567139">
        <ele>1536.203125</ele>
        <time>2020-11-02T12:13:21Z</time>
      </trkpt>
      <trkpt lat="40.581825256347656" lon="-4.195521831512451">
        <ele>1536.203125</ele>
        <time>2020-11-02T12:13:23Z</time>
      </trkpt>
      <trkpt lat="40.58183288574219" lon="-4.1955976486206055">
        <ele>1536.203125</ele>
        <time>2020-11-02T12:13:25Z</time>
      </trkpt>
      <trkpt lat="40.58184051513672" lon="-4.195670127868652">
        <ele>1536.203125</ele>
        <time>2020-11-02T12:13:27Z</time>
      </trkpt>
      <trkpt lat="40.581844329833984" lon="-4.195742130279541">
        <ele>1536.203125</ele>
        <time>2020-11-02T12:13:29Z</time>
      </trkpt>
      <trkpt lat="40.581851959228516" lon="-4.1958136558532715">
        <ele>1536.203125</ele>
        <time>2020-11-02T12:13:31Z</time>
      </trkpt>
      <trkpt lat="40.58185958862305" lon="-4.195883274078369">
        <ele>1536.203125</ele>
        <time>2020-11-02T12:13:33Z</time>
      </trkpt>
      <trkpt lat="40.58186340332031" lon="-4.195955276489258">
        <ele>1536.203125</ele>
        <time>2020-11-02T12:13:35Z</time>
      </trkpt>
      <trkpt lat="40.58186721801758" lon="-4.196026802062988">
        <ele>1535.0213623046875</ele>
        <time>2020-11-02T12:13:37Z</time>
      </trkpt>
      <trkpt lat="40.581871032714844" lon="-4.196096897125244">
        <ele>1535.0213623046875</ele>
        <time>2020-11-02T12:13:39Z</time>
      </trkpt>
      <trkpt lat="40.58187484741211" lon="-4.196165084838867">
        <ele>1533.839599609375</ele>
        <time>2020-11-02T12:13:41Z</time>
      </trkpt>
      <trkpt lat="40.581878662109375" lon="-4.196235179901123">
        <ele>1533.839599609375</ele>
        <time>2020-11-02T12:13:43Z</time>
      </trkpt>
      <trkpt lat="40.581886291503906" lon="-4.196305274963379">
        <ele>1532.56689453125</ele>
        <time>2020-11-02T12:13:45Z</time>
      </trkpt>
      <trkpt lat="40.58189392089844" lon="-4.196374893188477">
        <ele>1532.56689453125</ele>
        <time>2020-11-02T12:13:47Z</time>
      </trkpt>
      <trkpt lat="40.581905364990234" lon="-4.196482181549072">
        <ele>1531.294189453125</ele>
        <time>2020-11-02T12:13:50Z</time>
      </trkpt>
      <trkpt lat="40.58191680908203" lon="-4.196556568145752">
        <ele>1531.294189453125</ele>
        <time>2020-11-02T12:13:52Z</time>
      </trkpt>
      <trkpt lat="40.58192443847656" lon="-4.196628093719482">
        <ele>1529.839599609375</ele>
        <time>2020-11-02T12:13:54Z</time>
      </trkpt>
      <trkpt lat="40.5819206237793" lon="-4.196689605712891">
        <ele>1529.839599609375</ele>
        <time>2020-11-02T12:13:56Z</time>
      </trkpt>
      <trkpt lat="40.58188247680664" lon="-4.196742057800293">
        <ele>1528.6578369140625</ele>
        <time>2020-11-02T12:13:59Z</time>
      </trkpt>
      <trkpt lat="40.58182907104492" lon="-4.1967339515686035">
        <ele>1528.6578369140625</ele>
        <time>2020-11-02T12:14:02Z</time>
      </trkpt>
      <trkpt lat="40.58177947998047" lon="-4.196676731109619">
        <ele>1527.3851318359375</ele>
        <time>2020-11-02T12:14:05Z</time>
      </trkpt>
      <trkpt lat="40.581729888916016" lon="-4.196597099304199">
        <ele>1527.3851318359375</ele>
        <time>2020-11-02T12:14:08Z</time>
      </trkpt>
      <trkpt lat="40.58169937133789" lon="-4.196540355682373">
        <ele>1526.021484375</ele>
        <time>2020-11-02T12:14:10Z</time>
      </trkpt>
      <trkpt lat="40.581668853759766" lon="-4.196482181549072">
        <ele>1526.021484375</ele>
        <time>2020-11-02T12:14:12Z</time>
      </trkpt>
      <trkpt lat="40.581634521484375" lon="-4.196423053741455">
        <ele>1526.021484375</ele>
        <time>2020-11-02T12:14:14Z</time>
      </trkpt>
      <trkpt lat="40.58160400390625" lon="-4.19636344909668">
        <ele>1526.021484375</ele>
        <time>2020-11-02T12:14:16Z</time>
      </trkpt>
      <trkpt lat="40.581573486328125" lon="-4.196303844451904">
        <ele>1526.021484375</ele>
        <time>2020-11-02T12:14:18Z</time>
      </trkpt>
      <trkpt lat="40.58154296875" lon="-4.196242809295654">
        <ele>1526.021484375</ele>
        <time>2020-11-02T12:14:20Z</time>
      </trkpt>
      <trkpt lat="40.58150863647461" lon="-4.196185111999512">
        <ele>1524.748779296875</ele>
        <time>2020-11-02T12:14:22Z</time>
      </trkpt>
      <trkpt lat="40.58147430419922" lon="-4.196126461029053">
        <ele>1524.748779296875</ele>
        <time>2020-11-02T12:14:24Z</time>
      </trkpt>
      <trkpt lat="40.58143997192383" lon="-4.196071147918701">
        <ele>1524.748779296875</ele>
        <time>2020-11-02T12:14:26Z</time>
      </trkpt>
      <trkpt lat="40.58140563964844" lon="-4.196015357971191">
        <ele>1524.748779296875</ele>
        <time>2020-11-02T12:14:28Z</time>
      </trkpt>
      <trkpt lat="40.58137130737305" lon="-4.195958137512207">
        <ele>1523.47607421875</ele>
        <time>2020-11-02T12:14:30Z</time>
      </trkpt>
      <trkpt lat="40.58134078979492" lon="-4.195899486541748">
        <ele>1523.47607421875</ele>
        <time>2020-11-02T12:14:32Z</time>
      </trkpt>
      <trkpt lat="40.58130645751953" lon="-4.195840358734131">
        <ele>1523.47607421875</ele>
        <time>2020-11-02T12:14:34Z</time>
      </trkpt>
      <trkpt lat="40.581275939941406" lon="-4.195784568786621">
        <ele>1522.2943115234375</ele>
        <time>2020-11-02T12:14:36Z</time>
      </trkpt>
      <trkpt lat="40.58124542236328" lon="-4.195727348327637">
        <ele>1522.2943115234375</ele>
        <time>2020-11-02T12:14:38Z</time>
      </trkpt>
      <trkpt lat="40.581214904785156" lon="-4.195669174194336">
        <ele>1522.2943115234375</ele>
        <time>2020-11-02T12:14:40Z</time>
      </trkpt>
      <trkpt lat="40.581180572509766" lon="-4.195612907409668">
        <ele>1521.0216064453125</ele>
        <time>2020-11-02T12:14:42Z</time>
      </trkpt>
      <trkpt lat="40.581146240234375" lon="-4.195557117462158">
        <ele>1521.0216064453125</ele>
        <time>2020-11-02T12:14:44Z</time>
      </trkpt>
      <trkpt lat="40.581111907958984" lon="-4.19550085067749">
        <ele>1519.657958984375</ele>
        <time>2020-11-02T12:14:46Z</time>
      </trkpt>
      <trkpt lat="40.58108139038086" lon="-4.195445537567139">
        <ele>1519.657958984375</ele>
        <time>2020-11-02T12:14:48Z</time>
      </trkpt>
      <trkpt lat="40.58104705810547" lon="-4.195388317108154">
        <ele>1518.4761962890625</ele>
        <time>2020-11-02T12:14:50Z</time>
      </trkpt>
      <trkpt lat="40.581016540527344" lon="-4.195328235626221">
        <ele>1517.781005859375</ele>
        <time>2020-11-02T12:14:52Z</time>
      </trkpt>
      <trkpt lat="40.58098220825195" lon="-4.195270538330078">
        <ele>1516.4173583984375</ele>
        <time>2020-11-02T12:14:54Z</time>
      </trkpt>
      <trkpt lat="40.58095169067383" lon="-4.195213317871094">
        <ele>1516.4173583984375</ele>
        <time>2020-11-02T12:14:56Z</time>
      </trkpt>
      <trkpt lat="40.5809211730957" lon="-4.195155143737793">
        <ele>1515.235595703125</ele>
        <time>2020-11-02T12:14:58Z</time>
      </trkpt>
      <trkpt lat="40.58089065551758" lon="-4.195098876953125">
        <ele>1515.235595703125</ele>
        <time>2020-11-02T12:15:00Z</time>
      </trkpt>
      <trkpt lat="40.58085632324219" lon="-4.195040702819824">
        <ele>1515.235595703125</ele>
        <time>2020-11-02T12:15:02Z</time>
      </trkpt>
      <trkpt lat="40.58082580566406" lon="-4.194981098175049">
        <ele>1515.235595703125</ele>
        <time>2020-11-02T12:15:04Z</time>
      </trkpt>
      <trkpt lat="40.58079147338867" lon="-4.1949238777160645">
        <ele>1515.235595703125</ele>
        <time>2020-11-02T12:15:06Z</time>
      </trkpt>
      <trkpt lat="40.58075714111328" lon="-4.1948676109313965">
        <ele>1515.235595703125</ele>
        <time>2020-11-02T12:15:08Z</time>
      </trkpt>
      <trkpt lat="40.58072280883789" lon="-4.194812774658203">
        <ele>1514.0538330078125</ele>
        <time>2020-11-02T12:15:10Z</time>
      </trkpt>
      <trkpt lat="40.5806884765625" lon="-4.194758892059326">
        <ele>1514.0538330078125</ele>
        <time>2020-11-02T12:15:12Z</time>
      </trkpt>
      <trkpt lat="40.580650329589844" lon="-4.194704055786133">
        <ele>1512.7811279296875</ele>
        <time>2020-11-02T12:15:14Z</time>
      </trkpt>
      <trkpt lat="40.58061981201172" lon="-4.194652080535889">
        <ele>1512.7811279296875</ele>
        <time>2020-11-02T12:15:16Z</time>
      </trkpt>
      <trkpt lat="40.58057403564453" lon="-4.194572448730469">
        <ele>1511.3265380859375</ele>
        <time>2020-11-02T12:15:19Z</time>
      </trkpt>
      <trkpt lat="40.58053970336914" lon="-4.19451379776001">
        <ele>1511.3265380859375</ele>
        <time>2020-11-02T12:15:21Z</time>
      </trkpt>
      <trkpt lat="40.58050537109375" lon="-4.1944580078125">
        <ele>1510.144775390625</ele>
        <time>2020-11-02T12:15:23Z</time>
      </trkpt>
      <trkpt lat="40.58047103881836" lon="-4.194404602050781">
        <ele>1510.144775390625</ele>
        <time>2020-11-02T12:15:25Z</time>
      </trkpt>
      <trkpt lat="40.58043670654297" lon="-4.1943488121032715">
        <ele>1510.144775390625</ele>
        <time>2020-11-02T12:15:27Z</time>
      </trkpt>
      <trkpt lat="40.58040237426758" lon="-4.19429349899292">
        <ele>1508.8720703125</ele>
        <time>2020-11-02T12:15:29Z</time>
      </trkpt>
      <trkpt lat="40.58036422729492" lon="-4.194237232208252">
        <ele>1508.8720703125</ele>
        <time>2020-11-02T12:15:31Z</time>
      </trkpt>
      <trkpt lat="40.580322265625" lon="-4.194186210632324">
        <ele>1508.8720703125</ele>
        <time>2020-11-02T12:15:33Z</time>
      </trkpt>
      <trkpt lat="40.58027267456055" lon="-4.194153785705566">
        <ele>1507.6903076171875</ele>
        <time>2020-11-02T12:15:35Z</time>
      </trkpt>
      <trkpt lat="40.580223083496094" lon="-4.194146156311035">
        <ele>1507.6903076171875</ele>
        <time>2020-11-02T12:15:37Z</time>
      </trkpt>
      <trkpt lat="40.58014678955078" lon="-4.19416618347168">
        <ele>1507.6903076171875</ele>
        <time>2020-11-02T12:15:40Z</time>
      </trkpt>
      <trkpt lat="40.58009338378906" lon="-4.1941962242126465">
        <ele>1507.6903076171875</ele>
        <time>2020-11-02T12:15:42Z</time>
      </trkpt>
      <trkpt lat="40.580047607421875" lon="-4.194231986999512">
        <ele>1507.6903076171875</ele>
        <time>2020-11-02T12:15:44Z</time>
      </trkpt>
      <trkpt lat="40.58000564575195" lon="-4.194276332855225">
        <ele>1507.6903076171875</ele>
        <time>2020-11-02T12:15:46Z</time>
      </trkpt>
      <trkpt lat="40.579959869384766" lon="-4.194326877593994">
        <ele>1507.6903076171875</ele>
        <time>2020-11-02T12:15:48Z</time>
      </trkpt>
      <trkpt lat="40.57992172241211" lon="-4.19437837600708">
        <ele>1506.4176025390625</ele>
        <time>2020-11-02T12:15:50Z</time>
      </trkpt>
      <trkpt lat="40.57987976074219" lon="-4.194434642791748">
        <ele>1506.4176025390625</ele>
        <time>2020-11-02T12:15:52Z</time>
      </trkpt>
      <trkpt lat="40.57984161376953" lon="-4.194488525390625">
        <ele>1506.4176025390625</ele>
        <time>2020-11-02T12:15:54Z</time>
      </trkpt>
      <trkpt lat="40.57979965209961" lon="-4.1945414543151855">
        <ele>1506.4176025390625</ele>
        <time>2020-11-02T12:15:56Z</time>
      </trkpt>
      <trkpt lat="40.57975769042969" lon="-4.194594860076904">
        <ele>1505.1448974609375</ele>
        <time>2020-11-02T12:15:58Z</time>
      </trkpt>
      <trkpt lat="40.57971954345703" lon="-4.194651126861572">
        <ele>1505.1448974609375</ele>
        <time>2020-11-02T12:16:00Z</time>
      </trkpt>
      <trkpt lat="40.579681396484375" lon="-4.194711208343506">
        <ele>1505.1448974609375</ele>
        <time>2020-11-02T12:16:02Z</time>
      </trkpt>
      <trkpt lat="40.57965087890625" lon="-4.194772720336914">
        <ele>1503.8721923828125</ele>
        <time>2020-11-02T12:16:04Z</time>
      </trkpt>
      <trkpt lat="40.579620361328125" lon="-4.194832801818848">
        <ele>1503.8721923828125</ele>
        <time>2020-11-02T12:16:06Z</time>
      </trkpt>
      <trkpt lat="40.57958984375" lon="-4.194893836975098">
        <ele>1503.8721923828125</ele>
        <time>2020-11-02T12:16:08Z</time>
      </trkpt>
      <trkpt lat="40.579559326171875" lon="-4.194953441619873">
        <ele>1502.5994873046875</ele>
        <time>2020-11-02T12:16:10Z</time>
      </trkpt>
      <trkpt lat="40.57952117919922" lon="-4.195006847381592">
        <ele>1502.5994873046875</ele>
        <time>2020-11-02T12:16:12Z</time>
      </trkpt>
      <trkpt lat="40.5794792175293" lon="-4.195051670074463">
        <ele>1501.417724609375</ele>
        <time>2020-11-02T12:16:14Z</time>
      </trkpt>
      <trkpt lat="40.57943344116211" lon="-4.195088863372803">
        <ele>1501.417724609375</ele>
        <time>2020-11-02T12:16:16Z</time>
      </trkpt>
      <trkpt lat="40.57938003540039" lon="-4.195119380950928">
        <ele>1501.417724609375</ele>
        <time>2020-11-02T12:16:18Z</time>
      </trkpt>
      <trkpt lat="40.57932662963867" lon="-4.195140838623047">
        <ele>1500.2359619140625</ele>
        <time>2020-11-02T12:16:20Z</time>
      </trkpt>
      <trkpt lat="40.57926940917969" lon="-4.195157527923584">
        <ele>1500.2359619140625</ele>
        <time>2020-11-02T12:16:22Z</time>
      </trkpt>
      <trkpt lat="40.57921600341797" lon="-4.1951727867126465">
        <ele>1500.2359619140625</ele>
        <time>2020-11-02T12:16:24Z</time>
      </trkpt>
      <trkpt lat="40.579158782958984" lon="-4.195181369781494">
        <ele>1500.2359619140625</ele>
        <time>2020-11-02T12:16:26Z</time>
      </trkpt>
      <trkpt lat="40.5791015625" lon="-4.195182800292969">
        <ele>1500.2359619140625</ele>
        <time>2020-11-02T12:16:28Z</time>
      </trkpt>
      <trkpt lat="40.57904815673828" lon="-4.195176124572754">
        <ele>1500.2359619140625</ele>
        <time>2020-11-02T12:16:30Z</time>
      </trkpt>
      <trkpt lat="40.57899475097656" lon="-4.195164203643799">
        <ele>1498.9632568359375</ele>
        <time>2020-11-02T12:16:32Z</time>
      </trkpt>
      <trkpt lat="40.578941345214844" lon="-4.195145130157471">
        <ele>1498.9632568359375</ele>
        <time>2020-11-02T12:16:34Z</time>
      </trkpt>
      <trkpt lat="40.57889175415039" lon="-4.195117473602295">
        <ele>1498.9632568359375</ele>
        <time>2020-11-02T12:16:36Z</time>
      </trkpt>
      <trkpt lat="40.57884216308594" lon="-4.195089817047119">
        <ele>1497.781494140625</ele>
        <time>2020-11-02T12:16:38Z</time>
      </trkpt>
      <trkpt lat="40.578792572021484" lon="-4.195053577423096">
        <ele>1497.781494140625</ele>
        <time>2020-11-02T12:16:40Z</time>
      </trkpt>
      <trkpt lat="40.578739166259766" lon="-4.195019721984863">
        <ele>1497.781494140625</ele>
        <time>2020-11-02T12:16:42Z</time>
      </trkpt>
      <trkpt lat="40.57868957519531" lon="-4.194987773895264">
        <ele>1496.5087890625</ele>
        <time>2020-11-02T12:16:44Z</time>
      </trkpt>
      <trkpt lat="40.578643798828125" lon="-4.194952487945557">
        <ele>1496.5087890625</ele>
        <time>2020-11-02T12:16:46Z</time>
      </trkpt>
      <trkpt lat="40.57859802246094" lon="-4.194919586181641">
        <ele>1495.05419921875</ele>
        <time>2020-11-02T12:16:48Z</time>
      </trkpt>
      <trkpt lat="40.578548431396484" lon="-4.194885730743408">
        <ele>1486.4320068359375</ele>
        <time>2020-11-02T12:16:50Z</time>
      </trkpt>
      <trkpt lat="40.57849884033203" lon="-4.19485330581665">
        <ele>1485.1593017578125</ele>
        <time>2020-11-02T12:16:52Z</time>
      </trkpt>
      <trkpt lat="40.578453063964844" lon="-4.194817543029785">
        <ele>1485.1593017578125</ele>
        <time>2020-11-02T12:16:54Z</time>
      </trkpt>
      <trkpt lat="40.57840347290039" lon="-4.194778919219971">
        <ele>1483.795654296875</ele>
        <time>2020-11-02T12:16:56Z</time>
      </trkpt>
      <trkpt lat="40.5783576965332" lon="-4.194744110107422">
        <ele>1483.795654296875</ele>
        <time>2020-11-02T12:16:58Z</time>
      </trkpt>
      <trkpt lat="40.57830810546875" lon="-4.194706916809082">
        <ele>1482.6138916015625</ele>
        <time>2020-11-02T12:17:00Z</time>
      </trkpt>
      <trkpt lat="40.57826232910156" lon="-4.1946702003479">
        <ele>1482.6138916015625</ele>
        <time>2020-11-02T12:17:02Z</time>
      </trkpt>
      <trkpt lat="40.578216552734375" lon="-4.194633960723877">
        <ele>1482.6138916015625</ele>
        <time>2020-11-02T12:17:04Z</time>
      </trkpt>
      <trkpt lat="40.57817077636719" lon="-4.194591522216797">
        <ele>1481.250244140625</ele>
        <time>2020-11-02T12:17:06Z</time>
      </trkpt>
      <trkpt lat="40.57813262939453" lon="-4.194544792175293">
        <ele>1481.250244140625</ele>
        <time>2020-11-02T12:17:08Z</time>
      </trkpt>
      <trkpt lat="40.57807922363281" lon="-4.194464683532715">
        <ele>1481.250244140625</ele>
        <time>2020-11-02T12:17:11Z</time>
      </trkpt>
      <trkpt lat="40.57804489135742" lon="-4.19440221786499">
        <ele>1479.9775390625</ele>
        <time>2020-11-02T12:17:13Z</time>
      </trkpt>
      <trkpt lat="40.5780143737793" lon="-4.194343566894531">
        <ele>1479.9775390625</ele>
        <time>2020-11-02T12:17:15Z</time>
      </trkpt>
      <trkpt lat="40.57798385620117" lon="-4.194281101226807">
        <ele>1479.9775390625</ele>
        <time>2020-11-02T12:17:17Z</time>
      </trkpt>
      <trkpt lat="40.57795333862305" lon="-4.194220066070557">
        <ele>1479.9775390625</ele>
        <time>2020-11-02T12:17:19Z</time>
      </trkpt>
      <trkpt lat="40.577919006347656" lon="-4.194167137145996">
        <ele>1478.7957763671875</ele>
        <time>2020-11-02T12:17:21Z</time>
      </trkpt>
      <trkpt lat="40.577877044677734" lon="-4.1941375732421875">
        <ele>1478.7957763671875</ele>
        <time>2020-11-02T12:17:23Z</time>
      </trkpt>
      <trkpt lat="40.577816009521484" lon="-4.194156646728516">
        <ele>1477.43212890625</ele>
        <time>2020-11-02T12:17:26Z</time>
      </trkpt>
      <trkpt lat="40.577762603759766" lon="-4.194220542907715">
        <ele>1477.43212890625</ele>
        <time>2020-11-02T12:17:29Z</time>
      </trkpt>
      <trkpt lat="40.577735900878906" lon="-4.19428014755249">
        <ele>1477.43212890625</ele>
        <time>2020-11-02T12:17:31Z</time>
      </trkpt>
      <trkpt lat="40.57770919799805" lon="-4.1943440437316895">
        <ele>1476.159423828125</ele>
        <time>2020-11-02T12:17:33Z</time>
      </trkpt>
      <trkpt lat="40.57769012451172" lon="-4.19441032409668">
        <ele>1476.159423828125</ele>
        <time>2020-11-02T12:17:35Z</time>
      </trkpt>
      <trkpt lat="40.57767105102539" lon="-4.194478511810303">
        <ele>1476.159423828125</ele>
        <time>2020-11-02T12:17:37Z</time>
      </trkpt>
      <trkpt lat="40.57765579223633" lon="-4.194544792175293">
        <ele>1474.9776611328125</ele>
        <time>2020-11-02T12:17:39Z</time>
      </trkpt>
      <trkpt lat="40.57764434814453" lon="-4.194611072540283">
        <ele>1474.9776611328125</ele>
        <time>2020-11-02T12:17:42Z</time>
      </trkpt>
      <trkpt lat="40.577632904052734" lon="-4.1946868896484375">
        <ele>1474.9776611328125</ele>
        <time>2020-11-02T12:17:47Z</time>
      </trkpt>
      <trkpt lat="40.577606201171875" lon="-4.194791316986084">
        <ele>1474.9776611328125</ele>
        <time>2020-11-02T12:17:51Z</time>
      </trkpt>
      <trkpt lat="40.57758712768555" lon="-4.1948957443237305">
        <ele>1474.9776611328125</ele>
        <time>2020-11-02T12:17:54Z</time>
      </trkpt>
      <trkpt lat="40.577579498291016" lon="-4.19497013092041">
        <ele>1474.9776611328125</ele>
        <time>2020-11-02T12:17:56Z</time>
      </trkpt>
      <trkpt lat="40.57757568359375" lon="-4.195046901702881">
        <ele>1473.7958984375</ele>
        <time>2020-11-02T12:17:58Z</time>
      </trkpt>
      <trkpt lat="40.577579498291016" lon="-4.195160865783691">
        <ele>1473.7958984375</ele>
        <time>2020-11-02T12:18:01Z</time>
      </trkpt>
      <trkpt lat="40.57758331298828" lon="-4.195237636566162">
        <ele>1472.6141357421875</ele>
        <time>2020-11-02T12:18:03Z</time>
      </trkpt>
      <trkpt lat="40.57759094238281" lon="-4.195310115814209">
        <ele>1472.6141357421875</ele>
        <time>2020-11-02T12:18:05Z</time>
      </trkpt>
      <trkpt lat="40.57760238647461" lon="-4.1953864097595215">
        <ele>1472.6141357421875</ele>
        <time>2020-11-02T12:18:07Z</time>
      </trkpt>
      <trkpt lat="40.57761764526367" lon="-4.195462226867676">
        <ele>1472.6141357421875</ele>
        <time>2020-11-02T12:18:09Z</time>
      </trkpt>
      <trkpt lat="40.57762908935547" lon="-4.195535659790039">
        <ele>1471.3414306640625</ele>
        <time>2020-11-02T12:18:11Z</time>
      </trkpt>
      <trkpt lat="40.57764434814453" lon="-4.1956048011779785">
        <ele>1471.3414306640625</ele>
        <time>2020-11-02T12:18:13Z</time>
      </trkpt>
      <trkpt lat="40.57766342163086" lon="-4.195674419403076">
        <ele>1471.3414306640625</ele>
        <time>2020-11-02T12:18:15Z</time>
      </trkpt>
      <trkpt lat="40.57767868041992" lon="-4.19574499130249">
        <ele>1470.15966796875</ele>
        <time>2020-11-02T12:18:17Z</time>
      </trkpt>
      <trkpt lat="40.57769775390625" lon="-4.195816993713379">
        <ele>1470.15966796875</ele>
        <time>2020-11-02T12:18:19Z</time>
      </trkpt>
      <trkpt lat="40.57771301269531" lon="-4.195889472961426">
        <ele>1468.886962890625</ele>
        <time>2020-11-02T12:18:21Z</time>
      </trkpt>
      <trkpt lat="40.57773208618164" lon="-4.1959614753723145">
        <ele>1468.886962890625</ele>
        <time>2020-11-02T12:18:23Z</time>
      </trkpt>
      <trkpt lat="40.577754974365234" lon="-4.1960344314575195">
        <ele>1467.7052001953125</ele>
        <time>2020-11-02T12:18:25Z</time>
      </trkpt>
      <trkpt lat="40.57777404785156" lon="-4.196108341217041">
        <ele>1467.7052001953125</ele>
        <time>2020-11-02T12:18:27Z</time>
      </trkpt>
      <trkpt lat="40.57779312133789" lon="-4.196180820465088">
        <ele>1467.7052001953125</ele>
        <time>2020-11-02T12:18:29Z</time>
      </trkpt>
      <trkpt lat="40.57781219482422" lon="-4.196250915527344">
        <ele>1467.7052001953125</ele>
        <time>2020-11-02T12:18:31Z</time>
      </trkpt>
      <trkpt lat="40.57783508300781" lon="-4.196320533752441">
        <ele>1467.7052001953125</ele>
        <time>2020-11-02T12:18:33Z</time>
      </trkpt>
      <trkpt lat="40.57786178588867" lon="-4.19638729095459">
        <ele>1467.7052001953125</ele>
        <time>2020-11-02T12:18:35Z</time>
      </trkpt>
      <trkpt lat="40.577884674072266" lon="-4.196456432342529">
        <ele>1467.7052001953125</ele>
        <time>2020-11-02T12:18:37Z</time>
      </trkpt>
      <trkpt lat="40.577911376953125" lon="-4.196522235870361">
        <ele>1466.341552734375</ele>
        <time>2020-11-02T12:18:39Z</time>
      </trkpt>
      <trkpt lat="40.57794189453125" lon="-4.196584701538086">
        <ele>1466.341552734375</ele>
        <time>2020-11-02T12:18:41Z</time>
      </trkpt>
      <trkpt lat="40.577972412109375" lon="-4.196645736694336">
        <ele>1465.1597900390625</ele>
        <time>2020-11-02T12:18:43Z</time>
      </trkpt>
      <trkpt lat="40.57801055908203" lon="-4.1967034339904785">
        <ele>1463.7052001953125</ele>
        <time>2020-11-02T12:18:45Z</time>
      </trkpt>
      <trkpt lat="40.57804870605469" lon="-4.19675874710083">
        <ele>1463.7052001953125</ele>
        <time>2020-11-02T12:18:47Z</time>
      </trkpt>
      <trkpt lat="40.57809066772461" lon="-4.196811199188232">
        <ele>1463.549072265625</ele>
        <time>2020-11-02T12:18:49Z</time>
      </trkpt>
      <trkpt lat="40.57813262939453" lon="-4.196859836578369">
        <ele>1462.3673095703125</ele>
        <time>2020-11-02T12:18:51Z</time>
      </trkpt>
      <trkpt lat="40.57817459106445" lon="-4.196906566619873">
        <ele>1462.3673095703125</ele>
        <time>2020-11-02T12:18:53Z</time>
      </trkpt>
      <trkpt lat="40.578216552734375" lon="-4.196958541870117">
        <ele>1462.3673095703125</ele>
        <time>2020-11-02T12:18:55Z</time>
      </trkpt>
      <trkpt lat="40.578243255615234" lon="-4.197019100189209">
        <ele>1461.185546875</ele>
        <time>2020-11-02T12:18:57Z</time>
      </trkpt>
      <trkpt lat="40.5782585144043" lon="-4.197083473205566">
        <ele>1461.185546875</ele>
        <time>2020-11-02T12:18:59Z</time>
      </trkpt>
      <trkpt lat="40.57823181152344" lon="-4.1971635818481445">
        <ele>1459.912841796875</ele>
        <time>2020-11-02T12:19:02Z</time>
      </trkpt>
      <trkpt lat="40.57817077636719" lon="-4.197215557098389">
        <ele>1459.912841796875</ele>
        <time>2020-11-02T12:19:05Z</time>
      </trkpt>
      <trkpt lat="40.578094482421875" lon="-4.197253227233887">
        <ele>1459.912841796875</ele>
        <time>2020-11-02T12:19:08Z</time>
      </trkpt>
      <trkpt lat="40.57804489135742" lon="-4.197273254394531">
        <ele>1459.912841796875</ele>
        <time>2020-11-02T12:19:10Z</time>
      </trkpt>
      <trkpt lat="40.57798767089844" lon="-4.197287082672119">
        <ele>1459.912841796875</ele>
        <time>2020-11-02T12:19:12Z</time>
      </trkpt>
      <trkpt lat="40.57793426513672" lon="-4.197299480438232">
        <ele>1459.912841796875</ele>
        <time>2020-11-02T12:19:14Z</time>
      </trkpt>
      <trkpt lat="40.577880859375" lon="-4.197311878204346">
        <ele>1459.912841796875</ele>
        <time>2020-11-02T12:19:16Z</time>
      </trkpt>
      <trkpt lat="40.577823638916016" lon="-4.197322368621826">
        <ele>1459.912841796875</ele>
        <time>2020-11-02T12:19:18Z</time>
      </trkpt>
      <trkpt lat="40.5777702331543" lon="-4.197332859039307">
        <ele>1459.912841796875</ele>
        <time>2020-11-02T12:19:20Z</time>
      </trkpt>
      <trkpt lat="40.57771682739258" lon="-4.1973419189453125">
        <ele>1459.912841796875</ele>
        <time>2020-11-02T12:19:22Z</time>
      </trkpt>
      <trkpt lat="40.57766342163086" lon="-4.197350025177002">
        <ele>1458.64013671875</ele>
        <time>2020-11-02T12:19:24Z</time>
      </trkpt>
      <trkpt lat="40.57760238647461" lon="-4.197352886199951">
        <ele>1458.64013671875</ele>
        <time>2020-11-02T12:19:26Z</time>
      </trkpt>
      <trkpt lat="40.577545166015625" lon="-4.197359561920166">
        <ele>1458.64013671875</ele>
        <time>2020-11-02T12:19:28Z</time>
      </trkpt>
      <trkpt lat="40.577491760253906" lon="-4.197373867034912">
        <ele>1458.64013671875</ele>
        <time>2020-11-02T12:19:30Z</time>
      </trkpt>
      <trkpt lat="40.57743835449219" lon="-4.197393894195557">
        <ele>1458.64013671875</ele>
        <time>2020-11-02T12:19:32Z</time>
      </trkpt>
      <trkpt lat="40.577388763427734" lon="-4.197421073913574">
        <ele>1458.64013671875</ele>
        <time>2020-11-02T12:19:34Z</time>
      </trkpt>
      <trkpt lat="40.57734298706055" lon="-4.197457313537598">
        <ele>1458.64013671875</ele>
        <time>2020-11-02T12:19:36Z</time>
      </trkpt>
      <trkpt lat="40.577301025390625" lon="-4.197504997253418">
        <ele>1457.367431640625</ele>
        <time>2020-11-02T12:19:38Z</time>
      </trkpt>
      <trkpt lat="40.577266693115234" lon="-4.197558879852295">
        <ele>1457.367431640625</ele>
        <time>2020-11-02T12:19:40Z</time>
      </trkpt>
      <trkpt lat="40.57723617553711" lon="-4.197620868682861">
        <ele>1457.367431640625</ele>
        <time>2020-11-02T12:19:42Z</time>
      </trkpt>
      <trkpt lat="40.57720947265625" lon="-4.197690486907959">
        <ele>1457.367431640625</ele>
        <time>2020-11-02T12:19:44Z</time>
      </trkpt>
      <trkpt lat="40.57719039916992" lon="-4.197763442993164">
        <ele>1456.0037841796875</ele>
        <time>2020-11-02T12:19:46Z</time>
      </trkpt>
      <trkpt lat="40.57717514038086" lon="-4.197836399078369">
        <ele>1456.0037841796875</ele>
        <time>2020-11-02T12:19:48Z</time>
      </trkpt>
      <trkpt lat="40.57716369628906" lon="-4.197912216186523">
        <ele>1456.0037841796875</ele>
        <time>2020-11-02T12:19:50Z</time>
      </trkpt>
      <trkpt lat="40.57715606689453" lon="-4.1979899406433105">
        <ele>1456.0037841796875</ele>
        <time>2020-11-02T12:19:52Z</time>
      </trkpt>
      <trkpt lat="40.5771484375" lon="-4.198066234588623">
        <ele>1456.0037841796875</ele>
        <time>2020-11-02T12:19:54Z</time>
      </trkpt>
      <trkpt lat="40.577144622802734" lon="-4.198141098022461">
        <ele>1456.0037841796875</ele>
        <time>2020-11-02T12:19:56Z</time>
      </trkpt>
      <trkpt lat="40.577144622802734" lon="-4.198214054107666">
        <ele>1456.0037841796875</ele>
        <time>2020-11-02T12:19:58Z</time>
      </trkpt>
      <trkpt lat="40.57714080810547" lon="-4.198287010192871">
        <ele>1456.0037841796875</ele>
        <time>2020-11-02T12:20:00Z</time>
      </trkpt>
      <trkpt lat="40.5771369934082" lon="-4.198361873626709">
        <ele>1456.0037841796875</ele>
        <time>2020-11-02T12:20:02Z</time>
      </trkpt>
      <trkpt lat="40.57712936401367" lon="-4.1984357833862305">
        <ele>1456.0037841796875</ele>
        <time>2020-11-02T12:20:04Z</time>
      </trkpt>
      <trkpt lat="40.577117919921875" lon="-4.19851016998291">
        <ele>1456.0037841796875</ele>
        <time>2020-11-02T12:20:06Z</time>
      </trkpt>
      <trkpt lat="40.57710266113281" lon="-4.198584079742432">
        <ele>1456.0037841796875</ele>
        <time>2020-11-02T12:20:08Z</time>
      </trkpt>
      <trkpt lat="40.57708740234375" lon="-4.198658466339111">
        <ele>1454.7310791015625</ele>
        <time>2020-11-02T12:20:10Z</time>
      </trkpt>
      <trkpt lat="40.57706832885742" lon="-4.19873046875">
        <ele>1454.7310791015625</ele>
        <time>2020-11-02T12:20:12Z</time>
      </trkpt>
      <trkpt lat="40.57705307006836" lon="-4.198802947998047">
        <ele>1454.7310791015625</ele>
        <time>2020-11-02T12:20:14Z</time>
      </trkpt>
      <trkpt lat="40.577030181884766" lon="-4.198876857757568">
        <ele>1454.7310791015625</ele>
        <time>2020-11-02T12:20:16Z</time>
      </trkpt>
      <trkpt lat="40.57700729370117" lon="-4.198945999145508">
        <ele>1454.7310791015625</ele>
        <time>2020-11-02T12:20:18Z</time>
      </trkpt>
      <trkpt lat="40.576988220214844" lon="-4.199015140533447">
        <ele>1454.7310791015625</ele>
        <time>2020-11-02T12:20:20Z</time>
      </trkpt>
      <trkpt lat="40.57696533203125" lon="-4.1990861892700195">
        <ele>1454.7310791015625</ele>
        <time>2020-11-02T12:20:22Z</time>
      </trkpt>
      <trkpt lat="40.57694625854492" lon="-4.199156284332275">
        <ele>1454.7310791015625</ele>
        <time>2020-11-02T12:20:24Z</time>
      </trkpt>
      <trkpt lat="40.57692337036133" lon="-4.199225902557373">
        <ele>1454.7310791015625</ele>
        <time>2020-11-02T12:20:26Z</time>
      </trkpt>
      <trkpt lat="40.5768928527832" lon="-4.199333190917969">
        <ele>1453.54931640625</ele>
        <time>2020-11-02T12:20:29Z</time>
      </trkpt>
      <trkpt lat="40.576873779296875" lon="-4.199403762817383">
        <ele>1453.54931640625</ele>
        <time>2020-11-02T12:20:31Z</time>
      </trkpt>
      <trkpt lat="40.57685089111328" lon="-4.199471473693848">
        <ele>1452.276611328125</ele>
        <time>2020-11-02T12:20:33Z</time>
      </trkpt>
      <trkpt lat="40.57682800292969" lon="-4.199536323547363">
        <ele>1452.276611328125</ele>
        <time>2020-11-02T12:20:35Z</time>
      </trkpt>
      <trkpt lat="40.57678985595703" lon="-4.1996331214904785">
        <ele>1452.276611328125</ele>
        <time>2020-11-02T12:20:38Z</time>
      </trkpt>
      <trkpt lat="40.57676696777344" lon="-4.199699878692627">
        <ele>1452.276611328125</ele>
        <time>2020-11-02T12:20:40Z</time>
      </trkpt>
      <trkpt lat="40.576744079589844" lon="-4.199765682220459">
        <ele>1452.276611328125</ele>
        <time>2020-11-02T12:20:42Z</time>
      </trkpt>
      <trkpt lat="40.576725006103516" lon="-4.199831485748291">
        <ele>1452.276611328125</ele>
        <time>2020-11-02T12:20:44Z</time>
      </trkpt>
      <trkpt lat="40.57670211791992" lon="-4.19989538192749">
        <ele>1452.276611328125</ele>
        <time>2020-11-02T12:20:46Z</time>
      </trkpt>
      <trkpt lat="40.576683044433594" lon="-4.199960708618164">
        <ele>1452.276611328125</ele>
        <time>2020-11-02T12:20:48Z</time>
      </trkpt>
      <trkpt lat="40.57666015625" lon="-4.2000274658203125">
        <ele>1452.276611328125</ele>
        <time>2020-11-02T12:20:50Z</time>
      </trkpt>
      <trkpt lat="40.576637268066406" lon="-4.200095176696777">
        <ele>1446.9215087890625</ele>
        <time>2020-11-02T12:20:52Z</time>
      </trkpt>
      <trkpt lat="40.57661819458008" lon="-4.200162887573242">
        <ele>1446.9215087890625</ele>
        <time>2020-11-02T12:20:54Z</time>
      </trkpt>
      <trkpt lat="40.576595306396484" lon="-4.200230121612549">
        <ele>1446.9215087890625</ele>
        <time>2020-11-02T12:20:56Z</time>
      </trkpt>
      <trkpt lat="40.57657241821289" lon="-4.200296878814697">
        <ele>1445.73974609375</ele>
        <time>2020-11-02T12:20:58Z</time>
      </trkpt>
      <trkpt lat="40.5765495300293" lon="-4.2003655433654785">
        <ele>1445.73974609375</ele>
        <time>2020-11-02T12:21:00Z</time>
      </trkpt>
      <trkpt lat="40.57652282714844" lon="-4.200432777404785">
        <ele>1445.73974609375</ele>
        <time>2020-11-02T12:21:02Z</time>
      </trkpt>
      <trkpt lat="40.576499938964844" lon="-4.200498580932617">
        <ele>1444.5579833984375</ele>
        <time>2020-11-02T12:21:04Z</time>
      </trkpt>
      <trkpt lat="40.576480865478516" lon="-4.200567722320557">
        <ele>1444.5579833984375</ele>
        <time>2020-11-02T12:21:06Z</time>
      </trkpt>
      <trkpt lat="40.57645797729492" lon="-4.200634956359863">
        <ele>1444.5579833984375</ele>
        <time>2020-11-02T12:21:08Z</time>
      </trkpt>
      <trkpt lat="40.576438903808594" lon="-4.2007036209106445">
        <ele>1443.2852783203125</ele>
        <time>2020-11-02T12:21:10Z</time>
      </trkpt>
      <trkpt lat="40.5764045715332" lon="-4.200805187225342">
        <ele>1443.2852783203125</ele>
        <time>2020-11-02T12:21:13Z</time>
      </trkpt>
      <trkpt lat="40.57638168334961" lon="-4.200873851776123">
        <ele>1443.2852783203125</ele>
        <time>2020-11-02T12:21:15Z</time>
      </trkpt>
      <trkpt lat="40.57634735107422" lon="-4.2009758949279785">
        <ele>1443.2852783203125</ele>
        <time>2020-11-02T12:21:18Z</time>
      </trkpt>
      <trkpt lat="40.576324462890625" lon="-4.201045989990234">
        <ele>1443.2852783203125</ele>
        <time>2020-11-02T12:21:20Z</time>
      </trkpt>
      <trkpt lat="40.57630157470703" lon="-4.201114654541016">
        <ele>1443.2852783203125</ele>
        <time>2020-11-02T12:21:22Z</time>
      </trkpt>
      <trkpt lat="40.57627487182617" lon="-4.201178550720215">
        <ele>1443.2852783203125</ele>
        <time>2020-11-02T12:21:24Z</time>
      </trkpt>
      <trkpt lat="40.57624816894531" lon="-4.201242446899414">
        <ele>1443.2852783203125</ele>
        <time>2020-11-02T12:21:26Z</time>
      </trkpt>
      <trkpt lat="40.57622528076172" lon="-4.2013092041015625">
        <ele>1443.2852783203125</ele>
        <time>2020-11-02T12:21:28Z</time>
      </trkpt>
      <trkpt lat="40.57619857788086" lon="-4.201376914978027">
        <ele>1443.2852783203125</ele>
        <time>2020-11-02T12:21:30Z</time>
      </trkpt>
      <trkpt lat="40.576171875" lon="-4.201443195343018">
        <ele>1443.2852783203125</ele>
        <time>2020-11-02T12:21:32Z</time>
      </trkpt>
      <trkpt lat="40.57614517211914" lon="-4.201508522033691">
        <ele>1443.2852783203125</ele>
        <time>2020-11-02T12:21:34Z</time>
      </trkpt>
      <trkpt lat="40.57611846923828" lon="-4.201571464538574">
        <ele>1443.2852783203125</ele>
        <time>2020-11-02T12:21:36Z</time>
      </trkpt>
      <trkpt lat="40.576087951660156" lon="-4.201632976531982">
        <ele>1442.0125732421875</ele>
        <time>2020-11-02T12:21:38Z</time>
      </trkpt>
      <trkpt lat="40.57605743408203" lon="-4.201696395874023">
        <ele>1442.0125732421875</ele>
        <time>2020-11-02T12:21:40Z</time>
      </trkpt>
      <trkpt lat="40.57602310180664" lon="-4.201756000518799">
        <ele>1440.376220703125</ele>
        <time>2020-11-02T12:21:42Z</time>
      </trkpt>
      <trkpt lat="40.57598876953125" lon="-4.201815128326416">
        <ele>1438.5579833984375</ele>
        <time>2020-11-02T12:21:44Z</time>
      </trkpt>
      <trkpt lat="40.575958251953125" lon="-4.20187520980835">
        <ele>1437.0125732421875</ele>
        <time>2020-11-02T12:21:46Z</time>
      </trkpt>
      <trkpt lat="40.57592010498047" lon="-4.201931953430176">
        <ele>1435.830810546875</ele>
        <time>2020-11-02T12:21:48Z</time>
      </trkpt>
      <trkpt lat="40.57588195800781" lon="-4.201982498168945">
        <ele>1435.830810546875</ele>
        <time>2020-11-02T12:21:50Z</time>
      </trkpt>
      <trkpt lat="40.575801849365234" lon="-4.202073574066162">
        <ele>1434.55810546875</ele>
        <time>2020-11-02T12:21:54Z</time>
      </trkpt>
      <trkpt lat="40.57575607299805" lon="-4.202110290527344">
        <ele>1434.55810546875</ele>
        <time>2020-11-02T12:21:56Z</time>
      </trkpt>
      <trkpt lat="40.575714111328125" lon="-4.202146053314209">
        <ele>1434.55810546875</ele>
        <time>2020-11-02T12:21:58Z</time>
      </trkpt>
      <trkpt lat="40.57566452026367" lon="-4.202182769775391">
        <ele>1433.285400390625</ele>
        <time>2020-11-02T12:22:00Z</time>
      </trkpt>
      <trkpt lat="40.575618743896484" lon="-4.202221870422363">
        <ele>1433.285400390625</ele>
        <time>2020-11-02T12:22:02Z</time>
      </trkpt>
      <trkpt lat="40.5755729675293" lon="-4.202261924743652">
        <ele>1433.285400390625</ele>
        <time>2020-11-02T12:22:04Z</time>
      </trkpt>
      <trkpt lat="40.57552719116211" lon="-4.202300548553467">
        <ele>1432.1036376953125</ele>
        <time>2020-11-02T12:22:06Z</time>
      </trkpt>
      <trkpt lat="40.57545471191406" lon="-4.2023515701293945">
        <ele>1432.1036376953125</ele>
        <time>2020-11-02T12:22:09Z</time>
      </trkpt>
      <trkpt lat="40.575408935546875" lon="-4.20237922668457">
        <ele>1432.1036376953125</ele>
        <time>2020-11-02T12:22:11Z</time>
      </trkpt>
      <trkpt lat="40.57535934448242" lon="-4.202409267425537">
        <ele>1430.921875</ele>
        <time>2020-11-02T12:22:13Z</time>
      </trkpt>
      <trkpt lat="40.57530975341797" lon="-4.202430248260498">
        <ele>1430.921875</ele>
        <time>2020-11-02T12:22:15Z</time>
      </trkpt>
      <trkpt lat="40.57525634765625" lon="-4.202443599700928">
        <ele>1430.921875</ele>
        <time>2020-11-02T12:22:17Z</time>
      </trkpt>
      <trkpt lat="40.57520294189453" lon="-4.202456474304199">
        <ele>1430.921875</ele>
        <time>2020-11-02T12:22:19Z</time>
      </trkpt>
      <trkpt lat="40.57514953613281" lon="-4.202470779418945">
        <ele>1430.921875</ele>
        <time>2020-11-02T12:22:21Z</time>
      </trkpt>
      <trkpt lat="40.57509994506836" lon="-4.202481746673584">
        <ele>1432.1036376953125</ele>
        <time>2020-11-02T12:22:23Z</time>
      </trkpt>
      <trkpt lat="40.575050354003906" lon="-4.202486515045166">
        <ele>1432.1036376953125</ele>
        <time>2020-11-02T12:22:25Z</time>
      </trkpt>
      <trkpt lat="40.57496643066406" lon="-4.202492713928223">
        <ele>1432.1036376953125</ele>
        <time>2020-11-02T12:22:28Z</time>
      </trkpt>
      <trkpt lat="40.57490921020508" lon="-4.202499866485596">
        <ele>1432.1036376953125</ele>
        <time>2020-11-02T12:22:30Z</time>
      </trkpt>
      <trkpt lat="40.57484817504883" lon="-4.2025041580200195">
        <ele>1432.1036376953125</ele>
        <time>2020-11-02T12:22:32Z</time>
      </trkpt>
      <trkpt lat="40.574790954589844" lon="-4.202511787414551">
        <ele>1430.8309326171875</ele>
        <time>2020-11-02T12:22:34Z</time>
      </trkpt>
      <trkpt lat="40.574729919433594" lon="-4.202520847320557">
        <ele>1430.8309326171875</ele>
        <time>2020-11-02T12:22:36Z</time>
      </trkpt>
      <trkpt lat="40.57467269897461" lon="-4.202532768249512">
        <ele>1430.8309326171875</ele>
        <time>2020-11-02T12:22:38Z</time>
      </trkpt>
      <trkpt lat="40.574615478515625" lon="-4.202548027038574">
        <ele>1429.5582275390625</ele>
        <time>2020-11-02T12:22:40Z</time>
      </trkpt>
      <trkpt lat="40.57455825805664" lon="-4.2025628089904785">
        <ele>1429.5582275390625</ele>
        <time>2020-11-02T12:22:42Z</time>
      </trkpt>
      <trkpt lat="40.574501037597656" lon="-4.20257568359375">
        <ele>1429.5582275390625</ele>
        <time>2020-11-02T12:22:44Z</time>
      </trkpt>
      <trkpt lat="40.57444381713867" lon="-4.202583312988281">
        <ele>1428.194580078125</ele>
        <time>2020-11-02T12:22:46Z</time>
      </trkpt>
      <trkpt lat="40.57438659667969" lon="-4.202585697174072">
        <ele>1428.194580078125</ele>
        <time>2020-11-02T12:22:48Z</time>
      </trkpt>
      <trkpt lat="40.57432556152344" lon="-4.202585220336914">
        <ele>1428.194580078125</ele>
        <time>2020-11-02T12:22:50Z</time>
      </trkpt>
      <trkpt lat="40.57426834106445" lon="-4.2025861740112305">
        <ele>1429.6419677734375</ele>
        <time>2020-11-02T12:22:52Z</time>
      </trkpt>
      <trkpt lat="40.57421112060547" lon="-4.202587127685547">
        <ele>1429.6419677734375</ele>
        <time>2020-11-02T12:22:54Z</time>
      </trkpt>
      <trkpt lat="40.57415008544922" lon="-4.2025885581970215">
        <ele>1428.2783203125</ele>
        <time>2020-11-02T12:22:56Z</time>
      </trkpt>
      <trkpt lat="40.574092864990234" lon="-4.202589511871338">
        <ele>1428.2783203125</ele>
        <time>2020-11-02T12:22:58Z</time>
      </trkpt>
      <trkpt lat="40.57403564453125" lon="-4.20259428024292">
        <ele>1426.9146728515625</ele>
        <time>2020-11-02T12:23:00Z</time>
      </trkpt>
      <trkpt lat="40.57398223876953" lon="-4.202601432800293">
        <ele>1426.9146728515625</ele>
        <time>2020-11-02T12:23:02Z</time>
      </trkpt>
      <trkpt lat="40.57392501831055" lon="-4.202606201171875">
        <ele>1425.73291015625</ele>
        <time>2020-11-02T12:23:04Z</time>
      </trkpt>
      <trkpt lat="40.57387161254883" lon="-4.202611446380615">
        <ele>1425.73291015625</ele>
        <time>2020-11-02T12:23:06Z</time>
      </trkpt>
      <trkpt lat="40.573814392089844" lon="-4.202615737915039">
        <ele>1424.3692626953125</ele>
        <time>2020-11-02T12:23:08Z</time>
      </trkpt>
      <trkpt lat="40.57375717163086" lon="-4.20261812210083">
        <ele>1423.0965576171875</ele>
        <time>2020-11-02T12:23:10Z</time>
      </trkpt>
      <trkpt lat="40.573699951171875" lon="-4.202621936798096">
        <ele>1423.0965576171875</ele>
        <time>2020-11-02T12:23:12Z</time>
      </trkpt>
      <trkpt lat="40.5736198425293" lon="-4.202633857727051">
        <ele>1421.8238525390625</ele>
        <time>2020-11-02T12:23:15Z</time>
      </trkpt>
      <trkpt lat="40.573570251464844" lon="-4.202647686004639">
        <ele>1421.8238525390625</ele>
        <time>2020-11-02T12:23:17Z</time>
      </trkpt>
      <trkpt lat="40.573516845703125" lon="-4.202665328979492">
        <ele>1421.8238525390625</ele>
        <time>2020-11-02T12:23:19Z</time>
      </trkpt>
      <trkpt lat="40.573463439941406" lon="-4.202681541442871">
        <ele>1420.5511474609375</ele>
        <time>2020-11-02T12:23:21Z</time>
      </trkpt>
      <trkpt lat="40.57341003417969" lon="-4.202693462371826">
        <ele>1420.5511474609375</ele>
        <time>2020-11-02T12:23:23Z</time>
      </trkpt>
      <trkpt lat="40.57335662841797" lon="-4.202706336975098">
        <ele>1419.1875</ele>
        <time>2020-11-02T12:23:25Z</time>
      </trkpt>
      <trkpt lat="40.57330322265625" lon="-4.202719688415527">
        <ele>1419.1875</ele>
        <time>2020-11-02T12:23:27Z</time>
      </trkpt>
      <trkpt lat="40.5732536315918" lon="-4.202737808227539">
        <ele>1419.1875</ele>
        <time>2020-11-02T12:23:29Z</time>
      </trkpt>
      <trkpt lat="40.57317352294922" lon="-4.2027716636657715">
        <ele>1417.914794921875</ele>
        <time>2020-11-02T12:23:32Z</time>
      </trkpt>
      <trkpt lat="40.5731201171875" lon="-4.202803134918213">
        <ele>1417.914794921875</ele>
        <time>2020-11-02T12:23:34Z</time>
      </trkpt>
      <trkpt lat="40.57307052612305" lon="-4.202836990356445">
        <ele>1416.7330322265625</ele>
        <time>2020-11-02T12:23:36Z</time>
      </trkpt>
      <trkpt lat="40.57301712036133" lon="-4.2028727531433105">
        <time>2020-11-02T12:23:38Z</time>
      </trkpt>
      <trkpt lat="40.57297134399414" lon="-4.202915668487549">
        <time>2020-11-02T12:23:40Z</time>
      </trkpt>
      <trkpt lat="40.57292556762695" lon="-4.202964782714844">
        <time>2020-11-02T12:23:42Z</time>
      </trkpt>
      <trkpt lat="40.57288360595703" lon="-4.203012466430664">
        <time>2020-11-02T12:23:44Z</time>
      </trkpt>
      <trkpt lat="40.57284164428711" lon="-4.203062534332275">
        <time>2020-11-02T12:23:46Z</time>
      </trkpt>
      <trkpt lat="40.57279968261719" lon="-4.2031168937683105">
        <time>2020-11-02T12:23:48Z</time>
      </trkpt>
      <trkpt lat="40.57276153564453" lon="-4.203178405761719">
        <time>2020-11-02T12:23:50Z</time>
      </trkpt>
      <trkpt lat="40.57272720336914" lon="-4.203237533569336">
        <time>2020-11-02T12:23:52Z</time>
      </trkpt>
      <trkpt lat="40.57269287109375" lon="-4.203306198120117">
        <time>2020-11-02T12:23:54Z</time>
      </trkpt>
      <trkpt lat="40.57266616821289" lon="-4.203373432159424">
        <time>2020-11-02T12:23:56Z</time>
      </trkpt>
    </trkseg>
  </trk>
</gpx>
